# Wetter Temperatur Luftdruck Luftfeuchtigkeit Sichtweite Windgeschwindigkeit Windrichtung Zeit
1 Clear 24 1014 43 10000 3.13 228 11:31 14.08.2022
2 Clear 22 1014 52 10000 2.57 210 10:26 14.08.2022
3 Clear 18 1014 68 10000 1.03 0 08:20 14.08.2022
4 Clear 20 1014 66 10000 2.06 350 06:20 14.08.2022
5 Clear 21 1015 64 9000 1.34 180 02:35 14.08.2022
6 Clear 23 1015 54 10000 3.09 140 23:23 13.08.2022
7 Clear 24 1015 51 10000 3.6 120 22:28 13.08.2022
8 Clear 26 1015 44 10000 7.72 170 20:58 13.08.2022
9 Clear 27 1015 43 10000 7.72 170 20:19 13.08.2022
10 Clouds 26 1017 43 10000 5.66 180 19:20 13.08.2022
11 Clouds 27 1005 43 10000 8.75 180 17:35 13.08.2022
12 Clouds 27 1019 43 10000 10.29 190 15:18 13.08.2022
13 Clouds 27 1018 44 10000 8.23 190 14:24 13.08.2022
14 Clouds 27 1018 43 10000 11.83 170 13:37 13.08.2022
15 Clouds 28 1018 38 10000 10.29 180 11:51 13.08.2022
16 Clouds 27 1016 41 9000 2.24 179 09:50 13.08.2022
17 Clouds 26 1016 39 10000 3.09 110 07:50 13.08.2022
18 Clear 28 1015 36 10000 2.06 10 02:56 13.08.2022
19 Clear 31 1016 31 10000 0.51 260 23:46 12.08.2022
20 Haze 33 1015 28 5000 3.6 260 21:40 12.08.2022
21 Haze 35 1015 23 5000 5.66 250 19:51 12.08.2022
22 Haze 36 1015 23 5000 5.66 260 19:26 12.08.2022
23 Clouds 36 1015 22 6000 5.66 220 18:34 12.08.2022
24 Clear 35 1017 23 9000 4.63 210 16:28 12.08.2022
25 Clear 34 1017 25 10000 4.12 240 15:31 12.08.2022
26 Clear 33 1017 26 10000 3.6 180 14:27 12.08.2022
27 Clear 32 1018 28 10000 2.24 215 12:51 12.08.2022
28 Clear 26 1018 41 10000 2.06 60 09:50 12.08.2022
29 Clear 24 1004 44 10000 1.54 120 07:47 12.08.2022
30 Clear 25 1004 42 10000 1.54 90 06:28 12.08.2022
31 Clear 29 1004 36 10000 4.12 100 02:22 12.08.2022
32 Clear 30 1003 34 10000 2.06 360 00:23 12.08.2022
33 Clear 31 1003 34 10000 2.06 270 23:34 11.08.2022
34 Clear 33 1015 32 10000 2.06 240 21:58 11.08.2022
35 Clear 33 1015 31 10000 3.09 240 21:35 11.08.2022
36 Clear 34 1015 27 10000 3.6 180 20:32 11.08.2022
37 Clear 35 1015 26 10000 3.09 200 19:57 11.08.2022
38 Clouds 35 1015 26 10000 3.6 240 19:32 11.08.2022
39 Clouds 35 1015 27 10000 5.14 210 17:47 11.08.2022
40 Clear 34 1016 30 10000 3.13 214 16:32 11.08.2022
41 Clear 33 1017 32 10000 4.63 170 15:20 11.08.2022
42 Clear 31 1018 38 10000 2.57 170 12:41 11.08.2022
43 Clear 27 1018 40 10000 1.54 80 09:54 11.08.2022
44 Clear 25 1003 40 10000 2.06 90 06:59 11.08.2022
45 Clear 27 1016 38 10000 3.09 100 03:45 11.08.2022
46 Clear 30 1016 29 10000 5.81 177 00:35 11.08.2022
47 Clear 33 1004 26 10000 4.02 135 22:22 10.08.2022
48 Clear 34 1014 27 10000 2.06 130 21:24 10.08.2022
49 Clear 35 1014 22 10000 3.6 180 20:47 10.08.2022
50 Clouds 36 1014 20 10000 4.12 150 18:55 10.08.2022
51 Clouds 36 1015 21 10000 3.09 180 17:37 10.08.2022
52 Clouds 35 1016 21 10000 3.09 130 16:33 10.08.2022
53 Clear 32 1018 27 10000 3.6 90 13:35 10.08.2022
54 Clear 30 1018 31 10000 4.12 0 12:35 10.08.2022
55 Clear 26 1020 45 10000 3.6 70 09:24 10.08.2022
56 Clouds 25 1007 49 10000 2.68 80 08:32 10.08.2022
57 Clear 26 1005 49 10000 3.6 90 06:23 10.08.2022
58 Rain 29 1004 26 10000 4.92 173 03:24 10.08.2022
59 Clear 32 1004 23 10000 3.6 290 23:34 09.08.2022
60 Clear 32 1004 23 10000 4.63 280 22:56 09.08.2022
61 Clouds 35 1003 21 10000 2.68 199 21:35 09.08.2022
62 Clouds 36 1016 17 10000 3.58 216 20:26 09.08.2022
63 Clouds 37 1016 17 10000 3.6 0 18:42 09.08.2022
64 Clouds 36 1017 19 10000 3.09 180 17:28 09.08.2022
65 Clouds 36 1017 20 10000 3.6 130 16:40 09.08.2022
66 Clear 35 1018 21 10000 2.57 150 15:58 09.08.2022
67 Clear 31 1020 33 10000 3.6 90 12:52 09.08.2022
68 Clear 25 1020 44 10000 3.09 90 09:39 09.08.2022
69 Clear 25 1007 45 9000 3.09 90 08:50 09.08.2022
70 Clear 24 1007 46 10000 2.68 143 07:52 09.08.2022
71 Clear 26 1004 38 10000 2.24 114 04:25 09.08.2022
72 Clear 30 1004 23 10000 1.03 0 23:27 08.08.2022
73 Clear 31 1003 22 10000 0.89 141 22:55 08.08.2022
74 Clear 32 1003 22 10000 1.03 0 22:22 08.08.2022
75 Clear 34 1016 19 10000 3.6 200 21:22 08.08.2022
76 Clear 35 1015 16 10000 4.47 198 19:51 08.08.2022
77 Clear 36 1015 16 10000 3.09 210 18:50 08.08.2022
78 Clear 35 1016 16 10000 5.14 150 16:47 08.08.2022
79 Clear 35 1017 19 10000 2.57 210 15:40 08.08.2022
80 Clear 33 1017 22 10000 2.57 140 14:29 08.08.2022
81 Clear 30 1018 32 10000 2.57 170 12:27 08.08.2022
82 Clear 26 1018 44 10000 3.09 100 10:19 08.08.2022
83 Clear 23 1017 44 10000 1.54 350 06:54 08.08.2022
84 Clear 26 1016 29 10000 2.57 330 03:31 08.08.2022
85 Clear 30 1016 20 10000 2.57 140 22:42 07.08.2022
86 Clear 33 1015 18 10000 2.06 260 21:40 07.08.2022
87 Clear 34 1014 16 10000 2.68 218 20:42 07.08.2022
88 Clear 35 1014 17 10000 2.57 190 20:18 07.08.2022
89 Clear 35 1014 17 10000 3.58 223 19:41 07.08.2022
90 Clear 35 1015 18 10000 4.12 220 18:36 07.08.2022
91 Clear 34 1016 20 10000 4.12 170 16:55 07.08.2022
92 Clear 34 1016 20 10000 5.81 203 16:35 07.08.2022
93 Clear 34 1017 21 10000 5.14 190 15:24 07.08.2022
94 Clear 31 1018 27 10000 3.58 205 13:37 07.08.2022
95 Clear 29 1018 32 10000 1.79 113 11:58 07.08.2022
96 Clear 26 1018 41 10000 2.57 60 10:35 07.08.2022
97 Clear 24 1017 52 10000 3.09 70 07:59 07.08.2022
98 Clear 27 1017 39 9000 3.6 100 03:32 07.08.2022
99 Clear 28 1017 32 10000 2.06 60 01:45 07.08.2022
100 Clear 32 1016 23 10000 2.57 300 22:25 06.08.2022
101 Clear 34 1016 20 10000 2.24 270 21:18 06.08.2022
102 Clear 35 1016 19 10000 4.12 220 19:41 06.08.2022
103 Clear 36 1016 19 10000 4.63 210 18:33 06.08.2022
104 Clear 35 1017 19 10000 4.12 190 17:37 06.08.2022
105 Clear 33 1018 23 10000 3.6 230 14:52 06.08.2022
106 Clear 31 1019 30 10000 2.06 0 13:49 06.08.2022
107 Clear 29 1020 35 10000 2.57 180 12:19 06.08.2022
108 Clear 26 1019 41 10000 3.09 90 10:33 06.08.2022
109 Clear 25 1019 43 10000 3.09 100 09:21 06.08.2022
110 Clear 27 1017 39 10000 6.17 120 03:55 06.08.2022
111 Clear 30 1016 25 10000 1.54 340 23:56 05.08.2022
112 Clouds 32 1016 23 10000 2.57 330 22:33 05.08.2022
113 Clouds 35 1015 18 10000 3.6 240 20:30 05.08.2022
114 Clouds 36 1015 18 10000 4.02 210 18:53 05.08.2022
115 Clouds 36 1015 18 10000 3.58 225 18:35 05.08.2022
116 Clouds 35 1016 18 10000 4.63 200 16:51 05.08.2022
117 Clear 34 1017 21 10000 4.12 250 15:23 05.08.2022
118 Clear 33 1017 22 10000 3.58 205 14:34 05.08.2022
119 Clear 32 1018 29 10000 2.57 180 13:26 05.08.2022
120 Clear 30 1018 32 10000 2.06 110 12:45 05.08.2022
121 Clear 28 1018 37 10000 2.06 50 10:59 05.08.2022
122 Clear 24 1018 43 10000 1.79 101 08:46 05.08.2022
123 Clouds 24 1017 45 10000 2.57 100 07:33 05.08.2022
124 Clear 29 1016 29 10000 5.14 110 01:52 05.08.2022
125 Clear 31 1014 28 10000 2.06 260 22:43 04.08.2022
126 Clouds 33 1013 23 10000 7.6 355 21:28 04.08.2022
127 Clouds 35 1013 18 10000 3.09 190 20:53 04.08.2022
128 Clouds 36 1013 17 10000 4.12 240 20:33 04.08.2022
129 Clear 36 1013 17 10000 4.63 190 18:57 04.08.2022
130 Clear 36 1014 17 10000 4.63 210 18:33 04.08.2022
131 Clear 35 1015 18 10000 6.69 210 15:51 04.08.2022
132 Clear 32 1016 25 10000 2.24 135 13:26 04.08.2022
133 Clear 29 1017 32 10000 2.57 0 11:39 04.08.2022
134 Clear 27 1017 38 10000 2.68 145 10:20 04.08.2022
135 Clear 24 1016 47 10000 1.79 148 07:45 04.08.2022
136 Clear 28 1015 41 10000 4.63 120 02:48 04.08.2022
137 Clear 30 1014 20 10000 1.34 197 00:33 04.08.2022
138 Clear 30 1014 22 10000 1.03 0 23:39 03.08.2022
139 Clear 35 1013 15 10000 4.63 210 21:31 03.08.2022
140 Clear 36 1013 14 10000 4.63 220 20:21 03.08.2022
141 Clear 37 1013 14 10000 5.14 210 19:24 03.08.2022
142 Clouds 36 1014 18 10000 5.66 220 16:50 03.08.2022
143 Clear 36 1014 20 10000 4.12 0 16:22 03.08.2022
144 Clear 33 1016 31 10000 3.6 140 13:52 03.08.2022
145 Clear 28 1017 43 10000 3.6 100 10:56 03.08.2022
146 Clear 24 1016 54 10000 3.09 330 07:32 03.08.2022
147 Clear 27 1016 46 10000 2.24 78 04:22 03.08.2022
148 Clouds 28 1015 44 10000 2.57 350 03:23 03.08.2022
149 Clear 29 1016 38 10000 3.58 73 00:49 03.08.2022
150 Clouds 32 1016 32 10000 5.36 33 22:43 02.08.2022
151 Thunderstorm 33 1015 27 10000 5.66 360 21:52 02.08.2022
152 Rain 35 1014 26 10000 5.66 190 20:32 02.08.2022
153 Clouds 38 1014 20 10000 3.13 201 18:34 02.08.2022
154 Clear 36 1017 29 10000 3.13 205 15:20 02.08.2022
155 Clear 29 1019 44 10000 2.57 100 10:51 02.08.2022
156 Clear 26 1018 43 10000 2.57 50 08:54 02.08.2022
157 Clear 25 1006 45 10000 2.24 57 07:52 02.08.2022
158 Clear 26 1005 45 10000 2.24 59 06:41 02.08.2022
159 Clear 27 1002 47 10000 2.06 60 04:31 02.08.2022
160 Clear 33 1004 21 10000 2.57 340 23:35 01.08.2022
161 Clouds 34 1003 21 10000 1.54 190 22:22 01.08.2022
162 Clouds 37 1016 18 10000 1.79 156 20:47 01.08.2022
163 Clouds 37 1016 18 10000 3.09 310 19:22 01.08.2022
164 Clouds 38 1016 17 10000 2.57 170 17:57 01.08.2022
165 Clouds 37 1017 18 10000 2.57 0 16:52 01.08.2022
166 Clouds 37 1017 19 10000 2.68 64 15:52 01.08.2022
167 Clouds 36 1018 19 10000 2.57 90 15:30 01.08.2022
168 Clouds 34 1019 31 10000 2.68 20 13:48 01.08.2022
169 Clouds 30 1019 48 9000 3.09 80 11:50 01.08.2022
170 Clouds 30 1019 48 9000 3.09 80 11:50 01.08.2022
171 Clouds 26 1020 52 10000 3.09 60 09:39 01.08.2022
172 Clouds 24 1007 52 10000 2.57 70 08:22 01.08.2022
173 Clear 26 1005 45 10000 2.24 31 04:47 01.08.2022
174 Clear 29 1005 32 10000 3.13 82 02:32 01.08.2022
175 Clear 31 1005 27 10000 3.6 350 23:54 31.07.2022
176 Clear 33 1004 27 10000 2.57 300 22:36 31.07.2022
177 Clear 33 1004 27 10000 2.57 300 22:36 31.07.2022
178 Clear 35 1017 25 10000 2.06 220 20:50 31.07.2022
179 Clear 36 1017 24 10000 2.57 280 19:41 31.07.2022
180 Clouds 36 1017 26 10000 2.57 210 17:47 31.07.2022
181 Clear 34 1019 33 10000 3.09 180 15:35 31.07.2022
182 Clear 31 1020 44 10000 2.57 130 13:41 31.07.2022
183 Clear 28 1020 52 10000 3.09 90 11:55 31.07.2022
184 Clear 24 1020 56 10000 3.6 70 09:36 31.07.2022
185 Clear 23 1006 63 10000 1.54 10 06:48 31.07.2022
186 Clear 25 1007 52 10000 2.06 340 02:57 31.07.2022
187 Clear 28 1006 45 10000 2.06 80 23:35 30.07.2022
188 Clouds 28 998 45 10000 2.68 98 22:19 30.07.2022
189 Clouds 29 1001 38 10000 3.09 360 21:48 30.07.2022
190 Clouds 28 991 49 10000 8.23 290 20:56 30.07.2022
191 Clouds 28 1003 46 10000 8.75 290 19:58 30.07.2022
192 Thunderstorm 28 995 54 1500 11.83 180 18:53 30.07.2022
193 Clouds 37 1016 21 10000 3.6 170 17:42 30.07.2022
194 Clear 35 1018 29 10000 4.12 90 15:49 30.07.2022
195 Clear 34 1019 32 10000 4.63 110 15:21 30.07.2022
196 Clear 30 1020 45 10000 3.6 40 12:55 30.07.2022
197 Clear 28 1020 51 10000 4.63 40 11:55 30.07.2022
198 Clear 25 1021 50 10000 3.6 40 10:28 30.07.2022
199 Clear 24 1020 51 10000 5.14 30 09:47 30.07.2022
200 Clear 22 1020 53 10000 4.63 40 07:54 30.07.2022
201 Clear 25 1005 45 10000 4.92 43 02:37 30.07.2022
202 Clear 26 1019 42 10000 5.36 59 01:49 30.07.2022
203 Clear 32 1003 19 10000 2.57 220 22:25 29.07.2022
204 Clear 34 1016 19 10000 3.6 220 21:23 29.07.2022
205 Clear 35 1015 14 10000 4.63 220 19:57 29.07.2022
206 Clear 35 1015 15 10000 6.17 220 17:53 29.07.2022
207 Clear 34 1016 20 10000 6.17 230 15:26 29.07.2022
208 Clear 31 1017 28 10000 4.47 222 13:18 29.07.2022
209 Clear 27 1017 41 10000 1.03 0 10:42 29.07.2022
210 Clear 24 1016 45 10000 2.24 75 08:50 29.07.2022
211 Clear 23 1003 49 10000 1.79 48 07:54 29.07.2022
212 Clear 27 1002 32 10000 2.57 290 01:52 29.07.2022
213 Clear 31 1001 25 10000 5.14 250 22:49 28.07.2022
214 Clouds 33 1013 21 10000 6.69 230 21:20 28.07.2022
215 Clouds 34 1012 19 10000 6.69 230 20:31 28.07.2022
216 Clear 34 1012 18 10000 4.92 231 19:43 28.07.2022
217 Clouds 35 1012 17 10000 6.69 240 18:50 28.07.2022
218 Clouds 34 1013 16 10000 5.14 240 17:43 28.07.2022
219 Clouds 35 1001 16 10000 5.66 220 16:55 28.07.2022
220 Clouds 33 1014 18 10000 4.63 250 15:32 28.07.2022
221 Clear 31 1015 24 10000 3.6 260 13:29 28.07.2022
222 Clear 29 1015 31 10000 2.06 180 11:27 28.07.2022
223 Clear 24 1001 42 10000 2.57 310 06:45 28.07.2022
224 Clear 24 1001 39 10000 2.57 300 05:31 28.07.2022
225 Clear 28 1014 28 10000 1.54 10 01:23 28.07.2022
226 Clear 31 998 29 10000 4.63 220 22:41 27.07.2022
227 Clear 33 1012 27 10000 4.63 230 21:29 27.07.2022
228 Clear 34 1012 19 10000 4.12 220 19:43 27.07.2022
229 Clear 35 1013 20 10000 4.12 240 17:50 27.07.2022
230 Clouds 33 1014 25 10000 4.12 240 15:52 27.07.2022
231 Clouds 33 1015 28 10000 3.09 0 14:58 27.07.2022
232 Clouds 32 1015 30 10000 4.63 180 14:35 27.07.2022
233 Clear 29 1016 46 10000 2.68 173 12:50 27.07.2022
234 Clear 22 1004 52 10000 4.63 40 08:44 27.07.2022
235 Clear 21 1003 54 10000 3.13 34 07:24 27.07.2022
236 Clear 26 1003 42 10000 4.02 59 02:42 27.07.2022
237 Clear 31 1002 27 10000 3.6 350 22:29 26.07.2022
238 Clear 33 1001 25 10000 5.66 330 21:21 26.07.2022
239 Clear 34 1014 23 10000 4.12 320 20:43 26.07.2022
240 Clear 35 1015 20 10000 4.63 200 18:44 26.07.2022
241 Clear 35 1015 20 10000 4.63 200 18:19 26.07.2022
242 Clear 34 1016 20 10000 6.17 300 16:32 26.07.2022
243 Clear 34 1017 21 10000 4.63 170 15:36 26.07.2022
244 Clear 32 1018 26 10000 2.57 150 13:47 26.07.2022
245 Clear 28 1019 37 10000 3.09 50 11:39 26.07.2022
246 Clear 24 1019 49 10000 4.63 50 09:32 26.07.2022
247 Clear 22 1005 53 10000 2.57 360 07:31 26.07.2022
248 Clear 28 1006 19 10000 2.06 80 00:57 26.07.2022
249 Clear 30 1006 16 10000 2.57 330 23:33 25.07.2022
250 Clear 32 1005 15 10000 4.12 310 22:27 25.07.2022
251 Clouds 33 1018 15 10000 5.14 310 21:43 25.07.2022
252 Clouds 35 1005 14 10000 5.66 310 20:42 25.07.2022
253 Clouds 35 1005 14 10000 6.17 300 19:51 25.07.2022
254 Clouds 37 1005 14 10000 5.14 220 18:23 25.07.2022
255 Clear 37 1017 12 10000 5.66 220 17:31 25.07.2022
256 Clear 36 1006 11 10000 8.23 240 15:30 25.07.2022
257 Clear 33 1008 17 10000 5.66 230 12:29 25.07.2022
258 Clear 28 1020 31 10000 1.54 250 10:32 25.07.2022
259 Clear 25 1020 28 9000 2.57 230 06:51 25.07.2022
260 Clear 32 1006 19 10000 4.47 269 23:56 24.07.2022
261 Clear 32 1005 19 10000 5.14 240 23:19 24.07.2022
262 Clear 33 1005 17 10000 4.63 230 22:35 24.07.2022
263 Clear 34 1019 16 10000 6.17 240 21:28 24.07.2022
264 Clear 35 1018 14 10000 8.23 250 20:53 24.07.2022
265 Clear 36 1006 14 10000 8.75 230 20:29 24.07.2022
266 Clear 38 1006 12 10000 10.8 250 18:57 24.07.2022
267 Clear 38 1018 11 10000 7.2 220 16:51 24.07.2022
268 Clear 37 1019 13 10000 6.69 220 15:53 24.07.2022
269 Clear 36 1020 17 10000 5.66 230 14:40 24.07.2022
270 Clear 34 1021 18 10000 5.14 220 13:25 24.07.2022
271 Clear 32 1021 19 10000 5.66 230 12:19 24.07.2022
272 Clear 30 1021 21 10000 2.57 220 11:26 24.07.2022
273 Clear 26 1021 23 10000 1.79 192 09:23 24.07.2022
274 Clear 22 1008 26 10000 1.54 110 07:53 24.07.2022
275 Clear 24 1004 23 10000 1.54 350 06:34 24.07.2022
276 Clear 27 1004 18 10000 4.12 260 02:33 24.07.2022
277 Clear 33 1005 15 10000 3.09 240 22:31 23.07.2022
278 Clear 36 1018 10 10000 5.66 240 20:41 23.07.2022
279 Clear 38 1018 8 10000 6.17 250 18:52 23.07.2022
280 Clear 38 1018 9 10000 6.69 250 17:48 23.07.2022
281 Clear 38 1006 10 10000 6.17 210 17:24 23.07.2022
282 Clear 37 1019 11 10000 6.69 220 15:55 23.07.2022
283 Clear 36 1019 12 10000 6.69 230 15:21 23.07.2022
284 Clear 36 1007 12 10000 6.69 230 14:47 23.07.2022
285 Clear 35 1008 13 10000 4.63 210 13:54 23.07.2022
286 Clear 30 1020 24 10000 1.79 190 11:47 23.07.2022
287 Clear 27 1020 33 10000 1.03 0 10:28 23.07.2022
288 Clear 25 1020 42 10000 1.79 70 09:28 23.07.2022
289 Clear 23 1006 34 10000 2.06 10 06:40 23.07.2022
290 Clear 26 1005 21 10000 2.57 340 03:37 23.07.2022
291 Clear 31 1004 18 10000 3.6 250 23:59 22.07.2022
292 Clear 34 1018 17 10000 5.66 250 21:28 22.07.2022
293 Clear 36 1005 17 10000 6.69 260 20:29 22.07.2022
294 Clouds 36 1018 15 10000 3.58 270 18:41 22.07.2022
295 Clear 37 1006 16 10000 7.15 248 17:38 22.07.2022
296 Clear 35 1019 19 10000 6.69 240 15:35 22.07.2022
297 Clear 32 1020 31 10000 2.06 0 12:41 22.07.2022
298 Clear 27 1020 43 10000 2.06 90 09:56 22.07.2022
299 Clear 26 1020 43 10000 2.57 80 09:21 22.07.2022
300 Clear 25 1006 47 10000 2.06 100 07:51 22.07.2022
301 Clear 27 1005 37 10000 2.57 130 04:22 22.07.2022
302 Clear 32 1005 22 10000 2.06 250 23:29 21.07.2022
303 Clear 35 1018 19 10000 2.57 240 21:41 21.07.2022
304 Clear 37 1017 14 10000 3.09 240 19:42 21.07.2022
305 Clear 37 1018 16 10000 4.63 220 18:30 21.07.2022
306 Clear 37 1018 17 10000 3.09 170 17:21 21.07.2022
307 Clear 36 1019 22 10000 3.13 182 15:58 21.07.2022
308 Clear 34 1020 24 10000 3.09 0 14:46 21.07.2022
309 Clear 33 1021 25 10000 3.6 100 13:53 21.07.2022
310 Clear 30 1022 30 10000 3.09 70 11:54 21.07.2022
311 Clear 27 1022 38 10000 3.09 70 09:54 21.07.2022
312 Clear 25 1022 41 10000 3.09 70 08:53 21.07.2022
313 Clear 25 1022 42 10000 2.57 50 08:53 21.07.2022
314 Clear 24 1009 44 10000 2.57 60 07:50 21.07.2022
315 Clear 24 1008 43 10000 2.06 70 06:27 21.07.2022
316 Clear 27 1007 40 10000 2.57 90 02:49 21.07.2022
317 Clear 31 1006 19 10000 2.06 210 22:47 20.07.2022
318 Clear 33 1006 19 10000 2.57 200 22:19 20.07.2022
319 Clouds 36 1018 12 10000 2.06 0 20:46 20.07.2022
320 Clouds 36 1018 12 10000 2.06 330 19:47 20.07.2022
321 Clouds 36 1019 12 10000 2.57 160 18:54 20.07.2022
322 Clear 36 1019 13 10000 2.06 270 18:31 20.07.2022
323 Clear 36 1019 13 10000 2.57 10 17:28 20.07.2022
324 Clear 34 1020 15 10000 2.68 153 15:38 20.07.2022
325 Clear 34 1020 17 9000 3.6 120 14:49 20.07.2022
326 Clear 31 1021 22 10000 2.68 78 13:21 20.07.2022
327 Clear 29 1021 26 10000 3.09 40 11:29 20.07.2022
328 Clear 22 1007 34 10000 2.06 360 06:49 20.07.2022
329 Clear 25 1006 27 10000 3.09 270 01:56 20.07.2022
330 Clear 27 1006 25 10000 3.09 320 00:42 20.07.2022
331 Clear 29 1005 18 10000 4.12 250 22:38 19.07.2022
332 Clear 30 1005 17 10000 4.12 250 22:20 19.07.2022
333 Clear 32 1018 14 10000 6.69 250 20:50 19.07.2022
334 Clear 33 1017 14 10000 7.2 210 19:37 19.07.2022
335 Clear 33 1018 14 10000 7.72 230 18:42 19.07.2022
336 Clear 34 1006 14 10000 7.72 230 17:55 19.07.2022
337 Clear 32 1007 17 10000 7.72 240 15:50 19.07.2022
338 Clear 31 1008 22 10000 5.66 220 13:51 19.07.2022
339 Clear 28 1020 31 10000 4.63 220 11:34 19.07.2022
340 Clear 26 1020 34 10000 5.14 240 09:58 19.07.2022
341 Clear 24 1020 35 10000 3.6 190 08:48 19.07.2022
342 Clear 23 1020 35 10000 4.02 231 08:21 19.07.2022
343 Clear 25 1006 34 10000 3.09 210 07:18 19.07.2022
344 Clear 26 1005 32 10000 2.68 225 05:26 19.07.2022
345 Clear 27 1005 32 10000 2.57 180 04:41 19.07.2022
346 Clear 32 1004 26 10000 3.09 200 00:31 19.07.2022
347 Clouds 34 1004 24 10000 4.12 240 23:21 18.07.2022
348 Clouds 34 1017 21 10000 5.14 240 22:55 18.07.2022
349 Clear 36 1016 17 10000 4.63 230 21:53 18.07.2022
350 Clouds 37 1004 15 10000 6.69 170 20:50 18.07.2022
351 Clouds 38 1016 14 10000 5.66 210 19:24 18.07.2022
352 Clear 38 1006 15 10000 4.63 180 16:52 18.07.2022
353 Clear 36 1019 18 10000 4.12 180 15:42 18.07.2022
354 Clear 35 1020 20 10000 4.12 220 14:24 18.07.2022
355 Clear 32 1020 23 10000 3.09 140 12:38 18.07.2022
356 Clear 29 1021 29 10000 3.09 120 10:37 18.07.2022
357 Clear 27 1021 32 10000 2.06 70 08:51 18.07.2022
358 Clear 26 1007 34 10000 1.79 76 06:58 18.07.2022
359 Clear 32 1006 20 10000 2.57 150 00:36 18.07.2022
360 Clear 35 1006 20 10000 3.09 160 22:34 17.07.2022
361 Clear 36 1001 19 10000 3.6 160 21:49 17.07.2022
362 Clear 37 1018 16 10000 4.63 140 21:18 17.07.2022
363 Clear 38 1018 14 10000 4.63 150 20:37 17.07.2022
364 Clear 38 1018 14 10000 5.14 140 19:29 17.07.2022
365 Clear 39 1019 14 10000 4.63 140 18:27 17.07.2022
366 Clear 39 1019 14 10000 4.63 150 17:38 17.07.2022
367 Clear 38 1019 14 10000 5.14 160 16:50 17.07.2022
368 Clear 38 1020 14 10000 5.14 150 16:26 17.07.2022
369 Clear 38 1020 14 10000 5.14 150 16:26 17.07.2022
370 Clear 36 1021 17 10000 3.09 160 14:44 17.07.2022
371 Clear 35 1021 20 10000 3.6 130 13:31 17.07.2022
372 Clear 32 1022 26 10000 4.12 130 11:35 17.07.2022
373 Clear 27 1021 34 10000 2.57 60 08:57 17.07.2022
374 Clear 29 1004 26 10000 3.09 90 03:44 17.07.2022
375 Clear 30 1005 25 10000 1.54 330 02:32 17.07.2022
376 Clear 33 1003 19 10000 2.57 200 23:20 16.07.2022
377 Clouds 36 1017 15 10000 4.12 170 21:30 16.07.2022
378 Clouds 39 1017 14 10000 4.63 150 19:30 16.07.2022
379 Clouds 39 1017 13 10000 3.09 160 18:32 16.07.2022
380 Clouds 39 1017 13 10000 3.09 160 18:32 16.07.2022
381 Clear 38 1018 15 10000 3.09 150 16:34 16.07.2022
382 Clear 36 1020 18 10000 3.09 0 13:56 16.07.2022
383 Clear 30 1020 27 10000 3.6 70 10:55 16.07.2022
384 Clear 28 1020 30 10000 3.6 50 09:33 16.07.2022
385 Clear 26 1020 31 10000 3.6 50 08:44 16.07.2022
386 Clear 26 1006 32 10000 3.6 50 08:23 16.07.2022
387 Clear 28 1004 30 10000 2.24 83 04:21 16.07.2022
388 Clear 29 1003 28 10000 2.24 135 02:49 16.07.2022
389 Clear 33 1002 19 10000 2.06 120 23:34 15.07.2022
390 Clear 35 1001 16 10000 2.57 120 22:41 15.07.2022
391 Clear 37 1016 12 10000 3.6 120 21:29 15.07.2022
392 Clear 38 1016 11 10000 4.12 160 20:30 15.07.2022
393 Clear 39 1016 12 10000 4.63 180 18:42 15.07.2022
394 Clear 39 1017 13 10000 4.12 150 17:38 15.07.2022
395 Clear 37 1018 15 10000 4.12 130 14:54 15.07.2022
396 Clear 35 1019 18 10000 4.63 130 13:18 15.07.2022
397 Clear 32 1019 22 10000 3.09 60 11:44 15.07.2022
398 Clear 30 1019 24 10000 5.14 50 10:23 15.07.2022
399 Clear 26 1006 23 10000 2.68 45 06:30 15.07.2022
400 Clear 31 1007 15 10000 2.06 80 01:32 15.07.2022
401 Clear 33 1006 14 10000 2.57 50 00:22 15.07.2022
402 Clear 35 1019 13 10000 3.13 67 22:52 14.07.2022
403 Clear 37 1005 13 10000 3.6 70 21:54 14.07.2022
404 Clear 38 1002 12 10000 4.02 105 21:30 14.07.2022
405 Clear 39 1018 11 10000 4.12 70 20:45 14.07.2022
406 Clear 40 1017 10 10000 4.12 70 20:24 14.07.2022
407 Clear 40 1017 11 10000 3.6 50 19:45 14.07.2022
408 Clear 40 1020 12 10000 3.6 110 16:23 14.07.2022
409 Clear 40 1020 12 10000 2.06 0 15:50 14.07.2022
410 Clear 38 1021 13 10000 3.09 170 14:43 14.07.2022
411 Clear 36 1022 15 10000 2.57 0 13:32 14.07.2022
412 Clear 33 1022 21 10000 1.79 97 12:18 14.07.2022
413 Clear 32 1022 22 10000 1.54 70 11:25 14.07.2022
414 Clear 30 1023 26 10000 2.57 70 10:39 14.07.2022
415 Clear 27 1011 30 10000 2.24 31 08:21 14.07.2022
416 Clear 30 1009 25 10000 3.6 340 03:29 14.07.2022
417 Clear 32 1009 21 10000 2.68 30 00:54 14.07.2022
418 Clear 34 1008 21 10000 2.57 240 23:35 13.07.2022
419 Clear 35 1006 18 10000 1.54 190 22:23 13.07.2022
420 Clear 37 1021 16 10000 2.06 160 21:30 13.07.2022
421 Clear 38 1020 15 10000 1.54 0 20:26 13.07.2022
422 Clear 39 1021 15 10000 3.6 160 17:56 13.07.2022
423 Clear 39 1021 15 10000 3.6 210 16:59 13.07.2022
424 Clear 38 1022 17 10000 2.68 232 15:51 13.07.2022
425 Clear 35 1023 21 10000 2.24 195 13:45 13.07.2022
426 Clear 30 1024 28 10000 2.06 80 11:24 13.07.2022
427 Clear 29 1024 31 10000 2.57 70 10:40 13.07.2022
428 Clear 27 1024 34 10000 2.06 60 09:28 13.07.2022
429 Clear 25 1011 36 10000 2.57 40 08:21 13.07.2022
430 Clear 28 1009 30 10000 1.79 105 04:36 13.07.2022
431 Clear 31 1008 24 10000 2.06 260 00:25 13.07.2022
432 Clear 33 1007 21 10000 2.57 240 22:46 12.07.2022
433 Clear 35 1007 18 10000 2.06 200 21:46 12.07.2022
434 Clouds 37 1020 16 10000 3.09 180 20:53 12.07.2022
435 Clouds 38 1020 14 10000 2.06 180 19:48 12.07.2022
436 Clouds 38 1020 14 10000 3.09 180 18:43 12.07.2022
437 Clouds 37 1021 15 10000 2.06 0 16:36 12.07.2022
438 Clear 35 1022 19 10000 2.57 0 14:32 12.07.2022
439 Clear 35 1022 19 10000 2.57 0 14:32 12.07.2022
440 Clear 33 1023 20 10000 2.57 0 13:35 12.07.2022
441 Clear 30 1022 24 10000 3.09 130 11:54 12.07.2022
442 Clear 28 1022 29 10000 3.09 80 10:27 12.07.2022
443 Clear 26 1022 36 10000 3.09 80 08:57 12.07.2022
444 Clear 25 1008 36 10000 3.09 320 07:48 12.07.2022
445 Clear 26 1007 32 10000 2.57 50 05:47 12.07.2022
446 Clear 26 1007 32 10000 2.57 50 05:29 12.07.2022
447 Clear 31 1006 24 10000 3.6 120 01:31 12.07.2022
448 Clouds 32 1003 22 10000 2.06 320 22:48 11.07.2022
449 Clouds 35 1002 18 10000 1.54 220 21:34 11.07.2022
450 Clouds 36 1003 16 10000 3.6 150 20:33 11.07.2022
451 Clouds 37 1015 14 10000 3.09 140 19:27 11.07.2022
452 Clouds 38 1015 14 10000 4.12 190 18:30 11.07.2022
453 Clouds 37 1016 18 10000 3.13 148 16:31 11.07.2022
454 Clouds 36 1016 21 10000 2.68 195 15:33 11.07.2022
455 Clear 32 1005 27 10000 2.57 40 13:26 11.07.2022
456 Clear 29 1018 33 10000 3.09 70 11:24 11.07.2022
457 Clear 29 1018 33 10000 3.09 70 11:24 11.07.2022
458 Clouds 27 1017 38 10000 3.6 80 10:18 11.07.2022
459 Clouds 26 1017 40 10000 3.6 60 09:40 11.07.2022
460 Clouds 24 1017 43 10000 3.6 50 08:32 11.07.2022
461 Clear 28 1003 25 10000 2.57 60 02:59 11.07.2022
462 Clear 32 1003 16 10000 1.79 28 00:18 11.07.2022
463 Clear 33 1002 17 10000 2.24 21 22:52 10.07.2022
464 Clear 35 1016 15 10000 4.12 150 21:39 10.07.2022
465 Clear 36 1015 15 10000 3.09 170 20:41 10.07.2022
466 Clear 37 1015 14 10000 4.12 220 19:48 10.07.2022
467 Clear 37 1016 14 10000 4.63 210 18:43 10.07.2022
468 Clear 37 1017 15 10000 2.68 248 17:36 10.07.2022
469 Clear 37 1017 15 10000 3.09 0 16:41 10.07.2022
470 Clear 36 1018 16 10000 3.13 280 15:24 10.07.2022
471 Clear 35 1018 20 10000 1.79 189 14:21 10.07.2022
472 Clear 31 1020 32 10000 2.24 60 12:27 10.07.2022
473 Clear 26 1021 40 10000 2.57 80 09:58 10.07.2022
474 Clear 24 1020 39 10000 2.24 57 08:44 10.07.2022
475 Clear 23 1007 41 10000 2.68 69 07:30 10.07.2022
476 Clear 29 1008 22 10000 2.68 70 01:31 10.07.2022
477 Clear 32 1007 21 10000 3.09 200 22:43 09.07.2022
478 Clear 33 1007 21 10000 3.09 200 22:24 09.07.2022
479 Clear 36 1020 17 10000 2.06 180 20:46 09.07.2022
480 Clear 36 1020 17 10000 3.13 281 18:37 09.07.2022
481 Clear 36 1021 17 10000 3.09 0 17:45 09.07.2022
482 Clear 35 1022 18 10000 2.57 0 16:44 09.07.2022
483 Clear 35 1023 19 10000 3.09 0 15:41 09.07.2022
484 Clear 33 1023 24 10000 2.06 130 14:36 09.07.2022
485 Clear 32 1024 27 10000 2.68 230 13:50 09.07.2022
486 Clear 30 1025 33 10000 2.57 70 12:47 09.07.2022
487 Clear 28 1025 36 10000 3.09 70 11:31 09.07.2022
488 Clear 26 1025 40 10000 3.6 70 10:22 09.07.2022
489 Clear 22 1013 47 10000 3.6 40 07:53 09.07.2022
490 Clear 23 1011 40 9000 1.79 43 05:24 09.07.2022
491 Clear 26 1010 29 10000 3.6 340 02:34 09.07.2022
492 Clear 30 1009 25 10000 1.03 0 22:59 08.07.2022
493 Clear 32 1007 24 10000 0.45 113 21:59 08.07.2022
494 Clear 34 1022 17 10000 2.06 130 20:42 08.07.2022
495 Clear 34 1022 17 10000 2.06 130 20:23 08.07.2022
496 Clear 34 1022 18 10000 2.57 0 18:29 08.07.2022
497 Clear 34 1023 19 10000 2.06 0 17:21 08.07.2022
498 Clear 33 1023 19 10000 2.57 0 17:21 08.07.2022
499 Clear 31 1024 26 10000 2.57 20 14:54 08.07.2022
500 Clear 29 1025 30 10000 2.06 120 13:45 08.07.2022
501 Clear 26 1026 37 10000 2.57 40 11:59 08.07.2022
502 Clear 23 1026 44 9000 4.12 30 10:37 08.07.2022
503 Clear 20 1027 50 10000 5.66 40 08:44 08.07.2022
504 Clear 19 1013 53 10000 3.13 73 06:50 08.07.2022
505 Clear 22 1012 38 10000 4.02 72 01:49 08.07.2022
506 Clear 26 1012 33 10000 4.47 76 23:30 07.07.2022
507 Clear 28 1011 26 10000 3.58 61 22:38 07.07.2022
508 Clear 31 1023 18 10000 3.6 360 20:40 07.07.2022
509 Clear 32 1024 18 10000 3.09 80 18:23 07.07.2022
510 Clear 31 1024 20 10000 3.6 0 16:57 07.07.2022
511 Clear 29 1025 21 10000 4.12 0 15:18 07.07.2022
512 Clear 27 1026 27 10000 6.17 50 13:25 07.07.2022
513 Clear 25 1026 34 10000 6.17 50 12:37 07.07.2022
514 Clear 25 1026 37 10000 6.17 40 12:18 07.07.2022
515 Clear 24 1026 40 10000 7.72 50 11:29 07.07.2022
516 Clear 22 1026 46 10000 7.2 50 10:42 07.07.2022
517 Clear 22 1026 48 10000 7.2 50 10:24 07.07.2022
518 Clear 17 1013 63 10000 4.12 40 07:22 07.07.2022
519 Clear 18 1012 63 10000 5.36 68 04:18 07.07.2022
520 Clear 22 1007 56 10000 4.47 83 23:37 06.07.2022
521 Clear 23 1011 54 10000 4.63 60 23:18 06.07.2022
522 Clear 23 1010 52 10000 4.63 60 22:56 06.07.2022
523 Clear 23 1010 50 10000 4.47 87 22:38 06.07.2022
524 Clear 26 989 41 10000 4.63 60 21:27 06.07.2022
525 Clear 29 1004 30 10000 6.17 50 19:38 06.07.2022
526 Clouds 28 996 36 10000 8.23 30 18:21 06.07.2022
527 Clouds 26 1021 41 10000 10.29 360 16:19 06.07.2022
528 Clouds 31 1020 32 10000 5.66 240 14:46 06.07.2022
529 Clear 28 1020 37 10000 2.68 221 12:40 06.07.2022
530 Clear 27 1020 40 10000 2.06 0 11:49 06.07.2022
531 Clear 25 1020 53 10000 3.09 160 10:18 06.07.2022
532 Clear 23 1004 67 10000 1.54 60 07:46 06.07.2022
533 Clear 22 1020 65 10000 1.79 99 07:23 06.07.2022
534 Clear 25 1018 48 10000 4.63 150 02:55 06.07.2022
535 Clear 30 1016 20 10000 3.6 250 22:45 05.07.2022
536 Clear 30 1016 20 10000 3.6 250 22:45 05.07.2022
537 -273 0 0 0 0 0 21:37 05.07.2022
538 Clouds 35 1016 13 10000 5.14 230 20:38 05.07.2022
539 Clouds 35 1016 13 10000 6.69 220 19:41 05.07.2022
540 Clouds 35 1016 13 10000 6.69 220 19:22 05.07.2022
541 Clouds 36 1003 13 10000 7.2 0 17:47 05.07.2022
542 Clouds 35 1018 14 10000 5.14 0 16:44 05.07.2022
543 Clouds 34 1005 19 10000 5.66 150 15:25 05.07.2022
544 Clear 32 1019 22 10000 5.66 190 13:59 05.07.2022
545 Clear 30 1020 25 10000 4.02 228 12:42 05.07.2022
546 Clear 28 1020 30 10000 2.06 0 11:32 05.07.2022
547 Clear 26 1020 36 10000 2.06 30 10:34 05.07.2022
548 Clear 22 1019 44 10000 2.24 96 08:26 05.07.2022
549 Clear 21 1004 44 10000 1.79 62 07:45 05.07.2022
550 Clear 22 1002 33 9000 2.24 41 04:49 05.07.2022
551 Clear 23 1003 32 10000 2.24 72 04:21 05.07.2022
552 Clear 28 1002 27 10000 2.06 270 23:45 04.07.2022
553 Clear 28 1002 27 10000 3.09 270 23:25 04.07.2022
554 Clear 30 1001 27 10000 3.09 270 22:25 04.07.2022
555 Clear 32 1017 23 10000 4.12 230 21:30 04.07.2022
556 Clear 32 1017 21 10000 4.12 260 20:52 04.07.2022
557 Clear 33 1017 20 10000 4.12 220 20:33 04.07.2022
558 Clear 33 1017 19 10000 5.14 220 19:52 04.07.2022
559 Clear 33 1017 19 10000 3.6 250 19:34 04.07.2022
560 Clear 33 1018 19 10000 4.12 230 17:57 04.07.2022
561 Clear 32 1019 22 10000 4.63 210 15:50 04.07.2022
562 Clear 32 1019 22 10000 4.63 210 15:31 04.07.2022
563 Clear 30 1020 30 10000 3.6 160 13:29 04.07.2022
564 Clear 29 1020 34 10000 3.6 190 12:20 04.07.2022
565 Clear 26 1020 40 10000 3.6 220 10:34 04.07.2022
566 Clear 24 1020 44 10000 1.79 193 09:41 04.07.2022
567 Clear 22 1004 47 10000 1.79 261 07:33 04.07.2022
568 Clear 25 1003 41 10000 2.06 140 03:36 04.07.2022
569 Clear 27 1018 36 10000 3.09 270 00:36 04.07.2022
570 Clear 29 1002 34 10000 3.6 270 22:58 03.07.2022
571 Clear 32 1003 30 10000 6.69 250 20:58 03.07.2022
572 Clear 32 1003 29 10000 5.66 260 20:26 03.07.2022
573 Clear 33 1003 27 10000 6.69 240 19:27 03.07.2022
574 Clear 34 1003 27 10000 7.72 250 18:35 03.07.2022
575 Clear 34 1003 28 10000 7.2 240 17:43 03.07.2022
576 Clear 33 1018 31 10000 4.63 200 15:51 03.07.2022
577 Clouds 32 1019 32 10000 5.66 210 14:59 03.07.2022
578 Clouds 31 1019 37 10000 3.6 210 14:18 03.07.2022
579 Clouds 30 1019 39 10000 3.13 199 13:48 03.07.2022
580 Clear 29 1019 41 10000 2.68 198 12:33 03.07.2022
581 Clouds 27 1019 46 10000 2.06 0 11:28 03.07.2022
582 Clear 26 1020 53 10000 2.06 0 10:38 03.07.2022
583 Clear 24 1020 55 10000 3.09 160 09:31 03.07.2022
584 Clear 23 1004 61 10000 2.57 90 07:35 03.07.2022
585 Clear 26 1019 51 10000 5.66 140 02:49 03.07.2022
586 Clear 29 1003 35 10000 2.68 111 00:20 03.07.2022
587 Clear 31 1002 30 10000 3.6 180 22:33 02.07.2022
588 Clear 34 1017 23 10000 2.68 202 20:58 02.07.2022
589 Clear 34 1017 21 10000 2.57 190 19:52 02.07.2022
590 Clear 35 1017 20 10000 3.09 160 19:20 02.07.2022
591 Clear 34 1018 23 10000 2.57 0 17:41 02.07.2022
592 Clear 34 1018 24 10000 2.57 140 16:53 02.07.2022
593 Clear 31 1019 36 10000 3.6 130 14:31 02.07.2022
594 Clear 27 1020 50 10000 2.57 60 12:21 02.07.2022
595 Clear 25 1020 54 10000 3.6 110 11:26 02.07.2022
596 Clear 24 1020 59 10000 3.6 90 10:37 02.07.2022
597 Clear 22 1020 66 10000 3.09 70 09:18 02.07.2022
598 Clear 21 1019 71 10000 3.13 86 08:20 02.07.2022
599 Clear 20 1019 73 10000 2.24 76 07:27 02.07.2022
600 Clear 25 1018 58 10000 7.2 130 01:53 02.07.2022
601 Clear 28 1017 39 10000 4.12 110 23:56 01.07.2022
602 Clear 29 1000 26 10000 2.06 350 22:41 01.07.2022
603 Clear 31 1016 23 10000 1.54 340 21:48 01.07.2022
604 Clear 31 1016 22 10000 1.54 340 21:28 01.07.2022
605 Clear 32 1016 21 10000 2.57 250 20:40 01.07.2022
606 Clear 32 1016 22 10000 2.68 222 19:46 01.07.2022
607 Clear 32 1016 22 10000 3.09 190 17:53 01.07.2022
608 Clear 30 1017 25 10000 3.6 0 15:54 01.07.2022
609 Clear 27 1019 35 10000 2.06 0 13:55 01.07.2022
610 Clear 25 1019 42 10000 2.06 90 12:41 01.07.2022
611 Clear 20 1019 48 10000 3.09 30 10:20 01.07.2022
612 Clear 19 1005 51 10000 4.12 20 09:43 01.07.2022
613 Clear 16 1002 55 10000 3.58 66 05:25 01.07.2022
614 Clear 22 1017 36 10000 3.13 72 00:42 01.07.2022
615 Clear 24 1000 29 10000 3.6 320 23:22 30.06.2022
616 Clear 25 1000 29 10000 5.14 320 22:44 30.06.2022
617 Clear 25 999 29 10000 5.14 320 22:25 30.06.2022
618 Clear 26 999 27 10000 5.14 300 21:45 30.06.2022
619 Clear 28 1000 24 10000 6.69 260 20:30 30.06.2022
620 Clear 28 1000 23 10000 7.2 280 19:54 30.06.2022
621 Clear 28 1000 23 10000 7.2 260 19:25 30.06.2022
622 Clear 29 999 24 10000 6.17 280 18:42 30.06.2022
623 Clear 29 999 23 10000 5.66 270 17:44 30.06.2022
624 Clear 29 999 21 10000 5.66 240 16:55 30.06.2022
625 Clear 28 1013 23 10000 4.63 220 15:42 30.06.2022
626 Clear 26 1014 29 10000 5.14 190 13:49 30.06.2022
627 Clear 25 1014 32 10000 3.6 200 12:36 30.06.2022
628 Clear 24 1014 34 10000 3.09 250 11:56 30.06.2022
629 Clear 21 1014 42 10000 2.57 270 09:55 30.06.2022
630 Clear 21 1014 44 10000 2.06 280 09:37 30.06.2022
631 Clear 18 1013 47 10000 2.24 257 08:19 30.06.2022
632 Clear 18 1014 46 10000 2.57 250 08:19 30.06.2022
633 Clear 18 998 49 10000 1.54 270 07:40 30.06.2022
634 Clear 22 1000 39 10000 2.68 312 02:49 30.06.2022
635 Clear 26 1000 28 10000 5.66 250 23:38 29.06.2022
636 Clear 27 999 24 10000 5.66 240 22:41 29.06.2022
637 Clear 28 1012 21 10000 6.17 240 21:58 29.06.2022
638 Clear 30 1012 18 10000 7.2 230 20:35 29.06.2022
639 Clear 30 1012 18 10000 7.2 230 20:35 29.06.2022
640 Clear 30 1012 17 10000 7.2 260 19:56 29.06.2022
641 Clear 31 1001 18 10000 7.72 230 17:55 29.06.2022
642 Clouds 31 1001 18 10000 7.2 240 16:55 29.06.2022
643 Clear 31 1002 18 10000 6.17 230 15:44 29.06.2022
644 Clear 29 1015 21 10000 6.71 239 13:43 29.06.2022
645 Clear 28 1016 22 10000 2.57 230 12:36 29.06.2022
646 Clear 23 1016 32 10000 1.03 0 09:46 29.06.2022
647 Clear 22 1017 33 10000 2.06 90 09:22 29.06.2022
648 Clear 19 1003 35 10000 1.34 40 06:29 29.06.2022
649 Clear 21 1003 34 10000 3.09 300 04:42 29.06.2022
650 Clear 24 1004 28 10000 2.57 240 00:53 29.06.2022
651 Clear 24 1004 28 10000 2.06 230 00:33 29.06.2022
652 Clear 27 1003 24 8000 3.09 260 22:50 28.06.2022
653 Clear 28 1017 22 10000 3.09 240 21:59 28.06.2022
654 Clear 29 1017 19 10000 4.63 220 21:40 28.06.2022
655 Clear 30 1017 17 10000 3.6 210 21:22 28.06.2022
656 Clear 30 1017 17 10000 5.14 230 19:54 28.06.2022
657 Clear 30 1017 17 10000 4.12 240 19:30 28.06.2022
658 Clear 31 1017 19 10000 3.6 220 18:40 28.06.2022
659 Clear 30 1018 21 10000 2.68 255 17:25 28.06.2022
660 Clear 29 1019 23 10000 2.57 200 15:55 28.06.2022
661 Clear 28 1019 25 10000 3.6 210 14:52 28.06.2022
662 Clear 27 1020 27 10000 3.09 0 14:19 28.06.2022
663 Clouds 26 1020 31 10000 2.06 0 13:45 28.06.2022
664 Clear 25 1021 42 10000 2.57 90 12:30 28.06.2022
665 Clear 20 1021 50 10000 2.57 50 10:23 28.06.2022
666 Clear 17 1021 54 10000 3.58 38 08:56 28.06.2022
667 Clear 17 1021 56 10000 2.57 40 08:37 28.06.2022
668 Clear 16 1008 59 10000 2.24 26 07:20 28.06.2022
669 Clear 17 1008 53 10000 2.68 83 03:55 28.06.2022
670 Clear 22 1020 36 10000 5.14 350 23:51 27.06.2022
671 Clear 22 1020 35 10000 5.66 360 23:27 27.06.2022
672 Clear 25 1018 31 10000 3.09 320 22:25 27.06.2022
673 Clear 26 1018 30 10000 3.09 20 21:29 27.06.2022
674 Clear 27 1016 23 10000 4.12 10 20:33 27.06.2022
675 Clouds 27 1017 22 10000 4.12 300 18:51 27.06.2022
676 Clouds 27 1005 26 10000 5.66 300 17:44 27.06.2022
677 Clouds 26 1017 25 10000 2.57 310 15:50 27.06.2022
678 Clouds 25 1017 31 10000 3.09 360 14:25 27.06.2022
679 Clear 23 1017 36 10000 2.06 0 12:58 27.06.2022
680 Clear 21 1017 42 10000 2.57 60 11:40 27.06.2022
681 Clear 18 1016 55 10000 4.47 19 09:49 27.06.2022
682 Clear 17 1015 57 10000 5.66 30 08:43 27.06.2022
683 Clear 17 1003 61 10000 4.47 70 07:52 27.06.2022
684 Clear 17 1014 50 10000 2.24 83 06:28 27.06.2022
685 Clear 21 1000 28 10000 2.57 250 01:25 27.06.2022
686 Clear 23 999 25 10000 4.63 260 23:22 26.06.2022
687 Clear 24 998 24 10000 6.17 230 21:39 26.06.2022
688 Clear 26 1011 20 10000 5.66 220 20:33 26.06.2022
689 Clear 26 1000 16 10000 6.69 220 18:38 26.06.2022
690 Clear 26 1000 15 10000 6.17 210 18:20 26.06.2022
691 Clear 26 1000 16 10000 7.2 230 15:37 26.06.2022
692 Clear 25 1000 22 10000 5.14 240 14:23 26.06.2022
693 Clear 24 1001 29 10000 8.23 190 13:26 26.06.2022
694 Clear 22 1013 35 10000 4.12 220 11:49 26.06.2022
695 Clouds 21 1013 37 10000 4.12 240 10:53 26.06.2022
696 Clouds 20 1013 39 10000 3.09 240 10:22 26.06.2022
697 Clouds 18 1012 43 10000 1.54 260 08:36 26.06.2022
698 Clouds 17 999 44 10000 3.09 260 06:50 26.06.2022
699 Clear 21 999 40 10000 4.63 240 00:38 26.06.2022
700 Clear 21 999 41 10000 4.63 240 00:19 26.06.2022
701 Clear 22 1013 37 10000 4.63 260 23:31 25.06.2022
702 Clear 23 999 37 10000 5.66 250 22:48 25.06.2022
703 Clear 23 999 37 10000 4.63 240 22:25 25.06.2022
704 Clouds 25 1012 33 10000 6.69 220 21:21 25.06.2022
705 Clouds 25 1012 32 10000 7.2 250 20:48 25.06.2022
706 Clouds 26 1000 33 10000 7.2 250 20:25 25.06.2022
707 Clouds 26 998 33 10000 7.72 250 18:24 25.06.2022
708 Clouds 26 1000 33 10000 7.72 230 17:27 25.06.2022
709 Clouds 26 1001 35 10000 6.17 220 16:28 25.06.2022
710 Clouds 24 1002 38 10000 5.14 220 14:41 25.06.2022
711 Clear 22 1015 45 10000 5.81 213 12:51 25.06.2022
712 Clear 21 1015 46 10000 5.66 200 12:31 25.06.2022
713 Clear 17 1015 59 10000 2.57 120 09:35 25.06.2022
714 Clear 17 1015 61 10000 3.09 240 08:54 25.06.2022
715 Clear 15 1015 63 10000 3.6 240 08:20 25.06.2022
716 Clear 16 1001 58 10000 2.57 220 06:36 25.06.2022
717 Clear 21 1002 41 10000 4.12 240 00:50 25.06.2022
718 Clear 22 1002 36 10000 5.66 250 23:57 24.06.2022
719 Clear 24 1002 33 10000 5.66 230 22:28 24.06.2022
720 Clear 25 1015 30 10000 6.17 230 21:28 24.06.2022
721 Clear 26 1015 28 10000 5.66 230 20:24 24.06.2022
722 Clouds 26 1015 29 10000 5.66 220 19:37 24.06.2022
723 Clouds 26 1015 29 10000 5.14 260 19:18 24.06.2022
724 Clouds 26 1003 31 10000 6.69 220 18:31 24.06.2022
725 Clouds 26 1015 30 10000 7.2 220 17:57 24.06.2022
726 Clouds 25 1004 33 10000 7.2 230 16:47 24.06.2022
727 Clouds 24 1005 39 10000 6.69 210 14:50 24.06.2022
728 Clouds 23 1018 40 10000 5.66 240 14:23 24.06.2022
729 Clouds 22 1018 41 10000 6.17 250 13:41 24.06.2022
730 Clouds 20 1018 51 10000 3.6 240 11:41 24.06.2022
731 Clouds 18 1018 60 10000 2.68 220 10:36 24.06.2022
732 Clouds 17 1018 66 10000 3.13 270 09:42 24.06.2022
733 Clear 17 1018 68 10000 2.06 220 09:42 24.06.2022
734 Clear 15 1018 74 10000 2.06 110 08:54 24.06.2022
735 Clear 14 1018 78 10000 2.06 280 08:19 24.06.2022
736 Clear 14 1002 75 10000 2.24 270 06:44 24.06.2022
737 Clear 14 999 75 10000 2.06 170 06:22 24.06.2022
738 Clear 15 999 71 10000 3.09 250 04:46 24.06.2022
739 Clear 19 1005 54 10000 6.17 300 23:32 23.06.2022
740 Clear 20 1004 50 10000 6.17 250 22:43 23.06.2022
741 Clouds 22 1004 41 10000 6.69 240 20:59 23.06.2022
742 Clouds 22 1016 38 10000 6.69 240 20:36 23.06.2022
743 Clouds 23 1015 39 10000 7.72 240 19:53 23.06.2022
744 Clouds 23 1002 39 10000 8.75 250 18:27 23.06.2022
745 Clouds 23 1002 41 10000 7.72 230 17:34 23.06.2022
746 Clouds 23 1000 44 10000 6.69 220 16:29 23.06.2022
747 Clouds 22 1000 47 10000 6.69 230 15:26 23.06.2022
748 Clouds 21 1003 49 10000 6.69 240 14:34 23.06.2022
749 Clouds 19 1016 64 10000 5.14 200 11:41 23.06.2022
750 Clouds 17 1016 76 10000 4.63 220 10:41 23.06.2022
751 Clouds 16 1016 84 10000 3.6 230 09:19 23.06.2022
752 Clear 17 1015 61 10000 3.09 230 04:48 23.06.2022
753 Clear 19 1002 51 10000 3.6 260 00:27 23.06.2022
754 Clear 19 1002 49 10000 4.12 230 23:52 22.06.2022
755 Clear 19 1002 48 10000 5.14 220 23:18 22.06.2022
756 Clouds 21 1001 43 10000 5.66 230 21:36 22.06.2022
757 Clouds 22 1013 39 10000 5.66 230 20:51 22.06.2022
758 Clouds 23 1002 38 10000 6.69 240 20:18 22.06.2022
759 Clouds 23 1001 38 10000 6.17 230 19:27 22.06.2022
760 Clouds 23 1002 36 10000 6.17 220 17:33 22.06.2022
761 Clouds 23 1002 38 10000 6.17 200 16:41 22.06.2022
762 Clouds 23 1002 38 10000 6.17 200 16:41 22.06.2022
763 Clouds 22 1014 38 10000 6.17 220 15:28 22.06.2022
764 Clouds 22 1003 40 10000 6.17 230 14:41 22.06.2022
765 Clouds 21 1003 44 10000 6.69 220 13:46 22.06.2022
766 Clouds 20 1003 45 10000 6.69 230 13:24 22.06.2022
767 Clouds 19 1014 48 10000 5.66 230 11:54 22.06.2022
768 Clouds 18 1002 54 10000 5.66 250 10:58 22.06.2022
769 Clouds 18 1014 56 10000 5.66 230 10:36 22.06.2022
770 Clouds 15 1014 64 10000 5.14 230 08:57 22.06.2022
771 Clear 15 999 61 10000 4.12 220 06:39 22.06.2022
772 Clear 19 997 37 10000 6.17 230 01:59 22.06.2022
773 Clear 20 1012 33 10000 5.14 240 00:56 22.06.2022
774 Clouds 23 997 31 10000 5.14 260 22:40 21.06.2022
775 Clouds 26 1009 21 10000 6.69 240 20:47 21.06.2022
776 Clouds 28 998 19 10000 5.66 170 19:20 21.06.2022
777 Clouds 27 999 23 10000 3.6 150 17:47 21.06.2022
778 Clouds 25 1012 28 10000 4.12 160 16:36 21.06.2022
779 Clouds 22 1015 36 10000 3.09 210 11:57 21.06.2022
780 Clouds 20 1015 45 10000 3.09 260 10:38 21.06.2022
781 Clouds 17 1015 52 10000 3.58 248 09:20 21.06.2022
782 Clear 15 1002 57 10000 2.57 250 07:44 21.06.2022
783 Clear 17 1000 47 10000 3.09 260 04:43 21.06.2022
784 Clear 21 1001 36 9000 3.6 250 00:21 21.06.2022
785 Clear 23 1000 32 10000 4.63 250 22:21 20.06.2022
786 Clear 23 1013 31 10000 5.14 230 21:36 20.06.2022
787 Clear 24 1001 36 10000 5.66 270 20:28 20.06.2022
788 Clouds 24 1001 38 10000 6.17 260 19:35 20.06.2022
789 Clouds 25 1001 37 10000 7.72 250 18:25 20.06.2022
790 Clouds 25 1001 38 10000 7.2 230 17:45 20.06.2022
791 Clouds 26 1001 36 10000 7.72 240 16:26 20.06.2022
792 Clouds 26 1001 36 10000 8.23 230 15:20 20.06.2022
793 Clouds 24 1002 43 10000 6.17 180 12:18 20.06.2022
794 Clouds 22 1013 52 10000 3.13 222 09:57 20.06.2022
795 Clouds 20 1012 54 10000 2.06 190 08:54 20.06.2022
796 Clouds 18 1012 57 10000 1.54 170 07:51 20.06.2022
797 Clouds 20 999 54 10000 3.09 190 05:18 20.06.2022
798 Clear 21 999 47 10000 1.54 240 01:32 20.06.2022
799 Clear 22 999 44 10000 3.6 280 23:57 19.06.2022
800 Clear 23 999 42 10000 5.66 290 22:40 19.06.2022
801 Clear 24 999 40 10000 5.66 280 21:45 19.06.2022
802 Clear 25 998 40 10000 5.66 280 21:26 19.06.2022
803 Clear 26 1000 35 10000 6.69 260 20:25 19.06.2022
804 Clouds 26 1011 33 10000 6.69 250 19:46 19.06.2022
805 Clouds 27 1000 31 10000 7.72 220 18:41 19.06.2022
806 Clouds 27 1000 30 10000 6.69 240 17:48 19.06.2022
807 Clouds 27 1000 31 10000 7.2 220 17:21 19.06.2022
808 Clouds 27 1000 32 10000 6.69 240 16:34 19.06.2022
809 Clouds 26 1001 33 10000 7.2 230 15:37 19.06.2022
810 Clouds 25 1001 37 10000 6.17 220 14:51 19.06.2022
811 Clouds 24 1000 40 10000 7.2 230 13:54 19.06.2022
812 Clouds 23 1002 44 10000 7.72 230 12:39 19.06.2022
813 Clear 21 1002 51 10000 5.66 210 10:54 19.06.2022
814 Clear 20 1014 53 10000 4.92 245 09:34 19.06.2022
815 Clear 19 1014 56 10000 4.12 220 08:43 19.06.2022
816 Clear 18 1013 58 10000 3.6 210 07:48 19.06.2022
817 Clear 21 1013 41 10000 5.14 230 04:41 19.06.2022
818 Clear 27 999 31 10000 6.17 220 01:28 19.06.2022
819 Clear 30 998 29 10000 4.63 210 00:24 19.06.2022
820 Clear 31 1012 27 10000 4.63 190 23:35 18.06.2022
821 Clear 32 997 29 10000 3.6 210 22:36 18.06.2022
822 Clear 34 998 24 10000 7.2 210 20:56 18.06.2022
823 Clear 35 1011 22 10000 6.69 160 20:28 18.06.2022
824 Clear 36 999 17 10000 7.2 250 19:37 18.06.2022
825 Clear 37 1011 13 10000 8.75 150 18:45 18.06.2022
826 Clouds 37 1000 14 10000 5.66 170 17:31 18.06.2022
827 Rain 37 1001 14 10000 5.66 140 16:47 18.06.2022
828 Clear 37 1003 14 10000 5.14 190 15:30 18.06.2022
829 Clear 37 1016 15 10000 5.66 150 14:42 18.06.2022
830 Clear 35 1017 17 10000 4.12 160 13:22 18.06.2022
831 Clear 31 1018 23 10000 2.57 70 11:38 18.06.2022
832 Clear 30 1019 25 10000 2.57 100 10:46 18.06.2022
833 Clear 28 1007 30 10000 3.09 50 09:22 18.06.2022
834 Clear 26 1007 32 10000 2.68 68 08:24 18.06.2022
835 Clear 25 1006 30 10000 3.09 340 06:44 18.06.2022
836 Clear 28 1006 24 10000 2.68 90 03:30 18.06.2022
837 Clear 31 1006 23 10000 1.54 70 01:25 18.06.2022
838 Clear 31 1020 23 10000 1.34 97 00:46 18.06.2022
839 Clear 31 1020 25 10000 2.57 110 23:52 17.06.2022
840 Clear 31 1020 24 10000 1.54 60 23:20 17.06.2022
841 Rain 35 1007 17 10000 7.2 250 20:55 17.06.2022
842 Clear 38 1018 13 10000 5.14 120 19:31 17.06.2022
843 Clear 39 1018 11 10000 5.66 140 18:44 17.06.2022
844 Clear 39 1019 13 10000 4.63 150 17:43 17.06.2022
845 Clear 38 1020 14 10000 3.6 100 16:43 17.06.2022
846 Clear 37 1021 16 10000 3.6 110 15:43 17.06.2022
847 Clear 37 1021 18 10000 3.13 153 15:20 17.06.2022
848 Clear 35 1022 20 10000 2.57 0 14:20 17.06.2022
849 Clear 35 1022 20 10000 2.68 174 13:46 17.06.2022
850 Clear 34 1022 25 10000 3.09 120 12:57 17.06.2022
851 Clear 31 1023 30 10000 3.09 90 11:57 17.06.2022
852 Clear 30 1023 33 10000 4.12 70 11:36 17.06.2022
853 Clear 29 1023 39 10000 3.09 30 10:51 17.06.2022
854 Clear 24 1011 55 10000 4.92 68 08:30 17.06.2022
855 Clear 23 1011 55 10000 4.63 350 07:47 17.06.2022
856 Clear 23 1010 53 10000 2.68 83 05:57 17.06.2022
857 Clear 25 1008 48 10000 3.58 81 02:52 17.06.2022
858 Clear 28 1023 38 10000 6.26 45 00:42 17.06.2022
859 Clouds 29 1022 34 10000 4.12 280 22:45 16.06.2022
860 Rain 30 1022 34 10000 5.66 170 22:20 16.06.2022
861 Rain 30 1021 30 10000 7.2 210 21:19 16.06.2022
862 Rain 30 1021 31 10000 11.83 200 20:50 16.06.2022
863 Rain 35 1017 16 10000 2.06 120 19:58 16.06.2022
864 Clear 39 1017 13 10000 1.54 160 18:44 16.06.2022
865 Clear 38 1019 15 10000 4.12 110 17:44 16.06.2022
866 Clear 38 1019 16 10000 4.12 110 17:20 16.06.2022
867 Clear 36 1020 18 10000 2.06 0 15:44 16.06.2022
868 Clear 36 1020 19 10000 3.09 60 15:20 16.06.2022
869 Clear 34 1021 23 10000 3.09 40 13:49 16.06.2022
870 Clear 32 1021 27 10000 1.79 40 12:38 16.06.2022
871 Clear 32 1021 28 10000 1.54 0 11:55 16.06.2022
872 Clear 30 1021 32 10000 1.54 0 11:21 16.06.2022
873 Clear 29 1021 34 10000 1.54 330 10:35 16.06.2022
874 Clear 27 1021 41 10000 1.34 31 09:37 16.06.2022
875 Clear 26 1021 39 10000 1.54 180 08:50 16.06.2022
876 Clear 27 1007 36 10000 2.06 60 07:38 16.06.2022
877 Clear 28 1021 35 10000 3.09 50 05:43 16.06.2022
878 Rain 29 1008 32 10000 6.71 227 03:23 16.06.2022
879 Clear 30 1007 27 10000 2.24 113 01:51 16.06.2022
880 Clear 30 1007 26 10000 1.54 170 01:22 16.06.2022
881 Clear 30 1007 26 10000 1.54 170 01:22 16.06.2022
882 Clear 31 1006 26 10000 5.66 220 23:58 15.06.2022
883 Clear 32 1004 23 10000 5.14 90 22:47 15.06.2022
884 Clear 34 1001 19 10000 6.17 110 21:29 15.06.2022
885 Clear 36 1003 17 10000 4.63 120 20:58 15.06.2022
886 Clear 36 1005 16 10000 5.14 110 20:36 15.06.2022
887 Clear 37 1016 15 10000 4.63 150 19:52 15.06.2022
888 Clear 39 1016 14 10000 3.6 150 18:30 15.06.2022
889 Clear 38 1017 15 10000 2.57 0 17:43 15.06.2022
890 Clear 37 1018 17 10000 2.57 360 16:21 15.06.2022
891 Clear 37 1019 17 10000 2.68 188 14:57 15.06.2022
892 Clear 35 1019 20 10000 2.57 50 13:22 15.06.2022
893 Clear 33 1020 22 10000 2.06 30 12:40 15.06.2022
894 Clear 30 1020 27 10000 2.57 30 11:24 15.06.2022
895 Clear 28 1020 30 10000 3.09 60 10:22 15.06.2022
896 Clear 26 1008 33 10000 2.68 35 08:59 15.06.2022
897 Clear 25 1006 34 10000 3.09 350 07:36 15.06.2022
898 Clear 26 1005 32 10000 1.79 65 05:36 15.06.2022
899 Clear 28 1018 29 10000 1.34 44 02:47 15.06.2022
900 Clear 28 1018 32 10000 2.06 250 01:36 15.06.2022
901 Clear 30 1018 27 10000 2.57 250 00:36 15.06.2022
902 Clear 32 1004 22 10000 3.09 230 23:38 14.06.2022
903 Clear 33 1004 20 10000 3.09 260 22:47 14.06.2022
904 Clear 35 1001 17 10000 3.6 270 21:43 14.06.2022
905 Clear 35 1003 16 10000 5.14 260 21:20 14.06.2022
906 Clear 36 1004 16 10000 5.66 280 20:40 14.06.2022
907 Clear 37 1004 15 10000 6.17 250 19:47 14.06.2022
908 Clear 38 1004 13 10000 4.63 230 18:39 14.06.2022
909 Clear 38 1004 14 10000 5.66 220 17:19 14.06.2022
910 Clear 38 1016 14 10000 6.17 230 16:42 14.06.2022
911 Clear 37 1017 15 10000 5.66 240 15:43 14.06.2022
912 Clear 37 1017 16 10000 4.12 230 14:56 14.06.2022
913 Clear 35 1018 18 10000 2.57 230 14:18 14.06.2022
914 Clear 35 1018 20 10000 2.68 212 13:24 14.06.2022
915 Clear 33 1018 22 10000 2.06 140 12:19 14.06.2022
916 Clear 29 1018 26 10000 2.06 70 10:55 14.06.2022
917 Clear 29 1018 28 10000 2.06 60 10:29 14.06.2022
918 Clear 27 1018 32 10000 2.06 80 09:26 14.06.2022
919 Clear 25 1006 35 10000 2.06 70 08:40 14.06.2022
920 Clear 25 1004 34 10000 2.06 350 06:53 14.06.2022
921 Clear 26 992 36 10000 2.06 360 04:23 14.06.2022
922 Clear 28 1017 31 10000 2.06 140 01:38 14.06.2022
923 Clear 30 1017 29 10000 3.6 270 00:24 14.06.2022
924 Clear 30 1017 30 10000 2.57 270 22:58 13.06.2022
925 Clouds 33 1017 23 10000 2.57 250 22:23 13.06.2022
926 Clouds 34 1016 23 10000 4.63 230 21:41 13.06.2022
927 Rain 36 1003 15 10000 3.09 250 19:59 13.06.2022
928 Rain 37 1005 15 10000 3.6 180 19:18 13.06.2022
929 Clouds 37 1017 14 10000 3.6 220 17:56 13.06.2022
930 Clear 37 1017 14 10000 5.66 190 17:25 13.06.2022
931 Clear 36 1018 15 10000 3.6 190 16:31 13.06.2022
932 Clear 35 1019 16 10000 3.13 234 14:52 13.06.2022
933 Clear 34 1019 16 10000 3.09 260 14:32 13.06.2022
934 Clear 34 1020 16 10000 3.09 160 13:36 13.06.2022
935 Clear 31 1020 20 10000 2.06 140 12:23 13.06.2022
936 Clear 28 1021 24 10000 2.57 90 10:58 13.06.2022
937 Clear 27 1021 28 10000 2.57 70 10:26 13.06.2022
938 Clear 24 1021 33 10000 1.54 50 08:59 13.06.2022
939 Clear 23 1007 35 10000 2.06 340 06:53 13.06.2022
940 Clear 24 1006 29 10000 2.06 330 05:36 13.06.2022
941 Clear 27 1007 25 10000 3.6 140 02:47 13.06.2022
942 Clear 28 1006 28 10000 5.66 150 01:36 13.06.2022
943 Clear 31 1020 20 10000 3.6 150 23:50 12.06.2022
944 Clear 32 1003 26 10000 2.24 150 22:44 12.06.2022
945 Clear 32 1005 23 10000 2.06 340 22:22 12.06.2022
946 Clear 35 1018 18 10000 2.06 10 20:58 12.06.2022
947 Clouds 36 1018 17 10000 2.06 290 20:19 12.06.2022
948 Clouds 36 1019 16 10000 2.06 320 19:30 12.06.2022
949 Clouds 35 1019 17 10000 2.68 315 17:47 12.06.2022
950 Clouds 33 1021 19 10000 2.57 100 15:58 12.06.2022
951 Clouds 32 1021 21 10000 2.57 0 14:56 12.06.2022
952 Clouds 31 1022 22 10000 2.06 0 14:20 12.06.2022
953 Clouds 31 1022 23 10000 2.06 0 13:49 12.06.2022
954 Clouds 29 1022 27 10000 2.57 70 12:35 12.06.2022
955 Clouds 28 1023 28 10000 3.09 80 11:37 12.06.2022
956 Clear 25 1023 35 10000 3.6 70 10:22 12.06.2022
957 Clouds 23 1011 45 10000 3.6 50 08:54 12.06.2022
958 Clouds 23 1011 46 10000 4.63 50 08:35 12.06.2022
959 Clear 22 1010 46 10000 2.24 80 07:32 12.06.2022
960 Clear 24 1022 32 10000 3.09 70 04:35 12.06.2022
961 Clear 26 1022 27 10000 3.6 70 02:53 12.06.2022
962 Clear 27 1022 25 10000 3.58 118 01:39 12.06.2022
963 Clear 28 1022 25 10000 5.66 120 00:58 12.06.2022
964 Clear 29 1022 27 10000 3.6 90 00:20 12.06.2022
965 Clear 30 1021 25 10000 3.09 130 23:40 11.06.2022
966 Clear 32 1004 23 10000 3.6 120 22:38 11.06.2022
967 Clear 33 1019 21 10000 3.6 140 21:42 11.06.2022
968 Clouds 35 1018 20 10000 4.12 130 20:36 11.06.2022
969 Clouds 35 1018 20 10000 3.6 120 19:46 11.06.2022
970 Clouds 36 1019 20 10000 3.6 120 19:25 11.06.2022
971 Clouds 36 1019 21 10000 4.12 190 18:33 11.06.2022
972 Clouds 36 1019 22 10000 2.57 140 17:51 11.06.2022
973 Clouds 36 1019 22 10000 2.24 135 17:26 11.06.2022
974 Clouds 36 1019 22 10000 2.57 110 16:55 11.06.2022
975 Clouds 36 1019 22 10000 4.12 200 16:27 11.06.2022
976 Clear 35 1020 25 10000 4.12 140 15:31 11.06.2022
977 Clear 32 1021 28 10000 3.09 0 13:53 11.06.2022
978 Clear 32 1021 28 10000 3.09 0 13:53 11.06.2022
979 Clear 30 1022 31 10000 2.57 0 12:51 11.06.2022
980 Clear 27 1022 40 10000 2.57 60 10:48 11.06.2022
981 Clear 25 1022 43 10000 3.09 60 09:51 11.06.2022
982 Clear 24 1022 45 10000 3.6 70 09:18 11.06.2022
983 Clear 22 1008 45 10000 2.06 60 07:40 11.06.2022
984 Clear 23 1007 41 10000 2.06 70 06:30 11.06.2022
985 Clear 24 1007 51 10000 2.24 93 04:30 11.06.2022
986 Clear 27 1020 30 10000 2.24 96 01:53 11.06.2022
987 Clear 27 1003 30 10000 2.68 26 01:32 11.06.2022
988 Clear 28 1000 30 10000 0.51 0 23:49 10.06.2022
989 Clear 31 1005 24 10000 1.03 340 22:31 10.06.2022
990 Clear 32 1019 25 10000 1.03 0 21:50 10.06.2022
991 Clear 34 1019 17 10000 2.57 220 20:41 10.06.2022
992 Clear 35 1019 16 10000 2.06 220 20:21 10.06.2022
993 Clear 35 1019 16 10000 2.06 0 19:20 10.06.2022
994 Clear 35 1019 16 10000 2.06 0 18:55 10.06.2022
995 Clear 35 1019 16 10000 2.68 307 17:58 10.06.2022
996 Clear 34 1019 17 10000 2.57 260 17:35 10.06.2022
997 Clear 34 1020 16 10000 2.06 0 16:50 10.06.2022
998 Clear 33 1020 15 10000 2.06 0 15:44 10.06.2022
999 Clear 33 1021 15 10000 2.57 170 14:51 10.06.2022
1000 Clear 30 1022 20 10000 2.57 20 13:26 10.06.2022
1001 Clear 27 1023 27 10000 2.24 23 11:59 10.06.2022
1002 Clear 26 1023 29 10000 2.68 339 11:30 10.06.2022
1003 Clear 24 1023 33 10000 3.6 40 10:36 10.06.2022
1004 Clear 22 1023 38 10000 3.6 40 09:26 10.06.2022
1005 Clear 20 1011 46 10000 2.68 29 07:57 10.06.2022
1006 Clear 20 1009 51 10000 3.13 49 06:49 10.06.2022
1007 Clear 19 1009 51 10000 4.02 45 06:30 10.06.2022
1008 Clear 20 1009 53 10000 3.09 60 05:34 10.06.2022
1009 Clear 23 1008 44 10000 4.02 68 02:50 10.06.2022
1010 Clear 24 1022 38 10000 4.92 70 01:37 10.06.2022
1011 Clear 27 1021 33 10000 3.6 60 23:58 09.06.2022
1012 Clear 29 1001 29 10000 2.57 0 22:43 09.06.2022
1013 Clear 30 1020 25 10000 3.09 60 21:44 09.06.2022
1014 Clear 31 1020 24 10000 3.09 60 21:25 09.06.2022
1015 Clouds 32 1019 24 10000 4.63 60 20:40 09.06.2022
1016 Clouds 33 1019 24 10000 3.6 70 19:51 09.06.2022
1017 Clouds 33 1019 24 10000 4.12 0 18:41 09.06.2022
1018 Clouds 32 1019 24 10000 4.12 40 17:55 09.06.2022
1019 Clouds 31 1020 27 10000 3.09 30 16:28 09.06.2022
1020 Clear 30 1021 31 10000 2.68 90 15:22 09.06.2022
1021 Clear 29 1021 34 10000 3.13 5 14:30 09.06.2022
1022 Clear 28 1021 37 10000 3.6 320 13:44 09.06.2022
1023 Clear 27 1021 39 10000 2.06 50 13:19 09.06.2022
1024 Clear 24 1022 50 10000 2.57 40 11:43 09.06.2022
1025 Clear 22 1022 57 10000 3.6 60 10:34 09.06.2022
1026 Clear 21 1022 61 10000 3.6 30 09:38 09.06.2022
1027 Clear 20 1021 63 10000 3.09 30 09:20 09.06.2022
1028 Clear 18 1021 66 10000 1.79 77 07:29 09.06.2022
1029 Clear 21 1007 60 10000 2.06 350 04:47 09.06.2022
1030 Clear 23 1007 51 10000 4.63 290 00:36 09.06.2022
1031 Clouds 24 1007 46 10000 4.12 290 23:23 08.06.2022
1032 Clear 25 1006 45 10000 4.12 290 22:44 08.06.2022
1033 Clear 25 1006 44 10000 4.12 290 22:24 08.06.2022
1034 Clouds 26 1006 40 10000 4.63 290 21:45 08.06.2022
1035 Clouds 27 1019 37 10000 5.14 310 20:33 08.06.2022
1036 Clouds 27 1018 38 10000 5.66 290 19:46 08.06.2022
1037 Clouds 27 1007 40 10000 6.69 300 18:49 08.06.2022
1038 Clouds 27 1007 39 10000 6.69 290 17:48 08.06.2022
1039 Clouds 27 1006 39 10000 8.23 300 16:18 08.06.2022
1040 Clouds 26 1007 43 10000 7.72 290 14:46 08.06.2022
1041 Clouds 25 1007 45 10000 6.69 290 12:55 08.06.2022
1042 Clear 24 1018 45 10000 5.36 286 11:44 08.06.2022
1043 Clear 24 1018 46 10000 3.6 290 11:19 08.06.2022
1044 Clear 22 1018 52 10000 4.12 310 09:45 08.06.2022
1045 Clear 22 1018 55 10000 4.12 310 09:18 08.06.2022
1046 Clear 20 1004 55 10000 2.06 250 07:22 08.06.2022
1047 Clear 22 1003 47 10000 3.6 310 04:51 08.06.2022
1048 Clear 24 1003 31 10000 3.6 260 02:19 08.06.2022
1049 Clear 27 1004 35 10000 4.12 260 23:41 07.06.2022
1050 Clear 27 1004 36 10000 5.14 250 23:22 07.06.2022
1051 Clear 28 1004 34 10000 5.66 250 22:38 07.06.2022
1052 Clear 29 1017 30 10000 5.14 250 21:45 07.06.2022
1053 Clear 29 1016 29 10000 5.14 240 21:24 07.06.2022
1054 Clear 30 1016 27 10000 5.66 240 20:43 07.06.2022
1055 Clear 31 1005 26 10000 6.69 250 19:59 07.06.2022
1056 Clear 32 1006 26 10000 5.66 240 18:42 07.06.2022
1057 Clear 32 1005 26 10000 6.17 230 17:54 07.06.2022
1058 Clear 32 1006 25 10000 5.14 230 16:54 07.06.2022
1059 Clear 31 1007 25 10000 4.12 0 16:32 07.06.2022
1060 Clear 30 1019 26 10000 4.12 210 15:40 07.06.2022
1061 Clear 30 1007 27 10000 4.63 0 15:21 07.06.2022
1062 Clear 29 1020 29 10000 4.12 220 14:45 07.06.2022
1063 Clear 28 1020 30 10000 3.09 300 13:46 07.06.2022
1064 Clear 28 1020 30 10000 3.6 0 13:26 07.06.2022
1065 Clear 26 1021 36 10000 2.57 200 12:22 07.06.2022
1066 Clear 25 1021 39 10000 1.54 110 10:57 07.06.2022
1067 Clear 22 1021 50 10000 1.54 60 09:46 07.06.2022
1068 Clear 20 1021 50 10000 0.89 56 08:31 07.06.2022
1069 Clear 19 1005 51 10000 2.06 120 07:19 07.06.2022
1070 Clear 20 1006 48 10000 2.06 320 05:19 07.06.2022
1071 Clear 23 1006 39 10000 1.54 320 01:44 07.06.2022
1072 Clear 24 1005 34 10000 3.09 290 00:20 07.06.2022
1073 Clear 25 1005 33 10000 4.12 260 23:25 06.06.2022
1074 Clear 26 1020 33 10000 3.09 280 22:37 06.06.2022
1075 Clear 28 1019 28 10000 4.12 250 21:33 06.06.2022
1076 Clear 29 1019 24 10000 5.14 250 19:53 06.06.2022
1077 Clear 30 1006 22 10000 5.66 230 19:19 06.06.2022
1078 Clear 29 1019 21 10000 5.66 240 18:34 06.06.2022
1079 Clear 29 1020 19 10000 5.81 248 17:36 06.06.2022
1080 Clear 29 1020 20 10000 6.17 250 16:33 06.06.2022
1081 Clear 28 1020 23 10000 6.17 250 15:39 06.06.2022
1082 Clear 28 1021 25 10000 5.14 240 14:39 06.06.2022
1083 Clear 27 1008 30 10000 6.17 230 13:27 06.06.2022
1084 Clear 26 1022 32 10000 5.14 250 12:37 06.06.2022
1085 Clear 25 1021 35 10000 3.58 216 11:58 06.06.2022
1086 Clear 24 1022 38 10000 3.09 210 11:28 06.06.2022
1087 Clear 21 1021 50 10000 0.89 120 09:40 06.06.2022
1088 Clear 18 1021 54 10000 1.03 270 08:35 06.06.2022
1089 Clear 17 1006 56 10000 1.03 0 07:28 06.06.2022
1090 Clear 18 1004 51 10000 0.89 190 05:29 06.06.2022
1091 Clear 18 1004 51 10000 0.89 190 05:29 06.06.2022
1092 Clear 20 1004 45 9000 2.68 315 03:46 06.06.2022
1093 Clear 22 1005 44 10000 1.79 248 01:29 06.06.2022
1094 Clear 22 1005 43 10000 2.06 160 00:42 06.06.2022
1095 Clear 23 1005 41 10000 3.09 250 23:49 05.06.2022
1096 Clear 25 1002 37 10000 2.57 250 22:52 05.06.2022
1097 Clear 26 1020 28 10000 4.12 210 21:26 05.06.2022
1098 Clear 28 1007 23 10000 5.14 210 19:52 05.06.2022
1099 Clear 28 1020 25 10000 4.12 0 18:31 05.06.2022
1100 Clear 28 1020 25 10000 4.12 240 17:56 05.06.2022
1101 Clear 28 1021 24 10000 4.12 210 17:27 05.06.2022
1102 Clear 28 1021 25 10000 3.09 0 16:58 05.06.2022
1103 Clear 27 1021 26 10000 4.02 248 16:37 05.06.2022
1104 Clear 26 1022 30 10000 4.12 250 14:46 05.06.2022
1105 Clear 24 1022 36 10000 3.09 270 13:21 05.06.2022
1106 Clear 22 1022 44 10000 2.57 170 11:51 05.06.2022
1107 Clear 20 1022 54 10000 1.54 0 10:44 05.06.2022
1108 Clear 19 1022 53 10000 1.54 300 10:23 05.06.2022
1109 Clear 17 1022 59 10000 3.6 250 08:45 05.06.2022
1110 Clear 16 1021 61 10000 2.57 250 08:20 05.06.2022
1111 Clear 16 1005 58 8000 3.09 260 05:23 05.06.2022
1112 Clear 17 1005 57 9000 3.6 250 04:33 05.06.2022
1113 Clear 19 1004 48 10000 4.12 250 01:45 05.06.2022
1114 Clear 19 1004 48 10000 4.12 250 01:45 05.06.2022
1115 Clear 19 1004 48 10000 4.12 250 01:45 05.06.2022
1116 Clear 19 1004 48 10000 4.12 250 01:45 05.06.2022
1117 Clear 19 1004 48 10000 4.12 250 01:45 05.06.2022
1118 Clear 19 1004 48 10000 4.12 250 01:45 05.06.2022
1119 Clear 19 1005 46 10000 4.12 250 01:23 05.06.2022
1120 Clear 19 1005 46 10000 4.12 250 01:23 05.06.2022
1121 Clear 21 1003 40 10000 6.17 250 22:45 04.06.2022
1122 Clouds 24 1002 37 10000 6.26 270 21:21 04.06.2022
1123 Clouds 26 1003 31 10000 6.17 240 18:54 04.06.2022
1124 Clouds 26 1003 33 10000 6.69 240 16:48 04.06.2022
1125 Clouds 25 1016 33 10000 6.69 200 16:19 04.06.2022
1126 Clouds 25 1017 34 10000 5.66 190 15:27 04.06.2022
1127 Clouds 24 1003 39 10000 5.66 190 13:54 04.06.2022
1128 Clouds 21 1017 49 10000 4.12 240 11:28 04.06.2022
1129 Clouds 20 1017 52 10000 4.63 230 10:52 04.06.2022
1130 Clouds 19 1017 56 10000 3.09 230 09:46 04.06.2022
1131 Clouds 18 1016 53 10000 1.03 0 08:50 04.06.2022
1132 Clouds 17 1016 56 9000 1.03 0 08:31 04.06.2022
1133 Clear 16 1000 57 10000 1.54 340 06:20 04.06.2022
1134 Clear 19 1000 49 10000 1.03 290 02:57 04.06.2022
1135 Clear 21 1000 43 10000 3.6 270 00:21 04.06.2022
1136 Clear 22 1000 40 10000 3.6 260 22:54 03.06.2022
1137 Clear 24 999 36 10000 4.63 260 21:46 03.06.2022
1138 Clear 26 1014 30 10000 4.63 230 20:40 03.06.2022
1139 Clear 27 1001 29 10000 6.17 230 19:19 03.06.2022
1140 Clouds 26 1001 32 10000 6.17 220 16:54 03.06.2022
1141 Clouds 25 1001 34 10000 6.17 210 15:52 03.06.2022
1142 Clouds 24 1002 38 10000 7.2 220 13:58 03.06.2022
1143 Clouds 22 1016 48 10000 4.63 240 11:54 03.06.2022
1144 Clouds 19 1015 56 10000 2.57 230 09:56 03.06.2022
1145 Clouds 18 1015 58 10000 2.57 250 09:29 03.06.2022
1146 Clouds 17 1014 57 10000 2.24 200 07:43 03.06.2022
1147 Clouds 17 1014 56 10000 1.54 250 06:46 03.06.2022
1148 Clouds 17 1014 57 10000 1.79 198 06:27 03.06.2022
1149 Clouds 20 1014 46 10000 1.54 120 02:58 03.06.2022
1150 Clear 22 999 43 10000 3.6 250 23:39 02.06.2022
1151 Clear 24 999 40 10000 4.12 250 21:58 02.06.2022
1152 Clear 25 1000 36 10000 5.14 240 20:38 02.06.2022
1153 Clear 26 1000 34 10000 5.14 230 19:55 02.06.2022
1154 Clear 26 1000 34 10000 5.14 250 19:37 02.06.2022
1155 Clear 27 1000 31 10000 4.63 200 18:39 02.06.2022
1156 Clouds 27 1001 32 10000 4.63 240 16:28 02.06.2022
1157 Clouds 26 1015 35 10000 5.14 220 15:46 02.06.2022
1158 Clouds 25 1003 44 10000 5.14 230 13:30 02.06.2022
1159 Clouds 24 1016 48 10000 6.17 230 12:46 02.06.2022
1160 Clouds 21 1016 56 10000 2.57 240 10:36 02.06.2022
1161 Clouds 20 1016 62 10000 3.09 260 09:29 02.06.2022
1162 Clouds 18 1016 65 10000 2.57 230 08:39 02.06.2022
1163 Clouds 18 1016 66 10000 2.57 230 08:19 02.06.2022
1164 Clear 17 999 65 10000 3.09 250 06:21 02.06.2022
1165 Clear 18 1015 60 10000 2.06 40 03:50 02.06.2022
1166 Clear 21 1016 50 10000 3.6 250 00:47 02.06.2022
1167 Clear 23 1015 44 10000 3.6 270 22:57 01.06.2022
1168 Clear 23 1015 44 10000 3.6 270 22:57 01.06.2022
1169 Clouds 25 1015 39 10000 4.63 250 21:59 01.06.2022
1170 Clouds 26 1015 36 10000 4.63 250 21:24 01.06.2022
1171 Clouds 27 1001 34 10000 5.14 240 20:38 01.06.2022
1172 Clouds 27 1014 32 10000 5.66 250 19:51 01.06.2022
1173 Clouds 28 1001 30 10000 6.17 240 18:28 01.06.2022
1174 Clouds 28 1002 30 10000 6.17 230 16:56 01.06.2022
1175 Clouds 27 1003 30 10000 6.17 220 15:43 01.06.2022
1176 Clouds 26 1003 33 10000 5.66 220 14:46 01.06.2022
1177 Clouds 25 1017 33 10000 5.14 230 13:23 01.06.2022
1178 Clear 22 1017 37 10000 3.6 220 10:44 01.06.2022
1179 Clear 20 1017 41 10000 3.09 200 09:29 01.06.2022
1180 Clear 18 1016 44 10000 2.57 160 08:18 01.06.2022
1181 Clear 17 1015 47 10000 3.09 240 07:20 01.06.2022
1182 Clear 20 1015 38 10000 3.09 250 03:55 01.06.2022
1183 Clear 24 1015 30 10000 3.09 230 23:47 31.05.2022
1184 Clear 25 1014 30 10000 2.68 270 22:41 31.05.2022
1185 Clear 26 1014 28 10000 3.6 210 22:22 31.05.2022
1186 Clear 27 1013 24 10000 4.63 200 21:39 31.05.2022
1187 Clear 28 1013 20 10000 4.63 210 20:44 31.05.2022
1188 Clear 30 999 19 10000 5.66 220 19:31 31.05.2022
1189 Clear 29 1013 22 10000 4.63 220 18:26 31.05.2022
1190 Clouds 29 1014 25 10000 3.6 0 17:37 31.05.2022
1191 Clouds 27 1015 28 10000 3.6 180 15:55 31.05.2022
1192 Clouds 27 1015 30 10000 4.02 191 15:34 31.05.2022
1193 Clear 23 1016 42 10000 2.06 0 12:56 31.05.2022
1194 Clear 22 1016 45 10000 2.06 0 12:18 31.05.2022
1195 Clear 19 1016 55 10000 1.54 90 10:25 31.05.2022
1196 Clear 15 1000 68 10000 1.54 360 07:46 31.05.2022
1197 Clear 15 999 68 9000 2.06 250 06:21 31.05.2022
1198 Clear 16 999 64 8000 1.03 0 04:31 31.05.2022
1199 Clear 19 999 52 9000 4.63 240 23:45 30.05.2022
1200 Clear 20 999 51 9000 4.63 240 23:24 30.05.2022
1201 Clear 20 996 50 10000 4.63 240 22:42 30.05.2022
1202 Clear 21 997 47 10000 4.63 220 21:40 30.05.2022
1203 Clear 22 998 42 10000 6.69 230 20:52 30.05.2022
1204 Clear 23 996 39 10000 6.69 230 19:44 30.05.2022
1205 Clear 23 998 41 10000 7.72 250 18:18 30.05.2022
1206 Clear 22 992 45 10000 7.2 230 17:23 30.05.2022
1207 Clear 22 998 43 10000 6.69 230 16:22 30.05.2022
1208 Clear 21 996 46 10000 7.72 210 13:38 30.05.2022
1209 Clouds 19 998 56 10000 9.77 230 11:40 30.05.2022
1210 Clear 17 997 65 10000 8.75 240 09:58 30.05.2022
1211 Clear 16 997 70 10000 8.23 240 08:52 30.05.2022
1212 Clear 17 993 64 10000 6.69 240 06:26 30.05.2022
1213 Clear 18 1008 52 10000 5.14 230 04:52 30.05.2022
1214 Clear 21 1008 38 10000 6.17 240 01:23 30.05.2022
1215 Clear 25 1007 32 10000 5.14 240 22:46 29.05.2022
1216 Clear 25 1007 32 10000 5.14 240 22:28 29.05.2022
1217 Clouds 28 1006 27 10000 6.69 250 20:29 29.05.2022
1218 Clouds 28 1006 25 10000 6.69 270 19:29 29.05.2022
1219 Clouds 29 1007 24 10000 6.17 200 18:34 29.05.2022
1220 Clouds 30 994 25 10000 6.17 220 16:25 29.05.2022
1221 Clouds 29 1008 25 10000 6.17 220 15:46 29.05.2022
1222 Clouds 29 1009 29 10000 6.17 270 14:55 29.05.2022
1223 Clear 27 1009 34 10000 4.12 220 13:18 29.05.2022
1224 Clear 24 1010 37 10000 5.66 230 11:20 29.05.2022
1225 Clear 22 1011 41 10000 3.6 250 10:34 29.05.2022
1226 Clear 19 1010 48 10000 1.54 260 08:31 29.05.2022
1227 Clear 20 996 43 10000 1.54 250 04:58 29.05.2022
1228 Clear 20 996 42 10000 2.57 190 04:36 29.05.2022
1229 Clear 21 1011 39 10000 2.57 10 01:52 29.05.2022
1230 Clear 25 1012 31 10000 2.06 250 23:48 28.05.2022
1231 Clear 26 1012 30 10000 2.57 260 23:20 28.05.2022
1232 Clouds 27 1012 26 10000 3.6 260 22:19 28.05.2022
1233 Clouds 30 1012 19 10000 3.6 250 20:58 28.05.2022
1234 Clouds 31 1012 18 10000 2.57 190 19:21 28.05.2022
1235 Clouds 31 1013 17 10000 4.12 250 18:40 28.05.2022
1236 Clouds 32 1013 18 10000 3.13 270 17:33 28.05.2022
1237 Clouds 31 1014 19 10000 3.09 280 15:56 28.05.2022
1238 Clouds 30 1015 20 10000 2.24 215 15:38 28.05.2022
1239 Clear 28 1016 27 10000 2.06 0 13:38 28.05.2022
1240 Clear 27 1017 31 10000 2.57 180 12:43 28.05.2022
1241 Clear 25 1017 36 10000 2.06 0 11:50 28.05.2022
1242 Clear 22 1018 41 10000 3.09 70 10:41 28.05.2022
1243 Clear 21 1018 45 10000 3.09 60 09:55 28.05.2022
1244 Clear 18 1018 50 10000 2.24 44 08:33 28.05.2022
1245 Clear 17 1018 49 10000 2.24 18 06:50 28.05.2022
1246 Clear 19 1018 46 10000 2.06 50 05:18 28.05.2022
1247 Clear 21 1020 35 10000 2.06 320 02:27 28.05.2022
1248 Clear 24 1019 27 9000 1.54 60 23:59 27.05.2022
1249 Clear 25 1018 26 10000 2.06 70 22:48 27.05.2022
1250 Clear 29 1018 20 10000 1.54 90 21:29 27.05.2022
1251 Clear 30 1018 19 10000 4.12 50 20:45 27.05.2022
1252 Clear 30 1018 17 10000 3.09 20 20:19 27.05.2022
1253 Clear 31 1018 17 10000 4.63 70 19:38 27.05.2022
1254 Clear 31 1018 17 10000 3.6 50 19:20 27.05.2022
1255 Clear 31 1019 16 10000 3.6 40 17:24 27.05.2022
1256 Clear 29 1020 19 10000 2.57 0 15:57 27.05.2022
1257 Clear 28 1021 21 10000 3.13 0 14:58 27.05.2022
1258 Clear 27 1022 26 10000 2.57 20 13:41 27.05.2022
1259 Clear 24 1022 34 10000 2.06 40 12:20 27.05.2022
1260 Clear 22 1022 36 10000 2.57 30 11:31 27.05.2022
1261 Clear 20 1023 42 10000 3.6 40 10:47 27.05.2022
1262 Clear 19 1023 45 10000 3.6 30 09:59 27.05.2022
1263 Clear 18 1008 50 10000 4.47 78 09:31 27.05.2022
1264 Clear 15 1007 56 10000 3.6 330 07:40 27.05.2022
1265 Clear 16 1007 50 10000 3.13 70 05:25 27.05.2022
1266 Clear 20 1023 40 10000 2.68 54 01:44 27.05.2022
1267 Clear 22 1024 33 10000 3.6 40 23:31 26.05.2022
1268 Clear 24 1023 31 10000 2.57 50 22:28 26.05.2022
1269 Clear 25 1022 29 10000 3.58 78 21:32 26.05.2022
1270 Clear 27 1021 28 10000 4.12 50 19:49 26.05.2022
1271 Clear 27 1022 28 10000 5.14 30 18:52 26.05.2022
1272 Clear 26 1022 27 10000 3.6 60 17:36 26.05.2022
1273 Clear 25 1023 26 10000 2.68 109 16:31 26.05.2022
1274 Clear 24 1024 28 10000 3.09 40 15:33 26.05.2022
1275 Clear 22 1025 31 10000 2.57 0 14:20 26.05.2022
1276 Clear 19 1026 38 10000 4.12 70 12:20 26.05.2022
1277 Clear 17 1026 41 10000 6.69 60 11:21 26.05.2022
1278 Clear 14 1026 52 10000 6.69 40 09:39 26.05.2022
1279 Clear 12 1025 56 10000 4.63 50 08:51 26.05.2022
1280 Clear 11 1010 60 10000 2.68 70 06:51 26.05.2022
1281 Clear 13 1010 56 9000 4.47 75 02:54 26.05.2022
1282 Clear 15 1025 48 10000 4.47 91 00:19 26.05.2022
1283 Clear 17 1024 43 10000 5.14 10 23:19 25.05.2022
1284 Clear 19 1023 37 10000 4.12 350 21:46 25.05.2022
1285 Clear 21 1022 31 10000 5.66 350 20:53 25.05.2022
1286 Clear 21 1021 29 10000 5.66 360 19:59 25.05.2022
1287 Clear 22 1021 28 10000 5.14 360 18:48 25.05.2022
1288 Clouds 21 1021 30 10000 5.66 330 17:30 25.05.2022
1289 Clouds 21 1021 31 10000 5.66 360 16:36 25.05.2022
1290 Clouds 20 1021 32 10000 5.66 360 15:53 25.05.2022
1291 Clouds 19 1021 34 10000 4.63 0 14:51 25.05.2022
1292 Clouds 19 1021 35 10000 5.14 20 14:32 25.05.2022
1293 Clouds 18 1008 39 10000 5.14 20 13:28 25.05.2022
1294 Clear 16 1021 44 10000 4.02 11 12:24 25.05.2022
1295 Clear 14 1021 47 10000 7.72 360 10:42 25.05.2022
1296 Clear 13 1021 48 10000 6.17 360 09:53 25.05.2022
1297 Clear 11 1020 59 10000 2.68 1 08:22 25.05.2022
1298 Clear 10 1019 64 10000 0.89 29 06:45 25.05.2022
1299 Clear 11 1002 66 10000 2.24 55 03:19 25.05.2022
1300 Clear 13 1016 49 10000 6.69 20 23:53 24.05.2022
1301 Clouds 15 1016 41 10000 4.12 10 23:23 24.05.2022
1302 Clouds 16 1015 33 10000 5.66 350 22:19 24.05.2022
1303 Clouds 16 1014 30 10000 6.17 310 21:38 24.05.2022
1304 Clouds 16 1014 29 10000 6.17 310 21:19 24.05.2022
1305 Clouds 18 1013 33 10000 7.2 330 19:45 24.05.2022
1306 Clouds 17 999 39 10000 7.2 310 18:50 24.05.2022
1307 Clouds 20 1011 38 10000 6.69 300 16:41 24.05.2022
1308 Clouds 20 998 39 10000 6.69 300 16:19 24.05.2022
1309 Clouds 21 1011 40 10000 5.14 270 14:50 24.05.2022
1310 Clouds 21 997 44 10000 3.09 290 13:52 24.05.2022
1311 Clouds 21 998 46 10000 2.57 350 12:49 24.05.2022
1312 Clouds 18 1012 54 10000 3.6 40 10:46 24.05.2022
1313 Clear 17 1012 59 10000 2.57 40 09:43 24.05.2022
1314 Clear 16 1011 61 10000 3.58 85 08:49 24.05.2022
1315 Clouds 15 996 62 9000 2.24 84 06:56 24.05.2022
1316 Clear 17 996 55 10000 2.57 300 03:48 24.05.2022
1317 Clear 19 996 48 10000 2.06 300 01:53 24.05.2022
1318 Clear 19 997 47 10000 3.6 290 01:32 24.05.2022
1319 Clear 22 1012 40 10000 3.6 300 22:55 23.05.2022
1320 Clouds 23 996 44 10000 4.63 240 21:55 23.05.2022
1321 Clouds 24 996 42 10000 5.66 250 21:29 23.05.2022
1322 Clouds 25 997 41 10000 6.17 240 20:29 23.05.2022
1323 Clouds 26 997 42 10000 5.66 230 19:31 23.05.2022
1324 Clouds 26 1011 40 10000 4.63 220 18:58 23.05.2022
1325 Clouds 26 1011 38 10000 5.66 230 18:30 23.05.2022
1326 Clouds 26 1011 37 10000 4.12 260 17:20 23.05.2022
1327 Clouds 26 998 38 10000 5.14 260 15:23 23.05.2022
1328 Clouds 23 1013 44 10000 5.14 260 13:21 23.05.2022
1329 Clouds 21 1013 53 10000 4.12 280 11:31 23.05.2022
1330 Clear 19 1014 61 10000 3.6 300 09:51 23.05.2022
1331 Clear 18 1014 62 10000 4.12 310 09:30 23.05.2022
1332 Clear 16 1014 70 10000 4.63 280 08:31 23.05.2022
1333 Clear 16 998 72 10000 4.12 260 06:46 23.05.2022
1334 Clear 17 998 69 10000 4.63 250 05:31 23.05.2022
1335 Clear 18 996 67 10000 5.14 260 02:32 23.05.2022
1336 Clear 18 996 66 10000 5.14 260 01:39 23.05.2022
1337 Clouds 19 996 64 10000 5.14 240 00:23 23.05.2022
1338 Clear 20 999 57 10000 5.66 250 22:40 22.05.2022
1339 Clear 21 1014 54 10000 7.2 240 21:55 22.05.2022
1340 Clear 21 999 53 10000 7.72 250 21:32 22.05.2022
1341 Clear 23 1000 47 10000 8.23 260 20:32 22.05.2022
1342 Clear 24 1000 46 10000 7.2 240 19:56 22.05.2022
1343 Clear 25 1000 44 10000 9.77 270 18:56 22.05.2022
1344 Clear 26 1000 42 10000 8.23 250 18:25 22.05.2022
1345 Clear 27 999 38 10000 8.23 200 17:37 22.05.2022
1346 Clear 27 1014 34 10000 6.26 211 16:39 22.05.2022
1347 Clear 25 1002 41 10000 6.69 250 14:53 22.05.2022
1348 Clear 24 1002 40 10000 6.17 220 13:56 22.05.2022
1349 Clear 24 1016 42 10000 5.66 0 12:52 22.05.2022
1350 Clear 24 1016 46 10000 5.66 200 11:52 22.05.2022
1351 Clear 23 1016 47 10000 5.66 200 10:24 22.05.2022
1352 Clear 21 1016 56 10000 2.24 225 09:18 22.05.2022
1353 Clear 20 1016 55 10000 3.09 270 07:22 22.05.2022
1354 Clear 21 1000 44 10000 2.24 214 06:27 22.05.2022
1355 Clear 25 1016 33 10000 4.12 100 02:50 22.05.2022
1356 Clear 26 1017 35 10000 1.79 93 00:44 22.05.2022
1357 Clear 27 999 34 10000 2.06 90 23:55 21.05.2022
1358 Clear 28 1002 31 10000 2.06 230 23:21 21.05.2022
1359 Rain 28 1003 35 10000 12.35 240 21:47 21.05.2022
1360 Rain 28 1004 35 10000 12.35 240 21:26 21.05.2022
1361 Rain 32 1003 24 10000 4.63 360 20:27 21.05.2022
1362 Clear 33 1017 19 10000 2.57 70 19:43 21.05.2022
1363 Clear 34 1017 18 10000 1.54 20 18:21 21.05.2022
1364 Clear 33 1019 19 10000 2.57 120 16:55 21.05.2022
1365 Clear 31 1021 22 10000 1.54 0 14:38 21.05.2022
1366 Clear 31 1021 22 10000 1.79 143 14:38 21.05.2022
1367 Clear 30 1021 24 10000 2.06 0 13:54 21.05.2022
1368 Clear 29 1022 27 10000 2.57 80 13:18 21.05.2022
1369 Clear 28 1022 30 10000 2.57 100 12:38 21.05.2022
1370 Clear 25 1022 37 10000 3.09 70 10:53 21.05.2022
1371 Clear 23 1022 43 10000 3.6 40 09:53 21.05.2022
1372 Clear 21 1023 49 10000 3.09 40 08:58 21.05.2022
1373 Clear 19 1023 54 10000 3.6 40 08:35 21.05.2022
1374 Clouds 21 1001 51 10000 1.79 76 05:29 21.05.2022
1375 Clear 25 1008 42 10000 2.06 60 01:24 21.05.2022
1376 Clear 27 1007 39 10000 4.63 110 23:30 20.05.2022
1377 Clear 28 1022 36 10000 4.63 100 22:26 20.05.2022
1378 Clear 29 1022 35 10000 5.14 100 21:55 20.05.2022
1379 Clouds 30 1006 33 10000 4.12 110 21:18 20.05.2022
1380 Clouds 31 1021 29 10000 5.14 110 20:44 20.05.2022
1381 Clouds 32 1021 25 10000 3.6 130 19:45 20.05.2022
1382 Clouds 33 1021 23 10000 3.09 140 18:48 20.05.2022
1383 Clouds 33 1021 21 10000 3.09 130 17:48 20.05.2022
1384 Clouds 32 1022 21 10000 4.12 140 16:22 20.05.2022
1385 Clouds 32 1022 22 10000 4.63 130 15:53 20.05.2022
1386 Clear 29 1023 25 10000 3.09 50 14:32 20.05.2022
1387 Clouds 28 1023 27 10000 3.6 60 13:56 20.05.2022
1388 Clear 25 1024 34 10000 3.6 80 11:51 20.05.2022
1389 Clouds 22 1024 42 10000 4.12 70 10:30 20.05.2022
1390 Clear 21 1011 49 10000 3.09 50 08:59 20.05.2022
1391 Clouds 20 1009 47 10000 2.57 80 07:42 20.05.2022
1392 Clear 20 1007 47 10000 2.06 60 06:39 20.05.2022
1393 Clear 20 1008 47 10000 2.06 50 05:39 20.05.2022
1394 Clear 25 1005 39 10000 2.06 90 01:18 20.05.2022
1395 Clear 26 1020 34 10000 5.66 110 23:28 19.05.2022
1396 Clear 28 1019 28 10000 6.69 140 22:34 19.05.2022
1397 Clear 30 1018 23 10000 6.69 150 21:49 19.05.2022
1398 Clear 29 1019 28 10000 5.14 110 21:49 19.05.2022
1399 Clear 30 1018 25 10000 6.69 150 21:23 19.05.2022
1400 Clouds 32 995 23 10000 7.2 150 20:43 19.05.2022
1401 Clouds 33 1018 21 10000 5.14 140 19:54 19.05.2022
1402 Clouds 33 1004 19 10000 4.12 160 18:59 19.05.2022
1403 Clouds 34 1018 20 10000 5.66 170 17:35 19.05.2022
1404 Clear 31 1019 28 10000 4.02 180 15:34 19.05.2022
1405 Clear 30 1020 32 10000 3.6 110 14:35 19.05.2022
1406 Clear 29 1020 35 10000 3.6 160 13:59 19.05.2022
1407 Clear 25 1021 42 10000 2.06 110 11:53 19.05.2022
1408 Clouds 23 1021 47 10000 2.57 90 10:30 19.05.2022
1409 Clear 19 1021 56 10000 2.06 80 08:33 19.05.2022
1410 Clear 19 1004 56 10000 1.79 64 06:57 19.05.2022
1411 Clear 22 1019 43 10000 1.34 158 03:26 19.05.2022
1412 Clear 22 1018 39 10000 1.03 0 00:56 19.05.2022
1413 Clear 26 1002 32 10000 1.54 330 23:21 18.05.2022
1414 Clear 27 999 32 10000 2.57 350 22:41 18.05.2022
1415 Clear 28 1017 27 10000 3.6 310 21:33 18.05.2022
1416 Clear 29 1017 26 10000 3.09 220 20:55 18.05.2022
1417 Clear 30 1003 25 10000 2.57 240 20:19 18.05.2022
1418 Clear 31 1017 23 10000 3.6 280 18:47 18.05.2022
1419 Clear 31 1017 22 10000 3.6 240 17:42 18.05.2022
1420 Clear 31 1017 22 10000 3.6 240 17:23 18.05.2022
1421 Clear 31 1018 22 10000 5.66 200 16:52 18.05.2022
1422 Clear 30 1018 24 10000 4.63 230 15:43 18.05.2022
1423 Clear 30 1019 26 10000 3.6 150 15:19 18.05.2022
1424 Clear 29 1019 32 10000 3.09 190 13:53 18.05.2022
1425 Clear 27 1020 33 10000 2.06 170 12:53 18.05.2022
1426 Clear 25 1020 40 10000 2.06 50 11:47 18.05.2022
1427 Clear 24 1020 43 10000 2.57 30 11:29 18.05.2022
1428 Clear 22 1021 52 10000 3.09 60 10:36 18.05.2022
1429 Clear 17 1007 67 10000 2.24 43 07:56 18.05.2022
1430 Clear 17 1005 65 10000 1.54 10 06:54 18.05.2022
1431 Clear 19 1020 57 10000 1.54 10 03:34 18.05.2022
1432 Clear 22 1005 51 10000 1.03 250 00:42 18.05.2022
1433 Clear 24 1002 46 10000 3.09 260 23:21 17.05.2022
1434 Clear 26 1020 39 10000 3.13 226 21:21 17.05.2022
1435 Clear 26 1020 36 10000 4.63 220 20:38 17.05.2022
1436 Clear 28 1020 33 10000 4.63 260 19:30 17.05.2022
1437 Clear 28 1020 33 10000 3.58 231 18:43 17.05.2022
1438 Clear 28 1021 32 10000 4.47 219 17:34 17.05.2022
1439 Clear 28 1021 31 10000 3.09 210 16:55 17.05.2022
1440 Clear 27 1022 31 10000 3.58 228 15:49 17.05.2022
1441 Clear 26 1022 33 10000 4.63 240 14:52 17.05.2022
1442 Clear 25 1022 35 10000 5.66 230 14:28 17.05.2022
1443 Clear 23 1023 48 10000 4.63 230 12:37 17.05.2022
1444 Clear 19 1023 61 10000 2.06 230 10:23 17.05.2022
1445 Clear 17 1023 67 10000 1.54 220 08:51 17.05.2022
1446 Clear 15 1007 69 10000 1.03 340 07:41 17.05.2022
1447 Clear 15 1006 65 10000 1.34 213 05:58 17.05.2022
1448 Clear 20 1022 48 10000 3.09 250 00:47 17.05.2022
1449 Clear 21 1006 45 10000 3.6 250 23:35 16.05.2022
1450 Clear 22 1006 43 10000 3.6 260 22:33 16.05.2022
1451 Clear 24 1021 34 10000 4.12 250 20:56 16.05.2022
1452 Clear 25 1021 33 10000 4.12 250 20:33 16.05.2022
1453 Clouds 26 1021 34 10000 3.6 250 18:41 16.05.2022
1454 Clouds 25 1021 35 10000 4.12 230 16:42 16.05.2022
1455 Clouds 24 1022 40 10000 4.63 240 14:58 16.05.2022
1456 Clouds 22 1023 45 10000 4.12 180 13:34 16.05.2022
1457 Clear 21 1023 49 10000 3.13 216 12:34 16.05.2022
1458 Clear 18 1022 61 10000 1.54 170 10:34 16.05.2022
1459 Clear 14 1006 73 10000 1.54 260 07:47 16.05.2022
1460 Clear 14 1020 67 10000 2.06 220 05:44 16.05.2022
1461 Clear 18 1020 53 10000 1.54 270 00:44 16.05.2022
1462 Clear 20 1004 53 10000 4.12 270 22:42 15.05.2022
1463 Clear 21 1019 50 10000 5.14 260 21:57 15.05.2022
1464 Clouds 22 1003 50 10000 4.12 260 21:36 15.05.2022
1465 Clouds 22 1004 45 10000 5.14 240 20:38 15.05.2022
1466 Clouds 23 1018 40 10000 7.72 240 18:37 15.05.2022
1467 Clouds 24 1004 42 10000 7.72 230 16:52 15.05.2022
1468 Clouds 22 1018 46 10000 5.14 190 14:26 15.05.2022
1469 Clouds 21 1019 50 10000 6.17 210 13:44 15.05.2022
1470 Clouds 20 1019 57 10000 5.66 220 11:55 15.05.2022
1471 Clear 19 1005 59 10000 4.63 240 10:43 15.05.2022
1472 Clear 18 1018 59 10000 3.6 230 09:46 15.05.2022
1473 Clear 16 1016 65 10000 2.24 188 07:22 15.05.2022
1474 Clear 16 1016 64 10000 2.68 200 06:42 15.05.2022
1475 Clear 19 1001 65 10000 2.57 350 02:43 15.05.2022
1476 Clear 20 998 57 10000 3.58 56 00:22 15.05.2022
1477 Clear 21 1001 55 10000 3.13 54 23:36 14.05.2022
1478 Clear 25 997 40 10000 1.54 260 21:45 14.05.2022
1479 Clear 26 1015 34 10000 2.06 240 21:25 14.05.2022
1480 Clear 27 1015 33 10000 5.14 270 20:26 14.05.2022
1481 Thunderstorm 28 1002 33 10000 3.09 250 19:20 14.05.2022
1482 Thunderstorm 28 1015 32 10000 3.09 250 18:57 14.05.2022
1483 Clear 28 1016 34 10000 3.09 0 17:44 14.05.2022
1484 Clear 28 1016 34 10000 3.09 0 17:44 14.05.2022
1485 Clear 26 1018 40 10000 2.06 150 15:58 14.05.2022
1486 Clear 24 1019 44 10000 4.12 50 14:38 14.05.2022
1487 Clear 24 1019 44 10000 4.12 50 14:38 14.05.2022
1488 Clear 22 1020 50 10000 4.12 360 13:27 14.05.2022
1489 Clear 21 1006 58 10000 2.06 70 11:45 14.05.2022
1490 Clouds 20 1006 59 10000 3.09 70 10:43 14.05.2022
1491 Clouds 20 1006 59 10000 3.09 70 10:18 14.05.2022
1492 Clear 18 1006 62 10000 1.79 54 09:23 14.05.2022
1493 Clear 18 1004 61 10000 1.79 69 07:26 14.05.2022
1494 Clear 18 1004 57 10000 1.34 51 04:35 14.05.2022
1495 Clear 23 1005 40 10000 2.06 350 00:27 14.05.2022
1496 Clear 24 1005 37 10000 3.09 270 23:25 13.05.2022
1497 Clear 23 1021 36 10000 3.09 270 22:55 13.05.2022
1498 Clear 24 1020 35 10000 3.09 250 22:21 13.05.2022
1499 Clear 27 1020 28 10000 3.09 250 20:59 13.05.2022
1500 Clear 27 1020 28 10000 3.6 250 20:37 13.05.2022
1501 Clear 28 1020 26 10000 3.6 200 20:19 13.05.2022
1502 Clear 29 1020 26 10000 4.12 190 18:56 13.05.2022
1503 Clear 29 1020 27 10000 3.09 190 17:42 13.05.2022
1504 Clear 28 1020 27 10000 3.09 240 17:22 13.05.2022
1505 Clouds 28 1021 29 10000 3.09 180 15:46 13.05.2022
1506 Clouds 27 1022 33 10000 1.79 0 14:38 13.05.2022
1507 Clear 24 1023 41 10000 2.06 160 12:51 13.05.2022
1508 Clear 23 1023 44 10000 1.03 0 11:54 13.05.2022
1509 Clear 19 1023 57 10000 2.06 80 09:55 13.05.2022
1510 Clear 18 1023 59 10000 2.06 70 09:29 13.05.2022
1511 Clear 15 1007 65 10000 1.79 62 07:51 13.05.2022
1512 Clear 16 1006 62 10000 1.79 68 06:50 13.05.2022
1513 Clear 17 1006 55 10000 4.12 350 04:54 13.05.2022
1514 Clear 19 1021 47 10000 1.03 0 00:59 13.05.2022
1515 Clear 21 1021 43 10000 1.54 290 22:59 12.05.2022
1516 Clouds 22 1020 40 10000 2.57 290 22:34 12.05.2022
1517 Clouds 25 1019 33 10000 2.57 190 21:24 12.05.2022
1518 Clouds 26 1019 31 10000 4.12 180 19:49 12.05.2022
1519 Clouds 26 1019 31 10000 3.13 177 18:25 12.05.2022
1520 Clouds 26 1019 33 10000 2.68 195 16:44 12.05.2022
1521 Clouds 24 1020 33 10000 3.09 160 14:57 12.05.2022
1522 Clear 23 1021 34 10000 4.12 170 13:48 12.05.2022
1523 Clear 21 1021 38 10000 4.12 120 11:55 12.05.2022
1524 Clear 19 1021 47 10000 4.63 100 10:32 12.05.2022
1525 Clouds 17 1007 56 10000 3.09 70 08:53 12.05.2022
1526 Clouds 17 1020 56 10000 3.6 70 08:35 12.05.2022
1527 Clouds 16 1005 58 10000 2.06 50 07:22 12.05.2022
1528 Clear 18 1005 49 10000 3.09 60 04:32 12.05.2022
1529 Clear 21 1020 40 10000 3.09 140 01:29 12.05.2022
1530 Clear 24 1019 40 10000 2.24 162 23:18 11.05.2022
1531 Clear 25 999 38 10000 1.54 190 22:18 11.05.2022
1532 Clear 26 1002 34 10000 2.06 200 21:25 11.05.2022
1533 Clear 28 1018 31 10000 2.57 200 20:20 11.05.2022
1534 Clouds 29 1018 30 10000 2.57 0 17:37 11.05.2022
1535 Clouds 28 1019 32 10000 2.68 188 16:27 11.05.2022
1536 Clear 27 1020 35 10000 2.24 193 14:48 11.05.2022
1537 Clear 26 1020 38 10000 2.24 195 14:25 11.05.2022
1538 Clear 24 1021 43 10000 3.09 110 12:54 11.05.2022
1539 Clear 22 1021 47 10000 2.57 100 11:48 11.05.2022
1540 Clear 18 1021 56 10000 2.57 70 09:29 11.05.2022
1541 Clear 16 1006 61 10000 1.03 0 06:30 11.05.2022
1542 Clear 20 1006 48 10000 1.79 199 02:18 11.05.2022
1543 Clear 24 1005 39 10000 1.79 270 22:58 10.05.2022
1544 Clear 24 1021 38 10000 2.06 200 22:30 10.05.2022
1545 Clear 25 1020 37 10000 3.09 250 21:40 10.05.2022
1546 Clear 27 1020 30 10000 3.09 210 20:34 10.05.2022
1547 Clouds 28 1020 31 10000 3.09 230 18:57 10.05.2022
1548 Clouds 28 1021 32 10000 3.13 203 17:38 10.05.2022
1549 Clouds 27 1022 33 10000 2.68 224 16:35 10.05.2022
1550 Clear 23 1024 39 10000 2.57 120 13:31 10.05.2022
1551 Clear 21 1024 44 10000 2.06 0 11:54 10.05.2022
1552 Clear 20 1024 47 10000 1.54 80 11:32 10.05.2022
1553 Clear 19 1024 47 10000 2.06 60 10:56 10.05.2022
1554 Clear 17 1024 58 10000 2.57 50 09:47 10.05.2022
1555 Clear 15 1024 63 10000 1.79 27 08:18 10.05.2022
1556 Clear 14 1008 62 10000 1.54 10 06:20 10.05.2022
1557 Clear 18 1007 52 10000 4.02 113 01:54 10.05.2022
1558 Clear 21 1022 37 10000 3.09 330 23:53 09.05.2022
1559 Clear 23 1006 39 10000 2.57 240 22:36 09.05.2022
1560 Clear 25 1021 35 10000 2.06 200 21:39 09.05.2022
1561 Clear 26 1020 33 10000 2.57 140 20:20 09.05.2022
1562 Clouds 27 1020 30 10000 2.06 110 18:26 09.05.2022
1563 Clear 27 1021 31 10000 2.24 194 17:26 09.05.2022
1564 Clear 26 1021 32 10000 2.24 134 16:19 09.05.2022
1565 Clear 25 1021 33 10000 2.57 220 15:47 09.05.2022
1566 Clear 24 1022 35 10000 2.57 180 14:37 09.05.2022
1567 Clear 23 1022 37 10000 2.06 0 13:59 09.05.2022
1568 Clear 23 1022 40 10000 1.54 140 13:23 09.05.2022
1569 Clear 20 1023 45 10000 2.06 100 11:53 09.05.2022
1570 Clear 19 1023 49 10000 2.06 120 10:48 09.05.2022
1571 Clear 18 1023 50 10000 2.06 100 10:26 09.05.2022
1572 Clear 13 1009 63 10000 2.06 60 07:57 09.05.2022
1573 Clear 14 1007 57 10000 1.79 36 05:53 09.05.2022
1574 Clear 19 1021 38 10000 3.09 320 00:59 09.05.2022
1575 Clear 20 1021 35 10000 3.6 330 23:28 08.05.2022
1576 Clear 20 1020 31 10000 2.57 350 22:32 08.05.2022
1577 Clear 24 1019 28 10000 1.54 20 21:24 08.05.2022
1578 Clear 25 1019 24 10000 1.54 210 20:25 08.05.2022
1579 Clear 25 1018 24 10000 2.06 0 19:33 08.05.2022
1580 Clear 26 1019 24 10000 2.24 293 18:38 08.05.2022
1581 Clear 26 1019 25 10000 1.79 188 17:40 08.05.2022
1582 Clear 25 1019 26 10000 4.02 172 16:22 08.05.2022
1583 Clear 24 1020 27 10000 2.57 30 15:22 08.05.2022
1584 Clear 21 1021 36 10000 2.57 80 12:49 08.05.2022
1585 Clear 19 1022 44 10000 3.09 90 11:45 08.05.2022
1586 Clear 16 1022 52 10000 3.6 40 10:25 08.05.2022
1587 Clear 15 1022 54 10000 4.12 50 09:53 08.05.2022
1588 Clear 12 1008 67 10000 2.24 35 07:57 08.05.2022
1589 Clear 13 1006 63 10000 3.6 350 06:18 08.05.2022
1590 Clear 15 1006 52 10000 1.79 37 03:22 08.05.2022
1591 Clear 16 1006 49 10000 2.06 20 03:22 08.05.2022
1592 Clear 17 1021 44 10000 2.68 76 01:19 08.05.2022
1593 Clear 18 1021 47 10000 3.09 330 23:57 07.05.2022
1594 Clear 19 1021 46 10000 2.57 340 23:32 07.05.2022
1595 Clouds 19 996 46 10000 1.54 240 22:42 07.05.2022
1596 Clear 20 1020 41 10000 1.03 220 21:56 07.05.2022
1597 Clear 22 1020 36 10000 1.54 240 21:21 07.05.2022
1598 Clouds 23 1019 31 10000 2.06 230 20:23 07.05.2022
1599 Clouds 24 1020 30 10000 2.57 360 18:49 07.05.2022
1600 Clear 23 1021 30 10000 3.6 40 16:34 07.05.2022
1601 Clear 21 1022 31 10000 3.6 40 14:53 07.05.2022
1602 Clear 17 1023 48 10000 4.63 50 11:23 07.05.2022
1603 Clear 13 1023 58 10000 3.6 40 09:42 07.05.2022
1604 Clear 11 1010 68 10000 3.09 30 08:30 07.05.2022
1605 Clear 10 1008 68 10000 2.06 70 07:20 07.05.2022
1606 Clear 11 1008 66 10000 2.57 50 06:42 07.05.2022
1607 Clear 12 1008 59 10000 3.13 70 03:57 07.05.2022
1608 Clear 17 1023 39 10000 3.6 40 23:44 06.05.2022
1609 Clear 19 1022 37 10000 3.6 360 22:35 06.05.2022
1610 Clear 20 1021 35 10000 4.12 360 21:53 06.05.2022
1611 Clear 21 1021 32 10000 5.36 23 21:24 06.05.2022
1612 Clear 23 1021 26 10000 3.09 350 19:47 06.05.2022
1613 Clear 23 1021 27 10000 2.57 240 19:24 06.05.2022
1614 Clear 23 1021 27 10000 3.6 300 18:30 06.05.2022
1615 Clear 23 1021 26 10000 3.09 10 17:34 06.05.2022
1616 Clear 22 1022 28 10000 2.57 280 15:51 06.05.2022
1617 Clear 21 1023 29 10000 2.57 30 15:18 06.05.2022
1618 Clear 19 1023 36 10000 2.06 0 13:45 06.05.2022
1619 Clear 18 1024 40 10000 2.57 20 12:47 06.05.2022
1620 Clear 17 1024 43 10000 3.09 50 11:58 06.05.2022
1621 Clear 14 1024 55 10000 5.14 50 10:41 06.05.2022
1622 Clear 12 1024 61 10000 4.12 40 09:47 06.05.2022
1623 Clear 12 1024 62 10000 4.63 40 09:18 06.05.2022
1624 Clear 10 1009 69 10000 3.13 59 07:40 06.05.2022
1625 Clear 10 1009 68 10000 2.68 55 06:25 06.05.2022
1626 Clear 12 1009 60 10000 3.58 64 02:58 06.05.2022
1627 Clear 13 1024 56 10000 3.13 47 01:58 06.05.2022
1628 Clear 18 1023 37 10000 5.66 360 22:50 05.05.2022
1629 Clouds 19 1022 34 10000 5.14 290 21:46 05.05.2022
1630 Clouds 22 1021 32 10000 3.13 248 20:36 05.05.2022
1631 Clouds 22 1021 31 10000 2.57 10 18:54 05.05.2022
1632 Clouds 22 1021 35 10000 2.24 135 16:40 05.05.2022
1633 Clouds 20 1022 42 10000 2.24 185 14:59 05.05.2022
1634 Clear 18 1023 48 10000 2.06 180 13:29 05.05.2022
1635 Clear 18 1023 51 10000 1.54 0 12:55 05.05.2022
1636 Clear 15 1023 59 10000 3.6 60 11:22 05.05.2022
1637 Clear 12 1022 67 10000 3.58 62 09:40 05.05.2022
1638 Clear 10 1022 73 10000 2.57 30 08:34 05.05.2022
1639 Clear 10 1006 76 10000 1.79 41 06:23 05.05.2022
1640 Clear 13 1006 70 10000 2.24 55 02:23 05.05.2022
1641 Clear 14 1006 70 10000 3.13 72 01:37 05.05.2022
1642 Clear 15 1020 62 10000 1.54 10 23:57 04.05.2022
1643 Clear 16 1005 60 10000 3.09 40 22:57 04.05.2022
1644 Clear 17 1003 54 10000 2.57 60 21:59 04.05.2022
1645 Clouds 17 1003 53 10000 2.06 60 21:34 04.05.2022
1646 Clouds 18 1018 50 10000 4.12 60 20:42 04.05.2022
1647 Clouds 19 1017 49 10000 5.14 50 20:18 04.05.2022
1648 Clouds 19 1017 42 10000 5.66 70 19:35 04.05.2022
1649 Clouds 20 1017 40 10000 4.12 60 18:42 04.05.2022
1650 Clouds 20 1017 40 10000 4.12 60 18:18 04.05.2022
1651 Clouds 19 1017 43 10000 5.14 80 16:36 04.05.2022
1652 Clouds 19 1017 44 10000 3.6 40 15:32 04.05.2022
1653 Clouds 19 1004 48 10000 5.14 40 14:38 04.05.2022
1654 Clouds 18 1017 47 10000 5.14 40 14:19 04.05.2022
1655 Clouds 17 1018 57 10000 4.63 60 12:36 04.05.2022
1656 Clouds 15 1018 64 10000 5.14 30 11:28 04.05.2022
1657 Clouds 13 1004 72 10000 4.63 30 09:57 04.05.2022
1658 Clouds 12 1004 75 10000 5.66 30 09:20 04.05.2022
1659 Clouds 10 1001 80 10000 5.36 45 07:33 04.05.2022
1660 Clear 11 1000 78 10000 5.36 45 04:34 04.05.2022
1661 Clouds 12 1001 76 10000 4.12 20 02:33 04.05.2022
1662 Clouds 13 1000 72 10000 3.13 60 22:59 03.05.2022
1663 Clouds 14 1000 74 10000 3.13 40 21:50 03.05.2022
1664 Clouds 14 999 77 10000 3.13 44 21:23 03.05.2022
1665 Clouds 14 1001 77 10000 3.6 50 20:39 03.05.2022
1666 Clouds 15 998 77 10000 4.63 40 19:21 03.05.2022
1667 Clouds 15 997 65 10000 4.63 30 18:42 03.05.2022
1668 Clouds 16 999 63 10000 7.72 40 17:20 03.05.2022
1669 Clouds 16 1000 61 10000 7.15 68 15:51 03.05.2022
1670 Clouds 15 1000 64 10000 7.72 30 14:23 03.05.2022
1671 Clouds 14 1000 69 10000 7.2 50 12:35 03.05.2022
1672 Clouds 13 1013 72 10000 5.66 40 11:35 03.05.2022
1673 Clouds 12 1000 79 9000 5.66 40 10:26 03.05.2022
1674 Drizzle 11 999 83 10000 5.14 40 08:19 03.05.2022
1675 Clouds 11 996 85 10000 3.09 40 06:45 03.05.2022
1676 Clear 12 997 83 10000 2.68 26 01:59 03.05.2022
1677 Clear 12 1012 75 10000 2.57 320 22:56 02.05.2022
1678 Clear 13 996 77 10000 3.09 350 22:28 02.05.2022
1679 Clouds 13 996 71 10000 3.09 70 21:27 02.05.2022
1680 Clouds 14 1011 69 10000 2.57 20 19:26 02.05.2022
1681 Clouds 14 997 73 10000 2.68 61 18:26 02.05.2022
1682 Clouds 14 997 75 10000 5.66 350 17:39 02.05.2022
1683 Rain 15 991 72 10000 4.12 10 16:42 02.05.2022
1684 Thunderstorm 17 1011 56 10000 7.72 310 15:41 02.05.2022
1685 Clouds 18 1011 55 10000 5.36 45 14:28 02.05.2022
1686 Clouds 18 996 60 10000 3.09 10 13:42 02.05.2022
1687 Clouds 16 1012 66 10000 1.79 95 11:41 02.05.2022
1688 Clouds 14 1012 71 10000 1.54 210 09:42 02.05.2022
1689 Clouds 12 999 82 10000 2.06 270 08:20 02.05.2022
1690 Clear 13 997 78 10000 1.79 34 06:53 02.05.2022
1691 Clear 18 1002 53 10000 3.09 250 00:46 02.05.2022
1692 Clear 18 1003 53 10000 3.09 250 00:21 02.05.2022
1693 Clear 19 1016 53 10000 2.68 278 22:54 01.05.2022
1694 Clouds 20 1016 52 10000 4.63 250 21:42 01.05.2022
1695 Clouds 21 1016 43 10000 5.14 240 20:30 01.05.2022
1696 Clouds 23 1016 40 10000 6.17 260 19:21 01.05.2022
1697 Clouds 23 1016 39 10000 6.17 260 18:52 01.05.2022
1698 Clouds 24 1016 33 10000 7.2 240 17:49 01.05.2022
1699 Clear 24 1017 34 10000 6.17 230 16:37 01.05.2022
1700 Clear 24 1006 39 10000 6.17 230 15:51 01.05.2022
1701 Clouds 23 1007 48 10000 4.47 236 14:45 01.05.2022
1702 Clear 21 1020 50 10000 3.09 240 12:24 01.05.2022
1703 Clear 17 1021 60 10000 1.34 146 10:22 01.05.2022
1704 Clear 14 1021 70 10000 2.06 340 08:49 01.05.2022
1705 Clear 14 1005 69 10000 1.03 0 06:50 01.05.2022
1706 Clear 17 1007 71 10000 0.89 83 01:56 01.05.2022
1707 Clouds 19 1006 58 10000 2.57 300 22:18 30.04.2022
1708 Clouds 20 1006 55 10000 3.09 300 21:32 30.04.2022
1709 Clouds 21 1021 49 10000 3.6 320 19:54 30.04.2022
1710 Clouds 22 1021 49 10000 4.63 310 19:25 30.04.2022
1711 Thunderstorm 21 1021 49 10000 5.66 240 17:31 30.04.2022
1712 Thunderstorm 23 1006 45 10000 4.47 281 15:52 30.04.2022
1713 Thunderstorm 22 1022 48 10000 3.6 230 15:18 30.04.2022
1714 Clouds 21 1023 53 10000 2.57 200 13:59 30.04.2022
1715 Clear 18 1024 62 10000 1.79 175 11:48 30.04.2022
1716 Clear 17 1024 65 9000 1.03 0 11:26 30.04.2022
1717 Clear 16 1024 70 9000 1.03 0 10:23 30.04.2022
1718 Clear 12 1010 82 10000 2.06 350 07:47 30.04.2022
1719 Clear 14 1009 75 10000 1.79 204 04:25 30.04.2022
1720 Clear 17 1012 56 10000 4.12 250 23:57 29.04.2022
1721 Clear 18 1024 52 10000 3.6 260 22:51 29.04.2022
1722 Clear 19 1024 50 10000 3.6 250 21:56 29.04.2022
1723 Clear 20 1023 43 10000 2.57 240 21:25 29.04.2022
1724 Clouds 22 1023 38 10000 2.06 160 20:18 29.04.2022
1725 Clouds 23 1024 36 10000 2.06 190 19:28 29.04.2022
1726 Clouds 22 1024 37 10000 2.57 140 17:35 29.04.2022
1727 Clouds 21 1025 38 10000 2.06 0 16:38 29.04.2022
1728 Clouds 20 1026 43 10000 2.57 130 14:37 29.04.2022
1729 Clear 19 1026 48 10000 3.09 100 13:42 29.04.2022
1730 Clear 18 1027 56 10000 3.13 90 12:37 29.04.2022
1731 Clear 14 1026 67 10000 4.02 79 10:32 29.04.2022
1732 Clear 10 1012 77 10000 3.6 50 07:55 29.04.2022
1733 Clear 10 1010 77 10000 2.24 48 07:25 29.04.2022
1734 Clear 10 1010 79 10000 3.58 45 06:30 29.04.2022
1735 Clear 12 1010 78 10000 3.58 44 02:23 29.04.2022
1736 Clear 13 1025 78 10000 2.57 350 23:58 28.04.2022
1737 Clear 13 1010 77 10000 3.09 350 23:25 28.04.2022
1738 Clear 13 1009 77 10000 1.54 290 22:24 28.04.2022
1739 Clouds 14 1009 75 10000 1.54 250 21:41 28.04.2022
1740 Clouds 15 1023 71 10000 1.54 130 20:48 28.04.2022
1741 Clouds 15 1022 71 10000 2.57 100 19:52 28.04.2022
1742 Clouds 15 1022 70 10000 3.6 140 19:24 28.04.2022
1743 Clouds 15 1022 72 10000 4.12 120 18:52 28.04.2022
1744 Clouds 15 1021 74 10000 7.72 110 17:54 28.04.2022
1745 Clouds 16 1021 67 10000 4.02 90 16:52 28.04.2022
1746 Clouds 15 1021 71 10000 5.14 80 16:20 28.04.2022
1747 Clouds 15 1021 67 10000 4.12 30 15:49 28.04.2022
1748 Clouds 16 1007 69 10000 4.12 30 14:58 28.04.2022
1749 Clouds 14 1008 85 10000 4.12 30 13:37 28.04.2022
1750 Clouds 12 1008 86 8000 1.79 64 12:30 28.04.2022
1751 Clouds 12 1007 88 8000 1.03 0 11:37 28.04.2022
1752 Clouds 11 1007 90 8000 2.06 100 10:26 28.04.2022
1753 Clouds 11 1007 89 10000 2.57 100 09:50 28.04.2022
1754 Clouds 10 1004 88 10000 2.57 350 07:41 28.04.2022
1755 Clouds 11 1000 90 10000 1.03 0 06:51 28.04.2022
1756 Clear 10 1003 89 10000 1.03 0 05:53 28.04.2022
1757 Clear 10 1003 89 10000 1.03 40 04:43 28.04.2022
1758 Clear 11 1004 87 10000 1.34 229 02:41 28.04.2022
1759 Clear 12 1004 85 10000 2.57 170 23:32 27.04.2022
1760 Clear 12 996 83 10000 3.6 190 22:20 27.04.2022
1761 Clouds 13 999 78 10000 2.68 188 21:43 27.04.2022
1762 Clouds 14 1001 73 10000 2.57 340 20:45 27.04.2022
1763 Thunderstorm 14 992 72 10000 5.66 280 19:57 27.04.2022
1764 Thunderstorm 14 1016 73 10000 8.23 280 19:36 27.04.2022
1765 Thunderstorm 16 1016 54 10000 4.63 320 18:41 27.04.2022
1766 Thunderstorm 17 992 57 10000 4.63 320 18:20 27.04.2022
1767 Clouds 17 992 60 10000 3.09 350 16:18 27.04.2022
1768 Clouds 15 1017 73 10000 4.02 215 13:18 27.04.2022
1769 Clouds 13 1017 79 10000 2.06 230 11:26 27.04.2022
1770 Clouds 13 1017 82 10000 1.03 0 10:50 27.04.2022
1771 Clouds 11 1003 91 10000 1.54 260 08:28 27.04.2022
1772 Rain 11 1001 90 10000 1.03 0 06:42 27.04.2022
1773 Clouds 12 1015 86 10000 2.57 90 02:35 27.04.2022
1774 Clouds 13 1015 83 10000 1.03 0 01:23 27.04.2022
1775 Clouds 13 1015 83 10000 1.03 0 00:34 27.04.2022
1776 Clouds 13 999 84 10000 3.6 260 23:24 26.04.2022
1777 Rain 13 1015 82 10000 5.66 260 22:51 26.04.2022
1778 Rain 14 999 82 10000 3.13 270 22:31 26.04.2022
1779 Clouds 14 999 79 9000 1.54 70 21:24 26.04.2022
1780 Thunderstorm 15 1000 80 3000 5.66 220 20:38 26.04.2022
1781 Thunderstorm 16 998 73 4500 5.14 270 19:45 26.04.2022
1782 Rain 17 979 72 10000 3.09 300 19:26 26.04.2022
1783 Thunderstorm 17 1013 58 10000 8.23 220 18:39 26.04.2022
1784 Clouds 21 997 46 10000 3.6 190 17:41 26.04.2022
1785 Clouds 21 1013 44 10000 3.58 197 15:59 26.04.2022
1786 Clouds 19 1014 47 10000 1.34 135 13:55 26.04.2022
1787 Clouds 19 1014 49 10000 2.06 80 13:28 26.04.2022
1788 Clouds 16 1014 55 10000 3.09 80 11:29 26.04.2022
1789 Clouds 14 1014 61 10000 3.09 50 10:30 26.04.2022
1790 Clouds 12 999 70 10000 2.57 50 08:38 26.04.2022
1791 Clouds 12 998 69 10000 1.79 92 05:29 26.04.2022
1792 Clear 11 997 67 10000 2.24 65 04:23 26.04.2022
1793 Clear 14 994 56 10000 2.06 360 00:52 26.04.2022
1794 Clear 14 990 57 10000 1.54 10 23:51 25.04.2022
1795 Clear 17 1012 45 10000 1.54 170 21:57 25.04.2022
1796 Clear 18 997 42 10000 2.06 180 21:33 25.04.2022
1797 Clear 19 1012 35 10000 3.13 187 19:58 25.04.2022
1798 Clouds 20 1012 36 10000 2.57 200 18:48 25.04.2022
1799 Clouds 20 1012 38 10000 3.09 190 17:40 25.04.2022
1800 Clouds 20 1012 38 10000 3.09 190 17:40 25.04.2022
1801 Clouds 19 1013 40 10000 2.57 190 16:44 25.04.2022
1802 Clouds 18 1013 44 10000 3.09 170 15:23 25.04.2022
1803 Clouds 18 1014 44 10000 3.58 184 14:34 25.04.2022
1804 Clear 16 1014 53 10000 2.06 120 12:49 25.04.2022
1805 Clear 12 1014 65 10000 2.57 40 10:44 25.04.2022
1806 Clear 11 1014 70 10000 2.57 60 09:42 25.04.2022
1807 Clear 7 1000 81 10000 3.13 68 07:56 25.04.2022
1808 Clear 8 998 79 10000 1.34 30 05:55 25.04.2022
1809 Clear 11 996 69 10000 1.54 50 01:30 25.04.2022
1810 Clear 12 1014 63 10000 2.68 264 23:56 24.04.2022
1811 Clear 13 1014 58 10000 2.57 250 23:25 24.04.2022
1812 Clouds 13 1014 56 10000 3.09 230 22:39 24.04.2022
1813 Clear 14 1013 53 10000 3.09 220 21:56 24.04.2022
1814 Clouds 15 1013 49 10000 4.12 170 21:22 24.04.2022
1815 Clouds 15 998 52 10000 4.63 230 21:22 24.04.2022
1816 Clouds 15 1013 46 10000 4.63 180 20:46 24.04.2022
1817 Clouds 16 1012 44 10000 4.63 180 20:21 24.04.2022
1818 Clear 17 1012 40 10000 2.68 196 18:44 24.04.2022
1819 Clear 17 1012 43 10000 3.09 200 17:54 24.04.2022
1820 Clear 17 1013 41 10000 3.6 230 17:21 24.04.2022
1821 Clear 16 1013 42 10000 4.63 240 16:55 24.04.2022
1822 Clear 16 1013 44 10000 4.63 250 16:29 24.04.2022
1823 Clear 16 1013 44 10000 4.63 190 15:43 24.04.2022
1824 Clouds 15 1014 50 10000 4.12 220 14:36 24.04.2022
1825 Clouds 13 1013 53 10000 4.12 220 13:27 24.04.2022
1826 Clouds 13 1013 57 10000 4.12 220 12:56 24.04.2022
1827 Clouds 12 1013 60 10000 4.12 240 11:50 24.04.2022
1828 Clear 10 1013 67 10000 3.13 204 10:48 24.04.2022
1829 Clear 8 1012 79 10000 3.09 240 09:47 24.04.2022
1830 Clear 6 999 88 10000 3.09 190 08:18 24.04.2022
1831 Clear 6 1011 80 10000 2.06 230 05:45 24.04.2022
1832 Clear 8 1011 73 10000 3.6 250 02:48 24.04.2022
1833 Clouds 9 996 75 10000 3.6 220 00:45 24.04.2022
1834 Clear 9 1010 75 10000 5.14 250 23:52 23.04.2022
1835 Clouds 10 1009 67 10000 6.17 240 23:25 23.04.2022
1836 Clear 10 994 73 10000 7.72 250 23:25 23.04.2022
1837 Clouds 11 1008 64 10000 4.63 240 21:59 23.04.2022
1838 Clouds 11 993 65 10000 5.14 230 21:41 23.04.2022
1839 Clouds 11 992 65 10000 4.12 260 21:22 23.04.2022
1840 Clouds 11 993 65 10000 8.23 280 19:56 23.04.2022
1841 Clouds 11 991 63 10000 10.29 250 19:20 23.04.2022
1842 Clouds 11 991 64 10000 10.29 250 18:54 23.04.2022
1843 Clouds 12 991 62 10000 10.29 240 18:32 23.04.2022
1844 Clouds 11 991 65 10000 10.29 230 17:46 23.04.2022
1845 Drizzle 10 986 80 10000 10.8 250 16:45 23.04.2022
1846 Clouds 9 991 82 4000 8.23 240 15:43 23.04.2022
1847 Clouds 9 990 78 10000 10.8 230 13:24 23.04.2022
1848 Clouds 7 989 81 10000 9.77 240 11:29 23.04.2022
1849 Drizzle 6 987 90 10000 8.23 240 09:41 23.04.2022
1850 Clouds 5 986 91 10000 7.72 230 07:52 23.04.2022
1851 Clouds 6 997 89 6000 8.23 210 03:57 23.04.2022
1852 Clouds 6 983 92 10000 4.63 180 02:36 23.04.2022
1853 Rain 7 983 94 9000 5.66 180 23:34 22.04.2022
1854 Clouds 7 983 92 10000 4.63 180 22:43 22.04.2022
1855 Rain 7 983 92 10000 4.12 170 21:56 22.04.2022
1856 Clouds 7 983 92 10000 4.12 170 21:56 22.04.2022
1857 Clouds 7 983 92 10000 4.12 170 21:56 22.04.2022
1858 Rain 7 983 92 10000 4.12 170 21:56 22.04.2022
1859 Clouds 7 997 92 9000 4.12 160 21:38 22.04.2022
1860 Rain 7 985 94 8000 4.12 160 20:30 22.04.2022
1861 Rain 8 999 91 6000 4.12 170 19:25 22.04.2022
1862 Rain 7 999 90 6000 4.12 170 18:56 22.04.2022
1863 Clouds 8 986 91 6000 4.12 180 18:24 22.04.2022
1864 Clouds 9 987 89 5000 6.17 220 16:54 22.04.2022
1865 Rain 9 987 90 4000 5.66 170 15:58 22.04.2022
1866 Clouds 10 987 89 9000 6.17 170 15:23 22.04.2022
1867 Clouds 9 1000 90 6000 6.69 170 14:38 22.04.2022
1868 Clouds 10 988 86 10000 7.2 180 13:41 22.04.2022
1869 Clouds 10 1001 77 10000 8.05 201 12:36 22.04.2022
1870 Clouds 11 988 78 10000 6.71 213 11:23 22.04.2022
1871 Clouds 10 989 78 10000 5.81 208 10:56 22.04.2022
1872 Clouds 10 989 81 10000 4.12 160 10:32 22.04.2022
1873 Clouds 9 1002 82 10000 5.66 160 09:54 22.04.2022
1874 Clouds 9 1003 86 9000 3.58 187 08:56 22.04.2022
1875 Clouds 8 1003 86 6000 4.02 194 08:36 22.04.2022
1876 Clouds 9 1004 80 10000 3.6 190 06:21 22.04.2022
1877 Clear 10 1006 59 10000 6.69 220 00:53 22.04.2022
1878 Clear 11 993 45 10000 5.14 240 23:29 21.04.2022
1879 Clear 12 1006 44 10000 5.66 230 22:35 21.04.2022
1880 Clouds 14 1006 44 10000 5.66 220 21:25 21.04.2022
1881 Clouds 15 1006 41 10000 5.66 210 20:29 21.04.2022
1882 Clouds 16 1006 42 10000 5.66 230 18:49 21.04.2022
1883 Clouds 16 1006 41 10000 4.02 239 18:49 21.04.2022
1884 Clouds 16 1006 40 10000 4.63 200 18:19 21.04.2022
1885 Clouds 16 1006 42 10000 3.6 260 17:19 21.04.2022
1886 Clouds 15 1008 43 10000 6.69 220 15:24 21.04.2022
1887 Clouds 14 1008 43 10000 4.47 198 14:52 21.04.2022
1888 Clouds 14 1008 46 10000 3.58 208 13:59 21.04.2022
1889 Clear 13 1008 47 10000 3.13 206 13:21 21.04.2022
1890 Clear 11 1010 56 10000 3.6 180 11:46 21.04.2022
1891 Clear 8 1009 61 10000 1.54 200 09:33 21.04.2022
1892 Clear 6 1010 68 10000 2.57 280 08:38 21.04.2022
1893 Clear 6 994 70 10000 3.09 270 06:36 21.04.2022
1894 Clear 7 1010 62 10000 5.66 340 03:39 21.04.2022
1895 Clear 8 1010 60 10000 5.14 330 03:20 21.04.2022
1896 Clear 8 1010 58 10000 4.63 350 02:44 21.04.2022
1897 Clear 9 1011 55 10000 6.17 350 00:34 21.04.2022
1898 Clear 9 998 56 10000 8.75 350 23:25 20.04.2022
1899 Clear 9 998 55 10000 9.77 360 22:59 20.04.2022
1900 Clear 9 998 55 10000 9.77 360 22:59 20.04.2022
1901 Clear 9 997 54 10000 5.36 35 22:33 20.04.2022
1902 Clouds 10 1009 49 10000 5.36 33 21:36 20.04.2022
1903 Clouds 11 1008 46 10000 8.75 10 20:44 20.04.2022
1904 Clouds 11 997 47 10000 8.75 10 20:21 20.04.2022
1905 Clear 12 1008 44 10000 9.26 360 19:39 20.04.2022
1906 Clouds 12 996 45 10000 10.29 360 18:46 20.04.2022
1907 Clouds 12 1007 49 10000 10.29 350 17:49 20.04.2022
1908 Clouds 11 1007 53 10000 10.29 10 16:39 20.04.2022
1909 Clouds 11 1006 59 10000 9.26 30 14:58 20.04.2022
1910 Clouds 8 1006 74 10000 6.69 20 12:22 20.04.2022
1911 Clouds 8 1006 79 10000 6.69 30 11:42 20.04.2022
1912 Clouds 6 992 88 10000 7.2 20 10:43 20.04.2022
1913 Clouds 5 992 91 8000 8.23 20 09:28 20.04.2022
1914 Clouds 4 992 90 8000 9.26 20 08:29 20.04.2022
1915 Clouds 5 992 90 8000 6.17 10 07:53 20.04.2022
1916 Rain 5 990 91 7000 4.47 29 06:18 20.04.2022
1917 Clouds 7 992 89 8000 5.36 0 01:37 20.04.2022
1918 Clouds 7 993 86 8000 5.14 350 00:21 20.04.2022
1919 Clouds 9 994 73 10000 5.66 350 22:59 19.04.2022
1920 Clouds 9 994 73 10000 5.66 350 22:59 19.04.2022
1921 Clouds 10 994 67 10000 7.15 45 22:23 19.04.2022
1922 Rain 10 993 62 10000 5.66 360 21:53 19.04.2022
1923 Clouds 11 993 63 10000 7.15 45 20:59 19.04.2022
1924 Clouds 11 992 62 10000 7.72 30 20:37 19.04.2022
1925 Clouds 13 1008 57 10000 7.2 10 19:32 19.04.2022
1926 Clouds 14 1008 57 10000 7.2 10 18:30 19.04.2022
1927 Clouds 17 1008 51 10000 7.72 290 16:50 19.04.2022
1928 Clouds 18 997 51 10000 6.69 290 16:25 19.04.2022
1929 Clouds 18 1008 49 10000 7.72 250 15:59 19.04.2022
1930 Clouds 18 998 54 10000 2.68 64 14:46 19.04.2022
1931 Clouds 16 1010 61 10000 2.06 40 12:53 19.04.2022
1932 Clouds 16 1011 62 10000 1.54 0 12:34 19.04.2022
1933 Clouds 14 1011 68 10000 1.54 0 11:34 19.04.2022
1934 Clouds 13 998 73 10000 2.24 56 09:35 19.04.2022
1935 Clouds 12 997 73 10000 1.79 54 07:49 19.04.2022
1936 Clear 14 998 61 10000 1.79 45 04:25 19.04.2022
1937 Clouds 16 999 58 10000 2.06 270 02:39 19.04.2022
1938 Clear 18 1012 51 10000 3.09 250 23:51 18.04.2022
1939 Clear 19 1012 47 10000 3.09 240 22:53 18.04.2022
1940 Clouds 21 1011 39 10000 4.63 240 21:26 18.04.2022
1941 Clouds 23 1011 35 10000 6.17 240 20:39 18.04.2022
1942 Clouds 24 1011 31 10000 4.63 250 20:19 18.04.2022
1943 Clouds 24 1011 28 10000 3.09 250 19:33 18.04.2022
1944 Clouds 25 1012 28 10000 3.6 250 18:49 18.04.2022
1945 Clouds 25 1012 28 10000 4.63 230 17:49 18.04.2022
1946 Clouds 25 1012 29 10000 5.14 220 17:19 18.04.2022
1947 Clouds 24 1013 30 10000 3.6 220 16:39 18.04.2022
1948 Clear 24 1014 31 10000 3.09 170 15:41 18.04.2022
1949 Clouds 23 1015 33 10000 3.13 248 14:27 18.04.2022
1950 Clouds 21 1016 36 10000 1.34 135 13:24 18.04.2022
1951 Clouds 19 1016 40 10000 2.06 80 12:27 18.04.2022
1952 Clear 17 1016 42 10000 3.09 50 10:59 18.04.2022
1953 Clear 15 1016 44 10000 4.63 50 10:18 18.04.2022
1954 Clear 14 1016 45 10000 3.13 55 09:30 18.04.2022
1955 Clear 13 1003 58 10000 3.58 32 07:29 18.04.2022
1956 Clear 16 1004 48 10000 2.24 82 03:51 18.04.2022
1957 Clear 19 1017 41 10000 3.6 360 23:41 17.04.2022
1958 Clear 19 1017 40 10000 3.09 10 22:39 17.04.2022
1959 Clear 21 1016 33 10000 3.09 280 21:39 17.04.2022
1960 Clear 22 1016 32 10000 3.09 290 21:19 17.04.2022
1961 Clear 23 1016 29 10000 3.09 260 20:25 17.04.2022
1962 Clear 25 1016 28 10000 3.09 210 19:21 17.04.2022
1963 Clear 25 1016 26 10000 2.68 202 17:38 17.04.2022
1964 Clear 24 1018 31 10000 2.68 293 15:37 17.04.2022
1965 Clear 23 1018 35 10000 2.57 210 14:53 17.04.2022
1966 Clear 21 1019 36 10000 1.79 220 13:44 17.04.2022
1967 Clear 21 1020 36 10000 1.79 214 12:56 17.04.2022
1968 Clear 18 1020 42 10000 1.34 88 11:24 17.04.2022
1969 Clear 16 1020 45 10000 1.54 70 10:38 17.04.2022
1970 Clear 15 1020 48 10000 1.54 70 10:19 17.04.2022
1971 Clear 13 1020 59 10000 2.24 74 09:23 17.04.2022
1972 Clear 12 1009 63 10000 1.79 64 08:41 17.04.2022
1973 Clear 12 1007 60 10000 1.79 54 06:53 17.04.2022
1974 Clear 15 1005 51 10000 1.54 100 03:20 17.04.2022
1975 Clear 16 1021 49 10000 1.54 120 00:53 17.04.2022
1976 Clear 18 1021 45 10000 4.12 340 23:49 16.04.2022
1977 Clear 20 1021 39 10000 4.63 350 22:27 16.04.2022
1978 Clear 21 1020 36 10000 3.6 360 21:29 16.04.2022
1979 Clouds 24 1019 31 10000 6.17 300 19:54 16.04.2022
1980 Clouds 25 1019 31 10000 5.66 280 18:54 16.04.2022
1981 Clouds 25 1020 30 10000 4.63 240 17:38 16.04.2022
1982 Clouds 25 1021 30 10000 3.09 350 16:32 16.04.2022
1983 Clouds 24 1021 31 10000 2.06 0 15:26 16.04.2022
1984 Clouds 24 1022 32 10000 2.06 330 14:47 16.04.2022
1985 Clouds 23 1022 36 10000 2.06 240 13:56 16.04.2022
1986 Clouds 22 1023 38 10000 2.57 270 13:26 16.04.2022
1987 Clear 20 1023 45 10000 2.24 270 12:18 16.04.2022
1988 Clear 17 1023 54 10000 1.03 0 10:42 16.04.2022
1989 Clear 15 1023 62 10000 1.03 0 09:41 16.04.2022
1990 Clear 13 1010 67 10000 1.79 30 08:56 16.04.2022
1991 Clear 12 1008 67 10000 1.03 320 07:32 16.04.2022
1992 Clear 14 1008 62 10000 2.06 10 06:46 16.04.2022
1993 Clear 16 1008 55 10000 2.24 70 01:59 16.04.2022
1994 Clear 18 1010 55 10000 3.6 280 00:21 16.04.2022
1995 Clear 19 1023 51 10000 3.6 270 22:57 15.04.2022
1996 Clear 19 1022 49 10000 4.12 270 22:31 15.04.2022
1997 Clear 20 1022 48 10000 3.6 260 21:47 15.04.2022
1998 Clouds 21 1022 42 10000 3.09 250 20:56 15.04.2022
1999 Clouds 23 1021 36 10000 3.09 240 19:59 15.04.2022
2000 Clouds 23 1021 35 10000 3.09 260 19:39 15.04.2022
2001 Clouds 24 1021 32 10000 2.57 0 18:46 15.04.2022
2002 Clouds 24 1021 33 10000 2.57 230 18:24 15.04.2022
2003 Clouds 23 1021 33 10000 2.06 230 17:32 15.04.2022
2004 Clouds 23 1022 36 10000 2.24 93 16:26 15.04.2022
2005 Clouds 23 1022 36 10000 2.24 71 15:59 15.04.2022
2006 Clouds 21 1023 42 10000 1.54 200 14:41 15.04.2022
2007 Clear 20 1023 49 10000 1.54 130 13:33 15.04.2022
2008 Clear 18 1024 53 10000 1.34 158 12:40 15.04.2022
2009 Clear 17 1023 58 10000 1.03 0 11:54 15.04.2022
2010 Clear 15 1023 66 10000 1.54 30 10:58 15.04.2022
2011 Clear 15 1023 66 10000 1.03 0 10:40 15.04.2022
2012 Clear 13 1023 78 10000 1.34 27 09:41 15.04.2022
2013 Clear 12 1023 78 10000 1.34 34 09:19 15.04.2022
2014 Clear 11 1009 81 10000 1.54 270 07:24 15.04.2022
2015 Clear 11 1007 77 10000 1.03 0 05:58 15.04.2022
2016 Clear 14 1006 68 10000 2.06 350 02:34 15.04.2022
2017 Clouds 16 1006 61 10000 2.06 350 23:30 14.04.2022
2018 Clouds 17 1020 55 10000 4.92 45 22:48 14.04.2022
2019 Clouds 17 1020 55 10000 4.92 45 22:29 14.04.2022
2020 Clouds 17 1020 53 10000 3.6 350 21:57 14.04.2022
2021 Clouds 19 1007 48 10000 4.63 340 20:37 14.04.2022
2022 Clouds 20 1018 40 10000 2.57 30 19:23 14.04.2022
2023 Clouds 21 1018 39 10000 2.24 103 18:19 14.04.2022
2024 Clouds 21 1018 40 10000 3.09 10 17:38 14.04.2022
2025 Clouds 20 1018 42 10000 3.09 0 16:36 14.04.2022
2026 Clouds 19 1019 49 10000 3.13 63 14:58 14.04.2022
2027 Clouds 18 1019 52 10000 4.63 70 13:45 14.04.2022
2028 Clouds 17 1019 55 10000 5.66 80 12:52 14.04.2022
2029 Clouds 16 1019 55 10000 4.63 50 12:31 14.04.2022
2030 Clouds 15 1019 60 10000 5.14 50 11:29 14.04.2022
2031 Clouds 14 1019 65 10000 4.63 40 10:52 14.04.2022
2032 Clouds 13 1019 67 10000 4.63 30 10:26 14.04.2022
2033 Clouds 11 1018 72 10000 3.6 10 08:54 14.04.2022
2034 Clouds 11 1002 73 10000 3.58 14 06:53 14.04.2022
2035 Clear 12 1002 65 10000 2.24 28 03:28 14.04.2022
2036 Clouds 14 1002 60 10000 3.13 65 23:26 13.04.2022
2037 Clouds 15 1001 55 10000 3.09 40 22:20 13.04.2022
2038 Clouds 16 1000 52 10000 4.92 23 21:36 13.04.2022
2039 Clouds 17 1001 48 10000 4.63 10 20:22 13.04.2022
2040 Clouds 17 1014 44 10000 3.58 5 19:36 13.04.2022
2041 Clouds 18 1013 41 10000 3.09 10 18:27 13.04.2022
2042 Clouds 18 1013 43 10000 3.09 70 17:24 13.04.2022
2043 Clouds 18 1013 41 10000 4.63 10 16:37 13.04.2022
2044 Clouds 18 1014 43 10000 4.12 10 15:41 13.04.2022
2045 Clouds 17 1014 45 10000 3.6 10 14:51 13.04.2022
2046 Clouds 17 1014 45 10000 4.12 30 14:28 13.04.2022
2047 Clouds 16 1014 51 10000 2.57 50 13:29 13.04.2022
2048 Clouds 14 1014 57 10000 2.68 38 12:30 13.04.2022
2049 Clouds 12 1014 70 10000 1.54 310 10:55 13.04.2022
2050 Mist 9 1013 85 10000 2.06 340 09:44 13.04.2022
2051 Fog 7 1000 89 10000 2.57 320 08:43 13.04.2022
2052 Clear 6 994 92 10000 0.89 20 06:52 13.04.2022
2053 Clear 7 997 91 10000 1.34 34 06:26 13.04.2022
2054 Clouds 7 997 90 9000 2.57 320 05:52 13.04.2022
2055 Clouds 9 997 86 10000 1.54 200 00:24 13.04.2022
2056 Clear 10 997 85 10000 1.03 310 23:46 12.04.2022
2057 Clouds 11 996 80 10000 1.03 0 22:19 12.04.2022
2058 Clouds 11 996 79 10000 1.03 0 21:32 12.04.2022
2059 Clouds 12 997 79 10000 4.12 230 20:42 12.04.2022
2060 Clouds 13 997 77 10000 2.06 250 19:53 12.04.2022
2061 Clouds 13 997 78 10000 2.57 330 19:32 12.04.2022
2062 Thunderstorm 12 1010 80 10000 7.2 220 18:42 12.04.2022
2063 Rain 15 996 57 10000 3.09 200 17:34 12.04.2022
2064 Clouds 15 996 57 10000 4.63 170 16:25 12.04.2022
2065 Clouds 14 1010 58 10000 4.12 180 15:33 12.04.2022
2066 Clouds 13 997 63 10000 4.63 160 14:32 12.04.2022
2067 Clouds 12 1011 67 10000 3.58 188 13:38 12.04.2022
2068 Clouds 12 1011 70 10000 3.6 180 12:59 12.04.2022
2069 Clouds 12 1011 73 10000 3.6 160 11:47 12.04.2022
2070 Clouds 11 1011 77 10000 3.6 180 11:24 12.04.2022
2071 Clouds 9 1010 89 10000 2.57 170 09:25 12.04.2022
2072 Clouds 8 1010 91 10000 2.06 170 08:18 12.04.2022
2073 Clouds 8 1009 92 10000 2.24 219 06:33 12.04.2022
2074 Clouds 9 1009 92 10000 3.09 170 05:36 12.04.2022
2075 Clouds 10 990 91 6000 8.75 240 01:47 12.04.2022
2076 Clouds 14 992 75 10000 7.72 240 23:19 11.04.2022
2077 Clouds 17 1005 44 10000 5.66 190 21:49 11.04.2022
2078 Clouds 18 1005 40 10000 8.75 210 21:18 11.04.2022
2079 Clouds 19 1005 42 10000 6.17 220 20:30 11.04.2022
2080 Clouds 20 1005 39 10000 6.17 220 19:57 11.04.2022
2081 Clouds 21 992 40 10000 6.69 170 19:22 11.04.2022
2082 Clouds 21 1005 37 10000 7.2 170 18:49 11.04.2022
2083 Clouds 22 1005 36 10000 6.69 160 17:57 11.04.2022
2084 Clouds 22 1006 36 10000 7.2 180 16:57 11.04.2022
2085 Clouds 21 1007 36 10000 6.71 223 16:20 11.04.2022
2086 Clouds 20 1008 42 10000 4.63 180 14:35 11.04.2022
2087 Clear 18 1010 49 10000 3.09 140 12:54 11.04.2022
2088 Clear 17 1010 50 10000 3.6 160 12:35 11.04.2022
2089 Clear 15 1010 55 10000 3.6 130 11:42 11.04.2022
2090 Clear 13 1010 63 10000 2.57 90 10:34 11.04.2022
2091 Clear 11 1010 73 10000 2.68 0 09:22 11.04.2022
2092 Clear 10 995 77 10000 2.57 100 06:51 11.04.2022
2093 Clear 13 996 73 10000 4.63 120 02:32 11.04.2022
2094 Clear 16 1012 66 10000 6.17 120 22:54 10.04.2022
2095 Clear 17 996 63 10000 7.72 120 22:26 10.04.2022
2096 Clouds 19 1011 53 10000 6.26 167 21:33 10.04.2022
2097 Clouds 21 1011 44 10000 6.71 135 20:33 10.04.2022
2098 Clouds 22 1011 39 10000 5.36 219 19:45 10.04.2022
2099 Clouds 22 1011 37 10000 6.17 160 19:23 10.04.2022
2100 Clouds 22 1011 38 10000 6.17 160 18:45 10.04.2022
2101 Clouds 22 1012 39 10000 4.12 150 17:55 10.04.2022
2102 Clouds 22 1012 38 10000 4.63 150 17:35 10.04.2022
2103 Clouds 21 1013 45 10000 4.12 170 16:33 10.04.2022
2104 Clouds 20 1014 48 10000 4.12 160 15:30 10.04.2022
2105 Clouds 19 1015 54 10000 3.6 160 14:25 10.04.2022
2106 Clouds 16 1016 67 10000 4.63 140 12:35 10.04.2022
2107 Clouds 16 1016 67 10000 4.63 140 12:35 10.04.2022
2108 Clouds 16 1017 72 10000 3.6 120 11:56 10.04.2022
2109 Clouds 15 1017 74 10000 4.12 110 11:29 10.04.2022
2110 Clouds 14 1017 80 10000 2.06 110 10:56 10.04.2022
2111 Clouds 12 1017 83 10000 1.54 100 09:58 10.04.2022
2112 Clouds 12 1017 84 10000 1.54 80 09:37 10.04.2022
2113 Clouds 11 1017 87 10000 1.54 360 08:22 10.04.2022
2114 Clouds 11 1017 87 10000 1.54 50 07:27 10.04.2022
2115 Clouds 11 1002 92 9000 1.54 360 05:50 10.04.2022
2116 Clear 11 1003 90 10000 2.06 130 02:25 10.04.2022
2117 Clear 12 1018 87 10000 2.57 230 00:28 10.04.2022
2118 Clear 13 1018 85 10000 2.57 230 23:48 09.04.2022
2119 Clouds 14 1018 80 10000 4.12 230 22:47 09.04.2022
2120 Clouds 15 1002 75 10000 4.12 210 21:35 09.04.2022
2121 Clouds 15 1017 73 10000 5.14 230 20:49 09.04.2022
2122 Clouds 16 1004 70 10000 5.14 230 20:26 09.04.2022
2123 Clouds 17 1004 66 10000 5.14 230 19:42 09.04.2022
2124 Clouds 17 1017 62 10000 5.66 200 18:59 09.04.2022
2125 Clouds 17 1004 64 10000 5.66 220 18:20 09.04.2022
2126 Clouds 17 1004 64 10000 5.14 200 17:39 09.04.2022
2127 Clouds 17 1017 62 10000 5.66 230 16:52 09.04.2022
2128 Clouds 17 1005 63 10000 5.66 230 15:55 09.04.2022
2129 Clouds 17 1018 62 10000 4.63 240 15:30 09.04.2022
2130 Clouds 16 1018 67 10000 4.12 190 14:44 09.04.2022
2131 Clouds 15 1018 71 10000 4.47 273 14:22 09.04.2022
2132 Clouds 14 1019 77 10000 4.63 230 13:18 09.04.2022
2133 Clouds 14 1006 81 10000 4.12 240 12:41 09.04.2022
2134 Clouds 12 1019 86 10000 5.14 240 11:22 09.04.2022
2135 Clouds 11 1018 87 10000 3.6 260 10:21 09.04.2022
2136 Clouds 10 1018 88 10000 4.63 250 09:38 09.04.2022
2137 Clouds 10 1005 89 10000 3.6 250 08:53 09.04.2022
2138 Clouds 10 1003 87 10000 3.6 230 06:56 09.04.2022
2139 Clouds 12 1019 74 10000 6.17 240 02:20 09.04.2022
2140 Clouds 13 1004 69 10000 8.23 240 23:45 08.04.2022
2141 Clouds 14 1004 66 10000 6.69 240 21:58 08.04.2022
2142 Clouds 14 1004 65 10000 6.69 240 21:29 08.04.2022
2143 Clouds 14 1005 63 10000 8.75 250 20:39 08.04.2022
2144 Clouds 15 1005 59 10000 9.77 240 19:20 08.04.2022
2145 Clear 16 1004 57 10000 9.26 240 18:30 08.04.2022
2146 Clouds 16 1018 55 10000 9.26 240 17:49 08.04.2022
2147 Clouds 15 1018 56 10000 9.77 240 17:25 08.04.2022
2148 Clouds 15 1005 58 10000 9.26 250 16:47 08.04.2022
2149 Clouds 15 1003 58 10000 10.29 250 15:57 08.04.2022
2150 Clouds 14 1003 60 10000 9.26 240 15:26 08.04.2022
2151 Clouds 14 1019 60 10000 8.23 240 14:33 08.04.2022
2152 Clouds 13 1019 63 10000 8.75 240 13:47 08.04.2022
2153 Clouds 13 1020 63 10000 8.75 240 13:29 08.04.2022
2154 Clouds 12 1007 72 10000 7.2 240 12:18 08.04.2022
2155 Clouds 9 1020 80 10000 5.66 230 10:37 08.04.2022
2156 Clouds 7 1019 89 10000 4.02 234 09:38 08.04.2022
2157 Clouds 7 1006 91 10000 4.12 240 08:51 08.04.2022
2158 Clear 7 1004 90 10000 4.02 230 07:31 08.04.2022
2159 Clear 8 1019 84 10000 3.6 240 05:23 08.04.2022
2160 Clear 11 1003 69 10000 3.09 190 01:29 08.04.2022
2161 Clear 12 1006 68 10000 4.02 269 00:25 08.04.2022
2162 Clear 13 1020 61 10000 5.66 260 22:59 07.04.2022
2163 Clear 14 1020 61 10000 5.66 240 22:40 07.04.2022
2164 Clear 14 1020 60 10000 4.92 288 22:21 07.04.2022
2165 Clear 14 1020 59 10000 5.66 240 21:53 07.04.2022
2166 Clear 16 1019 56 10000 5.66 230 21:19 07.04.2022
2167 Clear 17 1019 53 10000 8.23 230 20:38 07.04.2022
2168 Clear 19 1019 42 10000 8.23 240 18:48 07.04.2022
2169 Clear 19 1006 42 10000 7.72 230 17:27 07.04.2022
2170 Clear 19 1020 43 10000 8.75 230 16:45 07.04.2022
2171 Clear 18 1007 46 10000 7.72 240 16:23 07.04.2022
2172 Clear 17 1020 45 10000 7.2 230 14:50 07.04.2022
2173 Clear 16 1021 47 10000 7.72 240 13:45 07.04.2022
2174 Clear 15 1021 53 10000 6.69 230 12:58 07.04.2022
2175 Clear 13 1021 63 10000 6.69 240 11:40 07.04.2022
2176 Clear 9 1020 77 10000 3.6 230 09:42 07.04.2022
2177 Clear 7 1019 79 10000 3.09 230 08:38 07.04.2022
2178 Clear 8 1019 75 10000 3.09 230 06:57 07.04.2022
2179 Clear 10 1004 63 10000 4.63 250 02:58 07.04.2022
2180 Clear 10 1019 61 10000 4.63 250 02:27 07.04.2022
2181 Clear 11 1018 59 10000 5.14 240 00:42 07.04.2022
2182 Clear 12 1018 57 10000 5.66 240 22:54 06.04.2022
2183 Clear 12 1017 56 10000 4.63 240 22:30 06.04.2022
2184 Clear 13 1016 49 10000 4.63 250 21:45 06.04.2022
2185 Clear 15 1015 41 10000 7.2 230 20:40 06.04.2022
2186 Clear 16 1015 37 10000 6.69 240 19:57 06.04.2022
2187 Clear 17 1015 39 10000 7.72 230 18:52 06.04.2022
2188 Clear 16 1015 42 10000 6.69 230 18:33 06.04.2022
2189 Clear 16 1002 45 10000 7.72 240 17:35 06.04.2022
2190 Clear 15 1015 48 10000 5.14 220 16:39 06.04.2022
2191 Clear 14 1015 52 10000 4.63 210 15:49 06.04.2022
2192 Clear 13 1015 56 10000 4.63 250 15:30 06.04.2022
2193 Clouds 9 1016 68 10000 3.6 220 13:30 06.04.2022
2194 Clouds 7 1016 74 10000 3.09 190 12:28 06.04.2022
2195 Clouds 6 1002 82 10000 2.57 260 10:54 06.04.2022
2196 Clouds 5 1002 83 10000 2.57 260 10:32 06.04.2022
2197 Clouds 4 1014 86 10000 2.06 200 09:43 06.04.2022
2198 Clouds 4 1014 87 10000 2.57 200 08:36 06.04.2022
2199 Clouds 4 1001 87 10000 3.09 200 07:56 06.04.2022
2200 Clear 4 1013 84 10000 2.68 210 04:42 06.04.2022
2201 Clear 6 1014 71 10000 3.6 200 23:57 05.04.2022
2202 Clear 7 999 74 10000 4.12 210 23:33 05.04.2022
2203 Clouds 7 998 73 10000 4.63 220 21:48 05.04.2022
2204 Clouds 7 1000 73 10000 5.66 240 20:54 05.04.2022
2205 Clouds 8 997 71 10000 6.17 240 20:23 05.04.2022
2206 Clear 10 1001 48 10000 5.66 220 18:26 05.04.2022
2207 Clouds 11 1013 41 10000 3.09 220 17:20 05.04.2022
2208 Clouds 10 1002 42 10000 3.13 202 16:42 05.04.2022
2209 Clouds 10 1014 43 10000 2.06 200 15:50 05.04.2022
2210 Clouds 9 1014 43 10000 2.06 200 15:30 05.04.2022
2211 Clouds 8 1015 46 10000 2.06 200 13:45 05.04.2022
2212 Clouds 6 1002 55 10000 2.06 30 11:55 05.04.2022
2213 Clouds 6 1002 56 10000 2.57 50 11:33 05.04.2022
2214 Clouds 5 1002 57 10000 2.57 70 10:58 05.04.2022
2215 Clouds 5 1001 57 10000 4.12 30 09:31 05.04.2022
2216 Clouds 4 1001 58 10000 4.12 40 08:27 05.04.2022
2217 Clear 5 1002 51 10000 5.81 45 03:37 05.04.2022
2218 Clear 7 1014 49 10000 2.68 68 23:38 04.04.2022
2219 Clouds 8 999 54 10000 1.79 0 22:37 04.04.2022
2220 Clouds 9 1000 56 10000 3.09 170 21:46 04.04.2022
2221 Clouds 10 1000 53 10000 2.68 194 21:18 04.04.2022
2222 Clouds 10 1001 52 10000 2.57 190 20:47 04.04.2022
2223 Clouds 12 1001 42 10000 3.6 150 19:28 04.04.2022
2224 Clouds 12 1012 33 10000 4.12 70 18:43 04.04.2022
2225 Clouds 12 1012 33 10000 4.12 60 17:20 04.04.2022
2226 Clouds 12 1012 33 10000 4.12 50 16:31 04.04.2022
2227 Clouds 11 1013 37 10000 4.63 80 15:33 04.04.2022
2228 Clouds 10 1014 40 10000 4.12 50 14:46 04.04.2022
2229 Clouds 10 1014 40 10000 4.12 50 14:27 04.04.2022
2230 Clouds 8 1015 43 10000 6.69 30 12:58 04.04.2022
2231 Clouds 4 1002 51 10000 6.17 40 11:29 04.04.2022
2232 Clouds 3 1002 55 10000 7.2 30 10:29 04.04.2022
2233 Clear 0 1002 60 10000 5.36 45 06:58 04.04.2022
2234 Clear 1 1004 52 10000 5.14 30 03:18 04.04.2022
2235 Clear 5 1002 43 10000 5.81 68 23:42 03.04.2022
2236 Clear 6 1002 37 10000 5.14 40 22:18 03.04.2022
2237 Clear 7 1001 31 10000 4.63 40 21:31 03.04.2022
2238 Clouds 9 1002 29 10000 7.2 50 20:32 03.04.2022
2239 Clouds 10 1013 27 10000 6.69 50 18:47 03.04.2022
2240 Clouds 10 1013 28 10000 6.69 50 17:57 03.04.2022
2241 Clouds 10 1013 29 10000 6.17 30 17:37 03.04.2022
2242 Clouds 10 1014 33 10000 6.69 40 16:50 03.04.2022
2243 Clouds 9 1014 35 10000 7.72 40 15:57 03.04.2022
2244 Clouds 8 1015 41 10000 6.69 40 14:27 03.04.2022
2245 Clouds 8 1016 41 10000 6.17 40 13:34 03.04.2022
2246 Clouds 6 1016 51 10000 5.66 40 11:51 03.04.2022
2247 Clear 3 1016 59 10000 2.68 80 09:59 03.04.2022
2248 Clear 1 1016 66 10000 1.79 82 09:18 03.04.2022
2249 Clear 0 1002 68 10000 2.24 64 06:28 03.04.2022
2250 Clear 2 1005 59 10000 3.09 40 02:56 03.04.2022
2251 Clear 5 1006 51 10000 3.6 350 23:50 02.04.2022
2252 Clear 5 1006 50 10000 4.02 31 22:51 02.04.2022
2253 Clear 6 1005 47 10000 5.36 0 21:56 02.04.2022
2254 Clear 6 1005 46 10000 5.36 0 21:56 02.04.2022
2255 Clouds 7 1005 42 10000 5.66 360 21:21 02.04.2022
2256 Clouds 8 1006 37 10000 6.17 10 20:39 02.04.2022
2257 Clouds 9 1017 32 10000 6.69 360 18:49 02.04.2022
2258 Clouds 10 1006 32 10000 5.14 350 18:20 02.04.2022
2259 Clouds 9 1017 32 10000 5.66 350 17:43 02.04.2022
2260 Clouds 9 1018 32 10000 5.14 10 15:58 02.04.2022
2261 Clouds 9 1007 34 10000 4.63 350 15:20 02.04.2022
2262 Clouds 9 1008 36 10000 5.14 320 14:32 02.04.2022
2263 Clouds 7 1019 37 10000 6.71 45 13:34 02.04.2022
2264 Clouds 7 1020 39 10000 8.23 360 12:32 02.04.2022
2265 Clear 5 1019 49 10000 4.92 23 10:46 02.04.2022
2266 Clear 2 1008 59 10000 6.17 360 08:44 02.04.2022
2267 Clear 2 1005 58 10000 2.68 19 05:58 02.04.2022
2268 Clear 3 1004 56 10000 4.12 360 03:28 02.04.2022
2269 Clear 4 1003 62 10000 4.92 45 23:55 01.04.2022
2270 Clouds 5 1003 62 10000 4.63 360 22:55 01.04.2022
2271 Clouds 6 1004 55 10000 4.63 290 21:30 01.04.2022
2272 Clouds 8 1005 47 10000 5.14 350 20:50 01.04.2022
2273 Clouds 9 1016 37 10000 4.63 360 19:51 01.04.2022
2274 Clouds 9 1004 37 10000 4.12 360 19:27 01.04.2022
2275 Clouds 9 1004 36 10000 6.17 340 18:42 01.04.2022
2276 Clouds 9 1004 35 10000 6.69 360 17:45 01.04.2022
2277 Clouds 9 1015 33 10000 6.69 330 16:34 01.04.2022
2278 Clouds 9 1004 35 10000 8.23 350 15:19 01.04.2022
2279 Clouds 8 1016 33 10000 8.23 350 14:18 01.04.2022
2280 Clouds 8 1005 34 10000 7.2 350 13:32 01.04.2022
2281 Clouds 7 1016 36 10000 7.2 20 12:32 01.04.2022
2282 Clouds 6 1015 41 10000 8.75 30 11:33 01.04.2022
2283 Clouds 5 1014 47 10000 6.17 40 10:18 01.04.2022
2284 Clouds 5 998 58 10000 5.81 45 07:59 01.04.2022
2285 Clouds 6 1011 67 10000 4.12 360 06:30 01.04.2022
2286 Clear 7 995 77 10000 4.12 360 04:45 01.04.2022
2287 Clouds 7 994 79 10000 2.57 330 03:41 01.04.2022
2288 Clear 7 994 83 10000 3.09 350 01:54 01.04.2022
2289 Rain 9 993 73 10000 4.47 308 22:58 31.03.2022
2290 Drizzle 10 992 72 10000 5.14 310 21:50 31.03.2022
2291 Clouds 10 992 71 10000 6.17 300 21:31 31.03.2022
2292 Clouds 10 993 69 10000 5.66 280 20:29 31.03.2022
2293 Clouds 11 993 69 10000 5.66 270 19:48 31.03.2022
2294 Clouds 12 992 62 10000 6.69 240 18:43 31.03.2022
2295 Clouds 13 992 50 10000 6.17 300 17:41 31.03.2022
2296 Clouds 12 1006 47 10000 5.66 300 16:34 31.03.2022
2297 Clouds 12 1006 47 10000 5.14 290 15:37 31.03.2022
2298 Clouds 11 1007 47 10000 4.63 300 15:19 31.03.2022
2299 Clouds 11 1007 49 10000 5.14 300 14:34 31.03.2022
2300 Clouds 9 1007 55 10000 7.2 280 11:34 31.03.2022
2301 Clouds 8 1007 56 10000 6.17 300 10:55 31.03.2022
2302 Clear 7 993 68 10000 4.12 290 09:44 31.03.2022
2303 Clear 6 1006 71 10000 3.6 290 07:53 31.03.2022
2304 Clear 7 991 75 10000 3.6 250 04:42 31.03.2022
2305 Clouds 10 1006 72 10000 3.09 320 23:37 30.03.2022
2306 Clouds 9 1006 74 10000 3.09 350 22:27 30.03.2022
2307 Clouds 10 1004 70 10000 2.57 150 21:37 30.03.2022
2308 Clouds 11 1004 69 10000 2.06 130 20:44 30.03.2022
2309 Clouds 11 1004 67 10000 3.6 20 19:59 30.03.2022
2310 Clouds 11 990 71 10000 3.6 60 18:59 30.03.2022
2311 Clouds 12 990 67 10000 4.12 20 17:53 30.03.2022
2312 Clouds 11 1003 68 10000 4.12 20 17:34 30.03.2022
2313 Clouds 11 1003 68 10000 4.12 20 16:51 30.03.2022
2314 Clouds 12 990 70 10000 4.63 10 16:30 30.03.2022
2315 Clouds 11 1004 76 10000 6.17 10 14:56 30.03.2022
2316 Clouds 11 1004 77 10000 3.09 10 13:34 30.03.2022
2317 Clouds 11 991 85 10000 3.13 29 12:41 30.03.2022
2318 Clouds 10 991 87 9000 5.36 45 10:55 30.03.2022
2319 Rain 10 991 86 2500 2.24 11 09:58 30.03.2022
2320 Clouds 10 991 85 10000 2.06 340 08:57 30.03.2022
2321 Clouds 10 989 86 10000 2.06 350 07:31 30.03.2022
2322 Clear 10 1004 87 10000 1.54 340 05:40 30.03.2022
2323 Clouds 10 991 88 10000 1.34 45 03:21 30.03.2022
2324 Drizzle 12 991 85 9000 3.13 45 23:42 29.03.2022
2325 Clouds 13 991 74 10000 2.06 10 22:19 29.03.2022
2326 Clouds 14 991 73 10000 3.6 360 21:41 29.03.2022
2327 Clouds 14 992 69 10000 4.12 240 20:44 29.03.2022
2328 Clear 15 1006 65 10000 4.12 230 19:45 29.03.2022
2329 Clouds 16 991 66 10000 4.12 240 18:54 29.03.2022
2330 Clouds 16 987 66 10000 4.12 250 18:18 29.03.2022
2331 Clouds 16 984 64 10000 3.6 260 17:21 29.03.2022
2332 Clouds 16 988 63 10000 3.6 260 16:56 29.03.2022
2333 Clouds 16 1008 61 10000 3.58 270 15:57 29.03.2022
2334 Clear 16 1009 60 10000 1.54 0 14:48 29.03.2022
2335 Clear 14 1010 62 10000 2.24 225 13:52 29.03.2022
2336 Clear 13 1011 70 10000 2.06 320 12:47 29.03.2022
2337 Clear 12 999 82 10000 3.09 290 11:28 29.03.2022
2338 Clouds 11 998 83 10000 3.6 280 10:27 29.03.2022
2339 Clouds 10 998 84 10000 2.06 350 09:23 29.03.2022
2340 Clear 10 998 82 10000 1.03 0 06:55 29.03.2022
2341 Clear 10 1000 80 10000 2.06 120 03:47 29.03.2022
2342 Clear 12 1002 74 10000 3.09 130 23:49 28.03.2022
2343 Rain 13 1002 73 10000 3.09 100 22:59 28.03.2022
2344 Rain 13 1002 72 10000 3.6 140 22:39 28.03.2022
2345 Clouds 13 1017 70 10000 3.6 140 22:19 28.03.2022
2346 Clouds 15 1004 66 10000 3.09 100 20:53 28.03.2022
2347 Clear 15 1017 59 10000 3.09 100 19:59 28.03.2022
2348 Clouds 16 1017 58 10000 4.12 150 19:40 28.03.2022
2349 Clouds 16 1017 58 10000 4.12 150 19:40 28.03.2022
2350 Clouds 16 1017 55 10000 3.6 110 18:52 28.03.2022
2351 Clouds 16 1017 55 10000 3.09 100 18:18 28.03.2022
2352 Clouds 16 1018 56 10000 3.6 110 17:30 28.03.2022
2353 Clear 15 1019 55 10000 2.57 90 15:48 28.03.2022
2354 Clear 14 1020 55 10000 3.09 100 14:24 28.03.2022
2355 Clear 13 1021 56 10000 3.6 110 13:33 28.03.2022
2356 Clear 11 1008 67 10000 4.63 70 11:54 28.03.2022
2357 Clear 9 1009 79 10000 4.63 70 10:49 28.03.2022
2358 Clear 8 1008 82 10000 3.13 68 09:38 28.03.2022
2359 Clear 7 1010 84 10000 2.57 70 08:46 28.03.2022
2360 Clear 7 1010 84 10000 2.06 70 08:21 28.03.2022
2361 Clear 7 1008 83 10000 1.79 67 07:26 28.03.2022
2362 Clear 9 1010 79 10000 1.03 20 02:46 28.03.2022
2363 Clouds 12 1010 68 10000 1.79 125 22:59 27.03.2022
2364 Clouds 13 1009 68 10000 1.54 60 21:55 27.03.2022
2365 Clouds 13 1009 68 10000 1.54 60 21:37 27.03.2022
2366 Clouds 13 1010 64 10000 2.06 80 20:42 27.03.2022
2367 Clouds 14 1010 62 10000 3.6 130 19:44 27.03.2022
2368 Clouds 14 1010 61 10000 3.09 110 18:47 27.03.2022
2369 Clouds 14 1010 61 10000 3.09 110 18:47 27.03.2022
2370 Clouds 14 1010 62 10000 3.09 110 18:25 27.03.2022
2371 Clouds 14 1010 61 10000 3.6 120 17:37 27.03.2022
2372 Clouds 13 1023 64 10000 3.6 70 15:57 27.03.2022
2373 Clouds 12 1024 69 10000 2.57 120 14:22 27.03.2022
2374 Clouds 12 1024 69 10000 2.06 120 13:33 27.03.2022
2375 Clouds 11 1024 75 10000 2.57 80 11:41 27.03.2022
2376 Clouds 10 1023 80 10000 2.57 60 10:23 27.03.2022
2377 Clouds 9 1009 88 10000 2.68 23 07:55 27.03.2022
2378 Clouds 9 1007 88 10000 2.06 350 05:18 27.03.2022
2379 Clouds 10 1022 86 10000 2.06 150 00:30 27.03.2022
2380 Clouds 10 1006 81 10000 1.79 91 22:53 26.03.2022
2381 Clouds 10 1006 81 10000 1.79 68 22:25 26.03.2022
2382 Clouds 11 1005 82 10000 3.09 320 21:31 26.03.2022
2383 Clouds 11 1019 75 10000 2.57 80 19:45 26.03.2022
2384 Clouds 12 1018 71 10000 2.06 20 18:44 26.03.2022
2385 Clouds 13 1018 70 10000 2.06 330 17:44 26.03.2022
2386 Clouds 12 1018 70 10000 2.57 50 16:47 26.03.2022
2387 Clouds 12 1018 71 10000 1.03 0 15:43 26.03.2022
2388 Clouds 12 1006 77 10000 2.06 340 14:18 26.03.2022
2389 Clouds 11 1006 77 10000 2.06 340 13:47 26.03.2022
2390 Clouds 10 1006 83 10000 3.09 30 12:36 26.03.2022
2391 Clouds 9 1006 87 10000 5.14 30 10:56 26.03.2022
2392 Drizzle 8 1005 84 10000 4.63 30 09:21 26.03.2022
2393 Drizzle 8 1004 81 10000 3.6 30 07:36 26.03.2022
2394 Clouds 8 1002 81 10000 3.58 48 05:52 26.03.2022
2395 Clouds 8 1003 82 10000 4.47 68 03:22 26.03.2022
2396 Clouds 9 1003 93 6000 4.02 45 22:50 25.03.2022
2397 Clouds 10 1018 92 8000 2.57 50 20:58 25.03.2022
2398 Clouds 10 1018 91 8000 2.68 23 20:37 25.03.2022
2399 Clouds 11 1017 86 8000 4.47 113 19:20 25.03.2022
2400 Clouds 11 1017 82 8000 5.66 60 18:37 25.03.2022
2401 Clouds 12 1016 81 6000 4.63 20 17:34 25.03.2022
2402 Clouds 12 1016 78 10000 4.47 23 16:38 25.03.2022
2403 Drizzle 12 1016 79 10000 5.66 40 15:46 25.03.2022
2404 Clouds 12 1005 79 10000 4.12 40 13:32 25.03.2022
2405 Clouds 12 1006 81 10000 5.66 50 11:38 25.03.2022
2406 Clouds 10 1006 86 10000 5.14 40 09:43 25.03.2022
2407 Clouds 10 1005 87 10000 5.66 40 08:59 25.03.2022
2408 Clouds 9 1005 88 10000 4.63 50 07:47 25.03.2022
2409 Clouds 9 1005 88 10000 4.63 50 07:19 25.03.2022
2410 Clouds 9 1004 92 10000 2.24 0 03:45 25.03.2022
2411 Drizzle 10 1005 93 10000 2.06 50 23:54 24.03.2022
2412 Clouds 10 1020 90 10000 1.79 76 22:24 24.03.2022
2413 Clouds 10 1005 92 10000 2.24 67 21:24 24.03.2022
2414 Clouds 11 1006 88 7000 4.12 110 19:50 24.03.2022
2415 Clouds 12 1019 86 7000 2.57 110 18:45 24.03.2022
2416 Clouds 12 1018 85 8000 4.12 40 17:36 24.03.2022
2417 Clouds 11 1018 87 7000 3.09 30 16:39 24.03.2022
2418 Clouds 11 1019 85 9000 4.63 40 14:53 24.03.2022
2419 Clouds 11 1019 83 8000 4.63 50 14:32 24.03.2022
2420 Clouds 11 1019 81 8000 5.66 50 13:36 24.03.2022
2421 Clouds 10 1007 85 8000 6.69 50 12:29 24.03.2022
2422 Clouds 8 1007 88 7000 6.69 30 11:27 24.03.2022
2423 Clouds 8 1007 81 10000 5.14 40 09:28 24.03.2022
2424 Clouds 8 1006 80 10000 7.2 40 08:38 24.03.2022
2425 Clouds 8 1004 79 10000 4.02 57 05:36 24.03.2022
2426 Clouds 8 1006 78 10000 4.47 68 00:47 24.03.2022
2427 Clouds 9 1006 86 10000 2.68 38 22:23 23.03.2022
2428 Clouds 9 1006 83 10000 2.68 90 21:24 23.03.2022
2429 Clouds 9 1005 80 10000 4.63 110 20:44 23.03.2022
2430 Clouds 10 1007 78 10000 5.14 110 19:33 23.03.2022
2431 Clouds 11 1019 73 10000 3.6 130 18:18 23.03.2022
2432 Drizzle 11 1006 75 10000 4.63 160 17:26 23.03.2022
2433 Clouds 12 1006 65 10000 4.63 170 15:56 23.03.2022
2434 Clouds 12 1007 62 10000 3.6 140 14:48 23.03.2022
2435 Clouds 11 1021 64 10000 4.63 100 13:34 23.03.2022
2436 Clouds 11 1021 64 10000 4.63 100 13:34 23.03.2022
2437 Clouds 10 1021 73 10000 5.14 50 11:38 23.03.2022
2438 Clouds 7 1008 81 10000 6.17 50 08:49 23.03.2022
2439 Clouds 7 1006 84 10000 2.68 82 06:25 23.03.2022
2440 Clouds 7 1007 88 10000 2.06 70 03:44 23.03.2022
2441 Drizzle 8 1023 81 10000 5.66 90 00:27 23.03.2022
2442 Clouds 9 1023 74 10000 5.66 100 21:53 22.03.2022
2443 Clouds 9 1023 75 10000 7.2 90 21:23 22.03.2022
2444 Drizzle 9 1022 75 10000 5.14 100 20:29 22.03.2022
2445 Clouds 10 1022 73 10000 6.17 110 19:27 22.03.2022
2446 Clouds 10 1022 73 10000 7.2 120 18:49 22.03.2022
2447 Clouds 11 1021 73 10000 8.23 130 17:44 22.03.2022
2448 Drizzle 11 1021 74 10000 9.26 130 16:58 22.03.2022
2449 Clouds 11 1008 82 10000 7.72 140 15:48 22.03.2022
2450 Clouds 11 1008 84 10000 6.17 130 15:21 22.03.2022
2451 Clouds 11 1009 82 10000 8.75 140 14:45 22.03.2022
2452 Clouds 12 1009 79 10000 7.72 140 13:52 22.03.2022
2453 Clouds 11 1009 83 10000 7.2 150 12:34 22.03.2022
2454 Clouds 10 1009 82 10000 6.69 130 11:24 22.03.2022
2455 Clouds 9 1007 88 10000 5.14 140 09:42 22.03.2022
2456 Clouds 8 1008 90 10000 4.63 160 07:35 22.03.2022
2457 Clouds 8 1005 91 10000 3.6 110 04:29 22.03.2022
2458 Clouds 9 1006 87 9000 3.6 100 01:27 22.03.2022
2459 Clouds 9 1006 86 10000 3.09 100 23:19 21.03.2022
2460 Clouds 10 1005 87 10000 4.92 90 21:39 21.03.2022
2461 Clouds 10 1005 90 10000 3.09 90 20:44 21.03.2022
2462 Clouds 10 1005 90 8000 3.09 70 20:23 21.03.2022
2463 Clouds 10 1006 89 2000 2.06 170 19:47 21.03.2022
2464 Clouds 10 1006 93 9000 3.6 90 18:59 21.03.2022
2465 Rain 12 1006 82 8000 8.23 120 17:36 21.03.2022
2466 Clouds 13 1005 78 10000 6.17 140 16:59 21.03.2022
2467 Clouds 13 1018 74 10000 5.36 116 16:35 21.03.2022
2468 Clouds 13 1019 67 10000 4.12 130 15:44 21.03.2022
2469 Clouds 13 1019 69 10000 4.12 140 14:45 21.03.2022
2470 Clouds 11 1007 86 10000 5.81 138 13:27 21.03.2022
2471 Clouds 10 1020 88 10000 3.6 140 12:22 21.03.2022
2472 Clouds 9 1007 95 3500 2.24 113 11:34 21.03.2022
2473 Clouds 8 1007 95 4000 2.57 360 09:53 21.03.2022
2474 Clouds 8 1007 92 5000 3.6 250 07:53 21.03.2022
2475 Drizzle 9 1005 91 10000 4.12 120 06:31 21.03.2022
2476 Clouds 11 1006 77 10000 5.66 100 02:24 21.03.2022
2477 Clouds 11 1006 73 10000 4.63 90 23:26 20.03.2022
2478 Clouds 11 1006 72 10000 4.12 80 22:36 20.03.2022
2479 Clouds 11 1005 71 10000 6.17 90 21:44 20.03.2022
2480 Clouds 12 1005 70 10000 5.66 90 20:58 20.03.2022
2481 Clouds 12 1005 67 10000 6.17 90 20:36 20.03.2022
2482 Clouds 12 1006 64 10000 7.2 110 19:55 20.03.2022
2483 Clouds 13 1006 64 10000 7.2 110 19:25 20.03.2022
2484 Clouds 13 1019 57 10000 8.75 120 17:50 20.03.2022
2485 Clouds 13 1019 57 10000 8.75 120 17:28 20.03.2022
2486 Clouds 13 1006 60 10000 7.2 120 16:40 20.03.2022
2487 Clouds 13 1007 64 10000 7.2 110 14:53 20.03.2022
2488 Clouds 12 1008 66 10000 7.72 120 13:39 20.03.2022
2489 Clouds 11 1022 69 10000 7.2 110 12:21 20.03.2022
2490 Clouds 11 1010 72 10000 5.14 70 10:38 20.03.2022
2491 Clouds 9 1009 76 10000 2.57 60 08:35 20.03.2022
2492 Clouds 9 1007 75 10000 2.24 99 06:40 20.03.2022
2493 Clouds 9 1008 74 10000 3.09 100 03:27 20.03.2022
2494 Clouds 10 1024 75 10000 3.09 110 00:54 20.03.2022
2495 Clouds 10 1024 75 10000 3.09 110 00:54 20.03.2022
2496 Clouds 10 1024 74 10000 3.09 110 00:35 20.03.2022
2497 Clouds 10 1024 74 10000 3.6 150 22:42 19.03.2022
2498 Clouds 11 1008 68 10000 2.06 120 21:27 19.03.2022
2499 Clouds 12 1010 63 10000 1.03 0 19:42 19.03.2022
2500 Clouds 13 1010 62 10000 1.54 240 18:44 19.03.2022
2501 Clouds 13 1010 60 10000 2.57 220 17:55 19.03.2022
2502 Clouds 13 1010 58 10000 2.06 160 17:33 19.03.2022
2503 Clouds 13 1023 56 10000 3.6 150 15:41 19.03.2022
2504 Clouds 13 1024 59 10000 2.68 185 14:21 19.03.2022
2505 Clouds 12 1025 64 10000 1.34 113 12:56 19.03.2022
2506 Clouds 12 1025 65 10000 2.06 80 12:37 19.03.2022
2507 Clouds 11 1025 66 10000 3.09 90 11:47 19.03.2022
2508 Clouds 10 1025 68 10000 4.12 40 10:41 19.03.2022
2509 Clouds 8 1009 82 10000 1.54 360 05:59 19.03.2022
2510 Clear 8 1010 78 10000 2.57 340 02:48 19.03.2022
2511 Clouds 9 1010 75 10000 1.54 50 01:32 19.03.2022
2512 Clouds 10 1010 71 10000 2.24 80 23:22 18.03.2022
2513 Clouds 11 1010 69 10000 1.79 75 22:23 18.03.2022
2514 Clear 11 1010 65 10000 1.54 40 20:48 18.03.2022
2515 Clouds 12 1011 61 10000 3.09 40 19:49 18.03.2022
2516 Clouds 13 1011 60 10000 3.09 40 19:19 18.03.2022
2517 Clouds 14 1024 55 10000 3.09 100 17:27 18.03.2022
2518 Clouds 14 1024 55 10000 3.6 80 16:45 18.03.2022
2519 Clouds 13 1012 65 10000 3.6 60 14:37 18.03.2022
2520 Clouds 13 1012 66 10000 3.6 60 14:18 18.03.2022
2521 Clouds 12 1012 69 10000 5.14 50 12:23 18.03.2022
2522 Clouds 10 1012 71 10000 6.69 40 10:39 18.03.2022
2523 Clouds 8 1012 72 10000 6.17 40 09:23 18.03.2022
2524 Clear 7 1011 75 10000 5.14 30 07:45 18.03.2022
2525 Clear 7 1009 76 10000 3.13 47 06:34 18.03.2022
2526 Clouds 8 1009 70 10000 3.6 50 02:51 18.03.2022
2527 Clear 9 1009 66 10000 3.13 84 00:22 18.03.2022
2528 Clear 9 1009 64 10000 3.6 40 23:20 17.03.2022
2529 Clear 10 1009 62 10000 4.02 65 22:23 17.03.2022
2530 Clear 10 1009 60 10000 4.47 61 21:48 17.03.2022
2531 Clouds 10 1009 61 10000 3.6 40 21:20 17.03.2022
2532 Clouds 11 1008 60 10000 4.47 73 20:41 17.03.2022
2533 Clouds 11 1009 61 10000 7.72 50 19:45 17.03.2022
2534 Clouds 12 1009 59 10000 6.69 50 18:57 17.03.2022
2535 Clouds 12 1009 58 10000 6.69 60 18:37 17.03.2022
2536 Clouds 13 1009 57 8000 9.26 50 16:48 17.03.2022
2537 Drizzle 12 1022 58 8000 8.75 40 15:44 17.03.2022
2538 Drizzle 12 1022 60 8000 9.77 30 15:23 17.03.2022
2539 Drizzle 12 1010 63 8000 10.8 40 13:50 17.03.2022
2540 Drizzle 12 1010 66 7000 8.75 50 12:51 17.03.2022
2541 Drizzle 11 1009 68 7000 7.72 50 12:22 17.03.2022
2542 Drizzle 11 1009 65 7000 8.23 50 11:27 17.03.2022
2543 Drizzle 10 1008 68 7000 9.26 40 09:57 17.03.2022
2544 Drizzle 10 1007 69 10000 11.32 30 08:34 17.03.2022
2545 Drizzle 10 1007 69 10000 11.32 30 08:34 17.03.2022
2546 Drizzle 10 1006 67 10000 10.29 40 07:33 17.03.2022
2547 Clouds 11 1004 70 10000 4.92 68 05:47 17.03.2022
2548 Clear 12 1003 74 10000 6.17 50 00:46 17.03.2022
2549 Clouds 12 1003 73 10000 4.63 30 23:45 16.03.2022
2550 Clear 12 1003 71 10000 4.63 30 22:45 16.03.2022
2551 Clear 12 1002 73 10000 5.66 20 22:21 16.03.2022
2552 Clear 12 1002 74 10000 4.92 44 21:37 16.03.2022
2553 Haze 13 1002 70 5000 2.68 63 19:41 16.03.2022
2554 Haze 13 1002 70 4000 2.68 71 19:20 16.03.2022
2555 Haze 14 999 66 4000 1.79 40 18:36 16.03.2022
2556 Haze 15 999 59 4000 1.34 62 17:41 16.03.2022
2557 Haze 16 995 54 4000 1.54 50 16:56 16.03.2022
2558 Haze 16 1015 52 4000 2.57 90 15:55 16.03.2022
2559 Haze 15 991 55 4000 2.57 70 14:25 16.03.2022
2560 Haze 15 991 56 4000 3.6 50 13:27 16.03.2022
2561 Haze 14 1001 57 5000 3.13 45 11:56 16.03.2022
2562 Haze 13 1003 62 5000 3.13 57 11:20 16.03.2022
2563 Haze 13 1003 59 4000 2.24 34 10:23 16.03.2022
2564 Haze 12 1003 62 3000 3.09 330 08:52 16.03.2022
2565 Clouds 12 1001 67 7000 2.68 76 05:58 16.03.2022
2566 Haze 14 1002 59 6000 2.24 66 01:35 16.03.2022
2567 Haze 15 1002 57 6000 1.54 60 22:38 15.03.2022
2568 Haze 15 1017 56 6000 1.54 120 21:55 15.03.2022
2569 Haze 16 1016 51 5000 2.68 91 20:28 15.03.2022
2570 Haze 16 1003 56 3300 3.13 76 18:57 15.03.2022
2571 Haze 17 1002 54 4500 3.6 40 16:57 15.03.2022
2572 Haze 17 1002 59 4500 3.09 70 16:28 15.03.2022
2573 Haze 16 1003 61 4500 5.14 50 14:58 15.03.2022
2574 Haze 15 1000 65 4500 4.12 50 14:39 15.03.2022
2575 Haze 15 992 66 4800 4.12 50 13:38 15.03.2022
2576 Haze 14 1004 66 4500 4.12 30 12:24 15.03.2022
2577 Haze 13 1017 66 4000 4.02 23 11:31 15.03.2022
2578 Haze 13 1003 65 3500 5.14 60 09:45 15.03.2022
2579 Haze 13 1015 66 3400 3.09 80 08:42 15.03.2022
2580 Haze 13 1014 69 3000 2.57 330 07:51 15.03.2022
2581 Haze 13 1014 61 3000 4.12 60 07:28 15.03.2022
2582 Haze 12 1012 79 3700 2.57 30 03:30 15.03.2022
2583 Clouds 11 1013 81 6000 2.68 21 23:44 14.03.2022
2584 Mist 11 1013 80 8000 2.68 45 23:23 14.03.2022
2585 Haze 12 998 81 9000 2.06 20 22:26 14.03.2022
2586 Haze 12 997 80 10000 2.06 300 21:30 14.03.2022
2587 Haze 12 1012 77 7000 3.09 170 20:41 14.03.2022
2588 Clouds 13 1010 73 10000 7.2 130 20:19 14.03.2022
2589 Clouds 13 1008 71 10000 7.72 110 18:42 14.03.2022
2590 Clouds 13 994 72 10000 9.26 110 17:54 14.03.2022
2591 Clouds 12 994 81 10000 9.77 110 16:58 14.03.2022
2592 Clouds 9 1007 89 10000 5.14 30 15:43 14.03.2022
2593 Clouds 8 984 92 9000 6.17 30 14:40 14.03.2022
2594 Clouds 6 996 90 9000 9.26 30 12:22 14.03.2022
2595 Clouds 6 997 92 6000 7.15 45 10:54 14.03.2022
2596 Clouds 6 1011 90 6000 7.72 40 09:44 14.03.2022
2597 Clouds 6 998 90 6000 7.72 40 09:22 14.03.2022
2598 Rain 6 1012 86 7000 5.66 60 08:55 14.03.2022
2599 Clouds 8 1012 69 10000 7.2 100 07:32 14.03.2022
2600 Clouds 9 997 74 10000 2.57 60 05:45 14.03.2022
2601 Clear 8 999 69 10000 3.13 69 01:55 14.03.2022
2602 Clear 9 999 68 10000 2.68 60 01:24 14.03.2022
2603 Clouds 10 1000 61 10000 2.57 100 22:44 13.03.2022
2604 Clouds 11 1000 60 10000 2.57 90 21:31 13.03.2022
2605 Clouds 11 1000 59 10000 2.06 90 20:56 13.03.2022
2606 Clouds 11 1000 59 10000 1.03 110 20:30 13.03.2022
2607 Clouds 11 1001 58 10000 1.54 160 19:49 13.03.2022
2608 Clouds 12 1001 56 10000 2.57 160 19:28 13.03.2022
2609 Clouds 12 1014 50 10000 3.09 180 18:59 13.03.2022
2610 Clouds 12 1014 49 10000 4.12 190 18:35 13.03.2022
2611 Clouds 13 1014 48 10000 4.12 180 17:41 13.03.2022
2612 Clouds 13 1014 48 10000 4.47 208 17:19 13.03.2022
2613 Clouds 13 1014 47 10000 4.63 220 16:30 13.03.2022
2614 Clouds 13 1014 44 10000 4.63 220 15:47 13.03.2022
2615 Clouds 13 1015 41 10000 4.12 230 14:56 13.03.2022
2616 Clouds 12 1015 43 10000 2.57 270 13:43 13.03.2022
2617 Clouds 11 1015 49 10000 4.63 290 12:38 13.03.2022
2618 Clear 10 1016 55 10000 5.66 290 11:51 13.03.2022
2619 Clear 10 1016 56 10000 5.66 290 11:31 13.03.2022
2620 Clear 10 1016 56 10000 5.66 290 11:31 13.03.2022
2621 Clear 9 1016 65 10000 5.14 270 10:46 13.03.2022
2622 Clear 8 1015 71 10000 4.63 250 09:59 13.03.2022
2623 Clear 7 1015 76 10000 5.14 270 09:40 13.03.2022
2624 Clear 6 1001 83 10000 3.6 260 08:45 13.03.2022
2625 Clear 6 1001 86 10000 5.14 270 07:41 13.03.2022
2626 Clouds 7 997 88 10000 3.58 248 05:40 13.03.2022
2627 Drizzle 8 997 93 8000 4.12 180 02:39 13.03.2022
2628 Clouds 9 998 82 10000 2.57 190 23:33 12.03.2022
2629 Clouds 9 999 78 10000 3.6 190 21:53 12.03.2022
2630 Clouds 10 999 74 10000 4.63 220 20:34 12.03.2022
2631 Drizzle 10 1001 72 10000 6.69 240 19:47 12.03.2022
2632 Clouds 11 999 67 10000 6.69 240 18:58 12.03.2022
2633 Clouds 11 1001 65 10000 8.23 230 18:22 12.03.2022
2634 Clouds 12 1001 59 10000 9.26 230 17:23 12.03.2022
2635 Clouds 12 1002 60 10000 8.75 250 16:23 12.03.2022
2636 Clouds 12 1002 60 10000 8.23 240 15:22 12.03.2022
2637 Clouds 12 1015 56 10000 7.72 240 14:28 12.03.2022
2638 Clouds 9 1017 74 10000 6.17 250 12:45 12.03.2022
2639 Clouds 8 1004 79 10000 4.12 250 11:56 12.03.2022
2640 Clouds 8 1017 79 10000 5.66 240 11:35 12.03.2022
2641 Clouds 7 1017 81 10000 4.12 220 10:52 12.03.2022
2642 Fog 6 1017 81 10000 3.13 216 09:45 12.03.2022
2643 Fog 5 1004 80 10000 3.13 270 08:55 12.03.2022
2644 Fog 5 1003 79 10000 4.12 270 07:20 12.03.2022
2645 Clear 7 1001 86 10000 5.14 260 02:36 12.03.2022
2646 Drizzle 8 1000 90 10000 5.66 250 23:56 11.03.2022
2647 Drizzle 8 1000 90 10000 5.66 250 23:56 11.03.2022
2648 Drizzle 8 1000 90 10000 4.63 240 22:56 11.03.2022
2649 Clouds 8 1000 91 9000 4.12 230 21:35 11.03.2022
2650 Clouds 8 999 91 9000 4.63 240 20:54 11.03.2022
2651 Clouds 8 999 88 7000 6.69 240 20:29 11.03.2022
2652 Clouds 9 1001 85 7000 5.66 250 19:42 11.03.2022
2653 Drizzle 10 1000 85 10000 5.14 240 19:20 11.03.2022
2654 Clouds 11 1000 81 8000 7.2 250 17:29 11.03.2022
2655 Clouds 12 1000 72 10000 8.75 240 16:27 11.03.2022
2656 Clouds 12 1013 72 10000 8.75 240 15:53 11.03.2022
2657 Clouds 11 1000 85 10000 6.17 210 14:19 11.03.2022
2658 Clouds 10 1001 94 10000 4.63 200 12:44 11.03.2022
2659 Clouds 9 1001 94 10000 4.63 200 12:21 11.03.2022
2660 Drizzle 9 1001 95 3000 4.12 200 11:51 11.03.2022
2661 Clouds 8 1001 90 2500 4.02 198 09:40 11.03.2022
2662 Clouds 8 1001 85 10000 4.02 203 08:47 11.03.2022
2663 Clouds 8 1000 84 10000 5.66 220 08:20 11.03.2022
2664 Clouds 9 1001 81 10000 3.58 225 07:40 11.03.2022
2665 Clouds 9 999 77 10000 3.58 196 05:44 11.03.2022
2666 Clouds 9 1000 77 10000 3.13 206 03:41 11.03.2022
2667 Clear 10 1002 75 10000 2.68 198 23:31 10.03.2022
2668 Clear 11 1002 74 10000 2.57 150 22:29 10.03.2022
2669 Clear 11 1002 68 10000 2.57 180 21:27 10.03.2022
2670 Clear 12 1003 64 10000 2.57 200 20:49 10.03.2022
2671 Clouds 13 1005 58 10000 5.14 220 19:23 10.03.2022
2672 Clouds 14 1017 52 10000 5.66 210 18:40 10.03.2022
2673 Clouds 15 1005 53 10000 6.69 210 16:54 10.03.2022
2674 Clouds 15 1006 55 10000 6.69 230 15:49 10.03.2022
2675 Clouds 14 1007 60 10000 4.12 260 14:24 10.03.2022
2676 Clouds 12 1021 70 10000 1.54 190 12:50 10.03.2022
2677 Clouds 11 1004 75 10000 2.06 110 11:42 10.03.2022
2678 Clouds 8 1008 85 10000 2.57 130 10:24 10.03.2022
2679 Clouds 8 1008 81 10000 1.54 90 08:49 10.03.2022
2680 Clouds 8 1005 81 10000 1.54 100 06:36 10.03.2022
2681 Clouds 9 1005 75 10000 3.58 206 03:42 10.03.2022
2682 Clear 10 1006 71 10000 0.89 85 00:51 10.03.2022
2683 Clouds 11 1006 70 10000 1.54 350 22:46 09.03.2022
2684 Clouds 11 1005 69 10000 1.54 10 21:48 09.03.2022
2685 Clouds 11 1006 68 10000 1.54 10 21:23 09.03.2022
2686 Clouds 12 1007 61 10000 1.54 90 19:40 09.03.2022
2687 Clouds 13 1007 58 10000 1.03 0 18:19 09.03.2022
2688 Clouds 13 1007 58 10000 2.06 230 17:26 09.03.2022
2689 Clouds 13 1007 58 10000 3.09 220 16:24 09.03.2022
2690 Clouds 12 1021 59 10000 3.6 210 14:32 09.03.2022
2691 Clouds 12 1021 61 10000 4.12 190 13:52 09.03.2022
2692 Clouds 10 1022 67 10000 3.13 186 12:36 09.03.2022
2693 Clouds 9 1022 72 10000 2.24 203 11:48 09.03.2022
2694 Clouds 8 1022 74 10000 1.54 90 11:18 09.03.2022
2695 Clouds 6 1022 83 10000 2.24 135 09:41 09.03.2022
2696 Clouds 5 1006 87 10000 0.51 0 08:47 09.03.2022
2697 Clouds 4 1005 87 10000 1.79 222 06:27 09.03.2022
2698 Clear 6 1006 81 10000 2.06 150 01:53 09.03.2022
2699 Clear 6 1020 79 10000 3.6 230 00:26 09.03.2022
2700 Clouds 8 1020 72 10000 2.57 230 22:46 08.03.2022
2701 Clouds 8 1020 72 10000 3.6 230 21:52 08.03.2022
2702 Clouds 9 1005 70 10000 3.6 230 21:22 08.03.2022
2703 Clouds 10 1004 66 10000 3.6 240 20:24 08.03.2022
2704 Clouds 11 1006 62 10000 5.14 230 19:24 08.03.2022
2705 Clouds 12 1018 57 10000 5.66 240 18:23 08.03.2022
2706 Clouds 12 1005 57 10000 5.66 250 16:56 08.03.2022
2707 Clouds 12 1005 60 10000 4.63 210 14:58 08.03.2022
2708 Clouds 10 1005 67 10000 5.14 230 13:48 08.03.2022
2709 Clouds 9 1005 71 10000 6.17 220 12:28 08.03.2022
2710 Clouds 9 1017 71 10000 6.17 230 11:43 08.03.2022
2711 Clouds 7 1017 72 10000 7.2 240 10:29 08.03.2022
2712 Clouds 6 1016 72 10000 4.63 230 08:57 08.03.2022
2713 Clouds 6 1016 72 10000 4.63 230 08:57 08.03.2022
2714 Clear 6 1014 75 10000 3.13 203 06:31 08.03.2022
2715 Clear 6 999 88 10000 3.13 190 03:48 08.03.2022
2716 Clear 8 999 82 10000 5.14 160 22:53 07.03.2022
2717 Clouds 8 1013 79 10000 4.63 130 21:45 07.03.2022
2718 Clear 8 998 79 10000 4.12 130 21:23 07.03.2022
2719 Clouds 9 998 78 10000 4.02 113 20:38 07.03.2022
2720 Clouds 9 1000 76 10000 4.12 150 19:50 07.03.2022
2721 Clouds 9 999 78 10000 4.12 150 19:24 07.03.2022
2722 Clouds 9 1012 73 10000 4.12 170 18:33 07.03.2022
2723 Clouds 10 1011 69 10000 3.6 140 17:31 07.03.2022
2724 Clouds 9 1012 78 10000 4.63 220 16:54 07.03.2022
2725 Clouds 10 1012 62 10000 2.57 210 14:57 07.03.2022
2726 Clouds 6 1014 89 10000 2.06 340 12:35 07.03.2022
2727 Clouds 6 1001 93 10000 2.06 360 11:36 07.03.2022
2728 Clouds 5 1001 94 9000 2.57 360 10:34 07.03.2022
2729 Clouds 5 1000 94 5000 3.09 10 08:35 07.03.2022
2730 Clouds 6 1000 88 10000 2.06 20 02:56 07.03.2022
2731 Clouds 8 1000 79 9000 3.09 180 00:21 07.03.2022
2732 Clouds 8 1000 78 10000 2.06 110 23:28 06.03.2022
2733 Clouds 8 999 76 10000 3.09 120 22:30 06.03.2022
2734 Clouds 8 999 72 10000 3.09 140 21:45 06.03.2022
2735 Clouds 10 999 59 10000 2.06 120 20:29 06.03.2022
2736 Clouds 10 1001 57 10000 2.57 130 19:48 06.03.2022
2737 Clouds 10 1000 53 10000 2.06 120 18:51 06.03.2022
2738 Clouds 11 1001 50 10000 2.06 80 17:49 06.03.2022
2739 Clouds 11 1001 50 10000 2.06 80 17:20 06.03.2022
2740 Clouds 11 1001 49 10000 2.57 90 16:40 06.03.2022
2741 Clouds 11 1013 50 10000 3.09 0 15:37 06.03.2022
2742 Clouds 11 1013 52 10000 3.09 120 14:48 06.03.2022
2743 Clouds 11 1013 49 10000 3.6 100 14:26 06.03.2022
2744 Clear 9 1014 52 10000 4.63 50 12:43 06.03.2022
2745 Clear 9 1014 55 10000 5.14 40 11:56 06.03.2022
2746 Clear 7 1014 61 10000 6.69 40 10:43 06.03.2022
2747 Clear 5 1014 68 10000 5.14 40 09:25 06.03.2022
2748 Clouds 4 1001 72 10000 5.14 30 08:28 06.03.2022
2749 Clouds 4 1001 73 10000 3.6 30 07:33 06.03.2022
2750 Clouds 4 999 70 10000 4.02 67 03:58 06.03.2022
2751 Clouds 7 1015 59 10000 3.58 62 00:42 06.03.2022
2752 Clouds 7 1000 60 10000 3.13 73 00:23 06.03.2022
2753 Clouds 8 1003 54 10000 2.68 79 23:19 05.03.2022
2754 Clouds 8 1015 51 10000 1.79 63 22:38 05.03.2022
2755 Clear 8 1002 48 10000 1.79 23 21:31 05.03.2022
2756 Clouds 9 1002 48 10000 1.54 90 20:57 05.03.2022
2757 Clouds 10 1003 43 10000 2.68 315 19:23 05.03.2022
2758 Clouds 11 1003 40 10000 1.34 110 18:50 05.03.2022
2759 Clouds 11 1001 40 10000 1.54 140 17:39 05.03.2022
2760 Clouds 11 1014 38 10000 2.68 124 16:20 05.03.2022
2761 Clouds 11 1004 39 10000 2.24 270 15:30 05.03.2022
2762 Clouds 11 1016 41 10000 2.06 80 14:37 05.03.2022
2763 Clouds 10 1017 46 10000 2.24 270 13:46 05.03.2022
2764 Clouds 10 1017 48 10000 2.06 0 12:55 05.03.2022
2765 Clear 8 1018 57 10000 2.06 100 11:39 05.03.2022
2766 Clouds 7 1018 60 10000 2.06 80 11:18 05.03.2022
2767 Clouds 5 1018 67 10000 2.06 50 09:40 05.03.2022
2768 Clouds 4 1018 72 10000 1.79 73 08:49 05.03.2022
2769 Clouds 3 1005 78 10000 2.06 40 07:23 05.03.2022
2770 Clear 3 1003 77 10000 2.24 57 05:41 05.03.2022
2771 Clouds 7 1005 68 10000 2.68 69 01:25 05.03.2022
2772 Clouds 8 1005 61 10000 3.09 60 23:30 04.03.2022
2773 Clouds 8 1005 59 10000 5.14 10 22:40 04.03.2022
2774 Clouds 9 1005 60 10000 5.66 10 21:45 04.03.2022
2775 Clouds 9 1019 55 10000 4.63 360 20:49 04.03.2022
2776 Clouds 10 1005 55 10000 4.63 360 20:18 04.03.2022
2777 Clouds 10 1019 52 10000 4.63 320 19:35 04.03.2022
2778 Clouds 11 1006 49 10000 5.66 320 18:36 04.03.2022
2779 Clouds 12 1006 50 10000 4.63 290 17:30 04.03.2022
2780 Clouds 12 1018 48 10000 3.09 310 16:36 04.03.2022
2781 Clouds 12 1018 47 10000 3.6 30 15:28 04.03.2022
2782 Clouds 12 1019 50 10000 4.63 40 13:53 04.03.2022
2783 Clouds 11 1019 51 10000 5.66 360 12:54 04.03.2022
2784 Clear 9 1019 58 10000 5.14 20 11:38 04.03.2022
2785 Clear 8 1006 61 10000 5.66 20 10:42 04.03.2022
2786 Clouds 7 1004 65 10000 6.17 30 09:28 04.03.2022
2787 Clear 6 1003 66 10000 7.72 30 08:31 04.03.2022
2788 Clouds 7 1002 65 10000 7.2 30 06:59 04.03.2022
2789 Clouds 7 999 73 10000 6.69 10 03:28 04.03.2022
2790 Clouds 7 999 89 10000 4.63 360 00:22 04.03.2022
2791 Clouds 8 998 93 9000 2.57 350 22:21 03.03.2022
2792 Clouds 8 997 94 10000 2.06 300 21:39 03.03.2022
2793 Clouds 8 997 94 10000 2.06 360 20:59 03.03.2022
2794 Clouds 8 999 94 9000 3.09 270 19:48 03.03.2022
2795 Clouds 8 999 94 7000 0.45 293 18:49 03.03.2022
2796 Rain 8 999 94 9000 4.63 260 18:22 03.03.2022
2797 Clouds 8 1000 93 9000 3.6 270 17:27 03.03.2022
2798 Clouds 8 1013 94 10000 2.57 240 15:48 03.03.2022
2799 Clouds 8 1002 93 4000 2.06 190 14:59 03.03.2022
2800 Clouds 8 1002 91 1500 1.54 180 14:33 03.03.2022
2801 Rain 8 1016 85 8000 2.57 230 13:18 03.03.2022
2802 Rain 9 1017 68 6000 1.34 214 11:45 03.03.2022
2803 Clear 9 1018 67 10000 1.54 90 10:40 03.03.2022
2804 Clear 7 1005 74 10000 0.89 58 08:45 03.03.2022
2805 Clear 6 1005 77 10000 0.89 90 07:25 03.03.2022
2806 Clear 7 1004 76 10000 2.06 260 06:34 03.03.2022
2807 Clear 9 1021 66 10000 1.79 304 01:45 03.03.2022
2808 Clear 11 1007 63 10000 3.6 320 23:29 02.03.2022
2809 Clear 12 1007 58 10000 2.57 320 22:50 02.03.2022
2810 Clear 12 1007 58 10000 2.57 320 22:50 02.03.2022
2811 Clear 12 1007 57 10000 4.63 280 21:29 02.03.2022
2812 Clear 12 1021 55 10000 5.14 280 20:44 02.03.2022
2813 Clouds 13 1007 52 10000 3.6 280 20:22 02.03.2022
2814 Clouds 13 1008 50 10000 3.6 330 19:34 02.03.2022
2815 Clouds 15 1008 47 10000 5.14 310 18:44 02.03.2022
2816 Clouds 15 1021 45 10000 5.14 330 17:59 02.03.2022
2817 Clouds 15 1008 47 10000 8.75 290 17:23 02.03.2022
2818 Clouds 16 1008 47 10000 7.2 260 16:45 02.03.2022
2819 Clouds 16 1008 46 10000 8.75 290 16:45 02.03.2022
2820 Clouds 15 1021 50 10000 6.17 230 14:45 02.03.2022
2821 Clouds 14 1022 50 10000 6.17 270 13:24 02.03.2022
2822 Clouds 14 1010 51 10000 6.71 270 12:43 02.03.2022
2823 Clouds 13 1010 57 10000 5.14 270 11:47 02.03.2022
2824 Clouds 13 1023 57 10000 5.14 270 11:24 02.03.2022
2825 Clouds 10 1010 81 10000 3.6 260 09:46 02.03.2022
2826 Clouds 9 1010 84 10000 3.6 260 08:59 02.03.2022
2827 Clear 8 1009 83 10000 4.12 250 07:39 02.03.2022
2828 Clear 8 1007 82 10000 3.09 240 06:54 02.03.2022
2829 Clear 11 1008 72 10000 2.57 210 02:54 02.03.2022
2830 Clear 12 1009 65 10000 4.12 230 00:29 02.03.2022
2831 Clear 13 1009 59 10000 3.09 200 22:50 01.03.2022
2832 Clear 13 1009 57 10000 2.57 200 22:31 01.03.2022
2833 Clouds 13 1024 52 10000 2.57 240 21:25 01.03.2022
2834 Clouds 14 1024 45 10000 3.09 220 20:32 01.03.2022
2835 Clouds 15 1023 42 10000 4.12 210 19:45 01.03.2022
2836 Clear 16 1023 38 10000 5.66 250 18:51 01.03.2022
2837 Clear 17 1010 37 10000 6.69 250 18:21 01.03.2022
2838 Clear 17 1010 38 10000 5.14 220 17:37 01.03.2022
2839 Clear 17 1024 39 10000 5.14 220 16:35 01.03.2022
2840 Clear 17 1024 44 10000 6.17 240 15:45 01.03.2022
2841 Clear 16 1025 47 10000 4.63 230 14:41 01.03.2022
2842 Clear 16 1025 49 10000 4.63 230 14:23 01.03.2022
2843 Clear 14 1026 55 10000 2.57 180 13:26 01.03.2022
2844 Clear 13 1027 60 10000 1.34 169 12:35 01.03.2022
2845 Clear 10 1027 70 10000 1.34 81 10:38 01.03.2022
2846 Clear 7 1027 74 10000 1.79 87 09:25 01.03.2022
2847 Clear 5 1013 83 10000 1.03 330 07:55 01.03.2022
2848 Clear 6 1011 78 10000 2.06 10 06:27 01.03.2022
2849 Clear 7 1012 76 10000 2.06 320 02:45 01.03.2022
2850 Clear 9 1012 69 10000 2.06 280 00:40 01.03.2022
2851 Clear 10 1012 67 10000 2.57 260 23:35 28.02.2022
2852 Clear 11 1012 61 10000 3.6 240 22:28 28.02.2022
2853 Clear 12 1012 60 10000 3.09 220 21:43 28.02.2022
2854 Clear 13 1026 55 10000 3.09 190 20:33 28.02.2022
2855 Clouds 14 1026 51 10000 3.09 200 19:42 28.02.2022
2856 Clouds 15 1025 47 10000 3.13 190 18:49 28.02.2022
2857 Clouds 16 1025 45 10000 3.09 210 17:33 28.02.2022
2858 Clouds 17 1025 45 10000 3.09 230 16:54 28.02.2022
2859 Clouds 16 1026 47 10000 2.24 280 15:58 28.02.2022
2860 Clouds 15 1027 52 10000 2.06 0 14:32 28.02.2022
2861 Clouds 14 1027 57 10000 2.24 205 13:52 28.02.2022
2862 Clear 14 1027 60 10000 1.34 135 13:18 28.02.2022
2863 Clear 12 1027 66 10000 1.54 160 11:59 28.02.2022
2864 Clear 11 1027 69 10000 2.57 100 11:19 28.02.2022
2865 Clear 9 1027 75 10000 3.09 60 10:22 28.02.2022
2866 Clear 8 1027 78 10000 2.06 60 09:44 28.02.2022
2867 Clear 6 1013 84 10000 1.34 65 08:52 28.02.2022
2868 Clear 5 1013 87 10000 2.24 70 07:58 28.02.2022
2869 Clouds 6 1010 86 10000 1.54 340 05:54 28.02.2022
2870 Clouds 7 1010 87 10000 1.54 350 04:30 28.02.2022
2871 Clear 8 1009 83 10000 1.03 150 00:52 28.02.2022
2872 Clouds 9 1009 77 10000 2.68 293 22:45 27.02.2022
2873 Clouds 10 1009 77 10000 2.06 280 22:26 27.02.2022
2874 Clouds 10 1008 72 10000 1.79 270 21:37 27.02.2022
2875 Clear 10 1023 71 10000 2.06 240 20:44 27.02.2022
2876 Clouds 11 1023 66 10000 1.54 190 20:18 27.02.2022
2877 Clouds 12 1022 62 10000 1.54 190 19:48 27.02.2022
2878 Clouds 12 1022 61 10000 1.54 190 19:21 27.02.2022
2879 Clouds 12 1022 62 10000 1.54 190 19:21 27.02.2022
2880 Clouds 13 1022 55 10000 2.06 100 18:33 27.02.2022
2881 Clouds 13 1022 56 10000 1.54 90 17:49 27.02.2022
2882 Clouds 13 1022 58 10000 2.06 140 16:25 27.02.2022
2883 Clouds 12 1022 57 10000 1.54 0 15:21 27.02.2022
2884 Clouds 10 1024 72 10000 0.89 127 12:37 27.02.2022
2885 Clouds 9 1023 75 10000 2.06 90 11:51 27.02.2022
2886 Clouds 8 1023 78 10000 2.57 110 10:37 27.02.2022
2887 Clouds 8 1023 82 10000 2.06 80 09:58 27.02.2022
2888 Clouds 8 1023 82 10000 2.06 80 09:58 27.02.2022
2889 Clouds 7 1010 86 10000 1.54 60 09:23 27.02.2022
2890 Clouds 7 1010 85 10000 2.57 60 08:45 27.02.2022
2891 Clouds 7 1008 84 10000 2.06 90 06:26 27.02.2022
2892 Clouds 8 1007 83 10000 3.09 100 03:44 27.02.2022
2893 Clouds 9 1007 82 10000 2.06 90 23:57 26.02.2022
2894 Clouds 9 1007 84 10000 3.09 150 22:43 26.02.2022
2895 Clouds 9 1006 84 10000 2.06 110 21:29 26.02.2022
2896 Clouds 9 1006 84 10000 2.57 100 20:43 26.02.2022
2897 Clouds 9 1008 85 10000 4.12 120 19:57 26.02.2022
2898 Clouds 9 1008 85 10000 4.12 120 19:33 26.02.2022
2899 Clouds 9 1007 86 10000 5.14 120 18:34 26.02.2022
2900 Clouds 9 1007 87 10000 4.12 120 17:37 26.02.2022
2901 Clouds 9 1007 87 10000 4.12 120 16:39 26.02.2022
2902 Clouds 9 1008 89 10000 5.14 130 15:42 26.02.2022
2903 Clouds 9 1008 87 10000 5.14 130 15:19 26.02.2022
2904 Clouds 9 1008 87 10000 2.57 330 14:44 26.02.2022
2905 Clouds 9 1008 87 10000 2.57 330 14:20 26.02.2022
2906 Clouds 8 1009 89 10000 4.12 40 12:59 26.02.2022
2907 Clouds 8 1009 88 10000 4.12 50 11:54 26.02.2022
2908 Clouds 8 1009 91 10000 4.12 50 11:27 26.02.2022
2909 Clouds 7 1009 90 9000 3.6 60 10:22 26.02.2022
2910 Clouds 7 1009 87 8000 4.12 40 08:35 26.02.2022
2911 Clouds 8 1008 77 10000 5.14 50 06:46 26.02.2022
2912 Clouds 9 1008 74 10000 2.06 70 00:26 26.02.2022
2913 Clouds 10 1008 76 10000 2.24 66 22:44 25.02.2022
2914 Clouds 10 1008 74 10000 1.54 10 21:37 25.02.2022
2915 Clouds 10 1008 73 10000 2.06 350 21:18 25.02.2022
2916 Clouds 10 1008 72 10000 2.57 360 20:31 25.02.2022
2917 Clouds 11 1008 72 10000 4.63 50 18:35 25.02.2022
2918 Clouds 11 1008 73 10000 5.14 40 17:21 25.02.2022
2919 Clouds 10 1000 81 10000 5.14 30 16:20 25.02.2022
2920 Clouds 10 1000 80 10000 5.14 30 15:42 25.02.2022
2921 Clouds 10 1001 81 10000 5.14 20 15:18 25.02.2022
2922 Clouds 9 1001 87 10000 4.63 20 14:39 25.02.2022
2923 Clouds 8 1007 88 10000 3.6 30 13:36 25.02.2022
2924 Clouds 8 1007 87 9000 4.63 30 12:45 25.02.2022
2925 Clouds 7 1012 86 9000 5.14 30 11:28 25.02.2022
2926 Clouds 7 1012 85 9000 5.14 40 10:28 25.02.2022
2927 Clouds 7 1011 85 10000 5.14 40 09:53 25.02.2022
2928 Drizzle 8 1011 77 10000 4.63 40 08:46 25.02.2022
2929 Drizzle 9 1010 68 10000 4.12 50 07:37 25.02.2022
2930 Rain 9 1008 63 10000 3.09 360 05:47 25.02.2022
2931 Clear 10 1007 62 10000 3.58 68 02:58 25.02.2022
2932 Clear 12 1007 50 10000 3.6 330 23:42 24.02.2022
2933 Clear 13 1006 42 10000 3.09 330 21:56 24.02.2022
2934 Clear 13 1006 41 10000 2.57 330 21:37 24.02.2022
2935 Clear 13 1006 41 10000 1.54 350 21:18 24.02.2022
2936 Clouds 15 1007 38 10000 1.54 350 19:38 24.02.2022
2937 Clouds 16 1007 35 10000 3.09 20 18:38 24.02.2022
2938 Clouds 16 1007 35 10000 3.09 20 18:18 24.02.2022
2939 Clouds 17 1007 33 10000 1.54 60 17:33 24.02.2022
2940 Clouds 16 1019 33 10000 2.06 70 16:45 24.02.2022
2941 Clouds 16 1019 34 10000 2.06 70 16:21 24.02.2022
2942 Clouds 15 1008 37 10000 2.57 40 14:53 24.02.2022
2943 Clouds 15 1021 36 10000 2.57 50 14:26 24.02.2022
2944 Clear 14 1022 40 10000 2.06 30 13:39 24.02.2022
2945 Clear 14 1022 39 10000 2.06 30 13:39 24.02.2022
2946 Clouds 12 1009 42 10000 1.54 0 12:50 24.02.2022
2947 Clouds 9 1009 47 10000 1.34 55 10:40 24.02.2022
2948 Clouds 6 1009 54 10000 1.79 82 08:59 24.02.2022
2949 Clouds 5 1008 55 10000 2.06 80 08:40 24.02.2022
2950 Clear 6 1002 55 10000 1.54 20 05:52 24.02.2022
2951 Clear 8 1003 46 10000 1.34 46 01:56 24.02.2022
2952 Clear 11 1006 38 10000 1.54 350 22:56 23.02.2022
2953 Clear 12 1021 35 10000 1.54 10 21:43 23.02.2022
2954 Clear 14 1006 31 10000 2.06 360 20:31 23.02.2022
2955 Clear 14 1021 31 10000 1.54 50 19:47 23.02.2022
2956 Clear 17 1021 25 10000 1.54 250 18:32 23.02.2022
2957 Clear 18 1021 24 10000 1.54 300 17:44 23.02.2022
2958 Clear 16 1023 27 10000 2.06 70 14:44 23.02.2022
2959 Clear 14 1025 34 10000 1.34 65 12:45 23.02.2022
2960 Clear 12 1025 39 10000 1.54 60 11:59 23.02.2022
2961 Clear 9 1026 45 10000 2.57 30 10:31 23.02.2022
2962 Clear 6 1011 50 10000 2.68 41 08:59 23.02.2022
2963 Clear 6 1011 50 10000 2.68 41 08:59 23.02.2022
2964 Clear 5 1012 53 10000 2.68 72 08:23 23.02.2022
2965 Clear 6 1008 51 10000 2.06 10 05:49 23.02.2022
2966 Clear 10 1013 35 10000 2.06 360 00:40 23.02.2022
2967 Clear 11 1012 32 10000 1.79 33 23:38 22.02.2022
2968 Clear 12 1012 29 10000 3.13 73 22:32 22.02.2022
2969 Clear 12 1027 28 10000 2.57 320 21:49 22.02.2022
2970 Clear 13 1012 27 10000 2.06 40 21:31 22.02.2022
2971 Clear 14 1027 28 10000 2.57 60 20:57 22.02.2022
2972 Clear 15 1027 25 10000 1.79 67 20:30 22.02.2022
2973 Clear 17 1027 24 10000 2.06 60 19:42 22.02.2022
2974 Clear 17 1027 24 10000 1.54 80 19:23 22.02.2022
2975 Clear 19 1027 21 10000 3.09 70 17:49 22.02.2022
2976 Clear 20 1027 20 10000 2.57 20 17:23 22.02.2022
2977 Clear 20 1027 20 10000 2.57 10 16:41 22.02.2022
2978 Clear 19 1028 21 10000 2.57 30 15:44 22.02.2022
2979 Clear 19 1028 21 10000 2.57 30 15:44 22.02.2022
2980 Clear 18 1029 20 10000 3.09 360 14:44 22.02.2022
2981 Clear 14 1030 21 10000 3.09 30 12:31 22.02.2022
2982 Clear 11 1031 25 10000 2.68 79 10:52 22.02.2022
2983 Clear 6 1016 36 10000 3.6 60 08:41 22.02.2022
2984 Clear 5 1014 38 10000 3.13 59 07:27 22.02.2022
2985 Clear 7 1015 33 10000 3.13 66 05:57 22.02.2022
2986 Clear 8 1030 28 10000 2.68 42 02:45 22.02.2022
2987 Clear 12 1011 31 10000 3.09 10 22:46 21.02.2022
2988 Clear 13 1029 33 10000 4.12 360 21:42 21.02.2022
2989 Clear 14 1028 34 10000 5.81 0 20:36 21.02.2022
2990 Clear 16 1027 28 10000 4.63 360 18:46 21.02.2022
2991 Clear 18 1027 31 10000 4.63 10 17:36 21.02.2022
2992 Clear 17 1028 38 10000 2.57 330 15:22 21.02.2022
2993 Clear 15 1029 42 10000 2.57 350 14:21 21.02.2022
2994 Clear 15 1029 42 10000 2.57 350 14:21 21.02.2022
2995 Clear 14 1029 46 10000 0.45 225 13:22 21.02.2022
2996 Clear 12 1030 52 10000 0.89 123 12:23 21.02.2022
2997 Clear 10 1030 60 10000 1.03 0 11:19 21.02.2022
2998 Clear 7 1029 67 10000 1.03 0 09:50 21.02.2022
2999 Clear 5 1013 73 10000 0.89 56 05:35 21.02.2022
3000 Clear 9 1015 56 10000 1.54 280 23:44 20.02.2022
3001 Clear 10 1014 53 10000 1.54 250 22:25 20.02.2022
3002 Clear 10 1029 52 10000 2.57 270 21:42 20.02.2022
3003 Clear 10 1028 52 10000 2.06 250 20:53 20.02.2022
3004 Clear 11 1011 50 10000 2.57 260 20:35 20.02.2022
3005 Clear 12 1009 45 10000 0.51 0 19:36 20.02.2022
3006 Clear 14 1028 38 10000 0.51 0 18:51 20.02.2022
3007 Clear 14 1028 36 10000 0.51 0 18:31 20.02.2022
3008 Clear 15 1028 36 10000 0.51 0 18:31 20.02.2022
3009 Clear 15 1028 37 10000 1.03 0 17:49 20.02.2022
3010 Clouds 14 1028 38 10000 2.57 10 15:41 20.02.2022
3011 Clear 13 1029 39 10000 2.06 20 14:42 20.02.2022
3012 Clear 11 1030 42 10000 0.45 113 13:23 20.02.2022
3013 Clear 9 1031 45 10000 1.54 110 12:28 20.02.2022
3014 Clear 6 1030 56 10000 1.79 91 10:47 20.02.2022
3015 Clear 4 1030 61 10000 2.68 91 10:19 20.02.2022
3016 Clear 2 1016 70 10000 2.57 50 08:50 20.02.2022
3017 Clear 5 1013 57 10000 2.24 78 00:54 20.02.2022
3018 Clear 5 1013 58 10000 0.45 90 00:54 20.02.2022
3019 Clear 6 1012 56 10000 2.57 60 00:30 20.02.2022
3020 Clear 7 1012 54 10000 3.58 70 23:18 19.02.2022
3021 Clear 8 1011 57 10000 2.68 45 22:22 19.02.2022
3022 Clear 9 1011 56 10000 4.63 350 21:25 19.02.2022
3023 Clouds 10 1011 54 10000 3.09 140 19:53 19.02.2022
3024 Clear 11 1010 51 10000 3.09 140 19:28 19.02.2022
3025 Clouds 12 1023 42 10000 3.09 60 18:33 19.02.2022
3026 Clouds 13 1022 42 10000 4.63 50 17:36 19.02.2022
3027 Clouds 13 1022 43 10000 5.14 70 16:28 19.02.2022
3028 Clouds 11 1022 44 10000 6.17 50 14:56 19.02.2022
3029 Clouds 11 1022 45 10000 7.2 60 14:37 19.02.2022
3030 Clouds 10 1022 47 10000 6.17 40 13:22 19.02.2022
3031 Clouds 9 1021 55 10000 8.75 30 11:38 19.02.2022
3032 Clouds 8 1007 59 10000 8.75 40 09:55 19.02.2022
3033 Clouds 9 1004 66 10000 6.17 60 06:54 19.02.2022
3034 Clear 10 1003 72 10000 2.68 58 03:38 19.02.2022
3035 Clear 11 1003 63 10000 2.24 53 23:33 18.02.2022
3036 Clear 13 1002 60 10000 3.09 320 21:50 18.02.2022
3037 Clear 14 1002 55 10000 3.09 270 20:51 18.02.2022
3038 Clouds 15 1016 57 10000 3.6 250 19:53 18.02.2022
3039 Clear 17 1016 52 10000 3.09 250 18:50 18.02.2022
3040 Clear 18 1016 50 10000 3.58 248 18:22 18.02.2022
3041 Clear 18 1016 49 10000 3.09 260 17:51 18.02.2022
3042 Clear 17 1018 54 10000 2.68 191 14:54 18.02.2022
3043 Clear 16 1019 56 10000 2.24 187 13:55 18.02.2022
3044 Clear 14 1020 58 10000 0.45 225 12:53 18.02.2022
3045 Clear 14 1021 61 10000 1.34 201 12:33 18.02.2022
3046 Clear 11 1021 68 10000 2.06 320 11:27 18.02.2022
3047 Clear 9 1020 72 10000 2.06 90 10:23 18.02.2022
3048 Clear 6 1008 84 10000 1.34 38 06:57 18.02.2022
3049 Clear 7 1006 82 10000 1.54 330 05:40 18.02.2022
3050 Clear 10 1009 73 10000 1.54 350 23:31 17.02.2022
3051 Clear 11 1001 68 10000 1.03 260 21:45 17.02.2022
3052 Clear 12 1009 65 10000 1.03 260 21:20 17.02.2022
3053 Clear 13 1009 63 10000 1.54 260 20:38 17.02.2022
3054 Clear 14 1024 58 10000 1.03 270 19:50 17.02.2022
3055 Clear 16 1024 50 10000 2.06 180 18:44 17.02.2022
3056 Clear 17 1024 47 10000 1.79 184 17:50 17.02.2022
3057 Clear 17 1025 48 10000 1.54 190 16:42 17.02.2022
3058 Clear 17 1026 50 10000 1.79 211 15:38 17.02.2022
3059 Clear 15 1026 54 10000 2.06 0 14:26 17.02.2022
3060 Clear 12 1029 64 10000 1.54 100 12:38 17.02.2022
3061 Clear 10 1029 71 10000 1.54 130 11:27 17.02.2022
3062 Clear 5 1016 86 10000 2.24 65 08:53 17.02.2022
3063 Clear 6 1014 83 10000 1.03 0 02:26 17.02.2022
3064 Clear 9 1014 77 10000 3.09 300 23:21 16.02.2022
3065 Clear 10 1014 73 10000 3.6 260 21:44 16.02.2022
3066 Clear 11 1015 66 10000 3.6 260 19:57 16.02.2022
3067 Clear 13 1014 61 10000 4.12 300 18:39 16.02.2022
3068 Clear 14 1014 61 10000 5.36 293 17:53 16.02.2022
3069 Clear 14 1014 55 10000 6.17 300 15:39 16.02.2022
3070 Clear 14 1015 54 10000 5.14 250 15:18 16.02.2022
3071 Clear 13 1029 56 10000 4.63 250 13:28 16.02.2022
3072 Clear 11 1029 59 10000 3.6 320 12:19 16.02.2022
3073 Clear 10 1029 61 10000 5.14 310 11:26 16.02.2022
3074 Clear 8 1029 66 10000 3.6 250 10:33 16.02.2022
3075 Clear 5 1015 69 10000 1.54 0 07:54 16.02.2022
3076 Clear 5 1013 69 10000 1.03 0 06:26 16.02.2022
3077 Clear 7 1013 62 10000 3.6 250 23:45 15.02.2022
3078 Clear 8 1013 58 10000 3.6 240 22:29 15.02.2022
3079 Clear 8 1013 55 10000 2.68 270 21:47 15.02.2022
3080 Clear 9 1013 55 10000 2.06 330 21:27 15.02.2022
3081 Clear 9 1013 52 10000 4.47 293 20:56 15.02.2022
3082 Clear 10 1014 49 10000 4.12 250 19:57 15.02.2022
3083 Clear 11 1026 44 10000 5.14 240 18:56 15.02.2022
3084 Clear 12 1013 43 10000 4.63 230 18:22 15.02.2022
3085 Clear 12 1026 41 10000 4.63 230 17:50 15.02.2022
3086 Clear 13 1013 40 10000 5.14 260 16:50 15.02.2022
3087 Clear 12 1027 39 10000 4.63 270 15:30 15.02.2022
3088 Clear 10 1028 48 10000 3.09 250 13:28 15.02.2022
3089 Clear 9 1028 53 10000 1.79 203 12:37 15.02.2022
3090 Clear 8 1028 56 10000 1.54 110 11:40 15.02.2022
3091 Clear 4 1027 71 10000 1.54 340 09:47 15.02.2022
3092 Clear 2 1014 80 10000 2.06 330 06:59 15.02.2022
3093 Clear 3 1011 78 10000 3.09 270 05:32 15.02.2022
3094 Clear 7 1009 66 10000 3.58 282 23:34 14.02.2022
3095 Clear 7 1008 67 10000 5.14 260 21:54 14.02.2022
3096 Clouds 7 1007 65 10000 6.17 290 20:40 14.02.2022
3097 Clouds 8 1008 62 10000 8.23 280 19:44 14.02.2022
3098 Clouds 8 1008 61 10000 8.23 280 19:25 14.02.2022
3099 Clouds 10 1007 47 10000 7.72 290 18:23 14.02.2022
3100 Clouds 11 1019 40 10000 8.23 290 17:26 14.02.2022
3101 Clouds 12 1006 42 10000 9.26 290 16:25 14.02.2022
3102 Clouds 11 1006 44 10000 9.26 290 14:39 14.02.2022
3103 Clouds 10 1019 46 10000 7.2 280 13:33 14.02.2022
3104 Clouds 10 1019 48 10000 8.23 260 12:55 14.02.2022
3105 Clouds 9 1019 51 10000 9.26 260 11:55 14.02.2022
3106 Clear 8 1018 57 10000 6.69 270 10:58 14.02.2022
3107 Clouds 6 1018 69 10000 4.63 260 09:19 14.02.2022
3108 Clouds 6 1004 73 10000 6.17 280 07:33 14.02.2022
3109 Clear 6 1002 74 10000 4.63 260 06:32 14.02.2022
3110 Clouds 9 1002 69 10000 6.69 230 22:43 13.02.2022
3111 Clouds 9 1002 69 10000 6.69 230 22:25 13.02.2022
3112 Clouds 10 1002 64 10000 7.72 240 21:36 13.02.2022
3113 Clouds 10 1002 62 10000 8.23 230 20:42 13.02.2022
3114 Clouds 11 1003 66 10000 7.72 230 19:51 13.02.2022
3115 Clouds 11 1003 67 10000 9.26 230 18:54 13.02.2022
3116 Clouds 12 1004 67 10000 6.69 240 18:35 13.02.2022
3117 Clouds 13 1004 60 10000 8.23 240 16:38 13.02.2022
3118 Clouds 13 1005 55 10000 8.23 230 15:27 13.02.2022
3119 Clouds 13 1006 56 10000 9.26 240 14:37 13.02.2022
3120 Clouds 12 1008 68 10000 6.17 220 12:52 13.02.2022
3121 Clouds 11 1021 69 10000 5.66 230 12:18 13.02.2022
3122 Clouds 8 1008 85 10000 2.57 200 10:38 13.02.2022
3123 Clouds 7 1006 86 10000 2.57 200 09:49 13.02.2022
3124 Clouds 7 1008 85 10000 2.24 203 07:54 13.02.2022
3125 Clear 9 1008 67 10000 2.06 190 00:49 13.02.2022
3126 Clear 10 1008 64 10000 2.57 190 00:20 13.02.2022
3127 Clear 11 1022 58 10000 1.54 190 22:34 12.02.2022
3128 Clouds 11 1022 57 10000 1.54 190 21:40 12.02.2022
3129 Clouds 12 1022 55 10000 2.06 190 20:55 12.02.2022
3130 Clouds 12 1022 52 10000 2.57 250 19:56 12.02.2022
3131 Clouds 13 1022 45 10000 2.57 220 18:54 12.02.2022
3132 Clouds 13 1022 45 10000 2.57 220 18:54 12.02.2022
3133 Clouds 14 1009 45 10000 0.89 203 18:35 12.02.2022
3134 Clouds 15 1022 41 10000 2.68 216 17:38 12.02.2022
3135 Clouds 15 1022 40 10000 2.24 201 16:45 12.02.2022
3136 Clouds 15 1022 41 10000 1.79 211 15:53 12.02.2022
3137 Clouds 14 1023 40 10000 1.79 208 15:20 12.02.2022
3138 Clouds 14 1023 46 10000 1.34 207 14:25 12.02.2022
3139 Clouds 10 1025 56 10000 2.57 70 11:31 12.02.2022
3140 Clouds 8 1012 69 10000 1.34 87 10:30 12.02.2022
3141 Clouds 7 1012 74 10000 1.54 350 09:37 12.02.2022
3142 Clouds 6 1011 76 10000 2.06 350 08:46 12.02.2022
3143 Clear 6 1011 78 10000 1.79 27 07:44 12.02.2022
3144 Clear 7 1010 79 10000 1.54 350 04:47 12.02.2022
3145 Clouds 8 1010 78 10000 2.06 340 02:19 12.02.2022
3146 Clear 10 1010 70 10000 2.57 350 23:21 11.02.2022
3147 Clear 11 1010 64 10000 2.24 38 22:23 11.02.2022
3148 Clear 12 1010 61 10000 2.24 64 21:32 11.02.2022
3149 Clear 13 1010 57 10000 1.79 77 20:28 11.02.2022
3150 Clear 13 1012 53 10000 2.06 260 19:29 11.02.2022
3151 Clear 15 1012 46 10000 1.34 90 18:41 11.02.2022
3152 Clear 16 1024 37 10000 1.54 200 17:27 11.02.2022
3153 Clear 17 1024 38 10000 1.03 200 16:40 11.02.2022
3154 Clear 16 1025 40 10000 1.54 30 15:22 11.02.2022
3155 Clear 15 1026 44 10000 3.09 30 14:38 11.02.2022
3156 Clear 15 1026 44 10000 3.09 30 14:19 11.02.2022
3157 Clear 14 1026 47 10000 2.57 40 13:44 11.02.2022
3158 Clear 14 1026 46 10000 2.57 40 13:25 11.02.2022
3159 Clear 10 1027 61 10000 1.03 0 10:59 11.02.2022
3160 Clear 6 1014 77 10000 1.34 70 09:32 11.02.2022
3161 Clear 6 1013 78 10000 1.54 360 08:33 11.02.2022
3162 Clear 6 1011 79 10000 1.03 0 07:45 11.02.2022
3163 Clear 7 1011 75 10000 1.03 340 06:24 11.02.2022
3164 Clear 8 1011 65 10000 1.79 28 02:21 11.02.2022
3165 Clear 10 1012 68 10000 1.03 0 23:45 10.02.2022
3166 Clear 11 1012 66 10000 1.54 280 22:26 10.02.2022
3167 Clear 11 1026 64 10000 2.06 280 21:41 10.02.2022
3168 Clear 12 1026 58 10000 2.24 270 20:50 10.02.2022
3169 Clear 13 1026 52 10000 2.24 270 19:56 10.02.2022
3170 Clear 13 1026 51 10000 2.06 240 19:22 10.02.2022
3171 Clear 14 1026 46 10000 2.57 250 18:32 10.02.2022
3172 Clear 16 1026 42 10000 2.57 250 17:21 10.02.2022
3173 Clear 16 1026 42 10000 2.24 268 16:43 10.02.2022
3174 Clear 15 1026 43 10000 2.06 210 15:41 10.02.2022
3175 Clear 15 1014 45 10000 2.06 160 15:21 10.02.2022
3176 Clear 14 1027 47 10000 2.24 209 14:35 10.02.2022
3177 Clear 14 1015 51 10000 0.89 184 13:56 10.02.2022
3178 Clear 12 1028 55 10000 1.03 0 13:19 10.02.2022
3179 Clear 10 1029 59 10000 1.03 0 11:53 10.02.2022
3180 Clear 9 1029 60 10000 1.03 0 11:32 10.02.2022
3181 Clear 7 1029 66 10000 1.79 82 10:23 10.02.2022
3182 Clear 5 1015 72 10000 1.03 0 09:44 10.02.2022
3183 Clear 3 1014 75 10000 1.34 34 08:40 10.02.2022
3184 Clear 4 1014 73 10000 1.54 360 06:33 10.02.2022
3185 Clear 6 1015 69 10000 1.03 0 03:21 10.02.2022
3186 Clear 7 1015 68 10000 1.54 10 00:56 10.02.2022
3187 Clear 8 1014 67 10000 1.54 330 00:38 10.02.2022
3188 Clear 8 1014 67 10000 1.54 360 00:20 10.02.2022
3189 Clear 9 1014 63 10000 8.49 45 22:54 09.02.2022
3190 Clear 9 1014 65 10000 1.03 0 22:31 09.02.2022
3191 Clear 9 1014 64 10000 1.54 40 21:47 09.02.2022
3192 Clear 10 1014 62 10000 0.51 250 21:27 09.02.2022
3193 Clear 11 1014 60 10000 2.06 270 20:44 09.02.2022
3194 Clear 11 1014 60 10000 2.06 270 20:44 09.02.2022
3195 Clear 11 1014 59 10000 2.06 270 20:22 09.02.2022
3196 Clear 12 1028 51 10000 2.57 220 19:42 09.02.2022
3197 Clear 14 1015 46 10000 3.09 210 18:38 09.02.2022
3198 Clear 15 1028 40 10000 3.13 202 16:57 09.02.2022
3199 Clear 15 1028 39 10000 2.68 180 16:20 09.02.2022
3200 Clear 15 1029 41 10000 2.06 160 15:24 09.02.2022
3201 Clear 12 1031 51 10000 2.06 90 12:53 09.02.2022
3202 Clear 10 1031 60 10000 2.06 70 11:36 09.02.2022
3203 Clear 7 1031 65 10000 1.34 60 10:34 09.02.2022
3204 Clear 7 1018 68 10000 1.54 80 09:53 09.02.2022
3205 Clear 5 1018 72 10000 1.79 30 09:22 09.02.2022
3206 Clear 4 1018 74 10000 2.06 10 08:45 09.02.2022
3207 Clear 5 1016 71 10000 2.06 50 06:52 09.02.2022
3208 Clear 6 1016 67 10000 1.34 48 04:30 09.02.2022
3209 Clear 6 1016 65 10000 1.54 330 03:48 09.02.2022
3210 Clear 9 1012 58 10000 2.06 340 23:45 08.02.2022
3211 Clear 10 1012 56 10000 2.06 350 23:19 08.02.2022
3212 Clear 10 1012 56 10000 2.06 350 23:19 08.02.2022
3213 Clear 10 1012 55 10000 1.54 360 22:38 08.02.2022
3214 Clear 11 1015 53 10000 1.79 117 22:19 08.02.2022
3215 Clear 12 1015 50 10000 1.54 290 21:22 08.02.2022
3216 Clear 12 1014 49 10000 1.03 280 20:58 08.02.2022
3217 Clear 11 1029 47 10000 1.03 0 20:37 08.02.2022
3218 Clear 11 1029 47 10000 1.03 0 20:37 08.02.2022
3219 Clear 14 1029 43 10000 2.06 100 19:27 08.02.2022
3220 Clear 16 1028 38 10000 1.54 60 18:19 08.02.2022
3221 Clear 16 1029 37 10000 2.06 0 16:56 08.02.2022
3222 Clear 16 1029 38 10000 1.54 0 15:47 08.02.2022
3223 Clear 15 1030 41 10000 2.06 120 14:58 08.02.2022
3224 Clear 14 1031 45 10000 3.6 80 13:48 08.02.2022
3225 Clear 11 1031 49 10000 3.6 50 12:24 08.02.2022
3226 Clear 8 1031 55 10000 2.57 50 10:48 08.02.2022
3227 Clear 7 1018 61 10000 4.47 45 09:48 08.02.2022
3228 Clear 5 1017 66 10000 3.13 23 08:38 08.02.2022
3229 Clear 5 1015 66 10000 4.02 45 06:38 08.02.2022
3230 Clear 6 1015 64 10000 3.13 23 04:40 08.02.2022
3231 Clear 6 1015 63 10000 2.57 340 04:22 08.02.2022
3232 Clear 7 1015 60 10000 3.09 30 03:36 08.02.2022
3233 Clear 7 1015 59 10000 3.13 47 03:18 08.02.2022
3234 Clear 7 1015 58 10000 2.68 39 02:59 08.02.2022
3235 Clear 7 1015 58 10000 3.6 40 02:36 08.02.2022
3236 Clear 7 1015 57 10000 3.6 40 02:18 08.02.2022
3237 Clear 8 1015 55 10000 4.92 45 01:44 08.02.2022
3238 Clear 7 1015 56 10000 2.24 90 01:25 08.02.2022
3239 Clear 8 1014 54 10000 3.58 45 00:55 08.02.2022
3240 Clear 8 1014 53 10000 4.47 95 00:21 08.02.2022
3241 Clear 9 1014 53 10000 3.09 70 23:44 07.02.2022
3242 Haze 10 1013 52 1100 3.6 60 23:18 07.02.2022
3243 Haze 10 1013 51 1100 3.6 60 22:59 07.02.2022
3244 Clear 10 1013 46 6000 4.47 58 22:19 07.02.2022
3245 Clear 11 1013 46 6000 3.58 32 21:50 07.02.2022
3246 Haze 11 1013 43 2500 4.02 45 21:27 07.02.2022
3247 Clear 12 1027 38 10000 4.47 68 20:43 07.02.2022
3248 Clear 13 1027 36 10000 3.09 340 20:24 07.02.2022
3249 Clear 14 1027 36 10000 3.58 40 19:47 07.02.2022
3250 Clear 16 1026 30 10000 4.12 30 18:35 07.02.2022
3251 Clear 17 1027 28 10000 2.06 320 17:18 07.02.2022
3252 Clear 17 1027 29 10000 3.13 45 16:46 07.02.2022
3253 Clear 17 1027 30 10000 2.06 310 15:48 07.02.2022
3254 Clear 14 1029 31 10000 2.06 360 13:51 07.02.2022
3255 Clear 13 1030 32 10000 1.03 0 13:26 07.02.2022
3256 Clear 10 1031 38 10000 0.45 113 11:58 07.02.2022
3257 Clear 10 1031 41 10000 0.89 40 11:38 07.02.2022
3258 Clear 8 1030 49 10000 1.34 46 10:59 07.02.2022
3259 Clear 7 1031 51 10000 0.45 11 10:41 07.02.2022
3260 Clear 6 1030 52 10000 0.45 90 10:22 07.02.2022
3261 Clear 5 1030 56 10000 0.89 113 09:47 07.02.2022
3262 Clear 4 1017 61 10000 1.34 97 09:18 07.02.2022
3263 Clear 3 1016 63 10000 0.89 35 07:34 07.02.2022
3264 Clear 4 1012 60 10000 0 0 06:34 07.02.2022
3265 Clear 5 1015 59 10000 1.34 62 04:22 07.02.2022
3266 Clear 6 1015 56 10000 0.45 45 01:30 07.02.2022
3267 Clear 7 1012 55 10000 2.68 23 23:51 06.02.2022
3268 Clear 7 1011 54 10000 1.34 46 23:19 06.02.2022
3269 Clear 8 1015 51 10000 0.45 68 22:39 06.02.2022
3270 Clear 8 1006 54 10000 1.03 270 21:37 06.02.2022
3271 Clear 8 1005 53 10000 0 0 21:18 06.02.2022
3272 Clear 9 1005 52 10000 0 0 20:48 06.02.2022
3273 Clear 10 1013 44 10000 0 0 20:21 06.02.2022
3274 Clear 13 1028 35 10000 0.45 103 18:54 06.02.2022
3275 Clear 13 1027 35 10000 0.89 96 18:27 06.02.2022
3276 Clear 14 1027 33 10000 0.45 119 17:30 06.02.2022
3277 Clear 14 1028 33 10000 0.89 29 16:51 06.02.2022
3278 Clouds 14 1028 36 10000 1.34 90 15:51 06.02.2022
3279 Clouds 13 1028 37 10000 0.89 277 15:28 06.02.2022
3280 Clouds 13 1028 39 10000 0.45 180 15:00 06.02.2022
3281 Clouds 12 1029 39 10000 0.89 130 13:59 06.02.2022
3282 Clear 11 1029 37 10000 0.45 90 13:20 06.02.2022
3283 Clouds 9 1029 40 10000 1.79 78 12:19 06.02.2022
3284 Clouds 6 1016 47 10000 4.47 23 10:33 06.02.2022
3285 Clear 5 1015 51 10000 3.58 23 09:43 06.02.2022
3286 Clear 3 1015 53 10000 1.79 45 08:41 06.02.2022
3287 Clear 3 1014 54 10000 3.58 45 06:34 06.02.2022
3288 Clear 4 1013 52 10000 1.79 23 05:28 06.02.2022
3289 Clear 5 1012 54 10000 1.34 68 02:25 06.02.2022
3290 Clear 7 1012 52 10000 1.34 68 00:33 06.02.2022
3291 Clear 8 1012 53 10000 5.81 68 23:39 05.02.2022
3292 Clouds 9 1026 54 10000 1.79 27 21:47 05.02.2022
3293 Clouds 10 1025 51 10000 3.13 45 20:47 05.02.2022
3294 Clouds 11 1025 50 10000 0.45 90 20:22 05.02.2022
3295 Clouds 11 1024 49 10000 1.34 41 19:42 05.02.2022
3296 Clouds 13 1024 46 10000 0.45 45 18:37 05.02.2022
3297 Clouds 14 1023 45 10000 2.68 23 17:35 05.02.2022
3298 Clouds 14 1023 46 10000 1.79 90 16:20 05.02.2022
3299 Clouds 14 1024 46 10000 1.34 0 15:31 05.02.2022
3300 Clouds 13 1012 53 10000 4.02 23 13:38 05.02.2022
3301 Clouds 12 1025 55 10000 2.68 45 12:46 05.02.2022
3302 Clouds 10 1025 61 10000 4.02 90 11:47 05.02.2022
3303 Clouds 9 1012 68 10000 2.68 45 10:44 05.02.2022
3304 Clouds 7 1012 74 10000 0.45 23 09:51 05.02.2022
3305 Clouds 7 1011 74 10000 4.02 45 08:47 05.02.2022
3306 Clear 7 1010 76 10000 3.13 68 06:59 05.02.2022
3307 Clear 7 1009 75 10000 4.02 68 06:35 05.02.2022
3308 Clear 8 1009 74 10000 2.24 55 02:43 05.02.2022
3309 Clear 9 1009 70 10000 0.89 113 01:18 05.02.2022
3310 Clear 9 1008 68 10000 1.34 98 00:36 05.02.2022
3311 Clear 10 1008 67 10000 0.45 315 23:33 04.02.2022
3312 Clear 10 1008 65 10000 0.45 248 22:45 04.02.2022
3313 Clear 11 1022 63 10000 0.89 221 21:36 04.02.2022
3314 Clear 11 1008 63 10000 0.89 212 21:18 04.02.2022
3315 Clear 11 1022 63 10000 1.03 260 20:36 04.02.2022
3316 Clear 12 1009 55 10000 0.89 180 19:19 04.02.2022
3317 Clear 13 1021 55 10000 0.45 225 16:22 04.02.2022
3318 Clear 13 1009 57 10000 1.34 225 15:19 04.02.2022
3319 Clear 13 1009 60 10000 1.34 220 14:40 04.02.2022
3320 Clear 11 1023 68 10000 1.34 180 12:43 04.02.2022
3321 Clear 10 1010 75 10000 0.45 22 11:45 04.02.2022
3322 Clear 9 1010 75 10000 0.45 90 10:56 04.02.2022
3323 Clear 7 1009 79 10000 0.89 23 09:56 04.02.2022
3324 Clear 6 1009 81 10000 0.45 288 08:30 04.02.2022
3325 Clear 8 1007 76 10000 0.45 225 03:47 04.02.2022
3326 Clear 9 1007 73 10000 0.89 225 02:36 04.02.2022
3327 Clear 10 1008 69 10000 1.34 249 23:56 03.02.2022
3328 Clear 10 1008 66 10000 0.45 248 22:51 03.02.2022
3329 Clear 11 1007 66 10000 0.89 248 21:52 03.02.2022
3330 Clear 11 1007 66 10000 0.45 194 21:29 03.02.2022
3331 Clear 12 1022 60 10000 0.45 248 20:22 03.02.2022
3332 Clear 13 1022 57 10000 3.6 240 19:46 03.02.2022
3333 Clear 13 1021 52 10000 3.09 240 18:56 03.02.2022
3334 Clear 16 1021 46 10000 4.02 270 17:59 03.02.2022
3335 Clear 16 1021 44 10000 2.68 248 17:19 03.02.2022
3336 Clear 16 1022 45 10000 1.79 257 15:34 03.02.2022
3337 Clear 14 1023 49 10000 1.34 190 13:50 03.02.2022
3338 Clear 12 1024 51 10000 0.45 137 12:22 03.02.2022
3339 Clear 4 1024 66 10000 0.51 0 08:56 03.02.2022
3340 Clear 4 1024 67 10000 1.79 37 07:41 03.02.2022
3341 Clear 9 1025 64 10000 0.89 60 00:49 03.02.2022
3342 Clear 9 1025 65 10000 0 0 00:22 03.02.2022
3343 Clear 10 1025 61 10000 0.51 0 22:39 02.02.2022
3344 Clear 11 1025 58 10000 2.06 270 21:46 02.02.2022
3345 Clear 11 1025 58 10000 2.06 270 21:28 02.02.2022
3346 Clear 11 1025 55 10000 1.54 250 20:27 02.02.2022
3347 Clear 13 1025 49 10000 1.54 290 19:46 02.02.2022
3348 Clear 15 1025 46 10000 2.06 250 18:56 02.02.2022
3349 Clear 17 1025 37 10000 1.54 250 18:24 02.02.2022
3350 Clear 19 1026 30 10000 1.03 0 17:20 02.02.2022
3351 Clear 19 1026 30 10000 0.45 203 16:56 02.02.2022
3352 Clear 18 1027 34 10000 0.89 203 15:23 02.02.2022
3353 Clear 13 1029 56 10000 0.89 22 12:31 02.02.2022
3354 Clear 11 1029 61 10000 0.89 14 11:48 02.02.2022
3355 Clear 10 1029 63 10000 0.89 34 11:30 02.02.2022
3356 Clear 10 1029 63 10000 0.89 36 11:30 02.02.2022
3357 Clear 5 1014 82 10000 2.24 28 08:30 02.02.2022
3358 Clear 8 1015 73 10000 1.79 49 02:44 02.02.2022
3359 Clear 11 1015 63 10000 2.24 113 22:33 01.02.2022
3360 Clear 12 1029 56 10000 7.6 45 20:51 01.02.2022
3361 Clear 13 1015 51 10000 3.58 68 19:23 01.02.2022
3362 Clear 16 1026 43 10000 5.36 68 16:57 01.02.2022
3363 Clear 16 1026 42 10000 2.24 90 16:21 01.02.2022
3364 Clear 14 1028 45 10000 4.47 69 12:57 01.02.2022
3365 Clear 11 1028 51 10000 4.92 45 12:21 01.02.2022
3366 Clear 6 1016 66 10000 4.02 68 08:52 01.02.2022
3367 Clear 7 1029 52 10000 4.47 68 02:20 01.02.2022
3368 Clear 8 1014 50 10000 4.47 68 23:37 31.01.2022
3369 Clear 8 1014 41 10000 2.68 68 22:33 31.01.2022
3370 Clear 10 1009 33 10000 0.89 90 21:35 31.01.2022
3371 Clear 10 1009 33 10000 0.89 90 21:35 31.01.2022
3372 Clear 12 1012 26 10000 1.79 0 20:35 31.01.2022
3373 Clear 11 1026 26 10000 2.57 350 19:58 31.01.2022
3374 Clear 14 1025 25 10000 2.06 350 18:32 31.01.2022
3375 Clear 14 1025 25 10000 2.06 350 18:32 31.01.2022
3376 Clear 15 1025 22 10000 3.09 330 17:57 31.01.2022
3377 Clear 16 1026 21 10000 1.34 293 17:18 31.01.2022
3378 Clear 16 1026 24 10000 0.89 280 16:23 31.01.2022
3379 Clear 14 1027 28 10000 0.45 203 14:53 31.01.2022
3380 Clear 12 1028 31 10000 0.89 216 13:31 31.01.2022
3381 Clear 10 1029 37 10000 0.45 64 12:37 31.01.2022
3382 Clear 8 1028 39 10000 0.45 128 11:20 31.01.2022
3383 Clear 8 1028 39 10000 0.45 113 10:47 31.01.2022
3384 Clear 3 1015 54 10000 0.45 295 09:37 31.01.2022
3385 Clear 2 1012 55 10000 0 0 08:56 31.01.2022
3386 Clear 2 1012 55 10000 1.34 38 08:20 31.01.2022
3387 Clear 2 1012 51 10000 1.34 64 07:40 31.01.2022
3388 Clear 4 1008 46 10000 0.89 25 05:25 31.01.2022
3389 Clear 7 1013 37 10000 1.34 10 00:24 31.01.2022
3390 Clear 8 1009 34 10000 0.45 51 22:33 30.01.2022
3391 Clear 9 1009 33 10000 0.89 68 21:46 30.01.2022
3392 Clear 9 1005 35 10000 1.03 290 21:24 30.01.2022
3393 Clear 9 1005 35 10000 1.03 290 20:53 30.01.2022
3394 Clear 10 1005 32 10000 1.54 260 20:31 30.01.2022
3395 Clear 10 1027 30 10000 1.54 270 19:56 30.01.2022
3396 Clear 12 1026 22 10000 1.03 260 18:51 30.01.2022
3397 Clear 14 1026 23 10000 0 0 18:22 30.01.2022
3398 Clear 16 1027 18 10000 0.89 248 17:31 30.01.2022
3399 Clear 16 1027 17 10000 1.03 0 16:43 30.01.2022
3400 Clear 17 1027 17 10000 1.34 90 16:23 30.01.2022
3401 Clear 17 1027 17 10000 0.89 203 15:55 30.01.2022
3402 Clear 16 1028 19 10000 1.54 130 15:33 30.01.2022
3403 Clear 16 1029 22 10000 0.45 56 14:47 30.01.2022
3404 Clear 14 1029 25 10000 0.45 83 13:47 30.01.2022
3405 Clear 11 1030 30 10000 0.45 113 12:46 30.01.2022
3406 Clear 9 1030 33 10000 1.34 21 11:23 30.01.2022
3407 Clear 6 1030 39 10000 1.34 34 10:26 30.01.2022
3408 Clear 4 1018 45 10000 0.89 45 09:23 30.01.2022
3409 Clear 3 1017 46 10000 0.89 68 07:59 30.01.2022
3410 Clear 5 1017 40 10000 0.89 45 02:44 30.01.2022
3411 Clear 6 1017 39 10000 1.34 45 01:54 30.01.2022
3412 Clear 7 1017 37 10000 0.45 45 23:49 29.01.2022
3413 Clear 8 1014 34 10000 0.45 177 22:57 29.01.2022
3414 Clear 9 1032 34 10000 2.06 360 21:35 29.01.2022
3415 Clear 9 1032 30 10000 2.06 360 20:57 29.01.2022
3416 Clear 9 1032 30 10000 1.54 360 19:52 29.01.2022
3417 Clear 11 1009 28 10000 0 0 19:31 29.01.2022
3418 Clear 13 1032 23 10000 1.03 0 18:44 29.01.2022
3419 Clear 16 1032 19 10000 1.03 0 17:54 29.01.2022
3420 Clear 16 1032 18 10000 0.45 51 16:44 29.01.2022
3421 Clear 15 1033 18 10000 1.34 103 15:27 29.01.2022
3422 Clear 14 1034 26 10000 2.06 60 13:48 29.01.2022
3423 Clear 13 1034 27 10000 0.45 90 13:27 29.01.2022
3424 Clear 12 1034 29 10000 0.89 23 12:58 29.01.2022
3425 Clear 8 1035 35 10000 1.54 50 11:39 29.01.2022
3426 Clear 5 1034 40 10000 1.79 36 10:32 29.01.2022
3427 Clear 2 1020 47 10000 0.45 153 07:57 29.01.2022
3428 Clear 6 1018 38 10000 0.89 68 01:38 29.01.2022
3429 Clear 6 1018 36 10000 1.34 45 00:31 29.01.2022
3430 Clear 6 1018 36 10000 1.34 45 00:31 29.01.2022
3431 Clear 7 1018 34 10000 0.45 68 23:29 28.01.2022
3432 Clear 7 1014 35 10000 0.45 0 22:46 28.01.2022
3433 Clear 8 1013 36 10000 1.34 17 22:18 28.01.2022
3434 Clear 8 1009 37 10000 0.51 280 20:41 28.01.2022
3435 Clear 9 1006 31 10000 1.03 280 19:53 28.01.2022
3436 Clear 11 1030 29 10000 0.51 0 18:51 28.01.2022
3437 Clear 14 1030 21 10000 2.06 130 17:52 28.01.2022
3438 Clear 14 1030 21 10000 3.13 45 15:50 28.01.2022
3439 Clear 13 1031 25 10000 0.89 68 14:46 28.01.2022
3440 Clear 10 1032 37 10000 0.45 45 12:40 28.01.2022
3441 Clear 7 1032 43 10000 0.45 68 11:38 28.01.2022
3442 Clear 7 1032 43 10000 0.45 68 11:38 28.01.2022
3443 Clear 6 1017 47 10000 2.24 45 10:22 28.01.2022
3444 Clear 4 1019 51 10000 0.89 23 09:45 28.01.2022
3445 Clear 2 1018 53 10000 3.13 45 07:40 28.01.2022
3446 Clear 3 1016 53 10000 0.89 23 05:30 28.01.2022
3447 Clear 4 1016 52 10000 1.34 38 03:48 28.01.2022
3448 Clear 5 1015 50 10000 0.89 68 02:23 28.01.2022
3449 Clear 5 1015 50 10000 1.34 23 01:35 28.01.2022
3450 Clear 6 1015 49 10000 0.89 68 00:33 28.01.2022
3451 Clear 7 1011 48 10000 2.68 35 21:58 27.01.2022
3452 Clear 7 1028 48 10000 1.54 10 21:34 27.01.2022
3453 Clear 7 1006 49 10000 1.03 10 20:55 27.01.2022
3454 Clear 9 1010 41 10000 0.51 70 19:35 27.01.2022
3455 Clear 13 1027 30 10000 2.06 70 17:58 27.01.2022
3456 Clear 13 1028 36 10000 0.45 90 15:43 27.01.2022
3457 Clear 11 1029 49 10000 0.89 23 13:39 27.01.2022
3458 Clear 9 1030 55 10000 1.79 23 12:46 27.01.2022
3459 Clear 6 1030 65 10000 4.47 45 10:59 27.01.2022
3460 Clear 3 1015 73 10000 5.36 45 09:27 27.01.2022
3461 Clear 3 1016 73 10000 3.13 23 08:39 27.01.2022
3462 Clear 2 1016 73 10000 1.34 23 07:23 27.01.2022
3463 Clear 4 1014 67 10000 1.79 45 02:59 27.01.2022
3464 Clear 6 1015 66 10000 2.24 34 23:52 26.01.2022
3465 Clear 7 1015 66 10000 1.34 29 22:27 26.01.2022
3466 Clear 7 1014 65 10000 0.89 50 21:41 26.01.2022
3467 Clear 8 1011 66 10000 0.89 82 20:42 26.01.2022
3468 Clouds 8 1014 62 10000 0.45 68 20:23 26.01.2022
3469 Clouds 8 1015 62 10000 0.45 45 19:28 26.01.2022
3470 Clouds 10 1015 59 10000 1.34 23 18:46 26.01.2022
3471 Clear 10 1015 57 10000 1.34 70 17:52 26.01.2022
3472 Clear 10 1028 55 10000 0.45 45 17:24 26.01.2022
3473 Clouds 11 1028 54 10000 0.45 113 16:40 26.01.2022
3474 Clouds 10 1028 54 10000 1.34 113 15:50 26.01.2022
3475 Clouds 9 1029 53 10000 2.24 113 14:23 26.01.2022
3476 Clouds 7 1030 59 10000 0.45 45 11:56 26.01.2022
3477 Clear 5 1018 72 10000 0.45 90 10:45 26.01.2022
3478 Clear 3 1017 78 10000 2.68 23 09:49 26.01.2022
3479 Clear 1 1017 83 10000 3.58 23 08:32 26.01.2022
3480 Clear 2 1015 82 10000 0.89 68 06:20 26.01.2022
3481 Clear 2 1015 82 10000 0.89 68 06:20 26.01.2022
3482 Clear 5 1016 73 10000 1.79 63 00:18 26.01.2022
3483 Clear 6 1016 71 10000 1.34 65 23:28 25.01.2022
3484 Clear 6 1013 68 10000 1.34 74 22:48 25.01.2022
3485 Clear 6 1016 66 10000 0.45 113 22:18 25.01.2022
3486 Clouds 7 1016 64 10000 0.89 113 21:22 25.01.2022
3487 Clouds 7 1030 64 10000 0.89 128 20:44 25.01.2022
3488 Clouds 8 1030 64 10000 0.45 110 19:53 25.01.2022
3489 Clouds 9 1017 63 10000 1.34 113 18:46 25.01.2022
3490 Clouds 10 1017 59 10000 0.89 90 17:45 25.01.2022
3491 Clouds 10 1017 58 10000 1.79 90 16:58 25.01.2022
3492 Clouds 10 1017 59 10000 0.45 158 16:34 25.01.2022
3493 Clouds 10 1017 61 10000 0.45 180 15:39 25.01.2022
3494 Clouds 10 1017 62 10000 0.45 113 14:58 25.01.2022
3495 Clouds 10 1030 59 10000 0.45 113 13:47 25.01.2022
3496 Clouds 7 1032 67 10000 1.79 59 11:30 25.01.2022
3497 Clouds 5 1031 69 10000 1.54 60 09:21 25.01.2022
3498 Clouds 5 1030 72 10000 1.54 60 07:31 25.01.2022
3499 Clouds 5 1030 70 10000 1.54 50 06:53 25.01.2022
3500 Clouds 6 1030 69 10000 2.06 60 05:23 25.01.2022
3501 Clouds 7 1029 60 10000 1.79 83 00:20 25.01.2022
3502 Clouds 7 1029 62 10000 0.51 0 23:36 24.01.2022
3503 Clouds 7 1029 60 10000 1.54 70 23:18 24.01.2022
3504 Clouds 7 1029 60 10000 1.54 70 22:42 24.01.2022
3505 Clouds 7 1029 61 10000 0.89 50 21:57 24.01.2022
3506 Clouds 7 1029 61 10000 0.89 66 21:57 24.01.2022
3507 Clouds 8 1014 62 10000 1.34 74 21:32 24.01.2022
3508 Clouds 8 1014 61 10000 0.45 45 20:33 24.01.2022
3509 Clouds 8 1015 58 10000 3.13 45 19:58 24.01.2022
3510 Clouds 8 1015 58 10000 1.79 45 19:37 24.01.2022
3511 Clouds 8 1014 56 10000 2.24 45 18:35 24.01.2022
3512 Clouds 9 1014 55 10000 1.79 23 17:24 24.01.2022
3513 Clouds 9 1014 55 10000 0.45 23 16:55 24.01.2022
3514 Clouds 9 1014 54 10000 0.45 68 16:29 24.01.2022
3515 Clouds 8 1015 61 10000 1.34 68 14:49 24.01.2022
3516 Clouds 7 1015 70 10000 0.45 256 13:38 24.01.2022
3517 Clouds 6 1016 70 10000 0.45 23 12:32 24.01.2022
3518 Clouds 6 1015 73 10000 0.89 27 11:20 24.01.2022
3519 Clouds 4 1014 78 10000 1.79 44 09:49 24.01.2022
3520 Clouds 3 1012 81 10000 0.89 44 09:20 24.01.2022
3521 Clouds 4 1014 79 10000 0.45 90 07:20 24.01.2022
3522 Clouds 4 1014 79 10000 0.45 90 07:20 24.01.2022
3523 Clouds 6 1012 72 10000 0.89 36 01:32 24.01.2022
3524 Clouds 6 1012 72 10000 0.89 63 00:46 24.01.2022
3525 Clouds 6 1012 72 10000 0.89 85 00:27 24.01.2022
3526 Clear 6 1012 71 10000 0.45 90 22:46 23.01.2022
3527 Clear 6 1011 69 10000 1.34 67 21:50 23.01.2022
3528 Clear 6 1011 65 10000 0.89 85 21:27 23.01.2022
3529 Clouds 7 1011 65 10000 0.45 76 20:54 23.01.2022
3530 Clouds 7 1013 65 10000 0.45 97 19:55 23.01.2022
3531 Clouds 8 1012 65 10000 0.45 90 18:52 23.01.2022
3532 Clouds 9 1012 61 10000 0.89 23 17:52 23.01.2022
3533 Clouds 9 1024 60 10000 1.34 135 16:52 23.01.2022
3534 Clouds 9 1012 63 10000 1.79 113 15:18 23.01.2022
3535 Clouds 9 1026 64 10000 0.89 45 14:33 23.01.2022
3536 Clouds 8 1026 66 10000 1.34 45 13:27 23.01.2022
3537 Clouds 7 1027 68 10000 0.89 68 12:36 23.01.2022
3538 Clouds 6 1027 72 10000 1.79 23 12:18 23.01.2022
3539 Clouds 5 1028 77 10000 1.79 23 11:24 23.01.2022
3540 Clouds 4 1028 79 10000 1.79 52 10:57 23.01.2022
3541 Clouds 3 1027 82 10000 1.34 68 10:23 23.01.2022
3542 Clouds 2 1027 81 10000 0.89 45 09:25 23.01.2022
3543 Clouds 1 1012 81 10000 0.45 45 05:59 23.01.2022
3544 Clouds 1 1012 81 10000 0.45 45 05:59 23.01.2022
3545 Clear 2 1012 77 10000 0.45 45 03:20 23.01.2022
3546 Clear 3 1013 75 10000 2.24 42 01:35 23.01.2022
3547 Clear 4 1013 75 10000 1.79 30 00:42 23.01.2022
3548 Clear 4 1012 75 10000 1.34 40 23:57 22.01.2022
3549 Clear 4 1013 73 10000 0.89 87 22:48 22.01.2022
3550 Clear 5 1013 69 10000 0.89 81 21:58 22.01.2022
3551 Clear 7 1013 63 10000 0.89 46 20:26 22.01.2022
3552 Clear 7 1014 63 10000 0.45 23 19:37 22.01.2022
3553 Clear 9 1027 57 10000 0.45 45 18:37 22.01.2022
3554 Clear 9 1027 53 10000 0.45 113 17:42 22.01.2022
3555 Clear 9 1027 53 10000 0.45 45 17:18 22.01.2022
3556 Clear 10 1027 53 10000 0.89 21 16:22 22.01.2022
3557 Clear 9 1025 54 10000 0.45 90 15:44 22.01.2022
3558 Clouds 8 1025 59 10000 0.45 113 14:22 22.01.2022
3559 Clouds 8 1026 61 10000 4.92 247 13:27 22.01.2022
3560 Clouds 6 1027 62 10000 0.45 68 12:37 22.01.2022
3561 Clouds 6 1027 63 10000 0.45 68 12:18 22.01.2022
3562 Clouds 3 1029 64 10000 2.24 45 10:39 22.01.2022
3563 Clouds 2 1029 65 10000 3.13 45 10:20 22.01.2022
3564 Clear 0 1014 68 10000 0.89 45 08:55 22.01.2022
3565 Clear 0 1014 68 10000 3.58 23 08:31 22.01.2022
3566 Clear 1 1011 58 10000 0.89 45 05:20 22.01.2022
3567 Clear 2 1010 54 10000 4.47 45 02:39 22.01.2022
3568 Clear 3 1009 49 10000 4.02 68 23:50 21.01.2022
3569 Clear 4 1009 48 10000 4.02 45 22:59 21.01.2022
3570 Clear 5 1009 48 10000 3.58 23 21:18 21.01.2022
3571 Clear 6 1010 45 10000 0.45 90 19:30 21.01.2022
3572 Clear 9 1024 36 10000 0.89 113 17:50 21.01.2022
3573 Clouds 9 1024 41 10000 2.24 68 15:55 21.01.2022
3574 Clouds 8 1024 49 10000 3.58 68 14:58 21.01.2022
3575 Clear 6 1026 65 10000 0.51 0 12:43 21.01.2022
3576 Clear 4 1026 71 10000 0.45 225 11:29 21.01.2022
3577 Clear 3 1025 75 10000 0.89 113 10:33 21.01.2022
3578 Clear 1 1012 83 10000 0.89 3 08:59 21.01.2022
3579 Clear 1 1012 82 10000 0.89 8 07:58 21.01.2022
3580 Clear 4 1011 72 10000 1.79 67 01:52 21.01.2022
3581 Clear 6 1012 65 10000 0.89 45 22:51 20.01.2022
3582 Clouds 7 1011 61 10000 3.13 45 21:49 20.01.2022
3583 Clouds 7 1011 60 10000 2.24 45 21:25 20.01.2022
3584 Clouds 9 1013 53 10000 3.58 68 19:54 20.01.2022
3585 Clouds 9 1013 49 10000 4.02 68 19:18 20.01.2022
3586 Clouds 12 1025 42 10000 2.24 68 17:37 20.01.2022
3587 Clouds 13 1025 42 10000 0.45 90 16:24 20.01.2022
3588 Clouds 12 1026 43 10000 2.24 113 15:31 20.01.2022
3589 Clouds 12 1027 47 10000 2.24 90 14:20 20.01.2022
3590 Clear 10 1028 52 10000 0.89 90 12:53 20.01.2022
3591 Clear 10 1029 53 10000 2.24 45 12:29 20.01.2022
3592 Clear 6 1029 58 10000 1.34 90 11:19 20.01.2022
3593 Clear 4 1029 60 10000 1.34 90 10:18 20.01.2022
3594 Clear 2 1013 65 10000 2.24 65 08:51 20.01.2022
3595 Clear 2 1013 64 10000 2.24 42 06:57 20.01.2022
3596 Clear 5 1014 54 10000 2.68 66 00:40 20.01.2022
3597 Clear 6 1011 51 10000 0.89 41 22:39 19.01.2022
3598 Clear 6 1011 47 10000 2.06 290 21:36 19.01.2022
3599 Clear 7 1029 46 10000 0.89 270 20:58 19.01.2022
3600 Clear 7 1029 45 10000 2.57 290 20:40 19.01.2022
3601 Clear 9 1028 39 10000 1.54 250 18:59 19.01.2022
3602 Clear 12 1028 30 10000 1.54 190 17:51 19.01.2022
3603 Clear 13 1028 27 10000 0.89 202 17:18 19.01.2022
3604 Clear 13 1028 30 10000 0.89 248 15:35 19.01.2022
3605 Clear 10 1030 40 10000 0.89 110 13:26 19.01.2022
3606 Clear 8 1031 45 10000 1.34 59 12:20 19.01.2022
3607 Clear 7 1031 49 10000 0.89 87 11:38 19.01.2022
3608 Clear 3 1018 56 10000 0.89 68 09:49 19.01.2022
3609 Clear 2 1016 55 10000 0.45 45 09:22 19.01.2022
3610 Clear 2 1016 58 10000 0.89 45 05:29 19.01.2022
3611 Clear 5 1016 54 10000 1.34 45 00:22 19.01.2022
3612 Clear 5 1016 53 10000 0.45 68 23:18 18.01.2022
3613 Clear 5 1008 58 10000 1.03 290 21:50 18.01.2022
3614 Clear 5 1030 56 10000 1.03 280 20:38 18.01.2022
3615 Clear 7 1030 49 10000 1.03 280 19:51 18.01.2022
3616 Clear 7 1030 47 10000 1.03 250 19:33 18.01.2022
3617 Clear 10 1029 37 10000 0.51 240 18:23 18.01.2022
3618 Clear 12 1029 31 10000 0.51 0 17:32 18.01.2022
3619 Clear 13 1029 29 10000 0.45 338 16:22 18.01.2022
3620 Clear 12 1029 34 10000 0.89 79 15:25 18.01.2022
3621 Clear 11 1030 42 10000 0.89 98 14:23 18.01.2022
3622 Clear 6 1031 55 10000 0.45 113 11:45 18.01.2022
3623 Clear 3 1031 66 10000 0.45 90 10:30 18.01.2022
3624 Clear 1 1031 73 10000 1.79 14 08:36 18.01.2022
3625 Clear 0 1030 73 10000 1.79 29 07:45 18.01.2022
3626 Clear 3 1031 68 10000 1.79 59 01:34 18.01.2022
3627 Clear 4 1031 67 10000 1.34 15 22:47 17.01.2022
3628 Clear 5 1031 67 10000 0.89 31 21:50 17.01.2022
3629 Clear 5 1031 64 10000 1.34 44 21:29 17.01.2022
3630 Clear 7 1030 58 10000 1.34 56 19:37 17.01.2022
3631 Clear 9 1030 51 10000 0.45 57 18:27 17.01.2022
3632 Clear 11 1030 44 10000 0.89 91 17:22 17.01.2022
3633 Clear 11 1031 44 10000 0.89 98 16:22 17.01.2022
3634 Clear 10 1031 49 10000 0.45 270 14:58 17.01.2022
3635 Clear 9 1031 51 10000 0.45 90 14:32 17.01.2022
3636 Clear 8 1033 55 10000 0.89 180 13:19 17.01.2022
3637 Clear 7 1033 60 10000 0.89 107 12:27 17.01.2022
3638 Clear 6 1033 64 10000 0.89 40 11:47 17.01.2022
3639 Clear 2 1032 73 10000 1.79 56 10:21 17.01.2022
3640 Clear 0 1032 79 10000 1.79 61 08:44 17.01.2022
3641 Clear 0 1031 78 10000 1.34 23 07:22 17.01.2022
3642 Clear 2 1032 77 10000 2.24 53 02:20 17.01.2022
3643 Clear 3 1032 78 10000 1.34 62 00:43 17.01.2022
3644 Clear 5 1031 73 10000 0.89 246 21:22 16.01.2022
3645 Clear 5 1031 72 10000 0.89 235 20:28 16.01.2022
3646 Clear 7 1030 63 10000 0.89 199 18:46 16.01.2022
3647 Clear 9 1030 56 10000 1.34 198 17:51 16.01.2022
3648 Clear 10 1030 53 10000 0.45 180 16:55 16.01.2022
3649 Clear 9 1030 51 10000 0.89 202 15:43 16.01.2022
3650 Clear 8 1030 56 10000 0.89 178 14:29 16.01.2022
3651 Clear 7 1031 60 10000 1.34 214 13:33 16.01.2022
3652 Clear 5 1031 66 10000 0.45 36 12:21 16.01.2022
3653 Clear 3 1031 70 10000 1.79 72 11:29 16.01.2022
3654 Clear 2 1031 76 10000 1.34 40 10:28 16.01.2022
3655 Clear 0 1030 79 10000 1.79 33 09:58 16.01.2022
3656 Clear 0 1030 81 10000 0.89 45 09:37 16.01.2022
3657 Clear -1 1030 81 10000 1.34 45 09:19 16.01.2022
3658 Clear -1 1028 81 10000 1.79 32 06:35 16.01.2022
3659 Clear 2 1028 76 10000 1.34 37 00:35 16.01.2022
3660 Clear 3 1027 77 10000 0.89 53 22:50 15.01.2022
3661 Clear 4 1027 71 10000 0 0 21:22 15.01.2022
3662 Clear 5 1027 69 10000 0 0 20:45 15.01.2022
3663 Clear 5 1027 70 10000 0.89 253 20:22 15.01.2022
3664 Clear 5 1027 67 10000 0.89 245 19:27 15.01.2022
3665 Clear 7 1027 60 10000 1.34 190 18:18 15.01.2022
3666 Clear 9 1026 54 10000 1.79 225 16:49 15.01.2022
3667 Clear 8 1027 60 10000 1.79 248 14:38 15.01.2022
3668 Clear 5 1029 64 10000 0.45 139 12:39 15.01.2022
3669 Clear 3 1029 65 10000 0.45 0 11:21 15.01.2022
3670 Clear 0 1029 69 10000 1.79 40 09:46 15.01.2022
3671 Clear 1 1029 64 10000 0.45 23 01:58 15.01.2022
3672 Clear 3 1030 62 10000 1.79 68 23:20 14.01.2022
3673 Clear 4 1030 61 10000 0.89 32 21:18 14.01.2022
3674 Clear 4 1030 60 10000 0.45 36 20:25 14.01.2022
3675 Clear 5 1030 57 10000 0.45 23 19:50 14.01.2022
3676 Clear 7 1030 53 10000 0.45 68 18:38 14.01.2022
3677 Clear 8 1030 46 10000 0.89 112 17:21 14.01.2022
3678 Clear 8 1030 46 10000 0.89 113 16:40 14.01.2022
3679 Clear 8 1030 47 10000 0.45 113 15:30 14.01.2022
3680 Clear 8 1031 47 10000 2.24 135 14:25 14.01.2022
3681 Clear 6 1033 55 10000 1.79 113 12:47 14.01.2022
3682 Clear 5 1033 63 10000 0.89 45 11:51 14.01.2022
3683 Clear 2 1033 75 10000 1.79 47 10:24 14.01.2022
3684 Clear -1 1032 82 10000 1.34 45 08:52 14.01.2022
3685 Clear 0 1032 82 10000 1.34 50 07:30 14.01.2022
3686 Clear 2 1032 75 10000 1.34 38 02:20 14.01.2022
3687 Clear 3 1033 74 10000 0.45 45 23:40 13.01.2022
3688 Clear 5 1032 71 10000 1.34 64 21:46 13.01.2022
3689 Clear 5 1032 70 10000 1.34 59 21:27 13.01.2022
3690 Clouds 6 1032 66 10000 0.45 74 19:45 13.01.2022
3691 Clouds 6 1032 65 10000 0.89 45 19:23 13.01.2022
3692 Clouds 7 1032 61 10000 0.89 51 18:36 13.01.2022
3693 Clouds 9 1032 58 10000 1.34 77 16:48 13.01.2022
3694 Clouds 9 1031 58 10000 0.89 76 15:38 13.01.2022
3695 Clouds 9 1031 58 10000 1.79 135 15:18 13.01.2022
3696 Clouds 8 1032 63 10000 2.24 158 13:28 13.01.2022
3697 Clouds 4 1032 62 10000 0.45 45 10:39 13.01.2022
3698 Clouds 1 1032 67 10000 0.89 23 09:23 13.01.2022
3699 Clear 1 1032 67 10000 2.24 45 08:29 13.01.2022
3700 Clear 1 1032 64 10000 1.79 45 07:58 13.01.2022
3701 Clear 1 1031 64 10000 1.34 68 07:18 13.01.2022
3702 Clear 2 1031 61 10000 1.79 29 05:20 13.01.2022
3703 Clear 3 1031 55 10000 1.79 21 03:34 13.01.2022
3704 Clear 4 1030 51 10000 0.45 23 01:38 13.01.2022
3705 Clear 5 1030 50 10000 1.34 81 23:53 12.01.2022
3706 Clear 5 1029 49 10000 2.24 45 23:33 12.01.2022
3707 Clear 5 1029 54 10000 1.34 41 22:22 12.01.2022
3708 Clear 5 1029 53 10000 1.34 74 21:43 12.01.2022
3709 Clear 5 1029 55 10000 0.51 0 21:18 12.01.2022
3710 Clear 6 1029 51 10000 0.51 0 20:44 12.01.2022
3711 Clear 9 1028 39 10000 1.03 160 18:48 12.01.2022
3712 Clear 11 1027 34 10000 0.89 59 17:54 12.01.2022
3713 Clear 12 1027 32 10000 0.89 113 16:52 12.01.2022
3714 Clear 11 1028 36 10000 0.45 58 14:50 12.01.2022
3715 Clear 11 1028 35 10000 0.89 68 14:19 12.01.2022
3716 Clear 9 1028 36 10000 1.34 45 12:57 12.01.2022
3717 Clear 4 1028 83 10000 2.68 68 09:48 12.01.2022
3718 Fog 3 1027 86 10000 1.34 53 07:57 12.01.2022
3719 Fog 4 1027 86 10000 0.89 45 07:33 12.01.2022
3720 Fog 4 1027 86 10000 0.89 45 07:33 12.01.2022
3721 Clear 6 1027 77 10000 0.89 72 02:20 12.01.2022
3722 Clear 8 1026 72 10000 1.79 23 23:27 11.01.2022
3723 Clear 9 1026 69 10000 0.45 45 22:39 11.01.2022
3724 Clear 10 1026 68 10000 2.68 45 22:18 11.01.2022
3725 Clouds 11 1025 65 10000 2.68 68 20:40 11.01.2022
3726 Clouds 12 1025 62 10000 3.13 45 19:35 11.01.2022
3727 Clear 14 1024 55 10000 1.03 0 17:54 11.01.2022
3728 Clear 15 1024 51 10000 1.34 90 16:46 11.01.2022
3729 Clear 15 1024 51 10000 1.34 93 16:28 11.01.2022
3730 Clear 15 1024 53 10000 0.89 135 14:57 11.01.2022
3731 Clear 14 1025 56 10000 0.89 154 14:38 11.01.2022
3732 Clear 13 1025 60 10000 1.79 270 13:52 11.01.2022
3733 Clear 13 1025 62 10000 0.89 71 13:28 11.01.2022
3734 Clear 12 1026 68 10000 0.45 20 12:36 11.01.2022
3735 Clear 8 1025 77 10000 1.79 61 10:40 11.01.2022
3736 Clear 6 1024 84 10000 0.45 338 08:26 11.01.2022
3737 Clear 7 1023 79 10000 1.34 23 04:30 11.01.2022
3738 Clear 9 1024 71 10000 0.45 293 00:28 11.01.2022
3739 Clear 10 1023 68 10000 2.68 23 23:40 10.01.2022
3740 Clear 10 1023 69 10000 2.24 23 22:43 10.01.2022
3741 Clear 10 1023 67 10000 3.13 14 22:18 10.01.2022
3742 Clear 11 1023 67 10000 3.13 11 21:42 10.01.2022
3743 Clear 11 1023 64 10000 4.02 32 21:18 10.01.2022
3744 Clear 11 1023 65 10000 4.63 360 20:55 10.01.2022
3745 Clear 12 1022 62 10000 4.92 0 20:23 10.01.2022
3746 Clear 12 1022 60 10000 3.58 10 19:39 10.01.2022
3747 Clear 12 1022 60 10000 5.36 0 19:19 10.01.2022
3748 Clear 12 1022 60 10000 4.92 23 18:47 10.01.2022
3749 Clouds 15 1021 57 10000 0.89 45 16:51 10.01.2022
3750 Clouds 15 1021 59 10000 2.68 68 16:33 10.01.2022
3751 Clear 15 1021 61 10000 0.89 23 14:58 10.01.2022
3752 Clear 14 1022 65 10000 0.89 0 13:35 10.01.2022
3753 Clear 12 1023 75 10000 4.02 293 11:57 10.01.2022
3754 Fog 11 1023 80 10000 0.89 23 11:24 10.01.2022
3755 Fog 8 1022 87 10000 0.89 36 09:40 10.01.2022
3756 Clear 8 1020 86 10000 0.89 121 05:52 10.01.2022
3757 Clear 9 1020 83 10000 2.24 184 05:23 10.01.2022
3758 Clear 12 1021 79 10000 2.68 270 01:24 10.01.2022
3759 Clouds 12 1022 79 10000 2.24 292 00:23 10.01.2022
3760 Clouds 12 1022 80 10000 4.92 279 23:28 09.01.2022
3761 Clear 12 1022 79 10000 2.24 270 22:21 09.01.2022
3762 Clear 12 1022 78 10000 5.36 270 21:42 09.01.2022
3763 Clear 12 1022 78 10000 5.36 270 21:42 09.01.2022
3764 Clear 12 1022 77 10000 4.92 315 21:23 09.01.2022
3765 Clouds 12 1022 76 10000 1.79 248 20:49 09.01.2022
3766 Clouds 12 1022 75 10000 5.36 276 20:29 09.01.2022
3767 Clouds 12 1022 70 10000 3.58 270 19:44 09.01.2022
3768 Clouds 12 1022 70 10000 5.81 293 19:22 09.01.2022
3769 Clouds 12 1022 69 10000 8.05 270 18:49 09.01.2022
3770 Clouds 12 1022 69 10000 4.92 270 18:30 09.01.2022
3771 Clouds 12 1022 67 10000 6.71 293 17:30 09.01.2022
3772 Clouds 13 1022 64 10000 5.81 270 16:51 09.01.2022
3773 Clouds 13 1022 62 10000 8.94 270 15:56 09.01.2022
3774 Clouds 13 1022 62 10000 8.94 270 15:34 09.01.2022
3775 Clouds 13 1022 61 10000 6.26 270 14:40 09.01.2022
3776 Clouds 13 1022 62 10000 6.71 270 13:50 09.01.2022
3777 Clouds 11 1023 68 10000 6.26 293 12:44 09.01.2022
3778 Clouds 9 1023 76 10000 4.47 248 11:48 09.01.2022
3779 Clear 5 1023 82 10000 4.02 270 09:59 09.01.2022
3780 Clear 5 1023 81 10000 4.92 270 09:41 09.01.2022
3781 Clear 4 1023 80 10000 2.24 248 08:30 09.01.2022
3782 Mist 4 1024 78 10000 1.34 315 02:48 09.01.2022
3783 Clear 4 1024 72 10000 4.47 293 01:21 09.01.2022
3784 Clear 4 1024 67 10000 4.02 293 23:38 08.01.2022
3785 Clear 4 1024 71 10000 0.89 225 22:59 08.01.2022
3786 Clear 4 1025 82 10000 0.45 248 21:33 08.01.2022
3787 Clear 4 1025 83 10000 1.34 248 20:58 08.01.2022
3788 Clear 4 1025 83 10000 0.89 270 20:39 08.01.2022
3789 Clear 4 1025 83 10000 3.13 248 20:19 08.01.2022
3790 Clear 6 1026 79 10000 1.34 225 18:21 08.01.2022
3791 Clear 7 1026 74 10000 2.24 203 17:21 08.01.2022
3792 Clear 7 1026 75 10000 0.45 180 15:47 08.01.2022
3793 Clear 6 1027 74 10000 2.24 248 14:41 08.01.2022
3794 Clear 5 1029 79 10000 0.45 182 13:25 08.01.2022
3795 Clear 2 1030 85 10000 0.89 168 11:24 08.01.2022
3796 Clear 1 1029 86 10000 0.89 189 10:25 08.01.2022
3797 Clear 1 1029 88 10000 1.34 191 09:47 08.01.2022
3798 Clear 0 1029 89 10000 0 0 07:21 08.01.2022
3799 Clear 2 1030 85 10000 0.45 259 02:45 08.01.2022
3800 Clear 3 1030 81 10000 0.89 64 00:41 08.01.2022
3801 Clear 4 1030 81 10000 0.45 8 22:47 07.01.2022
3802 Clear 6 1030 69 10000 1.34 44 20:56 07.01.2022
3803 Clear 6 1030 69 10000 1.79 45 20:19 07.01.2022
3804 Clouds 7 1029 66 10000 0.89 45 19:18 07.01.2022
3805 Clouds 7 1029 64 10000 3.13 23 18:44 07.01.2022
3806 Clouds 9 1028 59 10000 4.92 68 17:26 07.01.2022
3807 Clouds 10 1028 58 10000 1.79 68 16:30 07.01.2022
3808 Clear 9 1027 63 10000 3.58 23 13:53 07.01.2022
3809 Clear 9 1027 64 10000 0.45 248 13:22 07.01.2022
3810 Clear 8 1028 67 10000 0.89 12 12:49 07.01.2022
3811 Clear 1 1026 85 10000 0.45 325 09:37 07.01.2022
3812 Clear 2 1023 78 10000 1.34 62 02:55 07.01.2022
3813 Clear 2 1023 80 10000 1.34 64 01:54 07.01.2022
3814 Clear 3 1023 75 10000 0.89 76 01:28 07.01.2022
3815 Clear 3 1023 76 10000 0.89 68 00:58 07.01.2022
3816 Clear 3 1023 78 10000 0.89 23 00:58 07.01.2022
3817 Clear 4 1022 75 10000 1.79 23 22:54 06.01.2022
3818 Clear 4 1021 79 10000 1.34 23 21:28 06.01.2022
3819 Clouds 5 1021 70 10000 0.45 180 20:21 06.01.2022
3820 Clouds 5 1021 73 10000 1.79 315 19:44 06.01.2022
3821 Clouds 7 1020 74 10000 0.89 225 17:54 06.01.2022
3822 Clouds 8 1019 67 10000 1.34 158 17:34 06.01.2022
3823 Clouds 8 1019 66 10000 0.89 270 16:42 06.01.2022
3824 Clear 8 1020 69 10000 0.45 270 15:46 06.01.2022
3825 Clear 7 1020 70 10000 1.34 207 15:25 06.01.2022
3826 Clouds 7 1020 72 10000 1.79 152 14:45 06.01.2022
3827 Clouds 7 1020 72 10000 1.34 248 14:18 06.01.2022
3828 Clouds 5 1020 78 10000 1.79 225 12:50 06.01.2022
3829 Clear 4 1020 83 10000 1.79 135 11:43 06.01.2022
3830 Clear 4 1020 84 10000 1.34 168 11:22 06.01.2022
3831 Fog 1 1019 92 3500 0.45 152 08:51 06.01.2022
3832 Clouds 4 1016 95 10000 1.79 68 00:53 06.01.2022
3833 Clouds 5 1016 93 10000 3.58 68 23:38 05.01.2022
3834 Clouds 5 1016 93 10000 1.34 68 22:57 05.01.2022
3835 Clouds 5 1015 91 10000 0.89 45 22:32 05.01.2022
3836 Mist 5 1016 91 3200 0.45 63 21:48 05.01.2022
3837 Clouds 5 1016 89 9000 0.45 331 20:57 05.01.2022
3838 Clouds 5 1016 90 10000 1.34 270 20:18 05.01.2022
3839 Rain 6 1016 86 7000 3.58 248 18:44 05.01.2022
3840 Rain 7 1016 77 10000 2.24 293 17:26 05.01.2022
3841 Rain 8 1016 61 10000 2.68 293 16:50 05.01.2022
3842 Clouds 9 1017 56 10000 3.13 293 15:26 05.01.2022
3843 Clouds 8 1019 61 10000 7.15 270 13:51 05.01.2022
3844 Clouds 8 1020 61 10000 6.26 293 13:22 05.01.2022
3845 Clouds 6 1019 73 10000 2.24 270 10:34 05.01.2022
3846 Clouds 5 1019 74 10000 2.24 225 07:47 05.01.2022
3847 Clouds 5 1019 74 10000 2.24 225 07:47 05.01.2022
3848 Clouds 5 1019 72 10000 4.47 248 06:25 05.01.2022
3849 Clear 6 1018 71 10000 4.02 315 00:58 05.01.2022
3850 Clear 7 1017 69 10000 3.58 315 23:28 04.01.2022
3851 Clear 7 1017 69 10000 3.58 315 23:28 04.01.2022
3852 Clouds 7 1016 68 10000 3.13 315 22:55 04.01.2022
3853 Clouds 7 1015 70 10000 8.05 293 21:24 04.01.2022
3854 Clouds 7 1012 76 10000 9.83 270 19:20 04.01.2022
3855 Clouds 8 1012 86 10000 7.6 248 17:52 04.01.2022
3856 Rain 10 1011 86 2300 5.36 248 16:44 04.01.2022
3857 Rain 11 1011 81 7000 2.24 270 16:24 04.01.2022
3858 Clouds 11 1013 81 10000 1.79 135 14:54 04.01.2022
3859 Clouds 11 1013 83 10000 2.24 203 14:34 04.01.2022
3860 Mist 10 1015 92 4500 1.34 225 13:27 04.01.2022
3861 Mist 7 1017 95 2700 0.45 248 10:41 04.01.2022
3862 Mist 6 1017 93 9000 0.45 293 09:47 04.01.2022
3863 Mist 6 1018 91 9000 0.89 225 08:32 04.01.2022
3864 Mist 7 1021 90 6000 0.89 206 02:32 04.01.2022
3865 Mist 8 1023 88 10000 1.34 203 00:41 04.01.2022
3866 Mist 8 1024 88 10000 1.34 200 23:26 03.01.2022
3867 Clear 8 1024 88 10000 0.89 225 21:52 03.01.2022
3868 Clear 9 1024 86 10000 1.34 203 21:33 03.01.2022
3869 Clear 10 1025 81 10000 1.79 223 20:22 03.01.2022
3870 Clear 11 1025 76 10000 2.24 208 18:54 03.01.2022
3871 Clear 12 1025 76 10000 1.34 225 18:28 03.01.2022
3872 Clear 14 1025 67 10000 1.34 180 16:58 03.01.2022
3873 Clear 14 1025 67 10000 1.34 180 15:39 03.01.2022
3874 Clear 13 1026 68 10000 2.06 150 14:31 03.01.2022
3875 Clear 13 1026 68 10000 2.06 150 14:31 03.01.2022
3876 Clear 10 1028 76 10000 1.34 158 12:48 03.01.2022
3877 Clear 9 1028 80 10000 0.51 0 11:38 03.01.2022
3878 Clear 7 1028 84 10000 0 0 10:36 03.01.2022
3879 Clear 5 1028 86 10000 0.51 0 08:48 03.01.2022
3880 Clear 5 1028 86 10000 0.51 0 07:36 03.01.2022
3881 Clear 8 1030 83 10000 1.34 17 23:56 02.01.2022
3882 Clear 8 1030 83 10000 1.34 17 23:22 02.01.2022
3883 Clear 9 1029 82 10000 0.89 45 22:55 02.01.2022
3884 Clear 8 1030 83 10000 0.89 38 21:46 02.01.2022
3885 Clear 10 1030 79 10000 0 0 20:38 02.01.2022
3886 Clear 10 1029 75 10000 0.45 95 20:18 02.01.2022
3887 Clear 11 1029 74 10000 0.89 68 19:31 02.01.2022
3888 Clear 12 1029 71 10000 1.03 100 18:47 02.01.2022
3889 Clear 13 1029 62 10000 0.89 258 17:56 02.01.2022
3890 Clear 14 1029 59 10000 2.57 120 17:37 02.01.2022
3891 Clear 15 1029 56 10000 1.34 156 17:18 02.01.2022
3892 Clear 16 1029 52 10000 0.45 147 16:26 02.01.2022
3893 Clear 14 1030 57 10000 0.89 165 14:34 02.01.2022
3894 Clear 12 1031 61 10000 0.45 82 12:54 02.01.2022
3895 Clear 11 1031 62 10000 0.89 42 12:25 02.01.2022
3896 Clear 10 1031 62 10000 1.34 85 11:33 02.01.2022
3897 Clear 9 1031 65 10000 1.79 43 10:49 02.01.2022
3898 Clear 6 1031 73 10000 0.45 45 09:45 02.01.2022
3899 Clear 6 1029 74 10000 2.24 23 05:51 02.01.2022
3900 Clear 7 1029 73 10000 2.24 73 02:19 02.01.2022
3901 Clear 9 1029 67 10000 2.24 25 23:40 01.01.2022
3902 Clear 10 1029 65 10000 2.24 26 22:58 01.01.2022
3903 Clear 9 1029 66 10000 1.79 38 22:23 01.01.2022
3904 Clear 9 1029 67 10000 1.34 29 21:44 01.01.2022
3905 Clear 10 1029 65 10000 0.51 0 20:55 01.01.2022
3906 Clear 11 1029 65 10000 0.51 0 19:58 01.01.2022
3907 Clear 11 1029 61 10000 0 0 19:26 01.01.2022
3908 Clear 14 1028 53 10000 0 0 18:20 01.01.2022
3909 Clear 17 1028 41 10000 0.51 0 16:43 01.01.2022
3910 Clear 17 1028 41 10000 0.51 0 16:20 01.01.2022
3911 Clear 17 1029 41 10000 0.45 344 15:27 01.01.2022
3912 Clear 15 1030 48 10000 0.45 113 13:59 01.01.2022
3913 Clear 14 1030 52 10000 1.34 73 12:50 01.01.2022
3914 Clear 12 1030 59 10000 0.45 90 11:58 01.01.2022
3915 Clear 10 1030 64 10000 1.34 11 11:23 01.01.2022
3916 Clear 8 1030 73 10000 0.45 68 10:40 01.01.2022
3917 Clear 6 1030 76 10000 0.89 68 09:46 01.01.2022
3918 Clear 5 1030 80 10000 1.79 45 08:26 01.01.2022
3919 Clear 5 1029 80 10000 3.13 45 07:54 01.01.2022
3920 Clear 5 1029 78 10000 1.34 23 07:34 01.01.2022
3921 Clear 6 1029 76 10000 1.79 45 06:41 01.01.2022
3922 Clear 6 1030 79 10000 1.79 45 04:38 01.01.2022
3923 Clear 7 1029 83 9000 2.24 23 02:54 01.01.2022
3924 Clear 9 1030 83 10000 3.13 45 23:44 31.12.2021
3925 Clear 9 1030 82 10000 0.89 35 21:53 31.12.2021
3926 Clear 10 1030 84 10000 1.03 320 20:41 31.12.2021
3927 Clear 11 1029 79 10000 0.45 275 19:31 31.12.2021
3928 Clear 11 1029 79 10000 0.45 277 19:31 31.12.2021
3929 Clear 11 1029 79 10000 0.45 277 19:31 31.12.2021
3930 Clear 14 1028 68 10000 0.51 150 18:44 31.12.2021
3931 Clear 16 1028 60 10000 0.89 192 17:45 31.12.2021
3932 Clear 16 1028 60 10000 0.89 192 17:19 31.12.2021
3933 Clear 16 1028 56 10000 0.89 135 16:40 31.12.2021
3934 Clear 17 1028 55 10000 0.89 180 15:57 31.12.2021
3935 Clear 16 1028 57 10000 1.34 180 15:29 31.12.2021
3936 Clear 16 1028 57 10000 0.89 135 15:29 31.12.2021
3937 Clear 16 1029 58 10000 0.89 156 14:57 31.12.2021
3938 Clear 15 1029 58 10000 0.45 50 14:31 31.12.2021
3939 Clear 14 1029 62 10000 0.89 64 13:37 31.12.2021
3940 Clear 12 1030 66 10000 0.45 90 12:49 31.12.2021
3941 Clear 11 1030 70 10000 0.45 68 11:52 31.12.2021
3942 Clear 10 1030 71 10000 0.89 90 11:33 31.12.2021
3943 Clear 8 1029 78 10000 1.79 58 10:38 31.12.2021
3944 Clear 7 1029 82 10000 0.51 0 10:20 31.12.2021
3945 Fog 5 1029 84 10000 1.79 68 09:33 31.12.2021
3946 Fog 5 1028 87 10000 1.79 23 08:47 31.12.2021
3947 Fog 5 1028 86 10000 1.79 31 07:49 31.12.2021
3948 Clear 8 1027 85 10000 1.79 68 00:47 31.12.2021
3949 Clear 10 1027 82 10000 1.79 68 22:50 30.12.2021
3950 Clear 10 1027 82 10000 2.24 38 22:26 30.12.2021
3951 Clear 10 1027 82 10000 1.34 5 21:37 30.12.2021
3952 Clear 10 1026 82 10000 1.34 15 20:49 30.12.2021
3953 Clear 10 1027 83 10000 1.34 359 20:28 30.12.2021
3954 Clear 11 1026 82 10000 0.89 41 19:48 30.12.2021
3955 Clear 11 1026 84 10000 0 0 19:24 30.12.2021
3956 Clear 14 1025 73 10000 0 0 18:21 30.12.2021
3957 Clear 16 1025 64 10000 0.45 90 16:37 30.12.2021
3958 Clear 16 1025 64 10000 0.45 86 15:53 30.12.2021
3959 Clear 15 1025 71 10000 1.34 105 14:51 30.12.2021
3960 Clear 14 1025 72 10000 0.45 45 14:31 30.12.2021
3961 Clear 13 1026 77 10000 1.79 96 13:24 30.12.2021
3962 Clear 10 1027 85 10000 1.34 71 11:45 30.12.2021
3963 Clear 7 1026 88 10000 1.79 35 10:27 30.12.2021
3964 Fog 5 1026 93 10000 1.79 68 09:27 30.12.2021
3965 Fog 5 1026 93 700 1.34 35 06:56 30.12.2021
3966 Fog 6 1026 93 6000 1.34 55 04:42 30.12.2021
3967 Mist 6 1026 92 5000 0.89 23 03:40 30.12.2021
3968 Clear 7 1026 92 10000 0.89 68 02:19 30.12.2021
3969 Clear 7 1027 91 7000 1.03 260 23:37 29.12.2021
3970 Mist 8 1027 90 3700 0.45 195 22:33 29.12.2021
3971 Mist 8 1027 91 4800 0.45 318 21:55 29.12.2021
3972 Mist 8 1027 90 5000 1.34 237 20:56 29.12.2021
3973 Clear 9 1027 89 7000 1.79 202 20:26 29.12.2021
3974 Clear 9 1026 85 10000 2.24 135 19:31 29.12.2021
3975 Clear 11 1026 83 10000 0.89 157 18:35 29.12.2021
3976 Clear 13 1026 76 10000 0.89 248 17:42 29.12.2021
3977 Clear 13 1026 75 10000 1.34 225 17:23 29.12.2021
3978 Clear 13 1026 75 10000 1.79 162 16:21 29.12.2021
3979 Clouds 13 1026 73 10000 0.89 190 15:21 29.12.2021
3980 Clouds 10 1027 82 10000 0.45 285 12:57 29.12.2021
3981 Clouds 10 1027 84 10000 0.89 90 12:32 29.12.2021
3982 Clouds 9 1028 90 10000 1.79 45 11:22 29.12.2021
3983 Clouds 8 1027 91 10000 1.34 23 09:24 29.12.2021
3984 Mist 7 1026 95 4500 1.79 90 07:30 29.12.2021
3985 Fog 7 1026 94 500 0.89 90 06:32 29.12.2021
3986 Fog 7 1026 94 150 1.34 45 05:55 29.12.2021
3987 Fog 8 1026 96 200 0.45 68 04:57 29.12.2021
3988 Clear 8 1025 94 10000 2.24 248 00:43 29.12.2021
3989 Clear 9 1025 92 10000 0.89 248 23:58 28.12.2021
3990 Clear 9 1025 90 10000 1.34 248 22:57 28.12.2021
3991 Clear 10 1025 91 10000 2.68 270 22:25 28.12.2021
3992 Clear 10 1025 91 10000 2.68 270 22:25 28.12.2021
3993 Clear 10 1025 91 10000 2.68 270 22:25 28.12.2021
3994 Clear 10 1025 89 10000 2.68 248 21:54 28.12.2021
3995 Clear 10 1025 90 10000 2.68 248 21:54 28.12.2021
3996 Clear 10 1024 90 10000 1.34 225 21:35 28.12.2021
3997 Clear 11 1025 87 10000 3.58 248 20:25 28.12.2021
3998 Clear 12 1024 83 10000 1.34 225 18:54 28.12.2021
3999 Clear 12 1024 80 10000 1.79 225 18:27 28.12.2021
4000 Clear 13 1024 75 10000 2.24 225 17:39 28.12.2021
4001 Clouds 15 1023 74 10000 4.02 248 16:21 28.12.2021
4002 Clouds 15 1023 72 10000 3.13 248 15:41 28.12.2021
4003 Clouds 14 1023 73 10000 3.58 225 14:56 28.12.2021
4004 Clouds 14 1023 73 10000 2.68 225 14:38 28.12.2021
4005 Clouds 14 1023 74 10000 2.68 225 14:38 28.12.2021
4006 Clouds 14 1023 74 10000 3.58 248 14:19 28.12.2021
4007 Clouds 14 1024 75 10000 2.68 225 13:37 28.12.2021
4008 Clouds 13 1024 77 10000 4.47 225 12:56 28.12.2021
4009 Clouds 12 1024 82 10000 4.02 225 12:21 28.12.2021
4010 Clouds 10 1023 92 10000 3.58 248 10:51 28.12.2021
4011 Clear 9 1021 91 10000 3.13 248 07:39 28.12.2021
4012 Clear 10 1021 88 10000 1.79 248 03:37 28.12.2021
4013 Clear 10 1019 87 10000 3.13 248 23:41 27.12.2021
4014 Clear 10 1019 83 10000 4.47 225 22:31 27.12.2021
4015 Clear 11 1018 81 10000 3.58 248 21:32 27.12.2021
4016 Clear 11 1018 79 10000 3.13 225 20:40 27.12.2021
4017 Clear 11 1018 77 10000 3.58 225 19:55 27.12.2021
4018 Clear 12 1018 78 10000 3.13 248 19:37 27.12.2021
4019 Clear 13 1017 72 10000 3.13 225 17:55 27.12.2021
4020 Clear 13 1017 72 10000 3.13 225 17:55 27.12.2021
4021 Clear 13 1017 73 10000 5.81 248 17:29 27.12.2021
4022 Clouds 14 1016 70 10000 8.05 248 16:32 27.12.2021
4023 Clouds 14 1016 71 10000 3.58 248 15:50 27.12.2021
4024 Clouds 14 1017 73 10000 5.81 270 14:29 27.12.2021
4025 Clouds 13 1017 78 10000 4.92 248 13:32 27.12.2021
4026 Clouds 12 1017 88 10000 4.02 225 11:34 27.12.2021
4027 Clouds 12 1015 90 10000 2.24 248 10:27 27.12.2021
4028 Clouds 11 1015 93 10000 2.24 225 09:38 27.12.2021
4029 Clouds 12 1012 96 10000 2.68 248 07:35 27.12.2021
4030 Mist 12 1012 95 4700 1.34 225 06:30 27.12.2021
4031 Mist 12 1012 95 4700 1.34 248 06:30 27.12.2021
4032 Mist 12 1012 96 2200 3.13 203 01:59 27.12.2021
4033 Clouds 11 1012 95 9000 0.45 248 23:52 26.12.2021
4034 Clouds 10 1012 97 10000 2.24 248 23:34 26.12.2021
4035 Drizzle 10 1012 96 9000 0.45 248 21:48 26.12.2021
4036 Drizzle 10 1012 96 4000 0.89 203 20:31 26.12.2021
4037 Mist 10 1012 97 4000 2.68 203 19:31 26.12.2021
4038 Drizzle 10 1011 97 6000 2.68 203 18:23 26.12.2021
4039 Rain 9 1012 94 7000 2.68 203 15:56 26.12.2021
4040 Clouds 10 1013 93 10000 3.58 203 13:52 26.12.2021
4041 Rain 10 1013 93 9000 1.34 203 13:32 26.12.2021
4042 Clouds 10 1014 94 10000 2.24 203 12:38 26.12.2021
4043 Clouds 10 1014 95 9000 0.45 270 11:58 26.12.2021
4044 Rain 9 1013 96 6000 0.45 248 09:52 26.12.2021
4045 Fog 9 1013 96 500 2.24 225 09:18 26.12.2021
4046 Fog 9 1012 94 500 3.58 248 08:40 26.12.2021
4047 Fog 9 1012 97 400 2.24 270 07:25 26.12.2021
4048 Mist 9 1009 96 1800 0.45 226 00:59 26.12.2021
4049 Fog 9 1009 96 300 0.45 54 23:53 25.12.2021
4050 Fog 9 1009 95 450 0.45 22 23:27 25.12.2021
4051 Mist 9 1009 95 2500 0.45 10 22:23 25.12.2021
4052 Mist 9 1008 95 2700 1.34 45 20:48 25.12.2021
4053 Drizzle 10 1008 95 6000 1.34 23 19:23 25.12.2021
4054 Mist 10 1007 94 2500 1.34 23 18:54 25.12.2021
4055 Mist 10 1007 94 3000 0.45 158 17:32 25.12.2021
4056 Mist 10 1006 94 3000 0.45 135 16:36 25.12.2021
4057 Mist 10 1007 94 10000 1.34 135 14:46 25.12.2021
4058 Clouds 9 1007 94 3000 0.45 135 13:30 25.12.2021
4059 Clouds 9 1008 93 8000 0.45 135 11:46 25.12.2021
4060 Mist 9 1008 95 4500 0.45 158 09:51 25.12.2021
4061 Mist 8 1008 96 4000 0.45 158 08:38 25.12.2021
4062 Clear 8 1008 94 10000 1.34 135 04:34 25.12.2021
4063 Clouds 9 1009 94 10000 4.02 203 01:23 25.12.2021
4064 Clouds 9 1009 94 7000 0.45 158 23:40 24.12.2021
4065 Clouds 11 1010 92 10000 2.24 225 19:45 24.12.2021
4066 Clouds 11 1010 92 10000 2.24 225 19:23 24.12.2021
4067 Clouds 11 1010 93 9000 0.45 158 16:53 24.12.2021
4068 Clouds 11 1010 93 10000 1.79 135 16:22 24.12.2021
4069 Clouds 11 1010 95 6000 0.45 203 15:48 24.12.2021
4070 Mist 11 1011 94 4500 1.34 180 14:47 24.12.2021
4071 Drizzle 11 1011 95 7000 0.89 158 14:26 24.12.2021
4072 Mist 11 1012 95 4000 1.79 135 13:41 24.12.2021
4073 Mist 10 1013 94 4000 0.89 135 12:49 24.12.2021
4074 Mist 10 1013 94 4000 0.45 203 12:20 24.12.2021
4075 Mist 10 1014 95 5000 1.34 226 11:29 24.12.2021
4076 Mist 10 1014 95 5000 1.79 201 10:59 24.12.2021
4077 Mist 10 1014 96 9000 2.68 201 10:31 24.12.2021
4078 Drizzle 10 1014 97 6000 1.79 200 08:28 24.12.2021
4079 Mist 10 1014 97 5000 0.89 270 07:57 24.12.2021
4080 Mist 10 1014 97 2500 1.79 200 06:18 24.12.2021
4081 Mist 10 1017 95 2500 0.89 135 00:20 24.12.2021
4082 Mist 10 1017 95 3800 1.34 135 23:33 23.12.2021
4083 Mist 10 1018 95 2200 1.34 113 22:44 23.12.2021
4084 Mist 10 1018 95 3500 1.79 113 22:21 23.12.2021
4085 Mist 10 1018 95 3600 0.45 113 21:34 23.12.2021
4086 Clouds 10 1018 92 3000 0.89 59 20:21 23.12.2021
4087 Clouds 10 1018 92 4000 0.89 45 19:27 23.12.2021
4088 Mist 11 1018 89 4500 1.34 33 17:58 23.12.2021
4089 Mist 11 1018 87 4000 0.45 112 17:18 23.12.2021
4090 Drizzle 11 1018 83 10000 0.89 158 16:26 23.12.2021
4091 Drizzle 11 1018 82 10000 1.79 135 15:32 23.12.2021
4092 Clouds 11 1019 82 10000 2.68 135 14:58 23.12.2021
4093 Clouds 11 1019 82 10000 1.34 113 14:38 23.12.2021
4094 Clouds 11 1020 82 10000 1.79 135 13:25 23.12.2021
4095 Clouds 9 1021 89 8000 0.89 135 11:20 23.12.2021
4096 Clouds 7 1021 92 9000 1.03 0 09:53 23.12.2021
4097 Clouds 7 1021 92 9000 0.45 13 09:33 23.12.2021
4098 Mist 7 1020 92 9000 0.89 113 08:25 23.12.2021
4099 Mist 7 1020 91 2200 0.89 147 05:23 23.12.2021
4100 Fog 8 1021 92 150 1.34 220 00:34 23.12.2021
4101 Mist 9 1020 92 1600 0.51 0 22:50 22.12.2021
4102 Clouds 10 1020 90 9000 0.89 270 21:59 22.12.2021
4103 Clear 10 1020 90 10000 0.89 293 21:30 22.12.2021
4104 Clouds 10 1020 88 10000 1.34 254 20:58 22.12.2021
4105 Clouds 11 1020 87 10000 1.34 254 20:40 22.12.2021
4106 Clouds 11 1020 83 10000 1.34 211 19:42 22.12.2021
4107 Clouds 13 1019 78 10000 2.68 203 18:25 22.12.2021
4108 Clouds 13 1019 75 10000 1.79 203 17:38 22.12.2021
4109 Clouds 13 1019 76 10000 2.68 180 15:50 22.12.2021
4110 Clouds 13 1020 83 10000 2.24 135 14:23 22.12.2021
4111 Clouds 12 1021 81 10000 2.24 135 12:53 22.12.2021
4112 Clouds 11 1021 83 9000 3.13 135 11:39 22.12.2021
4113 Clouds 9 1021 91 8000 0.45 158 09:52 22.12.2021
4114 Clouds 9 1020 91 8000 1.34 54 07:56 22.12.2021
4115 Mist 8 1020 92 4100 0.89 113 05:51 22.12.2021
4116 Mist 8 1020 92 7000 1.34 113 05:33 22.12.2021
4117 Mist 8 1020 93 4400 0.45 90 04:57 22.12.2021
4118 Clouds 8 1020 92 8000 0.45 90 04:37 22.12.2021
4119 Clouds 8 1020 89 8000 2.24 45 03:37 22.12.2021
4120 Clouds 8 1020 90 7000 1.79 68 03:18 22.12.2021
4121 Clouds 9 1021 89 8000 1.34 25 23:48 21.12.2021
4122 Mist 9 1021 88 8000 0.89 39 22:41 21.12.2021
4123 Mist 9 1021 87 7000 0.45 12 21:56 21.12.2021
4124 Mist 9 1021 87 8000 0.89 17 21:32 21.12.2021
4125 Clear 10 1020 84 10000 0.89 1 20:24 21.12.2021
4126 Clear 10 1020 83 10000 0.89 56 19:55 21.12.2021
4127 Clouds 10 1020 83 10000 0.89 65 19:33 21.12.2021
4128 Clouds 11 1020 80 10000 0.45 84 18:23 21.12.2021
4129 Clouds 11 1020 79 10000 0.89 86 17:53 21.12.2021
4130 Clouds 12 1020 77 10000 0.45 63 16:47 21.12.2021
4131 Clouds 12 1020 75 10000 0.89 80 15:34 21.12.2021
4132 Clouds 11 1021 78 10000 0.45 141 14:20 21.12.2021
4133 Clouds 11 1022 78 10000 0.89 199 13:41 21.12.2021
4134 Clouds 11 1022 81 10000 0.45 90 12:25 21.12.2021
4135 Clouds 8 1022 87 10000 0.45 68 10:38 21.12.2021
4136 Mist 8 1022 89 9000 0.45 68 09:42 21.12.2021
4137 Mist 7 1021 89 9000 1.34 18 08:55 21.12.2021
4138 Fog 7 1021 89 10000 0.89 36 07:42 21.12.2021
4139 Mist 7 1021 88 10000 0.45 55 07:19 21.12.2021
4140 Clouds 8 1021 90 10000 0.89 46 03:24 21.12.2021
4141 Drizzle 8 1021 86 10000 0.89 23 01:20 21.12.2021
4142 Clouds 8 1021 87 10000 0.45 68 23:54 20.12.2021
4143 Clouds 8 1021 85 10000 0.89 45 22:35 20.12.2021
4144 Clouds 8 1021 87 10000 1.34 44 21:51 20.12.2021
4145 Clouds 8 1022 85 10000 0.89 36 21:24 20.12.2021
4146 Clouds 8 1022 85 10000 1.34 17 20:51 20.12.2021
4147 Drizzle 8 1022 83 10000 1.34 27 20:19 20.12.2021
4148 Clouds 9 1022 82 10000 0.89 30 19:36 20.12.2021
4149 Clouds 9 1022 80 10000 0.45 6 19:18 20.12.2021
4150 Clear 9 1022 79 10000 0.45 225 18:30 20.12.2021
4151 Clouds 10 1021 78 10000 0.45 357 17:49 20.12.2021
4152 Clouds 10 1021 78 10000 0.45 357 17:49 20.12.2021
4153 Clear 10 1021 73 10000 1.34 89 16:46 20.12.2021
4154 Clear 10 1022 71 10000 0.45 0 15:57 20.12.2021
4155 Clear 10 1022 72 10000 0.45 90 15:31 20.12.2021
4156 Clouds 9 1023 78 10000 1.34 83 13:31 20.12.2021
4157 Clouds 7 1024 82 10000 1.34 52 12:30 20.12.2021
4158 Clear 5 1023 86 10000 1.79 68 10:36 20.12.2021
4159 Clear 4 1023 88 10000 1.34 23 09:39 20.12.2021
4160 Clear 4 1023 87 10000 1.34 59 08:49 20.12.2021
4161 Clear 4 1023 88 10000 1.34 53 08:31 20.12.2021
4162 Clear 3 1022 91 10000 0.89 50 07:32 20.12.2021
4163 Clear 3 1022 90 10000 1.79 75 06:32 20.12.2021
4164 Clear 6 1023 81 10000 0.89 64 00:20 20.12.2021
4165 Clear 6 1023 82 10000 0.45 20 22:56 19.12.2021
4166 Clear 7 1023 82 10000 0.45 34 22:24 19.12.2021
4167 Clear 8 1023 80 10000 0.89 74 21:32 19.12.2021
4168 Clear 8 1023 77 10000 0.89 70 20:36 19.12.2021
4169 Clear 8 1023 76 10000 0.89 68 19:53 19.12.2021
4170 Clear 8 1023 76 10000 1.79 68 19:34 19.12.2021
4171 Clouds 10 1023 71 10000 0.45 45 18:35 19.12.2021
4172 Clouds 10 1023 70 10000 0.89 23 17:53 19.12.2021
4173 Clouds 11 1023 67 10000 2.68 45 17:28 19.12.2021
4174 Clouds 11 1023 66 10000 2.24 23 16:27 19.12.2021
4175 Clouds 11 1023 65 10000 0.89 90 15:51 19.12.2021
4176 Clouds 11 1024 66 10000 2.24 45 15:23 19.12.2021
4177 Clouds 11 1024 67 10000 0.45 90 14:45 19.12.2021
4178 Clouds 10 1025 73 10000 0.89 45 13:26 19.12.2021
4179 Clouds 10 1026 73 10000 0.89 113 12:50 19.12.2021
4180 Clouds 10 1026 73 10000 0.45 113 12:28 19.12.2021
4181 Clouds 9 1027 77 10000 1.79 32 11:33 19.12.2021
4182 Clouds 8 1027 77 10000 1.34 90 10:47 19.12.2021
4183 Clouds 8 1027 77 10000 0.45 68 10:21 19.12.2021
4184 Clouds 8 1027 78 10000 0.89 45 08:46 19.12.2021
4185 Clouds 8 1027 78 10000 2.24 90 05:37 19.12.2021
4186 Clouds 8 1028 72 10000 0.89 47 01:39 19.12.2021
4187 Clouds 8 1028 70 10000 1.79 68 00:53 19.12.2021
4188 Clear 9 1028 68 10000 1.34 45 22:50 18.12.2021
4189 Clouds 9 1028 67 10000 1.34 45 22:24 18.12.2021
4190 Clear 9 1028 67 10000 1.79 45 21:41 18.12.2021
4191 Clear 9 1028 67 10000 2.68 68 21:22 18.12.2021
4192 Clouds 9 1028 66 10000 0.89 45 20:25 18.12.2021
4193 Clouds 9 1028 64 10000 1.34 68 19:27 18.12.2021
4194 Clouds 10 1027 63 10000 0.89 90 18:23 18.12.2021
4195 Clouds 10 1027 62 10000 1.79 68 17:49 18.12.2021
4196 Clouds 10 1027 61 10000 0.89 90 16:27 18.12.2021
4197 Clouds 10 1027 61 10000 3.13 90 15:48 18.12.2021
4198 Clouds 10 1027 62 10000 0.89 45 14:51 18.12.2021
4199 Clear 9 1028 66 10000 0.89 113 13:29 18.12.2021
4200 Clear 7 1029 72 10000 1.34 23 11:47 18.12.2021
4201 Clear 4 1028 77 10000 0.45 45 09:52 18.12.2021
4202 Clear 3 1028 78 10000 2.24 59 09:30 18.12.2021
4203 Clear 2 1028 80 10000 2.68 45 08:35 18.12.2021
4204 Clear 4 1027 78 10000 0.89 38 06:27 18.12.2021
4205 Clear 6 1027 75 10000 0.89 158 00:34 18.12.2021
4206 Clear 6 1027 74 10000 1.34 158 23:46 17.12.2021
4207 Clear 7 1027 69 10000 0.51 0 22:18 17.12.2021
4208 Clear 7 1027 70 10000 0.89 113 21:23 17.12.2021
4209 Clear 7 1027 70 10000 0.89 113 20:42 17.12.2021
4210 Clear 8 1027 68 10000 0.89 158 19:50 17.12.2021
4211 Clear 9 1026 62 10000 0.89 173 18:39 17.12.2021
4212 Clear 11 1026 54 10000 0.45 135 17:46 17.12.2021
4213 Clear 12 1026 50 10000 2.24 90 16:50 17.12.2021
4214 Clear 12 1026 50 10000 2.24 113 16:26 17.12.2021
4215 Clear 12 1027 45 10000 1.34 135 15:25 17.12.2021
4216 Clear 12 1027 44 10000 2.24 113 14:41 17.12.2021
4217 Clear 10 1028 50 10000 1.34 23 13:30 17.12.2021
4218 Clear 8 1028 54 10000 0.89 23 12:21 17.12.2021
4219 Clear 5 1028 73 10000 0.51 0 10:39 17.12.2021
4220 Clear 2 1028 81 10000 0 0 09:44 17.12.2021
4221 Clear 2 1027 77 10000 0 0 08:31 17.12.2021
4222 Clear 3 1028 76 10000 0.89 113 07:18 17.12.2021
4223 Clear 4 1028 77 10000 0.45 90 04:40 17.12.2021
4224 Clear 6 1028 76 10000 0.45 90 23:58 16.12.2021
4225 Clear 7 1028 72 10000 2.24 113 22:24 16.12.2021
4226 Clear 7 1028 72 10000 2.24 113 22:24 16.12.2021
4227 Clear 7 1028 71 10000 3.13 135 22:23 16.12.2021
4228 Clear 7 1028 72 10000 2.24 113 22:23 16.12.2021
4229 Clear 7 1028 69 10000 1.79 149 21:45 16.12.2021
4230 Clear 7 1027 67 10000 0.45 168 20:57 16.12.2021
4231 Clear 8 1027 63 10000 0.89 158 20:27 16.12.2021
4232 Clear 9 1027 60 10000 0.45 135 19:35 16.12.2021
4233 Clear 10 1027 55 10000 0.89 135 18:37 16.12.2021
4234 Clear 12 1026 50 10000 0.45 113 17:49 16.12.2021
4235 Clear 12 1026 49 10000 0.45 90 17:19 16.12.2021
4236 Clear 12 1026 51 10000 1.34 68 16:20 16.12.2021
4237 Clear 12 1027 54 10000 0.45 45 14:50 16.12.2021
4238 Clear 10 1028 64 10000 1.34 158 12:48 16.12.2021
4239 Clear 7 1029 64 10000 2.68 180 11:19 16.12.2021
4240 Clear 6 1028 65 10000 0.45 135 10:46 16.12.2021
4241 Clear 4 1028 70 10000 0.89 135 09:59 16.12.2021
4242 Clear 4 1027 66 10000 0.89 61 07:21 16.12.2021
4243 Clear 4 1026 63 10000 1.34 45 06:19 16.12.2021
4244 Clear 7 1026 57 10000 1.79 29 00:53 16.12.2021
4245 Clear 8 1026 55 10000 1.34 22 23:22 15.12.2021
4246 Clear 9 1026 52 10000 0.45 180 22:29 15.12.2021
4247 Clear 9 1025 50 10000 1.79 223 21:52 15.12.2021
4248 Clear 9 1025 50 10000 1.34 225 21:26 15.12.2021
4249 Clear 10 1025 47 10000 0 0 19:55 15.12.2021
4250 Clear 11 1025 46 10000 0 0 19:35 15.12.2021
4251 Clear 12 1025 43 10000 0 0 18:36 15.12.2021
4252 Clear 14 1024 36 10000 1.03 110 17:49 15.12.2021
4253 Clear 15 1024 33 10000 0 0 17:27 15.12.2021
4254 Clear 17 1024 28 10000 0.89 39 16:26 15.12.2021
4255 Clear 17 1024 28 10000 1.03 0 15:45 15.12.2021
4256 Clear 17 1024 29 10000 1.03 0 15:27 15.12.2021
4257 Clear 15 1025 36 10000 0.45 68 13:59 15.12.2021
4258 Clear 13 1026 45 10000 0.89 45 12:24 15.12.2021
4259 Clear 8 1026 54 10000 1.79 23 10:24 15.12.2021
4260 Clear 6 1026 58 10000 2.68 23 08:48 15.12.2021
4261 Clear 6 1026 62 10000 2.24 45 06:45 15.12.2021
4262 Clear 7 1025 67 10000 2.24 45 00:52 15.12.2021
4263 Clear 8 1025 62 10000 0.45 90 23:41 14.12.2021
4264 Clear 9 1025 62 10000 1.34 45 22:48 14.12.2021
4265 Clear 9 1025 65 10000 2.24 28 22:18 14.12.2021
4266 Clear 10 1025 61 10000 0.51 350 20:27 14.12.2021
4267 Clear 11 1025 57 10000 0.51 0 19:40 14.12.2021
4268 Clear 13 1025 53 10000 0.51 0 18:44 14.12.2021
4269 Clear 14 1025 47 10000 0.51 0 17:58 14.12.2021
4270 Clear 16 1025 42 10000 1.03 0 17:28 14.12.2021
4271 Clear 16 1025 40 10000 1.54 40 16:38 14.12.2021
4272 Clear 16 1025 43 10000 0.45 90 15:26 14.12.2021
4273 Clear 14 1026 55 10000 0.89 45 13:31 14.12.2021
4274 Clear 11 1027 62 10000 0.89 90 11:58 14.12.2021
4275 Clear 9 1027 65 10000 0.89 23 11:23 14.12.2021
4276 Clear 6 1027 73 10000 1.79 45 09:57 14.12.2021
4277 Clear 5 1027 77 10000 2.68 45 09:35 14.12.2021
4278 Clear 4 1026 79 10000 0.89 45 08:25 14.12.2021
4279 Clear 4 1026 78 10000 3.13 45 07:43 14.12.2021
4280 Clear 6 1026 78 10000 2.68 45 02:27 14.12.2021
4281 Clear 7 1025 82 10000 0.89 45 22:55 13.12.2021
4282 Clear 8 1025 82 10000 0.45 248 21:52 13.12.2021
4283 Clear 8 1025 79 10000 0 0 20:59 13.12.2021
4284 Clear 9 1025 78 10000 0.45 357 20:38 13.12.2021
4285 Clear 9 1025 81 10000 0 0 19:52 13.12.2021
4286 Clear 12 1025 66 10000 1.03 160 17:56 13.12.2021
4287 Clear 14 1024 60 10000 0.45 68 17:26 13.12.2021
4288 Clear 14 1024 60 10000 0.89 113 15:51 13.12.2021
4289 Clear 14 1024 60 10000 0.89 90 15:20 13.12.2021
4290 Clear 11 1025 70 10000 1.34 43 13:39 13.12.2021
4291 Clear 10 1026 73 10000 0.89 113 12:46 13.12.2021
4292 Clear 10 1026 74 10000 1.79 55 12:46 13.12.2021
4293 Clear 9 1027 77 10000 0.45 90 11:54 13.12.2021
4294 Clear 8 1027 79 10000 1.79 32 11:35 13.12.2021
4295 Clear 7 1027 80 10000 0.45 45 10:44 13.12.2021
4296 Clear 4 1026 85 10000 2.24 26 09:29 13.12.2021
4297 Clear 3 1026 87 10000 0.45 90 07:46 13.12.2021
4298 Clear 4 1025 84 10000 1.34 68 05:35 13.12.2021
4299 Clear 5 1026 85 10000 1.34 37 03:26 13.12.2021
4300 Clear 7 1026 84 10000 1.34 29 22:23 12.12.2021
4301 Clear 8 1026 81 10000 0.45 90 21:38 12.12.2021
4302 Clear 9 1026 79 10000 0.45 184 19:57 12.12.2021
4303 Clear 11 1025 74 10000 0.45 225 18:36 12.12.2021
4304 Clear 11 1025 74 10000 0.45 225 18:36 12.12.2021
4305 Clear 13 1025 65 10000 0.45 176 17:31 12.12.2021
4306 Clear 14 1025 62 10000 0.45 225 16:27 12.12.2021
4307 Clear 14 1025 64 10000 0.89 203 15:45 12.12.2021
4308 Clear 14 1025 64 10000 0.45 188 15:25 12.12.2021
4309 Clear 13 1026 66 10000 0.89 168 14:34 12.12.2021
4310 Clear 12 1027 71 10000 0.45 135 13:26 12.12.2021
4311 Clear 10 1027 77 10000 1.34 83 12:30 12.12.2021
4312 Clear 9 1028 81 10000 0.89 90 11:44 12.12.2021
4313 Clear 8 1028 83 10000 0.89 23 11:20 12.12.2021
4314 Fog 6 1027 87 10000 1.34 90 10:22 12.12.2021
4315 Fog 5 1027 89 10000 0.89 62 08:58 12.12.2021
4316 Fog 4 1027 95 10000 0.89 79 07:57 12.12.2021
4317 Fog 6 1026 88 10000 0.45 26 05:57 12.12.2021
4318 Clear 6 1026 87 10000 0.89 45 04:56 12.12.2021
4319 Clear 8 1026 85 10000 0.45 2 03:31 12.12.2021
4320 Clear 10 1026 82 10000 1.79 65 23:44 11.12.2021
4321 Clear 11 1026 78 10000 1.79 77 22:22 11.12.2021
4322 Clear 11 1026 74 10000 2.24 38 21:51 11.12.2021
4323 Clear 12 1025 73 10000 1.79 64 20:51 11.12.2021
4324 Clear 13 1025 66 10000 2.06 300 19:27 11.12.2021
4325 Clear 13 1025 64 10000 3.09 290 18:52 11.12.2021
4326 Clear 15 1024 60 10000 2.57 270 18:21 11.12.2021
4327 Clear 16 1024 54 10000 2.57 280 17:21 11.12.2021
4328 Clouds 16 1024 54 10000 3.09 280 15:53 11.12.2021
4329 Clear 16 1023 54 10000 3.09 310 15:28 11.12.2021
4330 Clear 14 1024 60 10000 0.45 203 12:57 11.12.2021
4331 Clear 12 1025 64 10000 1.34 137 11:25 11.12.2021
4332 Clear 8 1023 73 10000 0.89 179 09:46 11.12.2021
4333 Clear 7 1022 74 10000 0.89 158 08:23 11.12.2021
4334 Clear 10 1021 59 10000 3.13 315 02:29 11.12.2021
4335 Clear 10 1021 58 10000 6.26 315 00:36 11.12.2021
4336 Clear 11 1020 58 10000 6.71 315 23:21 10.12.2021
4337 Clear 11 1020 58 10000 7.15 315 21:56 10.12.2021
4338 Clear 12 1019 56 10000 7.15 315 21:28 10.12.2021
4339 Clouds 13 1019 56 10000 5.81 315 19:21 10.12.2021
4340 Clouds 14 1018 56 10000 6.26 270 18:21 10.12.2021
4341 Clouds 15 1018 53 10000 5.36 270 16:56 10.12.2021
4342 Clouds 15 1017 55 10000 6.26 248 16:28 10.12.2021
4343 Clouds 16 1017 55 10000 4.92 248 15:41 10.12.2021
4344 Clouds 15 1018 58 10000 2.24 225 15:21 10.12.2021
4345 Clouds 15 1019 61 10000 4.92 225 13:52 10.12.2021
4346 Clouds 14 1019 64 10000 2.68 158 13:26 10.12.2021
4347 Clouds 14 1019 68 10000 3.13 180 12:39 10.12.2021
4348 Clouds 12 1019 72 10000 2.24 225 11:29 10.12.2021
4349 Clouds 11 1019 73 10000 2.68 180 10:37 10.12.2021
4350 Clouds 9 1018 83 10000 4.47 203 08:57 10.12.2021
4351 Clear 8 1017 82 10000 5.81 248 06:56 10.12.2021
4352 Clear 9 1019 73 10000 8.05 248 02:48 10.12.2021
4353 Clear 10 1020 67 10000 4.92 293 00:38 10.12.2021
4354 Clear 10 1020 67 10000 6.26 270 23:23 09.12.2021
4355 Clear 10 1020 66 10000 5.36 270 22:28 09.12.2021
4356 Clear 10 1020 68 10000 3.13 270 21:59 09.12.2021
4357 Clear 11 1020 66 10000 3.58 225 21:19 09.12.2021
4358 Clouds 11 1020 66 10000 11.18 293 20:28 09.12.2021
4359 Clouds 11 1020 66 10000 6.71 248 19:22 09.12.2021
4360 Clouds 12 1020 68 10000 4.02 248 18:49 09.12.2021
4361 Clouds 12 1020 68 10000 6.26 203 17:57 09.12.2021
4362 Clouds 12 1020 69 10000 3.58 225 17:27 09.12.2021
4363 Clouds 12 1020 69 10000 3.13 248 16:56 09.12.2021
4364 Clouds 12 1019 68 10000 4.92 270 15:57 09.12.2021
4365 Clouds 12 1019 68 10000 7.15 270 14:50 09.12.2021
4366 Clouds 10 1020 74 10000 2.24 180 13:25 09.12.2021
4367 Clouds 10 1020 75 10000 3.13 180 12:47 09.12.2021
4368 Clouds 8 1021 76 10000 4.47 203 11:24 09.12.2021
4369 Clouds 6 1021 75 10000 3.13 270 09:44 09.12.2021
4370 Clear 6 1019 66 10000 2.24 203 06:51 09.12.2021
4371 Clear 6 1019 63 10000 6.71 270 03:46 09.12.2021
4372 Clouds 6 1019 63 10000 4.02 270 23:46 08.12.2021
4373 Clouds 6 1019 62 10000 4.92 293 23:26 08.12.2021
4374 Clouds 6 1018 60 10000 4.92 270 22:50 08.12.2021
4375 Clear 6 1003 63 10000 2.68 293 21:46 08.12.2021
4376 Clouds 6 1003 64 10000 4.47 293 21:28 08.12.2021
4377 Clouds 6 1002 67 10000 3.58 293 20:19 08.12.2021
4378 Clouds 6 1004 73 10000 5.36 293 19:39 08.12.2021
4379 Clouds 6 1016 76 10000 4.92 270 18:53 08.12.2021
4380 Clouds 6 1016 76 10000 3.58 270 18:53 08.12.2021
4381 Clouds 6 1016 73 10000 4.47 270 17:52 08.12.2021
4382 Clouds 7 1015 58 10000 6.26 270 15:59 08.12.2021
4383 Clouds 8 1014 53 10000 4.92 248 15:31 08.12.2021
4384 Clouds 8 1015 52 10000 8.49 293 14:52 08.12.2021
4385 Clouds 8 1015 50 10000 4.47 293 12:39 08.12.2021
4386 Clouds 7 1002 59 10000 7.15 248 10:36 08.12.2021
4387 Clouds 7 1014 64 10000 4.92 293 09:31 08.12.2021
4388 Clouds 7 1013 68 10000 6.71 293 07:37 08.12.2021
4389 Clouds 8 997 62 10000 5.36 248 04:58 08.12.2021
4390 Clouds 10 1012 92 8000 4.47 203 23:56 07.12.2021
4391 Clouds 11 998 89 10000 5.36 248 22:37 07.12.2021
4392 Clouds 10 999 91 10000 5.36 225 21:24 07.12.2021
4393 Drizzle 10 1014 91 10000 3.58 225 20:25 07.12.2021
4394 Clouds 11 1015 88 10000 2.68 203 18:57 07.12.2021
4395 Clouds 10 1014 89 10000 2.24 203 18:19 07.12.2021
4396 Clouds 10 1015 93 10000 3.13 225 17:20 07.12.2021
4397 Clouds 9 1003 94 10000 4.02 248 16:37 07.12.2021
4398 Mist 9 1004 96 2000 1.79 225 15:37 07.12.2021
4399 Mist 9 1005 95 2000 1.34 225 14:37 07.12.2021
4400 Fog 8 1007 94 800 1.34 225 13:29 07.12.2021
4401 Fog 7 1021 93 300 3.13 196 12:21 07.12.2021
4402 Fog 6 1022 92 300 0.89 149 10:45 07.12.2021
4403 Fog 4 1010 93 500 1.34 226 09:19 07.12.2021
4404 Clear 5 1023 89 10000 1.34 78 06:39 07.12.2021
4405 Clear 5 1023 88 10000 1.34 51 05:47 07.12.2021
4406 Clear 7 1024 85 10000 1.79 213 01:43 07.12.2021
4407 Clear 9 1024 82 10000 1.79 173 23:21 06.12.2021
4408 Clear 9 1024 77 10000 1.79 248 22:40 06.12.2021
4409 Clear 9 1010 75 10000 2.24 248 21:59 06.12.2021
4410 Clear 10 1010 74 10000 3.13 270 21:21 06.12.2021
4411 Clear 11 1010 70 10000 3.13 293 20:32 06.12.2021
4412 Clouds 11 1011 65 10000 0.45 225 19:24 06.12.2021
4413 Clouds 11 1024 61 10000 3.58 293 18:31 06.12.2021
4414 Clear 12 1024 60 10000 3.13 293 17:53 06.12.2021
4415 Clear 13 1024 57 10000 4.02 293 17:30 06.12.2021
4416 Clear 13 1024 51 10000 5.36 270 15:51 06.12.2021
4417 Clear 12 1012 52 10000 6.26 293 13:53 06.12.2021
4418 Clear 11 1025 56 10000 3.58 293 12:40 06.12.2021
4419 Clear 10 1026 59 10000 3.58 315 11:55 06.12.2021
4420 Clear 6 1024 72 10000 4.02 270 09:44 06.12.2021
4421 Clear 6 1011 76 10000 1.34 270 07:18 06.12.2021
4422 Clouds 8 1023 62 10000 2.68 293 00:38 06.12.2021
4423 Clear 9 1022 59 10000 4.02 315 22:20 05.12.2021
4424 Clouds 9 1021 58 10000 4.92 293 21:25 05.12.2021
4425 Clouds 10 1006 60 10000 4.92 270 20:20 05.12.2021
4426 Clouds 10 1008 59 10000 6.71 293 19:58 05.12.2021
4427 Clouds 10 1008 58 10000 3.58 270 19:23 05.12.2021
4428 Clouds 10 1007 54 10000 5.81 270 18:26 05.12.2021
4429 Clouds 10 1007 52 10000 4.92 293 17:49 05.12.2021
4430 Clouds 11 1019 50 10000 6.71 270 16:58 05.12.2021
4431 Clouds 11 1019 49 10000 6.26 293 16:28 05.12.2021
4432 Clouds 11 1019 50 10000 4.92 293 15:59 05.12.2021
4433 Clouds 11 1020 49 10000 6.71 270 14:48 05.12.2021
4434 Clouds 11 1020 49 10000 6.71 315 14:29 05.12.2021
4435 Clouds 11 1020 51 10000 6.26 315 13:32 05.12.2021
4436 Clouds 10 1020 53 10000 9.39 315 12:41 05.12.2021
4437 Clouds 10 1020 52 10000 5.81 270 12:23 05.12.2021
4438 Clouds 9 1021 56 10000 6.26 315 11:41 05.12.2021
4439 Clear 7 1021 60 10000 0.89 203 10:21 05.12.2021
4440 Clear 6 1020 65 10000 0.45 248 09:26 05.12.2021
4441 Clouds 7 1020 64 10000 4.47 293 04:57 05.12.2021
4442 Clear 8 1021 66 10000 1.79 248 01:23 05.12.2021
4443 Clouds 7 1021 87 10000 1.79 248 22:42 04.12.2021
4444 Clear 8 1021 85 10000 1.34 248 21:37 04.12.2021
4445 Clear 8 1021 86 10000 3.13 248 20:46 04.12.2021
4446 Clouds 9 1021 88 10000 0.45 248 19:43 04.12.2021
4447 Clouds 9 1021 88 10000 0.45 225 19:23 04.12.2021
4448 Clear 11 1021 72 10000 2.68 270 17:52 04.12.2021
4449 Clear 12 1021 71 10000 1.79 225 17:22 04.12.2021
4450 Clear 13 1021 68 10000 3.58 270 16:46 04.12.2021
4451 Clear 12 1021 68 10000 4.02 248 16:27 04.12.2021
4452 Clouds 8 1023 81 10000 1.34 203 12:44 04.12.2021
4453 Clouds 9 1023 74 10000 3.13 225 11:39 04.12.2021
4454 Clouds 8 1023 76 10000 1.79 203 10:59 04.12.2021
4455 Clear 6 1023 80 10000 4.63 240 09:42 04.12.2021
4456 Clear 4 1023 82 10000 4.63 280 08:35 04.12.2021
4457 Clear 4 1023 84 10000 1.34 248 04:43 04.12.2021
4458 Clear 5 1023 81 10000 0.45 293 03:36 04.12.2021
4459 Clear 6 1024 73 10000 1.79 270 23:47 03.12.2021
4460 Clear 6 1024 72 10000 1.79 270 22:53 03.12.2021
4461 Clear 7 1024 71 10000 3.58 248 21:57 03.12.2021
4462 Clear 7 1024 71 10000 0.89 248 21:23 03.12.2021
4463 Clear 8 1024 69 10000 1.34 249 20:42 03.12.2021
4464 Clear 9 1024 63 10000 0.45 293 19:28 03.12.2021
4465 Clear 10 1023 57 10000 2.24 293 18:24 03.12.2021
4466 Clear 12 1023 49 10000 3.6 300 17:31 03.12.2021
4467 Clear 11 1024 51 10000 0.45 158 13:40 03.12.2021
4468 Clear 10 1024 54 10000 1.34 135 12:49 03.12.2021
4469 Clear 8 1024 63 10000 1.79 248 11:23 03.12.2021
4470 Clear 4 1023 70 10000 0.45 203 09:25 03.12.2021
4471 Clear 3 1022 71 10000 0.45 248 08:20 03.12.2021
4472 Clear 3 1021 71 10000 2.24 248 07:23 03.12.2021
4473 Clear 4 1020 64 10000 0.45 203 01:43 03.12.2021
4474 Clear 5 1005 63 10000 1.34 248 00:34 03.12.2021
4475 Clear 5 1005 60 10000 0.89 225 23:40 02.12.2021
4476 Clouds 6 1005 57 10000 0.45 241 21:42 02.12.2021
4477 Clouds 6 1019 51 10000 1.34 23 20:49 02.12.2021
4478 Clouds 6 1019 50 10000 2.68 0 20:29 02.12.2021
4479 Clouds 7 1018 49 10000 1.79 23 19:23 02.12.2021
4480 Clouds 8 1016 44 10000 7.6 0 17:36 02.12.2021
4481 Clouds 9 1015 43 10000 4.02 0 15:42 02.12.2021
4482 Clouds 9 1015 44 10000 7.6 0 14:57 02.12.2021
4483 Clouds 8 1015 49 10000 7.6 0 13:54 02.12.2021
4484 Clouds 8 1015 51 10000 6.26 0 12:52 02.12.2021
4485 Clouds 8 1002 54 10000 4.02 0 11:55 02.12.2021
4486 Clouds 6 1000 73 10000 1.79 0 09:29 02.12.2021
4487 Clouds 5 1012 75 10000 1.34 51 08:27 02.12.2021
4488 Mist 6 1012 76 10000 4.47 270 03:39 02.12.2021
4489 Mist 6 1013 79 10000 5.36 293 00:51 02.12.2021
4490 Clouds 7 999 80 10000 3.13 293 22:51 01.12.2021
4491 Clouds 8 999 80 10000 4.47 293 22:23 01.12.2021
4492 Clouds 8 1000 89 10000 2.68 293 20:36 01.12.2021
4493 Clouds 8 1000 89 10000 2.68 293 20:36 01.12.2021
4494 Clouds 8 1015 89 10000 3.13 270 19:51 01.12.2021
4495 Rain 8 1015 87 7000 4.92 248 19:21 01.12.2021
4496 Clouds 9 1016 77 10000 1.79 248 17:45 01.12.2021
4497 Clouds 8 1016 78 10000 2.68 248 17:45 01.12.2021
4498 Clouds 9 1017 76 10000 0.89 203 16:40 01.12.2021
4499 Clouds 10 1019 71 10000 4.02 248 14:50 01.12.2021
4500 Clouds 9 1020 73 10000 3.13 248 13:44 01.12.2021
4501 Mist 7 1022 80 10000 2.68 203 12:30 01.12.2021
4502 Fog 4 1000 94 9000 1.34 180 10:42 01.12.2021
4503 Fog 2 1023 91 300 0.45 182 08:58 01.12.2021
4504 Fog 2 1023 91 300 1.79 135 08:26 01.12.2021
4505 Fog 2 1023 91 200 0.45 190 07:33 01.12.2021
4506 Clear 3 1023 86 10000 0.45 192 05:51 01.12.2021
4507 Clear 3 1024 86 10000 1.34 204 03:41 01.12.2021
4508 Clear 5 1026 79 10000 0.45 134 00:52 01.12.2021
4509 Clear 6 1012 78 10000 0.89 284 23:45 30.11.2021
4510 Clear 6 1012 79 10000 0.89 248 22:49 30.11.2021
4511 Clear 7 1026 76 10000 2.24 270 21:28 30.11.2021
4512 Clear 8 1026 74 10000 1.79 270 20:37 30.11.2021
4513 Clear 8 1026 71 10000 0.45 248 19:53 30.11.2021
4514 Clear 9 1026 68 10000 1.34 248 19:30 30.11.2021
4515 Clear 10 1026 63 10000 0.89 248 18:35 30.11.2021
4516 Clear 12 1026 54 10000 1.34 270 16:49 30.11.2021
4517 Clouds 12 1026 53 10000 0.89 203 15:18 30.11.2021
4518 Clouds 12 1027 59 10000 0.45 270 14:20 30.11.2021
4519 Clear 11 1027 63 10000 0.45 248 13:25 30.11.2021
4520 Clear 11 1028 64 10000 0.89 164 12:45 30.11.2021
4521 Clear 8 1028 75 10000 0.89 61 11:27 30.11.2021
4522 Clear 7 1015 77 10000 1.79 31 10:56 30.11.2021
4523 Clear 6 1014 79 10000 0.45 0 10:31 30.11.2021
4524 Clear 3 1026 84 10000 1.79 41 08:52 30.11.2021
4525 Clear 3 1026 84 10000 0.89 23 08:20 30.11.2021
4526 Clear 4 1025 84 10000 1.79 66 07:47 30.11.2021
4527 Clear 6 1024 75 10000 0.45 69 02:41 30.11.2021
4528 Clear 6 1024 75 10000 2.06 260 01:41 30.11.2021
4529 Clear 7 1008 74 10000 0.45 248 00:19 30.11.2021
4530 Clear 8 1008 72 10000 2.24 270 23:24 29.11.2021
4531 Clear 8 1023 68 10000 2.24 293 22:55 29.11.2021
4532 Clear 9 1023 67 10000 1.34 287 22:33 29.11.2021
4533 Clear 9 1008 66 10000 2.24 270 21:29 29.11.2021
4534 Clear 10 1022 63 10000 1.79 293 20:59 29.11.2021
4535 Clouds 10 1022 63 10000 2.24 315 20:29 29.11.2021
4536 Clouds 10 1022 60 10000 1.34 293 19:55 29.11.2021
4537 Clouds 11 1022 59 10000 1.34 315 19:35 29.11.2021
4538 Clouds 12 1021 58 10000 2.68 293 18:51 29.11.2021
4539 Clouds 10 1020 57 10000 3.71 304 17:49 29.11.2021
4540 Clouds 11 1020 55 10000 4.58 305 17:18 29.11.2021
4541 Clear 12 1019 53 10000 5.13 305 16:29 29.11.2021
4542 Clear 12 1019 53 10000 5.14 305 15:45 29.11.2021
4543 Clear 12 1019 51 10000 5.37 303 14:42 29.11.2021
4544 Clear 12 1019 51 10000 5.48 298 13:33 29.11.2021
4545 Clouds 10 1019 55 10000 6.57 303 12:28 29.11.2021
4546 Clouds 10 1019 55 10000 6.59 303 11:36 29.11.2021
4547 Clouds 10 1019 59 10000 7.13 303 10:41 29.11.2021
4548 Clouds 9 1018 66 10000 9.26 290 09:25 29.11.2021
4549 Clouds 9 1016 68 10000 5.14 240 06:20 29.11.2021
4550 Clouds 7 1014 72 10000 5.66 200 01:40 29.11.2021
4551 Clouds 8 1014 67 10000 5.14 200 00:40 29.11.2021
4552 Clouds 8 1015 66 10000 7.72 220 23:44 28.11.2021
4553 Clouds 8 1015 64 10000 6.69 220 22:49 28.11.2021
4554 Clouds 7 1015 61 10000 7.72 260 21:47 28.11.2021
4555 Clouds 7 1015 61 10000 7.72 260 21:20 28.11.2021
4556 Clouds 7 1015 57 10000 6.69 260 20:23 28.11.2021
4557 Clouds 8 1016 48 10000 7.2 270 18:46 28.11.2021
4558 Clouds 8 1016 48 10000 7.2 270 18:27 28.11.2021
4559 Clouds 8 1016 47 10000 8.23 270 17:54 28.11.2021
4560 Clouds 8 1015 46 10000 7.72 270 17:31 28.11.2021
4561 Clouds 8 1015 45 10000 8.75 290 16:29 28.11.2021
4562 Clouds 8 1015 45 10000 8.75 290 15:58 28.11.2021
4563 Clouds 9 1015 44 10000 10.8 280 15:24 28.11.2021
4564 Clouds 8 1015 44 10000 6.17 310 14:44 28.11.2021
4565 Clouds 7 1016 47 10000 6.69 320 12:58 28.11.2021
4566 Clear 8 1016 47 10000 6.17 300 12:37 28.11.2021
4567 Clear 6 1016 53 10000 7.72 290 10:54 28.11.2021
4568 Clear 5 1016 60 10000 8.23 290 10:20 28.11.2021
4569 Clear 3 1015 65 10000 7.72 300 09:37 28.11.2021
4570 Clear 2 1013 73 10000 8.23 300 06:30 28.11.2021
4571 Clouds 3 1012 62 10000 9.77 280 23:37 27.11.2021
4572 Clear 5 1009 56 10000 7.2 280 20:51 27.11.2021
4573 Clouds 4 1009 60 10000 2.57 280 19:18 27.11.2021
4574 Clouds 4 1009 60 10000 2.57 280 19:18 27.11.2021
4575 Clouds 8 1007 43 10000 4.63 320 16:56 27.11.2021
4576 Clouds 8 1007 46 10000 4.12 320 15:56 27.11.2021
4577 Clouds 8 1007 61 10000 7.72 300 13:47 27.11.2021
4578 Clouds 6 1006 78 10000 8.23 300 12:31 27.11.2021
4579 Clouds 6 1005 73 10000 2.57 210 10:48 27.11.2021
4580 Clouds 5 1005 75 10000 5.14 240 09:53 27.11.2021
4581 Clouds 3 1005 76 10000 4.12 270 08:43 27.11.2021
4582 Clear 3 1007 74 10000 4.63 240 05:18 27.11.2021
4583 Clouds 4 1009 74 10000 3.6 240 01:55 27.11.2021
4584 Clear 5 1010 70 10000 3.6 280 23:36 26.11.2021
4585 Clear 4 1010 73 10000 2.06 300 22:25 26.11.2021
4586 Clear 4 1010 73 10000 3.09 290 21:37 26.11.2021
4587 Clear 3 1010 75 10000 2.57 260 20:59 26.11.2021
4588 Clear 5 1010 68 10000 3.6 290 20:19 26.11.2021
4589 Clear 5 1010 69 10000 3.6 270 19:47 26.11.2021
4590 Clouds 7 1010 62 10000 3.09 280 18:39 26.11.2021
4591 Clouds 8 1010 60 10000 6.69 290 17:23 26.11.2021
4592 Clouds 11 1010 49 10000 2.57 280 15:57 26.11.2021
4593 Clear 9 1011 56 10000 0.89 293 13:36 26.11.2021
4594 Clear 9 1011 56 10000 0.89 293 12:51 26.11.2021
4595 Clouds 6 1012 75 10000 0.89 135 10:39 26.11.2021
4596 Clouds 4 1011 82 10000 0.45 151 08:59 26.11.2021
4597 Clouds 4 1011 83 10000 0.45 162 08:39 26.11.2021
4598 Clouds 4 1011 83 10000 1.03 270 08:19 26.11.2021
4599 Clouds 4 1010 80 10000 0.45 81 06:28 26.11.2021
4600 Clouds 4 1011 80 10000 1.34 75 04:52 26.11.2021
4601 Clouds 4 996 80 10000 1.79 293 03:26 26.11.2021
4602 Clouds 6 1011 69 10000 0.89 23 23:28 25.11.2021
4603 Clear 6 1011 68 10000 1.34 23 21:51 25.11.2021
4604 Clouds 6 1010 68 10000 3.13 45 20:41 25.11.2021
4605 Clouds 7 997 69 10000 1.34 68 18:50 25.11.2021
4606 Clouds 8 1009 68 10000 2.24 45 18:00 25.11.2021
4607 Clouds 9 1009 66 10000 1.34 90 17:26 25.11.2021
4608 Clouds 9 1009 64 10000 0.89 203 16:41 25.11.2021
4609 Clear 9 1009 62 10000 1.34 270 15:58 25.11.2021
4610 Clear 10 1009 62 10000 1.79 203 14:21 25.11.2021
4611 Clear 9 996 67 10000 1.34 158 12:48 25.11.2021
4612 Clouds 8 1009 69 10000 2.24 135 11:55 25.11.2021
4613 Clouds 6 1009 80 10000 0.89 180 10:31 25.11.2021
4614 Clouds 5 993 87 10000 2.68 270 06:36 25.11.2021
4615 Clear 4 995 88 10000 1.34 209 02:54 25.11.2021
4616 Clear 4 1010 85 10000 0.45 276 23:39 24.11.2021
4617 Clear 4 1011 87 10000 0.45 360 22:29 24.11.2021
4618 Clear 5 1011 88 10000 1.79 313 21:48 24.11.2021
4619 Clear 5 1011 89 10000 3.13 248 21:19 24.11.2021
4620 Clear 5 1011 89 10000 0.45 283 20:26 24.11.2021
4621 Clouds 5 1010 86 10000 4.47 248 18:58 24.11.2021
4622 Clouds 5 998 84 10000 5.36 248 18:18 24.11.2021
4623 Clouds 6 997 81 10000 3.13 225 16:20 24.11.2021
4624 Clouds 7 1012 72 10000 3.13 270 14:57 24.11.2021
4625 Clouds 7 1012 73 10000 2.68 248 14:21 24.11.2021
4626 Clouds 7 1013 73 10000 2.24 203 12:51 24.11.2021
4627 Clear 6 1014 80 10000 1.79 115 11:24 24.11.2021
4628 Clear 5 1001 82 10000 0.45 270 10:52 24.11.2021
4629 Clear 5 1014 81 10000 0.45 270 10:52 24.11.2021
4630 Clear 5 1001 84 10000 1.34 158 10:34 24.11.2021
4631 Clear 2 1000 93 10000 1.03 290 08:35 24.11.2021
4632 Clouds 3 1000 91 10000 0.89 37 07:39 24.11.2021
4633 Clouds 4 1013 89 10000 0.45 344 05:23 24.11.2021
4634 Clouds 4 998 91 10000 0.89 90 02:44 24.11.2021
4635 Mist 4 1013 90 3200 1.34 68 23:33 23.11.2021
4636 Clouds 5 1012 86 10000 2.24 113 22:38 23.11.2021
4637 Clouds 5 1012 84 10000 0.89 69 21:45 23.11.2021
4638 Clouds 5 1012 84 10000 1.34 293 20:22 23.11.2021
4639 Clouds 5 1011 81 10000 1.79 248 19:29 23.11.2021
4640 Clouds 6 998 81 10000 0.45 90 18:33 23.11.2021
4641 Clouds 6 998 78 10000 0.45 100 17:31 23.11.2021
4642 Clouds 6 998 77 10000 0.89 180 16:35 23.11.2021
4643 Clouds 6 1011 79 10000 0.89 90 15:27 23.11.2021
4644 Clouds 6 1011 81 10000 0.89 122 14:45 23.11.2021
4645 Clouds 5 1011 80 10000 1.34 113 13:20 23.11.2021
4646 Clouds 4 999 89 10000 0.89 90 10:28 23.11.2021
4647 Clouds 4 998 90 10000 0.45 90 09:47 23.11.2021
4648 Clouds 3 997 90 10000 1.79 135 07:58 23.11.2021
4649 Clouds 4 1009 92 7000 0.45 113 04:53 23.11.2021
4650 Clouds 5 1009 92 8000 0.45 184 03:32 23.11.2021
4651 Clouds 5 993 94 7000 2.68 225 23:38 22.11.2021
4652 Clouds 5 993 94 10000 3.13 135 22:58 22.11.2021
4653 Clouds 5 993 93 10000 1.34 90 22:30 22.11.2021
4654 Clouds 5 993 94 10000 0.89 0 21:44 22.11.2021
4655 Clouds 5 993 94 10000 0.89 23 21:19 22.11.2021
4656 Clouds 5 1007 92 10000 3.58 45 20:27 22.11.2021
4657 Clouds 6 1007 92 7000 2.24 23 19:20 22.11.2021
4658 Clouds 6 1007 92 9000 4.47 45 18:41 22.11.2021
4659 Rain 6 1007 94 3500 3.58 68 17:48 22.11.2021
4660 Clouds 7 1007 89 4000 3.58 45 16:31 22.11.2021
4661 Clouds 8 1007 84 10000 4.47 338 15:29 22.11.2021
4662 Clouds 8 1007 84 10000 4.47 338 15:29 22.11.2021
4663 Clouds 9 996 86 10000 1.79 90 12:51 22.11.2021
4664 Clouds 9 996 95 10000 1.34 247 11:34 22.11.2021
4665 Fog 8 996 95 300 0.45 225 10:22 22.11.2021
4666 Fog 7 1009 96 300 1.34 121 08:43 22.11.2021
4667 Mist 7 1009 96 1500 0.45 137 08:23 22.11.2021
4668 Fog 8 1012 95 300 0.45 248 01:36 22.11.2021
4669 Clouds 8 1013 93 8000 1.34 200 23:20 21.11.2021
4670 Clouds 8 1013 94 6000 1.34 202 22:42 21.11.2021
4671 Clear 10 1013 90 10000 0.45 193 20:45 21.11.2021
4672 Clear 10 1013 89 10000 1.79 215 20:26 21.11.2021
4673 Clear 11 1001 84 10000 0.89 270 18:55 21.11.2021
4674 Clear 13 1001 77 10000 1.79 225 17:56 21.11.2021
4675 Clouds 13 1001 75 10000 1.79 225 17:35 21.11.2021
4676 Clouds 13 1015 76 10000 0.89 270 14:50 21.11.2021
4677 Clouds 13 1015 77 10000 1.34 270 14:31 21.11.2021
4678 Clouds 12 1016 80 10000 0.89 143 12:58 21.11.2021
4679 Clouds 12 1017 81 10000 1.34 270 12:20 21.11.2021
4680 Clouds 11 1017 81 10000 1.34 81 11:37 21.11.2021
4681 Clouds 10 1017 88 10000 0.89 84 10:19 21.11.2021
4682 Clouds 9 1017 88 10000 0.89 61 09:45 21.11.2021
4683 Clouds 9 1004 89 10000 0.45 64 08:31 21.11.2021
4684 Clouds 9 1004 88 10000 0.45 84 07:52 21.11.2021
4685 Clouds 9 1003 87 10000 0 0 06:26 21.11.2021
4686 Clouds 10 1017 86 10000 0.45 86 05:41 21.11.2021
4687 Clouds 10 1018 86 10000 0.45 44 03:22 21.11.2021
4688 Clouds 10 1018 86 10000 0.45 63 02:55 21.11.2021
4689 Clouds 10 1019 86 10000 0.45 66 01:25 21.11.2021
4690 Clouds 10 1020 86 10000 0.45 63 00:42 21.11.2021
4691 Clouds 11 1021 79 8000 0.89 57 22:30 20.11.2021
4692 Clouds 11 1020 79 10000 1.79 113 21:32 20.11.2021
4693 Clouds 11 1008 78 10000 0.89 68 19:58 20.11.2021
4694 Clouds 11 1008 77 10000 1.34 69 18:45 20.11.2021
4695 Clouds 12 1008 77 10000 1.79 45 18:23 20.11.2021
4696 Clouds 12 1008 74 10000 0.45 68 17:22 20.11.2021
4697 Clouds 12 1022 73 10000 3.13 68 14:57 20.11.2021
4698 Clouds 12 1022 72 10000 0.89 68 14:28 20.11.2021
4699 Clouds 12 1022 73 10000 1.79 68 13:53 20.11.2021
4700 Clouds 10 1024 77 10000 1.34 68 11:46 20.11.2021
4701 Clouds 9 1024 80 10000 0.89 45 09:57 20.11.2021
4702 Clouds 9 1024 78 10000 2.24 45 08:40 20.11.2021
4703 Clouds 9 1009 78 10000 1.79 45 06:50 20.11.2021
4704 Clouds 9 1010 77 10000 2.24 23 05:18 20.11.2021
4705 Clouds 9 1010 76 10000 2.68 23 04:49 20.11.2021
4706 Clouds 9 1026 74 10000 2.24 29 00:43 20.11.2021
4707 Clear 9 1025 75 10000 0.45 68 00:18 20.11.2021
4708 Clouds 10 1026 72 10000 0.89 90 22:54 19.11.2021
4709 Clouds 11 1025 67 10000 1.34 90 21:29 19.11.2021
4710 Clouds 12 1025 68 10000 1.34 113 20:43 19.11.2021
4711 Clouds 12 1025 67 10000 0.45 90 20:25 19.11.2021
4712 Clouds 12 1025 64 10000 3.13 113 19:46 19.11.2021
4713 Clouds 13 1012 62 10000 3.58 135 18:48 19.11.2021
4714 Clouds 14 1012 57 10000 2.68 113 17:45 19.11.2021
4715 Clouds 14 1024 54 10000 1.79 90 16:43 19.11.2021
4716 Clouds 14 1024 54 10000 1.79 90 16:43 19.11.2021
4717 Clouds 14 1025 58 10000 2.24 113 15:22 19.11.2021
4718 Clouds 12 1028 67 10000 2.68 113 11:54 19.11.2021
4719 Clouds 9 1028 73 10000 4.02 68 10:25 19.11.2021
4720 Clouds 7 1027 82 10000 1.79 68 08:39 19.11.2021
4721 Clear 7 1012 81 10000 2.68 23 06:29 19.11.2021
4722 Clouds 7 1013 82 10000 1.79 45 04:19 19.11.2021
4723 Clear 9 1028 78 10000 1.34 113 23:59 18.11.2021
4724 Clouds 9 1027 76 10000 0.89 90 23:41 18.11.2021
4725 Clouds 9 1027 74 10000 0.89 77 21:41 18.11.2021
4726 Clouds 10 1026 71 10000 0.45 68 20:46 18.11.2021
4727 Clouds 10 1026 69 10000 0.89 53 20:28 18.11.2021
4728 Clouds 10 1013 70 10000 0.89 45 19:43 18.11.2021
4729 Clouds 11 1013 65 10000 0.89 20 18:40 18.11.2021
4730 Clear 12 1013 62 10000 0.45 23 17:54 18.11.2021
4731 Clear 13 1013 59 10000 0.45 45 17:35 18.11.2021
4732 Clouds 13 1025 58 10000 0.45 23 16:43 18.11.2021
4733 Clouds 12 1025 61 10000 0.89 23 15:24 18.11.2021
4734 Clouds 10 1026 64 10000 1.79 39 13:21 18.11.2021
4735 Clouds 8 1027 63 10000 0.89 23 11:45 18.11.2021
4736 Clouds 8 1027 65 10000 2.24 23 11:26 18.11.2021
4737 Clouds 7 1027 65 10000 1.34 45 10:56 18.11.2021
4738 Clouds 5 1026 70 10000 2.68 68 09:32 18.11.2021
4739 Clear 4 1012 72 10000 1.34 45 07:34 18.11.2021
4740 Clear 4 1024 68 10000 3.13 68 05:47 18.11.2021
4741 Clear 6 1024 60 10000 1.34 45 02:46 18.11.2021
4742 Clear 7 1024 58 10000 3.58 68 01:22 18.11.2021
4743 Clear 7 1024 58 10000 3.58 68 01:22 18.11.2021
4744 Clear 9 1008 60 10000 2.24 45 22:41 17.11.2021
4745 Clear 9 1008 60 10000 1.79 68 22:20 17.11.2021
4746 Clear 10 1008 62 10000 0.89 90 21:37 17.11.2021
4747 Clear 10 1007 59 10000 0.45 45 20:18 17.11.2021
4748 Clear 14 1021 48 10000 0.89 90 17:53 17.11.2021
4749 Clear 14 1021 46 10000 0.45 90 17:23 17.11.2021
4750 Clear 14 1021 46 10000 1.79 90 17:23 17.11.2021
4751 Clear 14 1008 48 10000 2.24 68 14:47 17.11.2021
4752 Clear 11 1022 58 10000 1.34 113 12:40 17.11.2021
4753 Clear 10 1023 64 10000 2.68 23 11:42 17.11.2021
4754 Clear 7 1022 72 10000 2.68 23 10:28 17.11.2021
4755 Clear 5 1021 77 10000 3.58 68 09:24 17.11.2021
4756 Clear 5 1020 78 10000 1.34 23 07:43 17.11.2021
4757 Clear 6 1006 79 10000 4.02 45 03:43 17.11.2021
4758 Clear 7 1020 73 10000 3.58 45 01:18 17.11.2021
4759 Clear 8 1020 70 10000 2.24 90 22:54 16.11.2021
4760 Clear 9 1020 66 10000 0.89 45 21:23 16.11.2021
4761 Clear 10 1019 63 10000 0.89 113 20:18 16.11.2021
4762 Clear 11 1018 58 10000 1.34 58 18:53 16.11.2021
4763 Clear 11 1018 56 10000 0.45 20 18:34 16.11.2021
4764 Clear 13 1018 50 10000 0.89 4 17:38 16.11.2021
4765 Clear 13 1018 47 10000 1.34 23 16:39 16.11.2021
4766 Clear 13 1005 48 10000 0.89 315 15:53 16.11.2021
4767 Clear 13 1018 48 10000 0.45 90 15:27 16.11.2021
4768 Clear 9 1021 66 10000 1.79 80 11:50 16.11.2021
4769 Clear 6 1020 76 10000 2.24 71 09:49 16.11.2021
4770 Clear 4 1020 83 10000 1.34 74 08:45 16.11.2021
4771 Clear 4 1019 84 10000 0.45 338 07:32 16.11.2021
4772 Clear 6 1002 78 10000 0.45 27 02:47 16.11.2021
4773 Clear 8 1021 65 10000 0.89 90 23:23 15.11.2021
4774 Clear 9 1021 64 10000 0.45 90 22:37 15.11.2021
4775 Clear 9 1020 64 10000 0.45 113 21:53 15.11.2021
4776 Clear 9 1020 63 10000 1.34 90 21:29 15.11.2021
4777 Clear 10 1020 58 10000 1.34 45 19:58 15.11.2021
4778 Clear 11 1019 55 10000 0.45 23 18:48 15.11.2021
4779 Clouds 14 1019 44 10000 0.45 45 16:55 15.11.2021
4780 Clouds 15 1006 44 10000 0.89 68 15:42 15.11.2021
4781 Clouds 15 1006 44 10000 4.92 23 15:24 15.11.2021
4782 Clouds 14 1006 49 10000 4.02 23 13:32 15.11.2021
4783 Clear 13 1020 50 10000 2.24 23 11:53 15.11.2021
4784 Clear 9 1019 62 10000 5.36 45 09:29 15.11.2021
4785 Clear 8 1019 66 10000 5.36 45 07:57 15.11.2021
4786 Clear 9 1019 69 10000 3.58 0 05:24 15.11.2021
4787 Clear 10 1019 66 10000 4.02 23 00:18 15.11.2021
4788 Clear 11 1019 63 10000 0.45 45 22:38 14.11.2021
4789 Clear 12 1018 57 10000 1.79 0 20:32 14.11.2021
4790 Clear 13 1018 54 10000 2.68 45 19:18 14.11.2021
4791 Clear 13 1017 53 10000 3.13 23 18:54 14.11.2021
4792 Clear 14 1017 49 10000 0.89 68 18:36 14.11.2021
4793 Clear 14 1017 49 10000 0.45 45 18:18 14.11.2021
4794 Clear 16 1017 47 10000 0.89 0 17:57 14.11.2021
4795 Clear 17 1017 41 10000 1.03 250 17:39 14.11.2021
4796 Clear 17 1017 39 10000 0.45 225 17:21 14.11.2021
4797 Clear 18 1017 39 10000 1.34 197 16:49 14.11.2021
4798 Clear 18 1004 43 10000 0.45 294 16:21 14.11.2021
4799 Clear 17 1004 44 10000 3.13 248 15:46 14.11.2021
4800 Clear 17 1017 44 10000 0.89 293 15:18 14.11.2021
4801 Clear 16 1017 49 10000 0.89 225 14:32 14.11.2021
4802 Clear 15 1005 53 10000 0.89 228 13:59 14.11.2021
4803 Clear 15 1006 56 10000 0.45 203 13:40 14.11.2021
4804 Clear 12 1019 61 10000 0.45 225 12:29 14.11.2021
4805 Clear 12 1019 64 10000 0.45 248 11:58 14.11.2021
4806 Clear 10 1020 68 10000 1.54 60 10:45 14.11.2021
4807 Clear 9 1020 72 10000 1.34 97 10:26 14.11.2021
4808 Clear 4 1019 88 10000 0 0 08:56 14.11.2021
4809 Clear 5 1019 85 10000 0.89 34 07:28 14.11.2021
4810 Clear 8 1020 73 10000 0.45 23 01:24 14.11.2021
4811 Clear 11 1020 64 10000 1.79 68 22:27 13.11.2021
4812 Clear 11 1020 64 10000 1.79 68 22:27 13.11.2021
4813 Clear 11 1020 62 10000 1.34 68 21:57 13.11.2021
4814 Clear 11 1020 61 10000 1.34 45 21:25 13.11.2021
4815 Clear 12 1007 61 10000 0.89 45 19:50 13.11.2021
4816 Clear 14 1006 55 10000 1.03 130 18:48 13.11.2021
4817 Clear 14 1006 55 10000 0.45 112 18:26 13.11.2021
4818 Clear 17 1018 45 10000 0.51 0 16:40 13.11.2021
4819 Clear 16 1019 47 10000 0.45 121 15:37 13.11.2021
4820 Clear 16 1019 50 10000 0.45 203 14:34 13.11.2021
4821 Clear 15 1019 51 10000 0.45 203 13:45 13.11.2021
4822 Clear 13 1020 60 10000 0.45 45 12:33 13.11.2021
4823 Clear 12 1021 64 10000 0.45 113 11:38 13.11.2021
4824 Clear 10 1021 71 10000 0.45 23 10:45 13.11.2021
4825 Clear 9 1021 72 10000 0.45 113 10:23 13.11.2021
4826 Clear 9 1021 72 10000 0.45 113 10:23 13.11.2021
4827 Clear 8 1021 78 10000 0.45 113 09:38 13.11.2021
4828 Clear 6 1020 82 10000 0.89 45 08:56 13.11.2021
4829 Clear 5 1020 85 10000 1.34 20 08:34 13.11.2021
4830 Clear 6 1019 83 10000 0.45 68 06:27 13.11.2021
4831 Clear 7 1019 81 10000 0.89 90 04:32 13.11.2021
4832 Clear 8 1019 75 10000 0.89 41 01:54 13.11.2021
4833 Clear 10 1019 76 10000 0.51 0 22:59 12.11.2021
4834 Clear 10 1019 74 10000 0.89 59 21:50 12.11.2021
4835 Clear 12 1018 67 10000 2.24 303 20:19 12.11.2021
4836 Clear 13 1018 63 10000 3.13 270 19:30 12.11.2021
4837 Clear 14 1018 58 10000 1.79 252 18:52 12.11.2021
4838 Clear 18 1017 41 10000 0.89 209 16:40 12.11.2021
4839 Clear 18 1018 44 10000 0.45 74 15:34 12.11.2021
4840 Clear 15 1019 57 10000 0.45 90 13:21 12.11.2021
4841 Clear 11 1019 68 10000 0.89 45 10:58 12.11.2021
4842 Clear 10 1019 69 10000 0.45 45 09:45 12.11.2021
4843 Clear 6 1019 79 10000 1.34 38 08:44 12.11.2021
4844 Clear 7 1004 73 10000 1.34 45 05:54 12.11.2021
4845 Clear 9 1019 64 10000 0.89 45 23:43 11.11.2021
4846 Clear 8 1020 67 10000 1.79 29 22:40 11.11.2021
4847 Clear 9 1019 66 10000 1.03 0 21:29 11.11.2021
4848 Clear 10 1019 62 10000 0 0 20:48 11.11.2021
4849 Clear 11 1019 58 10000 0 0 19:30 11.11.2021
4850 Clear 13 1005 50 10000 0.89 193 18:22 11.11.2021
4851 Clear 15 1018 42 10000 0.89 203 17:37 11.11.2021
4852 Clear 16 1018 42 10000 0.45 203 15:19 11.11.2021
4853 Clear 15 1019 44 10000 1.34 135 14:36 11.11.2021
4854 Clear 15 1019 45 10000 0.45 135 14:18 11.11.2021
4855 Clear 14 1019 50 10000 0.45 224 13:34 11.11.2021
4856 Clear 11 1020 60 10000 0.45 113 11:57 11.11.2021
4857 Clear 7 1020 68 10000 0.45 113 09:54 11.11.2021
4858 Clear 4 1019 78 10000 1.79 11 08:21 11.11.2021
4859 Clear 4 1019 78 10000 1.34 52 06:44 11.11.2021
4860 Clear 6 1019 74 10000 0.45 60 00:37 11.11.2021
4861 Clear 8 1019 68 10000 0.89 233 22:38 10.11.2021
4862 Clear 9 1019 63 10000 0.45 72 21:46 10.11.2021
4863 Clear 10 1018 61 10000 0.45 248 20:53 10.11.2021
4864 Clear 11 1018 54 10000 0.45 248 19:50 10.11.2021
4865 Clear 12 1005 53 10000 0.45 248 19:32 10.11.2021
4866 Clear 16 1018 39 10000 0.45 270 16:50 10.11.2021
4867 Clear 16 1018 38 10000 1.34 203 15:46 10.11.2021
4868 Clear 15 1019 42 10000 0.89 203 14:23 10.11.2021
4869 Clear 15 1020 44 10000 0.45 172 13:27 10.11.2021
4870 Clear 11 1021 55 10000 0.45 45 11:40 10.11.2021
4871 Clear 5 1020 69 10000 0.45 45 09:18 10.11.2021
4872 Clear 5 1020 70 10000 0.89 45 08:40 10.11.2021
4873 Clear 5 1005 72 10000 0.89 45 06:44 10.11.2021
4874 Clear 5 1004 70 10000 2.24 45 05:57 10.11.2021
4875 Clear 7 1019 58 10000 2.68 68 01:44 10.11.2021
4876 Clear 10 1019 42 10000 4.92 68 21:59 09.11.2021
4877 Clear 11 1018 36 10000 0.45 45 20:34 09.11.2021
4878 Clear 12 1018 37 10000 1.79 72 19:28 09.11.2021
4879 Clear 13 998 37 10000 1.54 240 18:48 09.11.2021
4880 Clear 17 1017 30 10000 2.24 90 16:40 09.11.2021
4881 Clear 17 1017 35 10000 0.45 45 15:20 09.11.2021
4882 Clear 15 1018 44 10000 0.45 12 13:31 09.11.2021
4883 Clear 13 1019 47 10000 1.34 60 12:28 09.11.2021
4884 Clear 11 1019 55 10000 1.34 109 10:55 09.11.2021
4885 Clear 8 1019 64 10000 0.89 109 09:44 09.11.2021
4886 Clear 6 1004 73 10000 0.45 11 08:53 09.11.2021
4887 Clear 5 1005 73 10000 0.45 158 07:28 09.11.2021
4888 Clear 8 1018 58 10000 0.89 138 02:35 09.11.2021
4889 Clear 9 1018 56 10000 1.34 178 01:50 09.11.2021
4890 Clear 10 1019 51 10000 2.68 293 00:30 09.11.2021
4891 Clear 10 1019 51 10000 0.89 0 00:30 09.11.2021
4892 Clear 10 1019 51 10000 2.68 293 00:30 09.11.2021
4893 Clear 10 1019 51 10000 0.89 0 00:30 09.11.2021
4894 Clear 10 1019 50 10000 0.45 294 23:30 08.11.2021
4895 Clear 12 1004 44 10000 1.79 11 22:37 08.11.2021
4896 Clear 12 1004 40 10000 0.45 23 21:31 08.11.2021
4897 Clear 13 1004 41 10000 2.68 23 20:33 08.11.2021
4898 Clear 15 1019 34 10000 2.24 23 19:20 08.11.2021
4899 Clear 17 1018 29 10000 1.34 45 17:41 08.11.2021
4900 Clear 18 1018 26 10000 4.47 45 15:49 08.11.2021
4901 Clear 18 1018 28 10000 5.36 23 14:56 08.11.2021
4902 Clear 18 1019 29 10000 4.92 23 14:24 08.11.2021
4903 Clear 16 1020 43 10000 4.47 0 12:59 08.11.2021
4904 Clear 13 1021 59 10000 0.45 293 11:54 08.11.2021
4905 Clear 10 1021 69 10000 0.89 23 10:49 08.11.2021
4906 Clear 6 1008 80 10000 0.89 13 08:57 08.11.2021
4907 Clear 5 1005 84 10000 0.89 51 08:18 08.11.2021
4908 Clear 5 1020 82 10000 0.89 247 06:56 08.11.2021
4909 Clear 5 1021 83 10000 0.89 54 03:35 08.11.2021
4910 Clear 7 1022 70 10000 0.89 39 00:20 08.11.2021
4911 Clear 8 1023 68 10000 0.45 45 22:58 07.11.2021
4912 Clear 9 1008 65 10000 1.34 36 21:25 07.11.2021
4913 Clear 9 1007 62 10000 0.45 293 20:25 07.11.2021
4914 Clear 12 1022 45 10000 0.45 248 18:35 07.11.2021
4915 Clear 14 1022 40 10000 0.45 270 17:42 07.11.2021
4916 Clear 14 1022 38 10000 0.45 8 16:22 07.11.2021
4917 Clear 13 1022 38 10000 1.34 293 14:54 07.11.2021
4918 Clear 12 1023 39 10000 1.79 284 14:27 07.11.2021
4919 Clear 10 1024 43 10000 0.45 339 12:50 07.11.2021
4920 Clear 8 1024 50 10000 0.51 0 11:41 07.11.2021
4921 Clear 3 1006 77 10000 0 0 08:59 07.11.2021
4922 Clear 5 1025 63 10000 0.45 243 02:56 07.11.2021
4923 Clear 5 1025 63 10000 0.51 0 02:22 07.11.2021
4924 Clear 7 1025 58 10000 2.24 23 22:56 06.11.2021
4925 Clear 8 1025 59 10000 2.68 355 21:58 06.11.2021
4926 Clear 8 1025 57 10000 2.68 359 20:59 06.11.2021
4927 Clear 9 1010 55 10000 2.24 315 20:18 06.11.2021
4928 Clear 13 1012 37 10000 3.58 0 17:32 06.11.2021
4929 Clear 13 1025 33 10000 3.58 338 16:32 06.11.2021
4930 Clear 12 1026 40 10000 0.89 45 13:41 06.11.2021
4931 Clear 11 1027 43 10000 1.79 68 12:56 06.11.2021
4932 Clear 9 1027 53 10000 6.26 68 11:24 06.11.2021
4933 Clear 4 1013 70 10000 3.13 23 08:49 06.11.2021
4934 Clear 4 1025 72 10000 0.45 68 04:50 06.11.2021
4935 Clear 5 1025 71 10000 4.47 23 00:36 06.11.2021
4936 Clear 6 1025 68 10000 3.58 23 23:29 05.11.2021
4937 Clear 6 1024 66 10000 2.24 90 22:33 05.11.2021
4938 Clouds 7 1024 72 10000 2.68 315 20:41 05.11.2021
4939 Rain 8 1024 63 10000 7.15 0 19:51 05.11.2021
4940 Clear 9 1023 51 10000 5.81 0 18:51 05.11.2021
4941 Clear 10 1022 50 10000 2.24 0 18:29 05.11.2021
4942 Clouds 11 1022 45 10000 4.02 0 16:49 05.11.2021
4943 Clouds 12 1009 48 10000 4.47 338 14:33 05.11.2021
4944 Clouds 11 1023 49 10000 5.81 45 12:27 05.11.2021
4945 Clear 7 1023 64 10000 2.24 26 09:47 05.11.2021
4946 Clear 5 1021 72 10000 3.58 0 08:38 05.11.2021
4947 Clear 5 1021 72 10000 2.68 0 06:40 05.11.2021
4948 Clear 6 1020 70 10000 0.45 68 03:38 05.11.2021
4949 Clear 6 1005 71 10000 0.45 315 02:21 05.11.2021
4950 Clear 7 1019 69 10000 1.34 45 23:58 04.11.2021
4951 Clouds 7 1019 71 10000 1.79 36 22:37 04.11.2021
4952 Clouds 7 1019 68 10000 0.89 44 22:18 04.11.2021
4953 Clear 8 1018 63 10000 1.34 39 21:28 04.11.2021
4954 Clear 8 1018 62 10000 0.45 315 20:29 04.11.2021
4955 Clouds 8 1018 60 10000 0.89 2 19:49 04.11.2021
4956 Clouds 8 1017 59 10000 1.34 8 19:28 04.11.2021
4957 Clouds 9 1017 54 10000 3.58 0 18:30 04.11.2021
4958 Clouds 10 1016 52 10000 2.68 0 17:27 04.11.2021
4959 Clouds 11 1016 50 10000 4.02 0 16:23 04.11.2021
4960 Clouds 11 1000 56 10000 2.68 270 13:50 04.11.2021
4961 Clouds 8 1015 74 10000 0.45 23 10:52 04.11.2021
4962 Clear 5 1013 83 10000 0.45 157 08:48 04.11.2021
4963 Clear 5 1013 85 10000 0.45 79 08:25 04.11.2021
4964 Clear 4 1012 87 10000 0.89 315 07:33 04.11.2021
4965 Clouds 7 1012 72 10000 1.79 293 23:23 03.11.2021
4966 Clouds 8 1012 71 10000 3.13 315 22:29 03.11.2021
4967 Clouds 8 1012 67 10000 1.79 293 21:45 03.11.2021
4968 Clouds 9 1012 65 10000 2.24 293 20:45 03.11.2021
4969 Clouds 9 1011 63 10000 2.24 270 20:26 03.11.2021
4970 Clouds 9 1011 60 10000 4.47 293 19:38 03.11.2021
4971 Clouds 10 1010 56 10000 2.68 315 18:33 03.11.2021
4972 Clouds 11 1010 54 10000 3.58 315 17:56 03.11.2021
4973 Clouds 11 1010 50 10000 4.02 270 16:49 03.11.2021
4974 Clouds 12 1010 50 10000 4.02 293 15:51 03.11.2021
4975 Clouds 11 1010 49 10000 4.92 315 15:30 03.11.2021
4976 Clouds 11 1009 50 10000 4.47 315 15:30 03.11.2021
4977 Clouds 11 997 55 10000 3.58 315 13:43 03.11.2021
4978 Clouds 10 1010 61 10000 3.58 293 11:38 03.11.2021
4979 Clouds 9 1010 62 10000 5.81 293 10:51 03.11.2021
4980 Clouds 8 1009 69 10000 5.36 293 09:48 03.11.2021
4981 Clouds 7 1008 73 10000 5.36 293 08:58 03.11.2021
4982 Clear 7 1008 73 10000 3.58 270 08:20 03.11.2021
4983 Clear 6 1007 74 10000 4.92 293 07:38 03.11.2021
4984 Clouds 8 1006 69 10000 4.92 315 04:23 03.11.2021
4985 Clouds 9 989 92 10000 4.47 270 01:32 03.11.2021
4986 Rain 10 1008 91 6000 2.24 293 23:30 02.11.2021
4987 Clouds 11 1008 88 10000 4.02 248 22:20 02.11.2021
4988 Clouds 11 1009 89 10000 4.47 225 20:45 02.11.2021
4989 Clouds 10 1009 88 10000 1.79 225 20:23 02.11.2021
4990 Clouds 10 1009 84 10000 3.13 248 19:40 02.11.2021
4991 Clouds 11 1010 80 10000 3.13 248 18:36 02.11.2021
4992 Clouds 11 1010 77 10000 6.26 248 17:48 02.11.2021
4993 Clouds 11 1010 76 10000 2.68 225 17:25 02.11.2021
4994 Clouds 12 1011 74 10000 2.68 248 16:26 02.11.2021
4995 Clouds 12 1012 73 10000 4.02 203 14:57 02.11.2021
4996 Clouds 12 1001 68 10000 2.68 225 13:32 02.11.2021
4997 Clouds 12 1013 68 10000 4.02 225 12:59 02.11.2021
4998 Clouds 12 1014 68 10000 2.24 270 12:20 02.11.2021
4999 Clear 11 1015 70 10000 3.58 248 11:27 02.11.2021
5000 Clear 10 1015 74 10000 3.13 248 10:45 02.11.2021
5001 Clear 10 1015 76 10000 3.58 248 10:22 02.11.2021
5002 Clear 8 1014 85 10000 1.79 225 08:22 02.11.2021
5003 Clear 8 1015 82 10000 2.24 248 06:32 02.11.2021
5004 Clear 10 1015 72 10000 3.58 293 03:30 02.11.2021
5005 Clear 11 1015 71 10000 3.13 293 00:55 02.11.2021
5006 Clear 11 1016 69 10000 2.24 270 22:25 01.11.2021
5007 Clouds 12 1015 67 10000 2.68 248 20:47 01.11.2021
5008 Clouds 12 1015 69 10000 3.58 248 20:27 01.11.2021
5009 Clouds 13 1014 65 10000 2.68 248 19:43 01.11.2021
5010 Clouds 14 1014 63 10000 5.36 293 18:54 01.11.2021
5011 Clouds 15 1014 60 10000 2.68 293 17:56 01.11.2021
5012 Clouds 17 1013 56 10000 4.92 270 17:18 01.11.2021
5013 Clouds 17 1013 57 10000 4.92 248 16:33 01.11.2021
5014 Clouds 17 1013 57 10000 5.36 248 15:40 01.11.2021
5015 Clouds 17 1013 56 10000 4.47 248 15:19 01.11.2021
5016 Clouds 16 1014 56 10000 4.02 293 14:39 01.11.2021
5017 Clouds 16 1001 57 10000 4.47 293 14:19 01.11.2021
5018 Clouds 16 1001 61 10000 4.47 293 12:50 01.11.2021
5019 Clouds 16 1015 68 10000 6.71 293 11:39 01.11.2021
5020 Clouds 16 1014 81 10000 4.47 270 10:20 01.11.2021
5021 Clouds 14 1013 90 10000 5.36 270 08:20 01.11.2021
5022 Drizzle 14 1012 91 10000 2.24 251 07:46 01.11.2021
5023 Clouds 14 997 95 10000 0.45 315 03:55 01.11.2021
5024 Clouds 14 994 97 10000 1.34 293 03:33 01.11.2021
5025 Mist 16 1012 95 1200 4.02 293 23:52 31.10.2021
5026 Rain 17 1013 95 3500 1.34 248 20:58 31.10.2021
5027 Clouds 17 1013 95 10000 3.13 248 19:54 31.10.2021
5028 Clouds 17 1012 95 9000 2.68 248 18:43 31.10.2021
5029 Clouds 17 1012 95 9000 4.47 248 18:20 31.10.2021
5030 Rain 17 999 94 4000 2.24 203 16:41 31.10.2021
5031 Clouds 18 1000 92 5000 2.68 248 14:45 31.10.2021
5032 Clouds 19 1014 86 10000 3.13 248 12:55 31.10.2021
5033 Clouds 17 1014 93 9000 2.68 248 11:44 31.10.2021
5034 Mist 16 1014 94 5000 3.58 225 10:48 31.10.2021
5035 Drizzle 15 1013 95 4000 2.68 248 09:26 31.10.2021
5036 Drizzle 15 1013 96 5000 0.89 203 08:45 31.10.2021
5037 Drizzle 14 1013 96 9000 1.79 203 02:52 31.10.2021
5038 Clouds 14 1013 91 10000 2.68 203 00:32 31.10.2021
5039 Drizzle 16 998 85 10000 4.92 248 22:20 30.10.2021
5040 Clouds 17 997 83 10000 3.58 248 21:27 30.10.2021
5041 Clouds 17 1010 84 10000 4.63 230 19:42 30.10.2021
5042 Clouds 18 1010 81 10000 0.89 270 17:49 30.10.2021
5043 Clouds 18 1009 84 10000 4.02 248 15:42 30.10.2021
5044 Clouds 17 1009 90 10000 2.68 225 13:59 30.10.2021
5045 Clouds 17 1009 90 10000 2.68 225 13:59 30.10.2021
5046 Drizzle 17 1009 93 10000 4.02 225 13:38 30.10.2021
5047 Clouds 17 1009 93 10000 1.79 248 13:20 30.10.2021
5048 Clouds 16 1009 96 10000 0.89 225 11:49 30.10.2021
5049 Clouds 15 996 96 10000 1.34 225 10:56 30.10.2021
5050 Drizzle 15 994 94 10000 2.24 248 08:59 30.10.2021
5051 Clouds 15 1006 94 9000 2.68 225 07:57 30.10.2021
5052 Rain 14 1005 97 2500 0.45 225 05:47 30.10.2021
5053 Rain 13 1006 96 7000 1.79 180 02:59 30.10.2021
5054 Drizzle 13 996 95 10000 3.58 203 23:21 29.10.2021
5055 Clouds 13 1010 95 10000 4.47 203 22:35 29.10.2021
5056 Rain 13 1011 96 4500 1.79 158 21:18 29.10.2021
5057 Clouds 13 1011 94 4000 0.89 180 20:32 29.10.2021
5058 Clouds 12 1011 95 3500 0.45 135 19:26 29.10.2021
5059 Rain 12 1012 92 3500 0.45 180 17:48 29.10.2021
5060 Rain 12 1013 87 10000 0.45 248 15:42 29.10.2021
5061 Clouds 14 1001 69 10000 2.24 180 13:19 29.10.2021
5062 Clouds 14 999 68 10000 1.34 247 10:49 29.10.2021
5063 Clouds 13 1001 68 10000 2.24 225 10:30 29.10.2021
5064 Clear 14 999 57 10000 0.89 158 02:46 29.10.2021
5065 Clear 15 1000 54 10000 0.45 225 00:32 29.10.2021
5066 Clear 15 1015 49 10000 1.79 248 22:32 28.10.2021
5067 Clear 16 1015 47 10000 2.24 270 20:59 28.10.2021
5068 Clear 16 1015 45 10000 1.79 248 20:19 28.10.2021
5069 Clear 19 1015 36 10000 3.13 225 18:47 28.10.2021
5070 Clear 20 1015 35 10000 2.68 225 17:42 28.10.2021
5071 Clear 20 1003 39 10000 1.79 203 16:38 28.10.2021
5072 Clear 18 1004 47 10000 2.68 135 14:43 28.10.2021
5073 Clear 16 1019 52 10000 1.34 135 13:33 28.10.2021
5074 Clear 15 1019 56 10000 0.89 135 12:50 28.10.2021
5075 Clear 13 1019 62 10000 0.45 180 11:50 28.10.2021
5076 Clear 11 1006 71 10000 0.45 164 10:38 28.10.2021
5077 Clear 8 1001 77 10000 0.45 90 09:37 28.10.2021
5078 Clear 9 1019 74 10000 1.34 90 08:36 28.10.2021
5079 Clear 9 1019 73 10000 1.34 65 07:41 28.10.2021
5080 Clear 10 1019 70 10000 1.79 90 03:51 28.10.2021
5081 Clear 14 1006 58 10000 0.45 247 22:57 27.10.2021
5082 Clear 14 1021 56 10000 0.45 250 22:26 27.10.2021
5083 Clear 15 1021 53 10000 1.79 225 21:32 27.10.2021
5084 Clear 16 1021 50 10000 0.89 203 20:46 27.10.2021
5085 Clear 18 1021 46 10000 0.45 225 19:48 27.10.2021
5086 Clear 19 1021 42 10000 1.34 203 18:56 27.10.2021
5087 Clear 20 1021 40 10000 2.24 203 18:36 27.10.2021
5088 Clear 20 1021 43 10000 0.89 203 16:25 27.10.2021
5089 Clear 19 1022 49 10000 0.89 293 15:28 27.10.2021
5090 Clear 18 1023 58 10000 0.89 225 14:28 27.10.2021
5091 Clear 12 1024 64 10000 0.45 113 11:18 27.10.2021
5092 Clear 12 1024 63 10000 0.45 68 10:56 27.10.2021
5093 Clear 8 1024 73 10000 1.34 45 09:28 27.10.2021
5094 Clear 8 1024 70 10000 1.34 45 07:47 27.10.2021
5095 Clear 9 1024 69 10000 2.24 30 05:49 27.10.2021
5096 Clear 13 1024 61 10000 0.89 40 01:26 27.10.2021
5097 Clear 12 1024 61 10000 0.45 32 00:55 27.10.2021
5098 Clear 13 1024 58 10000 0.45 193 23:56 26.10.2021
5099 Clear 13 1024 59 10000 0 0 22:50 26.10.2021
5100 Clear 13 1024 59 10000 0 0 22:27 26.10.2021
5101 Clear 15 1008 54 10000 0.45 338 21:51 26.10.2021
5102 Clear 17 1023 47 10000 0 0 19:59 26.10.2021
5103 Clear 19 1023 41 10000 0.45 97 19:22 26.10.2021
5104 Clear 20 1022 39 10000 0.45 38 18:25 26.10.2021
5105 Clear 20 1023 42 10000 0.89 68 15:51 26.10.2021
5106 Clear 18 1024 46 10000 0.45 82 14:18 26.10.2021
5107 Clear 13 1025 57 10000 1.79 23 11:23 26.10.2021
5108 Clear 10 1011 65 10000 3.13 45 09:27 26.10.2021
5109 Clear 10 1023 60 10000 0.89 45 07:23 26.10.2021
5110 Clear 13 1008 52 10000 0.45 23 00:29 26.10.2021
5111 Clear 13 1007 53 10000 1.34 45 23:37 25.10.2021
5112 Clear 14 1007 50 10000 0.89 293 22:35 25.10.2021
5113 Clear 14 1003 50 10000 0 0 21:47 25.10.2021
5114 Clear 16 1008 45 10000 0.45 158 20:48 25.10.2021
5115 Clear 18 1021 39 10000 0.89 135 19:44 25.10.2021
5116 Clear 18 1021 37 10000 1.34 113 19:23 25.10.2021
5117 Clear 20 1020 34 10000 0.45 131 18:40 25.10.2021
5118 Clear 20 1020 33 10000 0.45 113 17:35 25.10.2021
5119 Clear 19 1022 37 10000 1.79 300 15:24 25.10.2021
5120 Clear 15 1023 48 10000 0.45 203 12:39 25.10.2021
5121 Clear 13 1011 55 10000 0.89 113 11:25 25.10.2021
5122 Clear 8 1022 68 10000 0.89 45 09:22 25.10.2021
5123 Clear 8 1022 67 10000 0.45 45 07:20 25.10.2021
5124 Clear 9 1022 65 10000 0.89 45 05:21 25.10.2021
5125 Clear 12 1023 52 10000 0.45 293 00:52 25.10.2021
5126 Clear 12 1008 52 10000 0.89 56 00:34 25.10.2021
5127 Clear 13 1023 46 10000 0.45 248 23:42 24.10.2021
5128 Clear 13 1023 45 10000 0.45 270 22:39 24.10.2021
5129 Clear 13 1022 44 10000 0.89 247 22:20 24.10.2021
5130 Clear 15 1008 42 10000 0.45 248 21:33 24.10.2021
5131 Clear 16 1022 38 10000 0.45 248 20:39 24.10.2021
5132 Clear 18 1009 36 10000 0.45 203 19:47 24.10.2021
5133 Clear 20 1022 31 10000 0.89 180 18:29 24.10.2021
5134 Clear 20 1022 31 10000 1.79 158 17:45 24.10.2021
5135 Clear 19 1023 33 10000 0.45 180 15:57 24.10.2021
5136 Clear 19 1023 38 10000 0.45 158 15:19 24.10.2021
5137 Clear 16 1025 44 10000 0.89 203 13:19 24.10.2021
5138 Clear 13 1025 51 10000 0.45 143 11:56 24.10.2021
5139 Clear 12 1025 53 10000 0.45 113 11:34 24.10.2021
5140 Clear 10 1025 60 10000 0.51 0 10:30 24.10.2021
5141 Clear 6 1024 72 10000 0.89 68 08:00 24.10.2021
5142 Clear 12 1023 55 10000 1.34 38 01:26 24.10.2021
5143 Clear 12 1023 53 10000 0.45 292 23:51 23.10.2021
5144 Clear 12 1023 53 10000 1.54 210 22:40 23.10.2021
5145 Clear 16 1022 43 10000 0.45 270 20:39 23.10.2021
5146 Clear 19 1022 36 10000 1.34 180 19:00 23.10.2021
5147 Clear 19 1022 35 10000 0.89 225 18:41 23.10.2021
5148 Clear 19 1022 34 10000 1.79 221 17:44 23.10.2021
5149 Clear 19 1022 37 10000 0.89 206 16:45 23.10.2021
5150 Clear 17 1023 45 10000 0.45 293 14:45 23.10.2021
5151 Clouds 8 1023 70 10000 0.89 68 09:45 23.10.2021
5152 Clear 12 1023 60 10000 2.68 68 00:36 23.10.2021
5153 Clear 13 1022 57 10000 4.02 45 23:28 22.10.2021
5154 Clear 16 1020 45 10000 4.47 68 20:56 22.10.2021
5155 Clear 19 1006 37 10000 3.58 68 18:57 22.10.2021
5156 Clear 20 1006 36 10000 5.36 68 17:44 22.10.2021
5157 Clear 19 1019 36 10000 2.68 68 16:18 22.10.2021
5158 Clear 18 1020 41 10000 4.92 68 14:31 22.10.2021
5159 Clouds 15 1021 49 10000 6.26 45 12:41 22.10.2021
5160 Clouds 15 1021 49 10000 6.26 45 12:41 22.10.2021
5161 Clouds 15 1021 49 10000 3.13 68 12:41 22.10.2021
5162 Clouds 13 1020 55 10000 7.6 45 10:52 22.10.2021
5163 Clouds 12 1020 60 10000 3.58 45 09:56 22.10.2021
5164 Clouds 12 1020 60 10000 3.58 45 09:56 22.10.2021
5165 Clouds 11 1019 62 10000 4.47 23 09:32 22.10.2021
5166 Clouds 12 1004 68 10000 4.02 45 07:28 22.10.2021
5167 Clouds 12 1004 70 10000 5.36 45 06:19 22.10.2021
5168 Clear 15 1019 55 10000 3.58 68 00:37 22.10.2021
5169 Clear 15 1018 54 10000 2.68 45 23:48 21.10.2021
5170 Clear 16 1018 55 10000 1.34 68 22:22 21.10.2021
5171 Clear 17 1003 52 10000 1.34 293 21:23 21.10.2021
5172 Clear 18 1005 49 10000 2.24 248 20:21 21.10.2021
5173 Clear 19 1005 45 10000 1.34 248 19:31 21.10.2021
5174 Clear 20 1005 44 10000 0.89 270 18:59 21.10.2021
5175 Clear 21 1018 41 10000 0.45 158 18:27 21.10.2021
5176 Clear 21 1018 43 10000 1.79 270 17:47 21.10.2021
5177 Clear 21 1018 41 10000 1.79 270 17:47 21.10.2021
5178 Clear 21 1018 43 10000 0.45 270 16:40 21.10.2021
5179 Clear 20 1019 48 10000 0.89 3 15:22 21.10.2021
5180 Clear 20 1019 50 10000 0.89 21 14:50 21.10.2021
5181 Clear 19 1020 54 10000 2.24 45 13:39 21.10.2021
5182 Clear 16 1020 68 10000 0.45 23 11:47 21.10.2021
5183 Clear 13 1007 78 10000 0.89 64 09:26 21.10.2021
5184 Clear 14 1005 80 10000 0.89 216 07:33 21.10.2021
5185 Clear 15 1020 74 10000 2.68 293 05:33 21.10.2021
5186 Clear 18 1021 67 10000 1.79 293 00:22 21.10.2021
5187 Clear 19 1021 63 10000 2.68 248 22:23 20.10.2021
5188 Clear 20 1006 63 10000 3.58 293 21:47 20.10.2021
5189 Clear 20 1008 61 10000 4.92 248 20:58 20.10.2021
5190 Clear 21 1007 60 10000 2.68 315 20:37 20.10.2021
5191 Clear 21 1007 58 10000 4.02 248 20:00 20.10.2021
5192 Clear 22 1007 55 10000 3.13 270 19:18 20.10.2021
5193 Clear 23 1021 50 10000 1.79 225 18:29 20.10.2021
5194 Clear 23 1021 51 10000 3.13 248 18:29 20.10.2021
5195 Clear 22 1022 50 10000 0.45 225 15:57 20.10.2021
5196 Clear 20 1024 57 10000 1.79 200 13:46 20.10.2021
5197 Clear 14 1012 78 10000 0.89 113 09:50 20.10.2021
5198 Clear 15 1024 72 10000 0.45 61 05:28 20.10.2021
5199 Clear 17 1025 64 10000 1.79 135 01:24 20.10.2021
5200 Clear 18 1026 60 10000 1.34 158 00:32 20.10.2021
5201 Clear 19 1025 59 10000 0.89 135 22:28 19.10.2021
5202 Clear 20 1010 60 10000 0.89 135 21:33 19.10.2021
5203 Clear 21 1012 57 10000 0.45 338 20:26 19.10.2021
5204 Clear 23 1012 50 10000 1.34 0 19:51 19.10.2021
5205 Clear 23 1012 50 10000 0.89 315 19:29 19.10.2021
5206 Clear 24 1024 45 10000 0.45 90 18:23 19.10.2021
5207 Clear 24 1025 49 10000 0.89 113 17:20 19.10.2021
5208 Clear 23 1026 55 10000 0.89 113 15:26 19.10.2021
5209 Clear 22 1027 59 10000 0.45 113 14:31 19.10.2021
5210 Clear 21 1027 63 10000 0.89 113 13:49 19.10.2021
5211 Clear 17 1028 76 10000 0.45 68 11:38 19.10.2021
5212 Clear 16 1028 77 10000 0.89 113 10:51 19.10.2021
5213 Clouds 14 1027 82 10000 1.34 45 09:35 19.10.2021
5214 Clear 14 1014 84 10000 1.34 45 08:53 19.10.2021
5215 Clear 17 1026 69 10000 0.45 68 00:28 19.10.2021
5216 Clear 18 1026 67 10000 0.45 68 23:56 18.10.2021
5217 Clear 18 1026 68 10000 0.89 98 23:22 18.10.2021
5218 Clear 18 1025 66 10000 0.45 253 22:55 18.10.2021
5219 Clear 19 1025 63 10000 0.45 135 21:58 18.10.2021
5220 Clear 20 1013 59 10000 0.45 72 20:46 18.10.2021
5221 Clear 21 1013 58 10000 0.45 180 20:21 18.10.2021
5222 Clear 22 1013 54 10000 0.45 158 19:31 18.10.2021
5223 Clear 23 1023 50 10000 1.79 225 18:58 18.10.2021
5224 Clear 23 1024 50 10000 0.45 203 16:33 18.10.2021
5225 Clear 21 1025 57 10000 0.89 131 14:41 18.10.2021
5226 Clear 17 1025 77 10000 1.79 113 11:47 18.10.2021
5227 Clear 14 1024 88 10000 1.34 23 09:47 18.10.2021
5228 Clear 13 1008 92 10000 1.34 39 07:31 18.10.2021
5229 Clouds 18 1022 74 10000 1.79 270 23:54 17.10.2021
5230 Clouds 18 1021 70 10000 3.13 270 22:27 17.10.2021
5231 Clear 18 1021 67 10000 1.79 270 21:44 17.10.2021
5232 Clouds 19 1020 63 10000 3.58 270 20:49 17.10.2021
5233 Clear 20 1008 60 10000 2.68 225 19:59 17.10.2021
5234 Clear 20 1008 57 10000 2.24 203 19:38 17.10.2021
5235 Clouds 22 1002 53 10000 2.24 158 18:28 17.10.2021
5236 Clouds 22 1002 52 10000 2.24 158 18:28 17.10.2021
5237 Clouds 22 1019 53 10000 1.34 135 16:40 17.10.2021
5238 Clear 20 1020 58 10000 1.34 315 14:40 17.10.2021
5239 Clear 20 1020 59 10000 1.34 203 14:20 17.10.2021
5240 Clear 19 1020 64 10000 0.89 203 13:33 17.10.2021
5241 Clear 16 1020 77 10000 0.45 135 11:31 17.10.2021
5242 Clouds 15 1020 87 10000 1.79 45 10:19 17.10.2021
5243 Clouds 13 1019 91 10000 1.34 53 08:47 17.10.2021
5244 Clear 16 1019 66 10000 0.45 71 03:21 17.10.2021
5245 Clear 17 1019 61 10000 0.45 314 00:31 17.10.2021
5246 Clear 18 1019 53 10000 0.45 248 22:54 16.10.2021
5247 Clear 18 1018 50 10000 0.45 212 20:55 16.10.2021
5248 Clear 19 1007 50 10000 0 0 20:29 16.10.2021
5249 Clear 19 1007 46 10000 0.45 205 19:41 16.10.2021
5250 Clear 20 1007 45 10000 0.45 264 19:20 16.10.2021
5251 Clear 20 1007 44 10000 0.89 225 18:45 16.10.2021
5252 Clear 20 1007 44 10000 1.34 270 18:23 16.10.2021
5253 Clear 20 1007 44 10000 0.45 225 17:33 16.10.2021
5254 Clear 20 1018 43 10000 1.34 104 16:28 16.10.2021
5255 Clear 18 1019 47 10000 0.45 90 13:26 16.10.2021
5256 Clear 15 1020 53 10000 0.45 113 11:25 16.10.2021
5257 Clear 13 1019 59 10000 0.45 68 09:35 16.10.2021
5258 Clear 13 1019 62 10000 1.34 40 04:33 16.10.2021
5259 Clear 16 1019 55 10000 0.45 36 01:22 16.10.2021
5260 Clear 16 1019 54 10000 0.45 293 23:27 15.10.2021
5261 Clear 18 1019 50 10000 4.02 248 22:21 15.10.2021
5262 Clear 19 1007 48 10000 4.47 248 21:41 15.10.2021
5263 Clear 20 1008 46 10000 1.34 225 20:54 15.10.2021
5264 Clear 20 1008 44 10000 1.34 225 20:35 15.10.2021
5265 Clear 23 1007 36 10000 0.45 248 19:20 15.10.2021
5266 Clear 24 1018 34 10000 1.79 248 18:25 15.10.2021
5267 Clear 23 1019 37 10000 0.45 225 16:19 15.10.2021
5268 Clear 21 1021 47 10000 1.34 225 14:26 15.10.2021
5269 Clear 18 1022 57 10000 0.45 62 12:27 15.10.2021
5270 Clear 15 1022 64 10000 1.34 76 11:20 15.10.2021
5271 Clear 14 1021 64 10000 1.34 90 10:32 15.10.2021
5272 Clear 12 1021 70 10000 1.34 28 08:21 15.10.2021
5273 Clear 12 1021 65 10000 0.45 90 05:30 15.10.2021
5274 Clear 16 1022 52 8000 1.34 15 00:25 15.10.2021
5275 Clear 17 1022 46 10000 0.45 225 23:34 14.10.2021
5276 Clear 17 1007 46 10000 0 0 22:40 14.10.2021
5277 Clear 18 1007 43 10000 0 0 21:40 14.10.2021
5278 Clear 20 1021 37 10000 0.89 210 20:22 14.10.2021
5279 Clear 21 1021 36 10000 0.45 225 19:50 14.10.2021
5280 Clear 23 1021 32 10000 0.45 225 18:45 14.10.2021
5281 Clear 23 1021 35 10000 1.34 203 17:24 14.10.2021
5282 Clear 23 1022 40 10000 0.45 225 16:33 14.10.2021
5283 Clear 21 1023 49 10000 2.24 113 15:20 14.10.2021
5284 Clear 20 1023 53 10000 1.79 225 14:30 14.10.2021
5285 Clear 20 1023 53 10000 1.79 225 14:30 14.10.2021
5286 Clear 19 1013 59 10000 1.34 180 13:35 14.10.2021
5287 Clear 15 1024 60 10000 0.45 3 11:35 14.10.2021
5288 Clear 11 1023 53 10000 0.45 90 09:33 14.10.2021
5289 Clear 12 1022 50 10000 1.79 12 06:27 14.10.2021
5290 Clear 16 1004 36 10000 3.13 68 00:49 14.10.2021
5291 Clear 18 1020 32 10000 0.45 68 22:47 13.10.2021
5292 Clear 19 1020 28 10000 0.45 23 21:37 13.10.2021
5293 Clear 20 1020 26 10000 0.89 68 20:46 13.10.2021
5294 Clear 23 1019 21 10000 0.45 90 19:41 13.10.2021
5295 Clear 24 1019 18 10000 1.34 81 18:48 13.10.2021
5296 Clear 25 1019 18 10000 0.89 23 17:35 13.10.2021
5297 Clear 23 1008 20 10000 1.79 90 15:21 13.10.2021
5298 Clear 23 1009 20 10000 2.24 90 14:43 13.10.2021
5299 Clear 20 1010 25 10000 5.36 45 12:48 13.10.2021
5300 Clear 18 1021 30 10000 2.68 90 11:51 13.10.2021
5301 Clear 13 1020 42 10000 0.89 23 10:21 13.10.2021
5302 Clear 11 1019 46 10000 1.34 23 07:54 13.10.2021
5303 Clear 12 1019 45 10000 0.89 23 05:40 13.10.2021
5304 Clear 15 1007 38 10000 1.79 45 02:23 13.10.2021
5305 Clear 18 1019 49 10000 1.34 45 23:54 12.10.2021
5306 Clear 17 1019 59 10000 1.79 68 23:28 12.10.2021
5307 Clear 18 1018 57 10000 0.45 270 22:42 12.10.2021
5308 Clear 20 1018 51 10000 0.89 225 20:55 12.10.2021
5309 Clear 20 1018 48 10000 0.45 180 20:32 12.10.2021
5310 Clear 22 1018 45 10000 0.89 158 19:50 12.10.2021
5311 Clear 24 1018 39 10000 0.89 248 18:26 12.10.2021
5312 Clear 23 1018 41 10000 0.89 90 17:35 12.10.2021
5313 Clear 23 1018 44 10000 0.89 12 16:35 12.10.2021
5314 Clear 22 1019 48 10000 0.45 270 15:35 12.10.2021
5315 Clear 21 1020 53 10000 1.79 90 14:25 12.10.2021
5316 Clear 20 1021 58 10000 1.34 158 13:41 12.10.2021
5317 Clear 17 1022 69 10000 1.34 90 11:36 12.10.2021
5318 Clear 12 1021 76 10000 0 0 09:41 12.10.2021
5319 Clear 11 1021 76 10000 1.34 45 08:35 12.10.2021
5320 Clear 12 1021 74 10000 1.34 45 06:49 12.10.2021
5321 Clear 13 1021 72 10000 1.79 45 05:29 12.10.2021
5322 Clear 14 1022 69 10000 0.45 45 04:29 12.10.2021
5323 Clear 17 1009 62 10000 0.89 69 00:18 12.10.2021
5324 Clear 17 1022 59 10000 0.89 72 23:37 11.10.2021
5325 Clear 18 1021 58 10000 0.89 51 22:55 11.10.2021
5326 Clear 19 1021 55 10000 1.34 45 21:41 11.10.2021
5327 Clear 19 1021 54 10000 0.45 23 20:32 11.10.2021
5328 Clear 21 1021 49 10000 0.45 24 19:36 11.10.2021
5329 Clouds 22 1021 47 10000 0.89 68 18:24 11.10.2021
5330 Clouds 22 1021 48 10000 1.79 113 16:48 11.10.2021
5331 Clouds 22 1021 48 10000 2.68 88 16:28 11.10.2021
5332 Clouds 21 1022 51 10000 3.58 90 15:45 11.10.2021
5333 Clouds 21 1009 53 10000 3.13 68 14:54 11.10.2021
5334 Clouds 21 1010 56 10000 3.13 68 14:22 11.10.2021
5335 Clouds 19 1023 60 10000 2.68 90 13:36 11.10.2021
5336 Clear 16 1023 73 10000 1.79 68 11:25 11.10.2021
5337 Clouds 14 1023 72 10000 3.13 45 09:47 11.10.2021
5338 Clear 12 1022 77 10000 0.45 45 08:40 11.10.2021
5339 Clear 15 1022 69 10000 2.24 45 01:47 11.10.2021
5340 Clear 16 1022 67 10000 3.58 45 01:20 11.10.2021
5341 Clear 16 1022 66 10000 1.79 45 00:42 11.10.2021
5342 Clear 18 1021 61 10000 1.34 32 23:35 10.10.2021
5343 Clear 19 1021 57 10000 0.89 47 21:51 10.10.2021
5344 Clear 19 1021 57 10000 0.45 83 21:26 10.10.2021
5345 Clear 20 1021 55 10000 0.45 128 20:41 10.10.2021
5346 Clear 21 1021 52 10000 0.45 113 20:20 10.10.2021
5347 Clear 21 1021 51 10000 0.45 113 19:49 10.10.2021
5348 Clouds 22 1021 47 10000 0.45 90 19:30 10.10.2021
5349 Clouds 23 1021 47 10000 0.89 135 18:23 10.10.2021
5350 Clouds 22 1021 55 10000 0.89 225 15:54 10.10.2021
5351 Clouds 21 1022 57 10000 1.34 45 15:35 10.10.2021
5352 Clouds 19 1023 63 10000 0.45 113 13:41 10.10.2021
5353 Clouds 18 1023 64 10000 0.45 68 12:44 10.10.2021
5354 Clouds 16 1023 64 10000 0.89 45 11:59 10.10.2021
5355 Clouds 14 1023 66 10000 0.89 23 10:31 10.10.2021
5356 Clouds 13 1022 66 10000 0.89 23 09:22 10.10.2021
5357 Clouds 13 1022 66 10000 0.45 45 08:51 10.10.2021
5358 Clouds 12 1009 65 10000 3.13 23 06:19 10.10.2021
5359 Clear 15 1021 51 10000 3.58 45 02:23 10.10.2021
5360 Clear 16 1021 48 10000 4.92 45 00:52 10.10.2021
5361 Clear 17 1021 49 9000 3.13 23 23:52 09.10.2021
5362 Clear 19 1020 45 10000 0.45 293 22:21 09.10.2021
5363 Clear 19 1020 47 10000 0.45 109 21:30 09.10.2021
5364 Clear 19 1020 47 10000 0.45 109 21:30 09.10.2021
5365 Clear 20 1020 40 10000 0.45 135 20:43 09.10.2021
5366 Clear 23 1020 34 10000 0.45 68 19:41 09.10.2021
5367 Clear 24 1019 32 10000 0.45 113 18:51 09.10.2021
5368 Clear 24 1020 33 10000 0.45 0 18:27 09.10.2021
5369 Clear 23 1020 39 10000 0.45 315 16:26 09.10.2021
5370 Clear 21 1021 48 10000 0.45 135 14:48 09.10.2021
5371 Clear 20 1022 53 10000 0.45 23 13:40 09.10.2021
5372 Clear 18 1022 57 10000 1.34 210 12:35 09.10.2021
5373 Clear 19 1022 58 10000 0.45 203 12:35 09.10.2021
5374 Clouds 16 1022 56 10000 0.45 23 11:26 09.10.2021
5375 Clear 14 1021 52 10000 1.79 23 10:21 09.10.2021
5376 Clear 13 1021 53 10000 0.89 45 09:29 09.10.2021
5377 Clear 11 1020 56 10000 1.79 68 08:28 09.10.2021
5378 Clear 13 1020 50 10000 2.24 45 06:47 09.10.2021
5379 Clear 13 1020 49 10000 0.89 68 05:20 09.10.2021
5380 Clear 16 1020 40 10000 2.24 23 02:47 09.10.2021
5381 Clear 18 1020 39 10000 3.58 68 00:43 09.10.2021
5382 Clear 19 1020 41 10000 3.13 45 23:35 08.10.2021
5383 Clear 19 1020 44 10000 1.79 68 22:49 08.10.2021
5384 Clear 20 1019 41 10000 0.45 248 21:47 08.10.2021
5385 Clear 22 1019 37 10000 0.45 248 20:31 08.10.2021
5386 Clear 26 1019 28 10000 1.34 248 18:23 08.10.2021
5387 Clear 25 1019 29 10000 1.34 248 17:18 08.10.2021
5388 Clear 25 1019 28 10000 0.45 248 16:44 08.10.2021
5389 Clear 26 1019 28 10000 1.34 135 16:22 08.10.2021
5390 Clear 23 1021 35 10000 0.89 158 13:48 08.10.2021
5391 Clear 20 1021 45 10000 0.89 113 11:57 08.10.2021
5392 Clear 18 1021 50 10000 1.34 90 10:50 08.10.2021
5393 Clear 17 1021 55 10000 0.89 50 10:25 08.10.2021
5394 Clear 13 1006 62 10000 0.89 38 06:49 08.10.2021
5395 Clear 18 1020 41 10000 0.89 45 23:29 07.10.2021
5396 Clear 18 1020 40 10000 0.89 45 22:56 07.10.2021
5397 Clear 20 1020 36 10000 0.89 270 21:30 07.10.2021
5398 Clear 22 1009 31 10000 1.79 248 20:43 07.10.2021
5399 Clear 25 1009 25 10000 0.45 270 19:39 07.10.2021
5400 Clear 25 1007 23 10000 3.58 248 18:59 07.10.2021
5401 Clear 25 1020 23 10000 0.45 234 17:35 07.10.2021
5402 Clear 25 1021 23 10000 0.45 180 16:42 07.10.2021
5403 Clear 24 1022 30 10000 0.89 68 14:57 07.10.2021
5404 Clear 21 1023 37 10000 1.34 225 13:44 07.10.2021
5405 Clear 20 1023 39 10000 0.45 270 13:20 07.10.2021
5406 Clear 18 1024 46 10000 0.89 38 11:48 07.10.2021
5407 Clear 16 1024 52 10000 0.89 37 10:48 07.10.2021
5408 Clear 16 1024 52 10000 0.89 37 10:48 07.10.2021
5409 Clear 14 1011 62 10000 0.89 90 09:51 07.10.2021
5410 Clear 11 1023 66 10000 2.24 27 08:55 07.10.2021
5411 Clear 11 1023 70 10000 0.89 37 08:25 07.10.2021
5412 Clear 12 1023 67 10000 0.89 66 07:40 07.10.2021
5413 Clear 12 1023 66 9000 0.89 33 06:47 07.10.2021
5414 Clear 16 1024 52 9000 0.45 45 00:59 07.10.2021
5415 Clear 18 1025 52 10000 0.89 45 23:30 06.10.2021
5416 Clear 18 1025 55 10000 0.89 23 22:40 06.10.2021
5417 Clear 19 1024 55 10000 0 0 21:40 06.10.2021
5418 Clear 20 1013 50 10000 1.54 120 20:33 06.10.2021
5419 Clear 23 1013 43 10000 0.45 113 19:26 06.10.2021
5420 Clear 24 1024 42 10000 0.45 338 17:56 06.10.2021
5421 Clear 23 1024 45 10000 0.45 0 16:40 06.10.2021
5422 Clouds 22 1025 50 10000 1.79 270 15:18 06.10.2021
5423 Clear 20 1026 55 10000 0.45 0 13:31 06.10.2021
5424 Clear 19 1026 61 10000 0.45 0 12:47 06.10.2021
5425 Clear 19 1026 61 10000 2.24 45 12:28 06.10.2021
5426 Clear 18 1026 67 10000 2.68 96 11:39 06.10.2021
5427 Clear 15 1025 79 10000 1.34 67 09:45 06.10.2021
5428 Clear 14 1025 83 10000 0.45 90 09:26 06.10.2021
5429 Clear 13 1012 86 10000 0.89 50 08:39 06.10.2021
5430 Clear 14 1009 82 10000 0.45 67 06:18 06.10.2021
5431 Clear 15 1024 78 10000 0.89 45 04:24 06.10.2021
5432 Clear 15 1023 79 10000 0.45 81 04:24 06.10.2021
5433 Clear 17 1024 73 10000 3.13 293 00:24 06.10.2021
5434 Clear 17 1024 71 10000 3.58 315 23:51 05.10.2021
5435 Clear 17 1024 71 10000 3.58 315 23:51 05.10.2021
5436 Clear 17 1024 71 10000 3.58 315 23:51 05.10.2021
5437 Clear 18 1024 69 10000 0.45 293 23:31 05.10.2021
5438 Clear 18 1023 68 10000 2.68 315 22:36 05.10.2021
5439 Clear 19 1010 67 10000 2.24 315 21:57 05.10.2021
5440 Clouds 19 1010 67 10000 1.79 270 21:29 05.10.2021
5441 Clouds 20 1011 63 10000 0.89 270 20:38 05.10.2021
5442 Clouds 20 1011 62 10000 1.79 293 20:18 05.10.2021
5443 Clouds 20 1011 59 10000 1.34 270 19:25 05.10.2021
5444 Clouds 21 1021 58 10000 3.13 293 18:21 05.10.2021
5445 Clouds 22 1022 51 10000 3.58 315 15:39 05.10.2021
5446 Clouds 20 1022 58 10000 4.47 270 13:55 05.10.2021
5447 Clouds 20 1023 60 10000 4.02 270 13:26 05.10.2021
5448 Clouds 18 1023 63 10000 2.68 270 12:35 05.10.2021
5449 Clouds 16 1023 65 10000 0.89 225 11:41 05.10.2021
5450 Clouds 14 1022 70 10000 1.34 248 10:38 05.10.2021
5451 Clouds 11 1009 77 10000 0.89 149 08:36 05.10.2021
5452 Clear 12 1022 67 10000 3.58 270 01:47 05.10.2021
5453 Clear 14 1022 60 10000 1.79 293 23:39 04.10.2021
5454 Clear 15 1009 51 10000 2.24 292 21:42 04.10.2021
5455 Clear 19 1020 33 10000 3.13 270 18:54 04.10.2021
5456 Clouds 19 1020 32 10000 0.45 270 17:44 04.10.2021
5457 Clouds 18 1021 38 10000 3.58 293 15:59 04.10.2021
5458 Clouds 18 1021 40 10000 1.34 293 15:29 04.10.2021
5459 Clear 17 1022 44 10000 1.79 225 14:34 04.10.2021
5460 Clear 16 1022 50 10000 1.79 248 13:47 04.10.2021
5461 Clear 15 1022 55 10000 1.79 225 12:51 04.10.2021
5462 Clear 12 1022 66 10000 1.34 293 11:34 04.10.2021
5463 Clear 11 1022 72 10000 2.68 248 10:47 04.10.2021
5464 Clear 10 1007 78 10000 3.13 293 09:47 04.10.2021
5465 Clear 9 1006 81 10000 0.89 248 08:30 04.10.2021
5466 Clear 9 1020 78 10000 1.34 248 06:51 04.10.2021
5467 Clouds 13 1018 56 10000 1.79 23 23:41 03.10.2021
5468 Clouds 14 1018 49 10000 1.79 23 22:32 03.10.2021
5469 Clear 15 1004 49 10000 1.79 338 21:35 03.10.2021
5470 Clear 15 1004 49 10000 1.34 293 20:50 03.10.2021
5471 Clear 16 1003 58 10000 0.45 293 19:50 03.10.2021
5472 Clouds 17 1012 53 10000 2.68 293 18:30 03.10.2021
5473 Clouds 17 1012 60 10000 4.92 293 17:39 03.10.2021
5474 Drizzle 15 1012 83 10000 6.26 270 15:30 03.10.2021
5475 Mist 15 1012 93 1000 4.92 293 14:35 03.10.2021
5476 Rain 15 1012 93 1000 1.34 248 13:36 03.10.2021
5477 Clouds 15 1012 94 6000 3.58 203 12:50 03.10.2021
5478 Rain 15 1012 92 8000 1.79 225 11:40 03.10.2021
5479 Mist 16 999 87 3000 1.79 225 10:31 03.10.2021
5480 Clouds 16 1011 80 10000 3.58 225 07:39 03.10.2021
5481 Clear 19 1014 53 10000 2.68 203 23:50 02.10.2021
5482 Clear 20 1014 50 10000 4.02 248 22:18 02.10.2021
5483 Clear 22 1014 46 10000 3.58 225 20:34 02.10.2021
5484 Clear 24 1014 36 10000 2.68 248 18:57 02.10.2021
5485 Clear 24 1015 35 10000 1.79 270 18:27 02.10.2021
5486 Clear 24 1015 32 10000 4.02 248 17:38 02.10.2021
5487 Clear 24 1016 35 10000 3.58 203 16:39 02.10.2021
5488 Clear 24 1007 40 10000 2.24 203 14:35 02.10.2021
5489 Clouds 23 1025 48 10000 0.45 270 15:38 30.09.2021
5490 Clear 22 1026 54 10000 0.45 248 14:29 30.09.2021
5491 Clouds 18 1027 60 10000 0.45 45 11:59 30.09.2021
5492 Clouds 17 1027 62 10000 1.79 68 11:23 30.09.2021
5493 Clouds 16 1027 63 10000 0.45 338 10:25 30.09.2021
5494 Clouds 16 1027 63 10000 0.89 45 10:25 30.09.2021
5495 Clouds 15 1027 66 10000 2.24 45 08:32 30.09.2021
5496 Clouds 14 1027 67 10000 1.79 68 07:48 30.09.2021
5497 Clear 14 1027 66 10000 3.58 45 05:25 30.09.2021
5498 Clear 16 1027 62 10000 4.47 23 02:33 30.09.2021
5499 Clear 18 1027 52 10000 4.02 68 00:33 30.09.2021
5500 Clear 19 1027 47 10000 2.68 45 22:42 29.09.2021
5501 Clear 20 1026 42 10000 0.45 23 21:42 29.09.2021
5502 Clear 22 1015 37 10000 0.45 45 20:31 29.09.2021
5503 Clear 23 1015 35 10000 1.79 68 19:59 29.09.2021
5504 Clear 24 1015 33 10000 1.34 315 19:22 29.09.2021
5505 Clear 24 1025 33 10000 0.45 68 18:18 29.09.2021
5506 Clouds 24 1026 33 10000 0.45 68 16:55 29.09.2021
5507 Clouds 24 1026 36 10000 1.79 111 16:25 29.09.2021
5508 Clouds 23 1027 40 10000 0.45 68 15:24 29.09.2021
5509 Clouds 23 1027 42 10000 0.45 90 14:36 29.09.2021
5510 Clear 22 1027 46 10000 0.89 113 13:33 29.09.2021
5511 Clear 20 1027 53 10000 0.45 68 12:38 29.09.2021
5512 Clear 18 1027 61 10000 0.45 45 11:18 29.09.2021
5513 Clear 17 1027 64 10000 0.45 45 10:27 29.09.2021
5514 Clear 16 1015 73 10000 1.34 23 09:40 29.09.2021
5515 Clear 14 1013 75 10000 0.89 46 07:48 29.09.2021
5516 Clear 15 1024 69 10000 0.89 51 05:52 29.09.2021
5517 Clear 19 1024 55 10000 0.45 315 23:59 28.09.2021
5518 Clear 20 1023 42 10000 2.24 293 22:25 28.09.2021
5519 Clear 20 1023 39 10000 3.13 270 21:46 28.09.2021
5520 Clear 22 1022 37 10000 2.24 270 20:48 28.09.2021
5521 Clear 24 1022 33 10000 1.79 248 19:48 28.09.2021
5522 Clear 24 1021 32 10000 1.34 248 19:25 28.09.2021
5523 Clear 25 1021 32 10000 3.13 248 18:40 28.09.2021
5524 Clear 24 1021 40 10000 4.02 270 16:43 28.09.2021
5525 Clear 25 1011 41 10000 1.34 270 14:53 28.09.2021
5526 Clear 23 1023 47 10000 1.79 203 13:25 28.09.2021
5527 Clear 21 1023 54 10000 1.79 180 12:24 28.09.2021
5528 Clear 21 1023 54 10000 1.79 180 12:24 28.09.2021
5529 Clear 20 1023 60 10000 0.45 90 11:47 28.09.2021
5530 Clear 19 1023 64 10000 0.89 113 11:25 28.09.2021
5531 Clear 17 1023 71 10000 0.89 113 10:27 28.09.2021
5532 Clear 15 1022 77 10000 1.34 38 09:29 28.09.2021
5533 Clear 14 1022 81 10000 1.34 68 08:43 28.09.2021
5534 Clear 14 1022 81 10000 1.34 45 07:55 28.09.2021
5535 Clear 15 1022 80 10000 0.89 45 06:25 28.09.2021
5536 Clear 17 1023 62 10000 0.45 68 01:31 28.09.2021
5537 Clear 18 1024 53 10000 0.89 49 00:28 28.09.2021
5538 Clear 19 1024 51 10000 0.45 14 23:48 27.09.2021
5539 Clear 19 1024 52 10000 0.45 225 23:24 27.09.2021
5540 Clear 20 1023 47 10000 0.45 276 22:20 27.09.2021
5541 Clear 20 1023 46 10000 0.45 248 22:20 27.09.2021
5542 Clear 22 1012 46 10000 0.89 248 20:54 27.09.2021
5543 Clear 23 1012 43 10000 0.89 225 20:26 27.09.2021
5544 Clear 24 1022 38 10000 0.89 225 19:37 27.09.2021
5545 Clear 25 1022 36 10000 1.34 270 18:52 27.09.2021
5546 Clear 25 1023 39 10000 0.89 315 17:41 27.09.2021
5547 Clear 25 1023 38 10000 0.89 248 16:56 27.09.2021
5548 Clear 25 1023 40 10000 0.45 248 16:34 27.09.2021
5549 Clear 24 1023 44 10000 0.45 248 15:37 27.09.2021
5550 Clear 22 1024 53 10000 2.24 203 13:49 27.09.2021
5551 Clear 19 1025 67 10000 0.45 203 12:22 27.09.2021
5552 Clear 17 1024 74 10000 0.89 115 10:50 27.09.2021
5553 Clear 15 1023 83 10000 0.51 0 09:42 27.09.2021
5554 Clear 14 1023 88 10000 0.45 180 07:54 27.09.2021
5555 Clear 16 1023 72 10000 1.79 225 03:34 27.09.2021
5556 Clear 18 1023 60 10000 1.34 225 23:53 26.09.2021
5557 Clear 19 1023 58 10000 2.24 248 21:59 26.09.2021
5558 Clear 20 1022 56 10000 2.68 248 21:27 26.09.2021
5559 Clear 21 1022 52 10000 1.79 225 20:30 26.09.2021
5560 Clear 22 1011 50 10000 3.13 203 19:54 26.09.2021
5561 Clear 23 1011 48 10000 2.68 203 19:26 26.09.2021
5562 Clear 23 1011 48 10000 2.24 203 19:26 26.09.2021
5563 Clear 23 1011 48 10000 2.68 203 19:26 26.09.2021
5564 Clear 23 1011 48 10000 2.24 203 19:26 26.09.2021
5565 Clear 23 1011 48 10000 2.24 203 19:26 26.09.2021
5566 Clear 23 1011 48 10000 2.68 203 19:26 26.09.2021
5567 Clear 23 1011 48 10000 2.24 203 19:26 26.09.2021
5568 Clear 23 1011 48 10000 2.24 203 19:26 26.09.2021
5569 Clear 23 1011 48 10000 2.68 203 19:26 26.09.2021
5570 Clear 23 1011 46 10000 1.34 270 18:41 26.09.2021
5571 Clouds 23 1022 45 10000 2.24 203 17:48 26.09.2021
5572 Clouds 23 1022 46 10000 1.34 180 17:20 26.09.2021
5573 Clouds 23 1022 48 10000 0.89 270 16:23 26.09.2021
5574 Clouds 23 1023 49 10000 1.79 203 15:47 26.09.2021
5575 Clouds 21 1023 54 10000 2.68 158 14:23 26.09.2021
5576 Clouds 21 1024 58 10000 2.24 180 13:43 26.09.2021
5577 Clouds 19 1024 68 10000 1.34 135 12:31 26.09.2021
5578 Clear 18 1024 74 10000 2.24 270 11:56 26.09.2021
5579 Clear 17 1024 76 10000 0.89 248 11:32 26.09.2021
5580 Clear 15 1023 87 10000 0.45 293 09:52 26.09.2021
5581 Clear 13 1022 96 10000 0.89 270 08:52 26.09.2021
5582 Clear 16 1021 79 10000 2.24 225 01:28 26.09.2021
5583 Clear 17 1021 75 10000 2.68 248 00:20 26.09.2021
5584 Clouds 18 1021 72 10000 2.68 270 22:42 25.09.2021
5585 Clouds 18 1021 71 10000 2.24 248 22:23 25.09.2021
5586 Clear 18 1020 67 10000 3.13 248 21:47 25.09.2021
5587 Clouds 19 1008 63 10000 2.24 270 20:53 25.09.2021
5588 Clouds 20 1008 57 10000 3.13 203 19:53 25.09.2021
5589 Clouds 21 1008 54 10000 3.58 203 18:39 25.09.2021
5590 Clouds 21 1019 51 10000 4.47 203 17:46 25.09.2021
5591 Clouds 20 1020 57 10000 4.92 248 14:49 25.09.2021
5592 Clouds 19 1020 66 10000 3.58 225 13:56 25.09.2021
5593 Clouds 18 1020 71 10000 4.02 180 12:48 25.09.2021
5594 Clouds 17 1019 76 10000 1.79 203 11:38 25.09.2021
5595 Clear 16 1019 84 10000 2.24 225 10:21 25.09.2021
5596 Clouds 15 1018 87 10000 1.79 248 09:24 25.09.2021
5597 Clouds 15 1003 91 10000 2.24 248 07:50 25.09.2021
5598 Clouds 18 1017 95 10000 0.45 113 00:59 25.09.2021
5599 Rain 18 1017 92 8000 0.45 48 23:33 24.09.2021
5600 Clear 18 1016 90 10000 0.45 90 21:39 24.09.2021
5601 Clouds 19 1003 89 10000 0.45 45 20:32 24.09.2021
5602 Thunderstorm 20 1003 85 10000 0.45 315 19:43 24.09.2021
5603 Rain 21 1015 80 10000 1.79 338 18:30 24.09.2021
5604 Clouds 21 1015 78 10000 2.24 270 17:53 24.09.2021
5605 Clouds 20 1015 83 10000 4.12 260 17:35 24.09.2021
5606 Clouds 22 1015 79 10000 1.34 258 16:35 24.09.2021
5607 Clouds 22 1017 68 10000 4.92 113 13:41 24.09.2021
5608 Clouds 21 1017 71 10000 5.36 135 12:44 24.09.2021
5609 Clouds 21 1017 71 10000 4.02 90 12:26 24.09.2021
5610 Clouds 19 1017 77 10000 1.79 90 11:28 24.09.2021
5611 Clouds 17 1004 85 10000 2.24 113 09:59 24.09.2021
5612 Clouds 16 1004 87 10000 1.79 45 08:24 24.09.2021
5613 Clouds 17 1016 87 10000 2.24 90 07:31 24.09.2021
5614 Clouds 17 1017 88 10000 1.34 68 06:24 24.09.2021
5615 Clouds 17 1017 85 10000 1.79 68 04:52 24.09.2021
5616 Clouds 20 1018 71 10000 1.34 135 22:44 23.09.2021
5617 Rain 22 1005 59 10000 4.47 135 21:59 23.09.2021
5618 Rain 22 1004 57 10000 3.13 158 21:37 23.09.2021
5619 Rain 23 1005 52 10000 2.68 113 20:32 23.09.2021
5620 Clouds 24 1016 48 10000 1.34 113 18:56 23.09.2021
5621 Clouds 24 1017 48 10000 3.58 113 16:49 23.09.2021
5622 Clouds 23 1018 54 10000 1.34 23 15:20 23.09.2021
5623 Clouds 23 1018 54 10000 3.58 90 14:58 23.09.2021
5624 Clouds 21 1019 60 10000 3.13 90 13:40 23.09.2021
5625 Clouds 21 1020 61 10000 2.24 68 13:18 23.09.2021
5626 Clouds 20 1020 65 10000 3.13 45 12:46 23.09.2021
5627 Clouds 19 1020 67 10000 4.92 23 12:21 23.09.2021
5628 Clouds 18 1007 75 10000 3.58 68 11:20 23.09.2021
5629 Clouds 16 1007 79 10000 2.24 68 10:19 23.09.2021
5630 Clouds 15 1007 80 10000 4.02 45 09:48 23.09.2021
5631 Clouds 15 1019 82 10000 2.68 68 06:49 23.09.2021
5632 Clear 15 1020 83 10000 2.24 45 01:18 23.09.2021
5633 Drizzle 17 1007 69 10000 3.58 68 22:58 22.09.2021
5634 Clouds 18 1007 63 10000 2.24 45 22:23 22.09.2021
5635 Clouds 19 1018 59 10000 2.06 100 21:46 22.09.2021
5636 Clouds 19 1018 60 10000 3.13 77 21:46 22.09.2021
5637 Rain 20 1018 54 10000 1.54 70 20:59 22.09.2021
5638 Clouds 20 1000 55 10000 1.03 0 20:38 22.09.2021
5639 Clouds 21 1018 50 10000 1.34 113 19:27 22.09.2021
5640 Clouds 21 1018 50 10000 0.45 113 18:36 22.09.2021
5641 Clouds 21 1019 52 10000 0.45 90 17:39 22.09.2021
5642 Clouds 20 1019 54 10000 0.45 45 16:36 22.09.2021
5643 Clouds 17 1021 71 10000 4.47 45 14:37 22.09.2021
5644 Clouds 14 1022 80 10000 2.24 45 13:24 22.09.2021
5645 Clouds 14 1009 78 10000 1.79 90 11:34 22.09.2021
5646 Clouds 14 1009 73 10000 1.79 90 10:18 22.09.2021
5647 Clouds 13 1021 73 10000 4.92 45 08:52 22.09.2021
5648 Clouds 13 1021 72 10000 3.58 68 07:49 22.09.2021
5649 Clear 13 1021 70 10000 4.92 45 06:57 22.09.2021
5650 Clear 14 1021 68 10000 2.68 45 05:51 22.09.2021
5651 Clear 14 1021 68 10000 3.13 68 05:23 22.09.2021
5652 Clear 15 1022 62 10000 4.47 68 03:43 22.09.2021
5653 Clear 16 1023 52 10000 4.47 68 00:20 22.09.2021
5654 Clear 18 1010 45 10000 5.81 68 22:43 21.09.2021
5655 Clear 19 1009 41 10000 4.92 68 21:31 21.09.2021
5656 Clear 21 1021 32 10000 1.34 45 19:39 21.09.2021
5657 Clear 22 1021 32 10000 3.13 113 19:20 21.09.2021
5658 Clear 22 1021 34 10000 3.13 90 16:59 21.09.2021
5659 Clear 22 1022 35 10000 1.79 90 16:29 21.09.2021
5660 Clear 21 1022 37 10000 2.24 68 15:31 21.09.2021
5661 Clear 20 1023 39 10000 6.26 45 14:56 21.09.2021
5662 Clear 20 1023 39 10000 6.26 45 14:56 21.09.2021
5663 Clear 19 1023 41 10000 6.26 68 13:40 21.09.2021
5664 Clear 18 1023 42 10000 5.36 68 13:19 21.09.2021
5665 Clear 15 1023 46 10000 5.71 52 11:21 21.09.2021
5666 Clear 13 1024 61 10000 2.06 40 09:54 21.09.2021
5667 Clear 11 1023 64 10000 2.57 30 07:51 21.09.2021
5668 Clear 12 1023 63 10000 2.57 30 06:38 21.09.2021
5669 Clear 16 1023 56 10000 3.6 0 23:58 20.09.2021
5670 Clear 17 1022 51 10000 4.63 0 22:18 20.09.2021
5671 Clear 19 1021 41 10000 4.12 360 21:36 20.09.2021
5672 Clear 21 1020 37 10000 3.6 20 20:29 20.09.2021
5673 Clear 22 1020 36 10000 4.92 0 19:29 20.09.2021
5674 Clouds 24 1020 37 10000 0.89 90 17:40 20.09.2021
5675 Clouds 24 1020 38 10000 0.89 45 16:43 20.09.2021
5676 Clouds 24 1021 38 10000 3.13 68 15:49 20.09.2021
5677 Clouds 23 1021 39 10000 2.68 113 15:49 20.09.2021
5678 Clouds 23 1021 39 10000 0.89 135 15:23 20.09.2021
5679 Clear 22 1022 46 10000 2.68 68 13:45 20.09.2021
5680 Clear 20 1022 52 10000 1.34 113 12:35 20.09.2021
5681 Clear 20 1022 52 10000 3.13 45 12:35 20.09.2021
5682 Clear 18 1010 60 10000 3.13 90 11:23 20.09.2021
5683 Clear 16 1009 65 10000 4.02 68 09:59 20.09.2021
5684 Clear 15 1009 66 10000 4.92 45 09:36 20.09.2021
5685 Clear 15 1009 67 10000 4.02 45 09:18 20.09.2021
5686 Clear 15 1021 59 10000 0.89 68 06:55 20.09.2021
5687 Clear 19 1021 47 10000 0.89 315 23:49 19.09.2021
5688 Clear 20 1008 45 10000 0.45 270 22:26 19.09.2021
5689 Clear 20 1008 45 10000 0.45 270 22:26 19.09.2021
5690 Clear 21 1008 41 10000 0.89 270 21:40 19.09.2021
5691 Clear 23 1009 35 10000 0.45 270 20:43 19.09.2021
5692 Clear 24 1020 30 10000 0.89 315 19:31 19.09.2021
5693 Clear 25 1020 28 10000 0.45 113 18:29 19.09.2021
5694 Clear 24 1020 29 10000 0.45 113 17:23 19.09.2021
5695 Clear 24 1021 31 10000 1.34 283 15:59 19.09.2021
5696 Clear 23 1021 34 10000 1.79 113 15:30 19.09.2021
5697 Clear 23 1021 34 10000 1.79 113 15:30 19.09.2021
5698 Clear 22 1022 36 10000 0.45 225 14:48 19.09.2021
5699 Clear 20 1022 43 10000 0.45 315 13:24 19.09.2021
5700 Clear 20 1022 46 10000 1.34 45 12:50 19.09.2021
5701 Clear 17 1022 59 10000 1.34 23 11:28 19.09.2021
5702 Clear 16 1022 63 10000 0.45 113 10:53 19.09.2021
5703 Clear 14 1009 67 10000 1.79 23 09:40 19.09.2021
5704 Clear 13 1008 69 10000 3.13 68 08:35 19.09.2021
5705 Clear 14 1020 60 10000 1.79 90 06:42 19.09.2021
5706 Clear 18 1019 38 10000 1.34 58 23:43 18.09.2021
5707 Clear 20 1018 34 10000 2.68 338 22:31 18.09.2021
5708 Clear 21 1006 36 10000 2.68 315 20:56 18.09.2021
5709 Clear 22 1006 35 10000 4.47 315 20:36 18.09.2021
5710 Clear 23 1005 33 10000 5.36 293 19:40 18.09.2021
5711 Clear 24 1005 32 10000 2.68 338 19:20 18.09.2021
5712 Clear 25 1016 34 10000 5.36 315 18:32 18.09.2021
5713 Clouds 25 1016 38 10000 4.47 315 17:34 18.09.2021
5714 Clouds 25 1016 38 10000 4.02 248 16:24 18.09.2021
5715 Clouds 24 1016 50 10000 2.68 248 13:49 18.09.2021
5716 Clouds 23 1017 53 10000 4.47 225 13:29 18.09.2021
5717 Clear 22 1017 57 10000 3.13 270 12:49 18.09.2021
5718 Clear 21 1016 67 10000 0.89 225 11:41 18.09.2021
5719 Clear 20 1016 71 10000 0.45 5 10:33 18.09.2021
5720 Clear 18 1016 74 10000 1.34 80 09:48 18.09.2021
5721 Clear 17 1001 82 10000 1.34 78 09:19 18.09.2021
5722 Clear 17 1015 78 10000 1.03 0 05:51 18.09.2021
5723 Clouds 21 1016 69 10000 1.34 293 00:42 18.09.2021
5724 Clouds 21 1016 67 10000 4.47 315 23:50 17.09.2021
5725 Clear 23 1016 57 10000 1.34 293 22:40 17.09.2021
5726 Clear 23 1016 56 10000 0.89 293 22:20 17.09.2021
5727 Clear 23 1015 53 10000 1.34 270 21:23 17.09.2021
5728 Clear 25 1002 44 10000 3.13 270 19:26 17.09.2021
5729 Clouds 26 1016 42 10000 3.13 270 17:29 17.09.2021
5730 Clouds 26 1016 42 10000 3.13 248 16:27 17.09.2021
5731 Clear 24 1018 49 10000 0.45 158 14:23 17.09.2021
5732 Clear 21 1019 69 10000 0.45 248 11:30 17.09.2021
5733 Clear 16 1017 87 10000 0.89 23 08:54 17.09.2021
5734 Clear 16 1017 86 10000 1.79 68 07:33 17.09.2021
5735 Clear 17 1019 81 10000 1.34 45 03:54 17.09.2021
5736 Clear 20 1020 64 10000 1.34 28 23:35 16.09.2021
5737 Clear 21 1020 61 10000 0.45 45 22:33 16.09.2021
5738 Clouds 21 1019 58 10000 0.45 45 21:52 16.09.2021
5739 Clouds 22 1018 56 10000 0.45 68 21:27 16.09.2021
5740 Clouds 23 1018 51 10000 1.34 23 20:19 16.09.2021
5741 Clouds 24 1006 50 10000 2.68 248 18:24 16.09.2021
5742 Clouds 24 1018 49 10000 1.79 293 17:54 16.09.2021
5743 Clouds 23 1020 54 10000 1.54 170 14:59 16.09.2021
5744 Clouds 23 1019 55 10000 1.34 90 14:26 16.09.2021
5745 Clouds 21 1019 66 10000 1.34 191 12:52 16.09.2021
5746 Clouds 21 1019 71 10000 0.45 68 12:33 16.09.2021
5747 Clouds 19 1019 77 10000 1.34 87 11:28 16.09.2021
5748 Clouds 18 1019 82 10000 0.89 74 10:34 16.09.2021
5749 Clouds 17 1019 85 10000 0.89 90 09:59 16.09.2021
5750 Clear 16 1018 89 10000 0.45 113 08:42 16.09.2021
5751 Clear 17 1000 88 10000 0.89 315 07:36 16.09.2021
5752 Clear 17 997 90 10000 0.89 270 06:47 16.09.2021
5753 Clear 17 996 88 10000 1.03 190 05:57 16.09.2021
5754 Clear 18 1019 83 10000 0.89 248 01:56 16.09.2021
5755 Clear 18 1018 83 10000 0.89 208 00:37 16.09.2021
5756 Clear 19 1018 76 10000 2.24 270 22:47 15.09.2021
5757 Clear 19 1018 76 10000 2.24 270 22:47 15.09.2021
5758 Clear 20 1017 69 10000 1.79 293 21:48 15.09.2021
5759 Clouds 20 1017 68 10000 0.89 270 21:29 15.09.2021
5760 Clouds 21 1006 62 10000 4.02 270 20:22 15.09.2021
5761 Clouds 22 1006 59 10000 1.34 203 19:28 15.09.2021
5762 Clouds 23 1004 57 10000 4.47 270 18:23 15.09.2021
5763 Clouds 22 1016 58 10000 2.68 225 17:23 15.09.2021
5764 Clouds 22 1017 62 10000 4.47 270 15:59 15.09.2021
5765 Clouds 21 1017 69 10000 0.45 248 14:45 15.09.2021
5766 Clouds 20 1017 71 10000 2.24 270 13:55 15.09.2021
5767 Clouds 20 1017 73 10000 2.68 270 13:37 15.09.2021
5768 Clouds 20 1017 73 10000 0.89 158 13:18 15.09.2021
5769 Clouds 18 1017 87 10000 1.79 158 11:52 15.09.2021
5770 Clouds 18 1017 88 10000 2.24 180 11:32 15.09.2021
5771 Clouds 17 1017 91 10000 1.34 158 10:55 15.09.2021
5772 Clouds 16 1016 93 10000 1.34 135 09:30 15.09.2021
5773 Clouds 16 1003 95 10000 2.24 113 08:20 15.09.2021
5774 Clouds 16 1015 93 10000 1.34 90 05:37 15.09.2021
5775 Clear 15 1015 94 10000 0.89 45 23:54 14.09.2021
5776 Rain 16 1015 92 5000 4.02 0 21:42 14.09.2021
5777 Clouds 17 1014 93 1500 0.45 113 20:55 14.09.2021
5778 Clouds 17 1014 91 10000 0.45 180 19:42 14.09.2021
5779 Clouds 18 1014 88 10000 3.13 113 17:45 14.09.2021
5780 Clouds 18 1014 88 10000 4.02 135 17:27 14.09.2021
5781 Rain 17 1016 92 10000 2.24 135 15:37 14.09.2021
5782 Rain 17 1004 90 9000 1.34 158 14:31 14.09.2021
5783 Rain 18 1005 84 10000 4.47 135 12:46 14.09.2021
5784 Clouds 19 1017 69 10000 3.13 158 10:55 14.09.2021
5785 Clouds 19 1016 71 10000 4.02 180 09:51 14.09.2021
5786 Clouds 19 1015 71 10000 3.58 158 08:48 14.09.2021
5787 Clouds 19 1015 82 10000 2.68 135 06:38 14.09.2021
5788 Clear 18 1017 85 10000 1.34 68 00:33 14.09.2021
5789 Rain 19 1017 79 10000 3.13 90 22:53 13.09.2021
5790 Clear 19 1017 79 10000 1.79 68 22:24 13.09.2021
5791 Drizzle 20 1016 77 9000 3.13 68 21:53 13.09.2021
5792 Clear 20 1017 72 10000 1.34 68 20:51 13.09.2021
5793 Drizzle 21 1017 69 9000 3.13 338 19:22 13.09.2021
5794 Rain 22 1017 65 10000 4.92 293 18:43 13.09.2021
5795 Drizzle 21 1017 67 9000 4.02 270 16:51 13.09.2021
5796 Clouds 26 1003 43 10000 3.13 158 15:32 13.09.2021
5797 Clear 25 1018 43 10000 0.45 90 12:54 13.09.2021
5798 Clear 22 1018 54 10000 0.89 173 10:58 13.09.2021
5799 Clear 22 1018 54 10000 0.89 173 10:58 13.09.2021
5800 Clear 21 1017 53 10000 1.34 198 09:41 13.09.2021
5801 Clear 20 1016 52 10000 0.45 90 07:27 13.09.2021
5802 Clear 25 1016 37 10000 1.34 68 23:41 12.09.2021
5803 Clear 26 1015 36 10000 0.45 90 22:25 12.09.2021
5804 Clear 26 1015 36 10000 0.45 113 22:25 12.09.2021
5805 Clear 26 1015 36 10000 0.45 113 22:25 12.09.2021
5806 Clear 26 1015 34 10000 0.45 68 21:37 12.09.2021
5807 Clear 28 1015 30 10000 0.45 80 20:29 12.09.2021
5808 Clear 29 1015 28 10000 0.89 164 19:51 12.09.2021
5809 Clear 30 1015 27 10000 1.79 270 19:20 12.09.2021
5810 Clear 30 1015 26 10000 0.89 225 18:29 12.09.2021
5811 Clear 30 1016 29 10000 0.45 180 16:33 12.09.2021
5812 Clear 29 1017 34 10000 1.34 203 14:56 12.09.2021
5813 Clear 29 1017 35 10000 1.34 203 14:56 12.09.2021
5814 Clear 27 1018 40 10000 0.45 180 13:49 12.09.2021
5815 Clear 23 1019 47 10000 1.34 68 11:31 12.09.2021
5816 Clear 18 1018 58 10000 0.89 68 09:35 12.09.2021
5817 Clear 17 1018 61 10000 3.13 23 08:38 12.09.2021
5818 Clear 19 1019 53 10000 1.34 52 02:22 12.09.2021
5819 Clear 22 1019 45 10000 0.45 321 23:38 11.09.2021
5820 Clear 23 1019 42 10000 0.45 248 21:56 11.09.2021
5821 Clear 25 1018 37 10000 0.89 248 20:59 11.09.2021
5822 Clear 26 1018 34 10000 0.45 248 19:25 11.09.2021
5823 Clear 26 1019 34 10000 4.02 248 17:38 11.09.2021
5824 Clear 26 1007 38 10000 4.47 270 15:51 11.09.2021
5825 Clear 24 1020 49 10000 0.45 203 13:52 11.09.2021
5826 Clear 22 1021 54 10000 1.79 203 13:18 11.09.2021
5827 Clear 20 1021 63 10000 0.45 248 11:20 11.09.2021
5828 Clear 18 1020 67 10000 1.03 0 09:40 11.09.2021
5829 Clear 17 1020 68 10000 1.03 260 07:45 11.09.2021
5830 Clear 17 1020 64 10000 1.79 219 06:52 11.09.2021
5831 Clear 23 1020 46 10000 0.45 248 23:38 10.09.2021
5832 Clear 24 1019 44 10000 3.58 225 22:25 10.09.2021
5833 Clear 24 1019 44 10000 3.13 248 21:54 10.09.2021
5834 Clear 26 1018 40 10000 0.45 270 20:25 10.09.2021
5835 Clouds 27 1007 39 10000 3.58 225 18:28 10.09.2021
5836 Clouds 27 1007 43 10000 4.47 248 16:54 10.09.2021
5837 Clouds 25 1019 47 10000 2.68 270 14:52 10.09.2021
5838 Clouds 23 1020 55 10000 0.45 270 12:43 10.09.2021
5839 Clear 19 1019 69 10000 2.24 270 09:27 10.09.2021
5840 Clear 18 1018 67 10000 3.13 270 07:50 10.09.2021
5841 Clear 21 1018 55 10000 1.79 315 02:31 10.09.2021
5842 Clear 23 1017 47 10000 2.68 270 22:32 09.09.2021
5843 Clear 24 1017 44 10000 0.45 270 21:46 09.09.2021
5844 Clear 25 1017 41 10000 2.68 270 20:47 09.09.2021
5845 Clear 25 1016 39 10000 1.79 270 19:58 09.09.2021
5846 Clear 26 1005 42 10000 4.02 270 18:34 09.09.2021
5847 Clouds 25 1004 48 10000 1.34 248 16:41 09.09.2021
5848 Clouds 25 1017 49 10000 3.58 270 15:51 09.09.2021
5849 Clear 23 1018 56 10000 2.68 248 12:53 09.09.2021
5850 Clear 22 1018 64 10000 0.89 270 11:47 09.09.2021
5851 Clear 20 1017 70 10000 0.89 181 10:25 09.09.2021
5852 Clouds 18 1017 76 10000 1.79 248 08:50 09.09.2021
5853 Clear 19 1002 72 10000 0.45 180 06:26 09.09.2021
5854 Clear 20 1017 63 10000 2.68 270 02:36 09.09.2021
5855 Clear 23 1016 53 10000 2.24 270 22:45 08.09.2021
5856 Clear 24 1016 47 10000 2.24 248 21:35 08.09.2021
5857 Clouds 26 1015 43 10000 4.02 248 19:56 08.09.2021
5858 Clouds 26 1015 41 10000 4.02 248 19:23 08.09.2021
5859 Clouds 27 1004 40 10000 4.02 270 18:29 08.09.2021
5860 Clear 27 1004 40 10000 2.24 203 17:56 08.09.2021
5861 Clear 26 1005 39 10000 4.47 248 16:34 08.09.2021
5862 Clear 25 1017 39 10000 4.47 225 14:30 08.09.2021
5863 Clear 25 1017 39 10000 4.47 225 14:30 08.09.2021
5864 Clear 25 1017 39 10000 4.47 225 14:30 08.09.2021
5865 Clear 24 1017 46 10000 2.24 225 12:54 08.09.2021
5866 Clear 24 1017 48 10000 3.13 225 12:27 08.09.2021
5867 Clear 23 1017 58 10000 0.45 180 11:38 08.09.2021
5868 Clear 21 1017 68 10000 3.58 248 10:38 08.09.2021
5869 Clouds 20 1017 74 10000 2.24 248 10:20 08.09.2021
5870 Clouds 19 1017 75 10000 2.24 225 08:54 08.09.2021
5871 Clear 19 1016 72 10000 4.02 248 07:38 08.09.2021
5872 Clear 20 1003 63 10000 2.68 270 05:34 08.09.2021
5873 Clear 26 1016 44 10000 0.45 293 22:50 07.09.2021
5874 Clear 27 1016 40 10000 2.24 270 21:59 07.09.2021
5875 Clear 31 1015 29 10000 2.68 270 19:54 07.09.2021
5876 Clear 31 1016 26 10000 4.47 270 18:45 07.09.2021
5877 Clear 31 1016 26 10000 3.13 180 18:18 07.09.2021
5878 Clear 31 1016 27 10000 3.13 225 18:18 07.09.2021
5879 Clear 31 1006 28 10000 6.26 203 16:42 07.09.2021
5880 Clear 31 1007 29 10000 5.81 158 15:37 07.09.2021
5881 Clear 29 1019 31 10000 2.24 180 14:42 07.09.2021
5882 Clear 26 1020 40 10000 1.34 135 12:43 07.09.2021
5883 Clear 25 1020 46 10000 1.79 158 11:45 07.09.2021
5884 Clear 23 1019 50 10000 2.24 113 10:41 07.09.2021
5885 Clear 21 1018 56 10000 0.45 158 08:39 07.09.2021
5886 Clear 22 1018 54 10000 0.89 113 07:44 07.09.2021
5887 Clear 23 1006 52 10000 1.34 90 05:41 07.09.2021
5888 Clear 25 1020 43 10000 2.24 113 02:36 07.09.2021
5889 Clear 27 1020 37 10000 3.13 113 00:46 07.09.2021
5890 Clear 27 1020 35 10000 2.68 113 23:34 06.09.2021
5891 Clear 28 1020 34 10000 4.02 135 22:54 06.09.2021
5892 Clear 28 1020 34 10000 2.24 113 22:35 06.09.2021
5893 Clear 29 1019 32 10000 3.13 113 21:25 06.09.2021
5894 Clear 31 1019 29 10000 2.24 113 19:31 06.09.2021
5895 Clear 31 1019 28 10000 3.58 135 18:50 06.09.2021
5896 Clear 31 1019 28 10000 3.58 158 18:23 06.09.2021
5897 Clear 32 1019 30 10000 3.58 113 17:36 06.09.2021
5898 Clear 30 1021 40 10000 4.47 113 15:52 06.09.2021
5899 Clear 27 1022 50 10000 0.89 225 13:48 06.09.2021
5900 Clear 26 1021 54 10000 0.89 68 12:48 06.09.2021
5901 Clear 23 1021 59 10000 0.89 90 10:48 06.09.2021
5902 Clear 22 1021 58 10000 2.24 23 08:35 06.09.2021
5903 Clear 21 1020 57 10000 3.58 68 06:47 06.09.2021
5904 Clear 26 1020 39 10000 0.89 113 23:37 05.09.2021
5905 Clear 27 1020 37 10000 0.45 113 22:50 05.09.2021
5906 Clear 27 1019 36 10000 0.45 113 22:28 05.09.2021
5907 Clear 28 1019 35 10000 0.89 120 21:49 05.09.2021
5908 Clear 30 1018 27 10000 1.34 174 20:33 05.09.2021
5909 Clear 32 1018 26 10000 0.45 225 18:46 05.09.2021
5910 Clear 32 1007 29 10000 1.79 180 17:34 05.09.2021
5911 Clear 30 1019 40 10000 1.79 203 15:28 05.09.2021
5912 Clear 28 1020 48 10000 0.89 113 14:19 05.09.2021
5913 Clear 25 1020 58 10000 1.79 135 12:30 05.09.2021
5914 Clear 23 1020 65 10000 1.34 90 10:55 05.09.2021
5915 Clear 22 1020 64 10000 0.89 68 10:31 05.09.2021
5916 Clear 20 1019 63 10000 2.68 68 09:22 05.09.2021
5917 Clear 18 1019 64 10000 0.89 45 08:21 05.09.2021
5918 Clear 22 1018 49 10000 0.45 68 02:36 05.09.2021
5919 Clear 24 1017 44 10000 0.45 149 00:30 05.09.2021
5920 Clear 24 1017 44 10000 0.45 149 00:30 05.09.2021
5921 Clear 24 1017 44 9000 0.45 180 23:42 04.09.2021
5922 Clear 25 1017 39 10000 0.45 202 22:36 04.09.2021
5923 Clear 25 1017 38 10000 0.45 158 21:58 04.09.2021
5924 Clear 29 1016 28 10000 1.34 293 19:42 04.09.2021
5925 Clear 29 1016 27 10000 2.68 270 18:44 04.09.2021
5926 Clear 29 1006 30 10000 2.24 270 16:26 04.09.2021
5927 Clear 27 1018 41 10000 1.34 158 13:30 04.09.2021
5928 Clear 23 1019 55 10000 0.45 113 11:20 04.09.2021
5929 Clear 19 1018 65 10000 2.24 45 09:25 04.09.2021
5930 Clear 19 1017 64 10000 1.34 68 05:53 04.09.2021
5931 Clear 22 1018 53 10000 0.45 37 00:27 04.09.2021
5932 Clear 23 1018 49 10000 1.34 270 23:32 03.09.2021
5933 Clear 24 1017 44 10000 0.45 248 22:39 03.09.2021
5934 Clear 25 1017 43 10000 0.89 245 21:35 03.09.2021
5935 Clouds 27 1017 37 10000 0.45 225 20:43 03.09.2021
5936 Clouds 27 1017 35 10000 1.79 248 19:56 03.09.2021
5937 Clouds 28 1017 36 10000 1.34 270 19:20 03.09.2021
5938 Clouds 28 1017 37 10000 3.13 270 17:53 03.09.2021
5939 Clouds 27 1006 39 10000 3.58 248 16:38 03.09.2021
5940 Clouds 26 1018 44 10000 3.58 180 14:59 03.09.2021
5941 Clear 23 1020 61 10000 1.79 248 12:26 03.09.2021
5942 Clear 21 1019 72 10000 0.89 180 10:32 03.09.2021
5943 Clear 18 1019 85 10000 0.89 113 08:59 03.09.2021
5944 Clear 16 1019 90 10000 0 0 07:44 03.09.2021
5945 Clear 17 1018 87 10000 0.51 0 05:24 03.09.2021
5946 Clear 19 1019 73 10000 1.54 350 23:20 02.09.2021
5947 Clouds 21 1018 68 10000 3.6 10 21:35 02.09.2021
5948 Clouds 23 1017 59 10000 2.24 49 19:56 02.09.2021
5949 Clouds 23 1018 61 10000 0.89 325 17:33 02.09.2021
5950 Clouds 25 1007 56 10000 0.89 248 15:52 02.09.2021
5951 Clouds 23 1019 64 10000 3.58 113 13:57 02.09.2021
5952 Clouds 21 1019 76 10000 1.34 90 12:55 02.09.2021
5953 Clouds 19 1020 85 10000 2.06 100 11:35 02.09.2021
5954 Clouds 16 1019 93 10000 0.89 113 09:44 02.09.2021
5955 Clear 16 1018 93 10000 2.68 113 07:57 02.09.2021
5956 Clear 16 1018 90 10000 0.45 68 07:18 02.09.2021
5957 Clear 17 1004 87 10000 1.34 45 02:56 02.09.2021
5958 Clear 17 1001 87 10000 2.24 113 02:33 02.09.2021
5959 Clear 17 1018 85 10000 1.34 45 01:28 02.09.2021
5960 Clear 18 1018 81 10000 0.45 19 23:40 01.09.2021
5961 Clouds 18 1018 80 10000 0.45 225 22:40 01.09.2021
5962 Clear 18 1017 83 10000 1.34 135 21:40 01.09.2021
5963 Clouds 19 1016 79 10000 3.13 45 20:39 01.09.2021
5964 Clouds 19 1015 86 10000 3.58 23 18:43 01.09.2021
5965 Thunderstorm 22 1017 75 10000 3.09 260 17:40 01.09.2021
5966 Rain 23 1016 69 10000 2.57 330 16:47 01.09.2021
5967 Clouds 24 993 68 10000 1.34 315 15:29 01.09.2021
5968 Clouds 21 1019 75 10000 1.79 68 12:19 01.09.2021
5969 Clouds 20 1019 78 10000 1.79 45 11:44 01.09.2021
5970 Clouds 17 1018 91 10000 1.34 113 08:48 01.09.2021
5971 Clouds 16 1018 93 10000 0.45 45 07:52 01.09.2021
5972 Rain 19 1018 87 10000 4.47 338 05:23 01.09.2021
5973 Thunderstorm 27 1016 49 10000 3.58 135 22:41 31.08.2021
5974 Clear 29 1014 35 10000 0.51 320 21:27 31.08.2021
5975 Clear 31 1014 30 10000 0.89 158 19:46 31.08.2021
5976 Clear 31 1015 30 10000 0.45 248 18:29 31.08.2021
5977 Clear 30 1015 31 10000 1.34 113 17:38 31.08.2021
5978 Clear 30 1015 31 10000 1.34 113 17:38 31.08.2021
5979 Clear 30 1016 31 10000 3.58 203 17:20 31.08.2021
5980 Clear 30 1016 33 10000 0.89 225 16:24 31.08.2021
5981 Clear 27 1018 47 10000 1.34 113 13:20 31.08.2021
5982 Clear 24 1018 58 10000 0.45 113 11:28 31.08.2021
5983 Clear 23 1018 63 10000 1.34 90 10:52 31.08.2021
5984 Clear 22 1018 63 10000 1.34 23 09:44 31.08.2021
5985 Clear 19 1018 67 10000 0.45 90 08:38 31.08.2021
5986 Clear 20 1017 61 10000 0.89 45 07:35 31.08.2021
5987 Clear 22 1016 52 10000 1.79 90 03:40 31.08.2021
5988 Clear 25 1003 45 10000 3.13 270 23:35 30.08.2021
5989 Clear 27 1014 36 10000 2.68 248 21:45 30.08.2021
5990 Clear 27 1014 35 10000 1.79 225 21:27 30.08.2021
5991 Clear 28 1013 30 10000 2.68 248 20:20 30.08.2021
5992 Clear 29 1013 27 10000 1.79 225 19:29 30.08.2021
5993 Clear 30 1013 26 10000 2.24 225 18:34 30.08.2021
5994 Clear 29 1013 28 10000 1.79 203 17:45 30.08.2021
5995 Clear 29 1014 32 10000 2.24 225 16:22 30.08.2021
5996 Clear 28 1014 35 10000 2.24 270 15:38 30.08.2021
5997 Clear 27 1015 40 10000 4.02 203 13:35 30.08.2021
5998 Clear 25 1015 44 10000 0.45 270 12:24 30.08.2021
5999 Clear 20 1015 60 10000 1.79 225 09:30 30.08.2021
6000 Clear 27 1002 40 10000 2.68 225 22:28 29.08.2021
6001 Clear 28 1013 36 10000 4.02 248 21:32 29.08.2021
6002 Clouds 30 1013 32 10000 2.24 248 19:59 29.08.2021
6003 Clouds 31 1013 31 10000 0.89 293 19:19 29.08.2021
6004 Clear 31 1013 32 10000 4.47 225 17:47 29.08.2021
6005 Clear 30 1014 31 10000 2.68 225 15:47 29.08.2021
6006 Clear 29 1015 30 10000 2.24 255 14:18 29.08.2021
6007 Clear 28 1016 29 10000 2.24 203 13:33 29.08.2021
6008 Clear 26 1016 32 10000 0.45 113 12:32 29.08.2021
6009 Clear 25 1005 35 10000 0.45 338 11:48 29.08.2021
6010 Clear 24 1005 37 10000 0.89 113 10:52 29.08.2021
6011 Clear 23 1005 38 10000 1.34 90 10:33 29.08.2021
6012 Clear 22 1005 39 10000 0.89 23 09:54 29.08.2021
6013 Clear 20 1015 43 10000 0.89 45 06:55 29.08.2021
6014 Clear 25 1003 34 10000 0.89 225 00:21 29.08.2021
6015 Clear 28 1003 25 10000 4.92 248 21:50 28.08.2021
6016 Clear 31 1014 21 10000 4.47 248 19:54 28.08.2021
6017 Clear 32 1014 21 10000 2.24 225 18:28 28.08.2021
6018 Clear 32 1014 22 10000 2.68 180 17:48 28.08.2021
6019 Clear 32 1015 24 10000 3.13 248 16:58 28.08.2021
6020 Clear 31 1016 27 10000 4.02 203 15:33 28.08.2021
6021 Clear 31 1016 31 10000 2.24 225 14:19 28.08.2021
6022 Clear 29 1016 34 10000 2.24 203 13:43 28.08.2021
6023 Clear 28 1017 36 10000 1.34 270 12:41 28.08.2021
6024 Clear 27 1006 38 10000 1.34 135 11:51 28.08.2021
6025 Clear 25 1017 41 10000 0.45 248 10:29 28.08.2021
6026 Clear 20 1004 48 10000 1.34 248 08:38 28.08.2021
6027 Clear 21 1016 40 10000 0.89 177 06:24 28.08.2021
6028 Clear 29 1003 24 10000 0.89 270 22:28 27.08.2021
6029 Clear 32 1015 18 10000 3.13 248 20:56 27.08.2021
6030 Clear 33 1015 17 10000 1.79 225 20:19 27.08.2021
6031 Clear 34 1015 17 10000 3.58 203 18:46 27.08.2021
6032 Clear 34 1015 19 10000 4.02 248 18:28 27.08.2021
6033 Clear 33 1015 21 10000 2.24 158 16:55 27.08.2021
6034 Clear 32 1016 22 10000 3.58 293 15:21 27.08.2021
6035 Clear 32 1016 25 10000 2.24 248 14:41 27.08.2021
6036 Clear 29 1018 38 10000 1.34 158 12:30 27.08.2021
6037 Clear 26 1018 44 10000 0.45 90 11:24 27.08.2021
6038 Clear 25 1017 46 10000 0.89 90 10:42 27.08.2021
6039 Clear 23 1006 49 10000 2.24 45 09:30 27.08.2021
6040 Clear 22 1017 51 10000 1.79 23 08:41 27.08.2021
6041 Clear 22 1016 50 10000 0.89 68 05:53 27.08.2021
6042 Clear 24 1016 47 10000 1.79 23 02:48 27.08.2021
6043 Clear 26 1016 42 10000 0.45 6 00:31 27.08.2021
6044 Clear 27 1004 40 10000 0.89 45 22:29 26.08.2021
6045 Clear 28 1004 39 10000 0.89 45 21:57 26.08.2021
6046 Clear 30 1015 33 10000 1.79 315 20:18 26.08.2021
6047 Clouds 30 1015 34 10000 1.34 338 18:49 26.08.2021
6048 Clouds 31 1016 31 10000 1.34 270 17:44 26.08.2021
6049 Clear 32 1016 31 10000 1.34 225 16:32 26.08.2021
6050 Clear 32 1016 32 10000 1.79 203 15:54 26.08.2021
6051 Clear 29 1018 45 10000 0.89 225 13:33 26.08.2021
6052 Clear 28 1018 47 10000 1.34 203 12:49 26.08.2021
6053 Clear 26 1007 55 10000 0.89 135 11:56 26.08.2021
6054 Clear 23 1004 57 10000 1.34 90 09:43 26.08.2021
6055 Clear 21 1017 59 10000 1.79 68 08:33 26.08.2021
6056 Clear 24 1015 51 10000 0.45 203 01:30 26.08.2021
6057 Clear 25 1003 46 10000 3.58 203 22:47 25.08.2021
6058 Clear 26 1003 47 10000 1.79 203 22:28 25.08.2021
6059 Clear 27 1003 48 10000 0.45 225 20:58 25.08.2021
6060 Clear 28 1014 44 10000 1.34 270 20:31 25.08.2021
6061 Clear 28 1013 40 10000 2.24 270 19:55 25.08.2021
6062 Clear 28 1013 46 10000 1.79 241 18:32 25.08.2021
6063 Rain 29 1014 39 10000 2.68 236 17:19 25.08.2021
6064 Clear 30 1014 35 10000 3.13 135 15:42 25.08.2021
6065 Clear 29 1015 39 10000 3.58 203 14:47 25.08.2021
6066 Clear 28 1015 44 10000 1.79 225 13:59 25.08.2021
6067 Clear 26 1015 51 10000 3.58 203 12:53 25.08.2021
6068 Clear 24 1015 60 10000 0.89 135 11:25 25.08.2021
6069 Clear 24 1015 60 10000 0.45 135 11:25 25.08.2021
6070 Clear 22 1015 66 10000 1.34 45 10:26 25.08.2021
6071 Clear 21 1015 71 10000 1.34 23 09:43 25.08.2021
6072 Clear 19 1015 76 10000 1.79 135 08:40 25.08.2021
6073 Clear 20 1015 73 10000 0.89 133 07:43 25.08.2021
6074 Clouds 24 1015 49 10000 2.24 90 01:26 25.08.2021
6075 Clear 25 1001 46 10000 3.58 135 23:40 24.08.2021
6076 Clear 30 1012 35 10000 1.54 340 21:41 24.08.2021
6077 Clear 31 1011 30 10000 1.54 340 20:38 24.08.2021
6078 Clear 31 1012 30 10000 3.13 315 19:44 24.08.2021
6079 Clear 32 1013 29 10000 0.89 90 17:57 24.08.2021
6080 Clear 31 1013 32 10000 1.34 203 17:22 24.08.2021
6081 Clear 31 1014 34 10000 2.24 135 16:38 24.08.2021
6082 Clouds 28 1015 46 10000 3.09 100 14:24 24.08.2021
6083 Clear 27 1016 45 10000 1.79 90 12:45 24.08.2021
6084 Clear 24 1005 51 10000 1.79 23 11:25 24.08.2021
6085 Clear 24 1005 51 10000 2.24 113 10:47 24.08.2021
6086 Clear 23 1005 53 10000 1.34 90 10:25 24.08.2021
6087 Clouds 20 1005 60 10000 3.13 45 08:39 24.08.2021
6088 Clear 21 1017 58 10000 2.68 68 06:35 24.08.2021
6089 Clear 23 1017 50 10000 3.58 45 03:49 24.08.2021
6090 Clear 27 1017 35 10000 0.89 165 23:59 23.08.2021
6091 Clear 28 1016 32 10000 1.34 90 22:51 23.08.2021
6092 Clear 29 1002 30 10000 4.92 45 21:52 23.08.2021
6093 Rain 30 1015 25 10000 3.58 30 20:25 23.08.2021
6094 Clouds 35 1015 19 10000 4.92 0 18:39 23.08.2021
6095 Clouds 36 1016 18 10000 2.24 90 16:29 23.08.2021
6096 Clear 33 1018 25 10000 2.24 90 13:58 23.08.2021
6097 Clear 31 1019 29 10000 0.89 113 12:34 23.08.2021
6098 Clear 28 1019 34 10000 1.34 90 11:24 23.08.2021
6099 Clear 26 1020 42 10000 0.45 45 10:36 23.08.2021
6100 Clear 24 1008 50 10000 1.34 113 09:24 23.08.2021
6101 Clear 23 1009 50 10000 1.34 68 07:54 23.08.2021
6102 Clear 24 1020 47 10000 1.79 68 06:47 23.08.2021
6103 Clear 25 1020 45 10000 2.68 45 04:46 23.08.2021
6104 Clear 29 1020 30 10000 1.54 220 00:48 23.08.2021
6105 Clear 31 1019 27 10000 0.45 248 22:44 22.08.2021
6106 Clear 32 1006 24 10000 0.45 248 21:58 22.08.2021
6107 Clear 35 1007 18 10000 0.45 270 20:21 22.08.2021
6108 Clear 36 1019 18 10000 3.13 248 18:54 22.08.2021
6109 Clear 35 1020 19 10000 1.79 135 16:27 22.08.2021
6110 Clear 34 1021 19 10000 0.89 225 14:55 22.08.2021
6111 Clear 33 1021 23 10000 1.34 135 14:34 22.08.2021
6112 Clear 30 1022 28 10000 1.79 135 13:20 22.08.2021
6113 Clear 30 1022 28 10000 1.79 135 13:20 22.08.2021
6114 Clear 30 1022 28 10000 1.79 135 13:20 22.08.2021
6115 Clear 30 1022 30 10000 0.89 113 12:50 22.08.2021
6116 Clear 28 1022 33 10000 2.24 90 11:55 22.08.2021
6117 Clear 27 1022 34 10000 1.34 90 11:33 22.08.2021
6118 Clear 24 1022 31 10000 0.89 68 09:59 22.08.2021
6119 Clear 20 1010 34 10000 1.34 45 07:59 22.08.2021
6120 Clear 22 1021 28 10000 2.24 18 04:46 22.08.2021
6121 Clear 29 1005 17 10000 1.79 270 22:49 21.08.2021
6122 Clear 29 1007 17 10000 1.79 270 22:25 21.08.2021
6123 Clear 34 1019 14 10000 3.58 203 19:22 21.08.2021
6124 Clear 34 1019 15 10000 3.58 203 19:22 21.08.2021
6125 Clear 34 1019 15 10000 3.58 203 18:39 21.08.2021
6126 Clear 34 1019 16 10000 6.26 225 17:48 21.08.2021
6127 Clear 34 1019 17 10000 3.13 270 16:50 21.08.2021
6128 Clear 33 1020 19 10000 3.13 203 15:51 21.08.2021
6129 Clear 33 1020 20 10000 2.24 180 15:26 21.08.2021
6130 Clear 31 1020 21 10000 4.47 180 14:20 21.08.2021
6131 Clear 29 1021 22 10000 0.45 225 12:43 21.08.2021
6132 Clear 28 1020 26 10000 0.45 90 12:23 21.08.2021
6133 Clear 23 1009 34 10000 0.45 65 09:21 21.08.2021
6134 Clear 25 1018 29 10000 1.79 270 01:39 21.08.2021
6135 Clear 29 1016 24 10000 2.68 270 22:41 20.08.2021
6136 Clear 32 1004 20 10000 1.79 225 20:47 20.08.2021
6137 Clear 33 1016 19 10000 3.58 248 17:46 20.08.2021
6138 Clear 32 1016 23 10000 2.68 225 15:42 20.08.2021
6139 Clear 28 1017 42 10000 0.45 248 13:23 20.08.2021
6140 Clear 26 1017 56 10000 1.34 113 11:32 20.08.2021
6141 Clear 24 1017 63 10000 2.68 90 10:37 20.08.2021
6142 Clear 22 1017 68 10000 1.79 113 09:29 20.08.2021
6143 Clear 21 1004 71 10000 0.89 113 08:40 20.08.2021
6144 Clear 21 999 73 10000 3.58 113 06:22 20.08.2021
6145 Clear 23 1016 61 10000 1.34 135 04:21 20.08.2021
6146 Clear 27 1015 26 10000 0.89 68 00:18 20.08.2021
6147 Clear 28 1014 26 10000 2.68 248 22:39 19.08.2021
6148 Clear 29 1013 24 10000 1.34 270 22:18 19.08.2021
6149 Clear 32 1001 19 10000 3.13 225 20:23 19.08.2021
6150 Clear 33 1013 19 10000 1.79 180 18:57 19.08.2021
6151 Clear 33 1013 20 10000 3.13 225 17:18 19.08.2021
6152 Clear 32 1014 25 10000 1.79 158 15:40 19.08.2021
6153 Clear 29 1015 37 10000 0.89 135 13:19 19.08.2021
6154 Clear 27 1015 47 10000 0.45 68 12:31 19.08.2021
6155 Clear 25 1015 59 10000 1.79 90 11:21 19.08.2021
6156 Clear 22 1016 62 10000 1.34 90 09:50 19.08.2021
6157 Clear 22 1016 64 10000 1.79 68 09:30 19.08.2021
6158 Clear 21 1002 62 10000 1.34 90 08:54 19.08.2021
6159 Clear 21 1015 56 10000 1.79 45 06:32 19.08.2021
6160 Clear 25 1016 33 10000 4.02 45 02:22 19.08.2021
6161 Clear 26 1016 29 10000 4.47 68 01:41 19.08.2021
6162 Clear 28 1014 21 10000 1.34 310 22:42 18.08.2021
6163 Clear 30 1014 19 10000 0.89 225 21:39 18.08.2021
6164 Clear 33 1003 17 10000 2.68 270 20:27 18.08.2021
6165 Clear 33 1003 17 10000 1.79 203 19:31 18.08.2021
6166 Clear 33 1004 18 10000 3.13 242 18:46 18.08.2021
6167 Clear 33 1015 20 10000 3.13 248 17:29 18.08.2021
6168 Clear 32 1016 29 10000 1.79 203 15:46 18.08.2021
6169 Clear 31 1017 34 10000 3.13 270 15:23 18.08.2021
6170 Clear 29 1018 45 10000 0.45 45 13:40 18.08.2021
6171 Clear 27 1019 49 10000 0.89 90 12:42 18.08.2021
6172 Clear 26 1019 50 10000 1.34 135 12:24 18.08.2021
6173 Clear 21 1007 44 10000 1.34 45 09:44 18.08.2021
6174 Clear 19 1020 45 10000 3.13 68 06:29 18.08.2021
6175 Clear 25 1020 27 9000 2.24 68 00:42 18.08.2021
6176 Clear 28 1019 20 10000 1.79 45 22:29 17.08.2021
6177 Clear 30 1019 18 10000 2.24 293 21:26 17.08.2021
6178 Clear 32 1005 17 10000 0.45 90 20:43 17.08.2021
6179 Clear 33 1008 18 10000 0.89 203 18:56 17.08.2021
6180 Clear 32 1019 19 10000 0.89 45 17:27 17.08.2021
6181 Clear 32 1020 20 10000 0.45 180 16:34 17.08.2021
6182 Clear 30 1020 22 10000 1.34 135 15:36 17.08.2021
6183 Clear 29 1021 26 10000 1.79 315 14:28 17.08.2021
6184 Clear 23 1022 37 10000 2.68 68 11:48 17.08.2021
6185 Clear 19 1022 43 10000 4.47 45 09:21 17.08.2021
6186 Clear 17 1008 47 10000 2.24 45 07:45 17.08.2021
6187 Clear 24 1021 37 10000 3.58 68 01:20 17.08.2021
6188 Clear 28 1019 22 10000 6.71 68 22:55 16.08.2021
6189 Clear 29 1019 23 10000 4.92 45 22:36 16.08.2021
6190 Clear 30 1018 23 10000 4.47 23 21:53 16.08.2021
6191 Clear 33 1017 18 10000 5.36 45 20:54 16.08.2021
6192 Clear 35 1017 16 10000 1.34 181 19:45 16.08.2021
6193 Clear 35 1017 15 10000 0.89 90 19:22 16.08.2021
6194 Clear 36 1006 15 10000 0.45 315 18:23 16.08.2021
6195 Clear 36 1007 15 10000 1.34 248 17:51 16.08.2021
6196 Clear 35 1007 15 10000 2.24 23 15:40 16.08.2021
6197 Clear 34 1019 17 10000 2.24 315 14:49 16.08.2021
6198 Clear 32 1020 22 10000 3.13 113 13:37 16.08.2021
6199 Clear 31 1020 26 10000 3.13 45 12:41 16.08.2021
6200 Clear 26 1020 39 10000 2.24 45 10:37 16.08.2021
6201 Clear 23 1019 36 10000 2.24 23 08:48 16.08.2021
6202 Clear 22 1019 38 10000 1.34 23 07:34 16.08.2021
6203 Clear 23 1018 34 10000 2.68 23 06:36 16.08.2021
6204 Clear 28 1019 17 10000 0.45 23 02:19 16.08.2021
6205 Clear 32 1018 13 10000 0.89 248 22:49 15.08.2021
6206 Clear 37 1017 11 10000 1.34 248 20:41 15.08.2021
6207 Clear 40 1017 10 10000 4.92 203 18:47 15.08.2021
6208 Clear 40 1017 11 10000 4.47 225 17:56 15.08.2021
6209 Clear 40 1017 12 10000 5.36 225 17:33 15.08.2021
6210 Clear 40 1005 13 10000 6.71 248 16:24 15.08.2021
6211 Clear 38 1003 17 10000 5.36 225 14:47 15.08.2021
6212 Clear 37 1019 19 10000 2.24 203 13:55 15.08.2021
6213 Clear 31 1020 29 10000 0.89 113 11:22 15.08.2021
6214 Clear 26 1020 37 10000 1.34 45 08:59 15.08.2021
6215 Clear 28 1003 32 10000 0.45 45 03:23 15.08.2021
6216 Clear 31 1021 26 10000 0.89 68 00:38 15.08.2021
6217 Clear 35 1020 20 10000 1.34 181 22:18 14.08.2021
6218 Clear 38 1019 17 10000 2.24 68 20:58 14.08.2021
6219 Clear 40 1019 15 10000 0.89 0 19:44 14.08.2021
6220 Clear 41 1019 14 10000 4.92 248 18:40 14.08.2021
6221 Clear 41 1020 14 10000 4.92 248 16:59 14.08.2021
6222 Clear 40 1021 17 10000 2.68 158 15:48 14.08.2021
6223 Clear 38 1011 21 10000 1.34 158 14:25 14.08.2021
6224 Clear 34 1023 25 10000 0.45 23 12:19 14.08.2021
6225 Clear 31 1022 30 10000 1.79 113 10:45 14.08.2021
6226 Clear 27 1022 34 10000 0.89 45 07:40 14.08.2021
6227 Clear 34 1007 22 10000 0.45 315 23:53 13.08.2021
6228 Clear 35 1021 21 10000 1.34 270 22:27 13.08.2021
6229 Clear 39 1021 15 10000 2.68 248 20:31 13.08.2021
6230 Clear 41 1021 14 10000 2.24 270 18:47 13.08.2021
6231 Clear 40 1021 15 10000 2.24 225 17:43 13.08.2021
6232 Clear 39 1022 17 10000 3.13 248 16:24 13.08.2021
6233 Clear 36 1024 21 10000 0.89 90 13:30 13.08.2021
6234 Clear 31 1024 24 10000 0.89 90 11:20 13.08.2021
6235 Clear 26 1023 31 10000 1.79 90 09:41 13.08.2021
6236 Clear 24 1022 33 10000 2.24 45 08:36 13.08.2021
6237 Clear 24 1022 33 10000 2.68 23 07:19 13.08.2021
6238 Clear 26 1022 28 10000 0.89 68 04:59 13.08.2021
6239 Clear 30 1006 22 10000 1.34 293 23:37 12.08.2021
6240 Clear 35 1020 15 10000 2.24 248 21:20 12.08.2021
6241 Clear 36 1020 14 10000 1.79 225 20:22 12.08.2021
6242 Clear 37 1020 13 10000 3.13 203 19:45 12.08.2021
6243 Clear 37 1020 16 10000 5.36 203 17:51 12.08.2021
6244 Clear 36 1020 18 10000 3.58 248 16:29 12.08.2021
6245 Clear 36 1020 18 10000 3.58 248 16:29 12.08.2021
6246 Clear 35 1008 28 10000 2.68 203 14:52 12.08.2021
6247 Clear 31 1021 37 10000 1.34 180 12:59 12.08.2021
6248 Clear 28 1021 46 10000 2.68 135 10:49 12.08.2021
6249 Clear 23 1019 58 10000 3.13 68 07:56 12.08.2021
6250 Clear 28 1004 37 10000 1.79 68 01:51 12.08.2021
6251 Clear 31 1018 32 10000 2.68 158 22:54 11.08.2021
6252 Clear 37 1016 24 10000 3.09 250 20:45 11.08.2021
6253 Clear 38 1016 22 10000 3.13 270 18:28 11.08.2021
6254 Clear 36 1018 25 10000 3.13 270 15:39 11.08.2021
6255 Clear 36 1018 27 10000 2.24 248 15:20 11.08.2021
6256 Clear 35 1018 30 10000 1.34 135 14:22 11.08.2021
6257 Clear 31 1019 38 10000 2.68 113 12:30 11.08.2021
6258 Clear 30 1019 39 10000 0.89 113 11:46 11.08.2021
6259 Clear 29 1019 43 10000 1.34 158 11:22 11.08.2021
6260 Clear 27 1019 52 10000 1.34 68 09:59 11.08.2021
6261 Clear 24 1019 52 10000 0.89 68 07:59 11.08.2021
6262 Clear 30 1002 38 10000 0.45 225 23:42 10.08.2021
6263 Clear 31 1016 35 10000 0.89 225 22:32 10.08.2021
6264 Clear 33 1016 32 10000 2.24 203 21:19 10.08.2021
6265 Clear 34 1015 31 10000 1.79 248 19:52 10.08.2021
6266 Clear 35 1016 31 10000 1.79 135 18:39 10.08.2021
6267 Clear 34 1017 33 10000 3.58 158 16:41 10.08.2021
6268 Clear 32 1018 39 10000 1.34 113 14:53 10.08.2021
6269 Clear 29 1018 48 10000 2.68 113 12:26 10.08.2021
6270 Clear 25 1018 58 10000 2.24 68 10:38 10.08.2021
6271 Clear 22 1017 68 10000 1.79 113 06:55 10.08.2021
6272 Clear 23 1018 65 10000 1.79 135 04:58 10.08.2021
6273 Clear 28 999 42 9000 1.34 158 23:43 09.08.2021
6274 Clear 31 1016 28 10000 0.89 315 21:55 09.08.2021
6275 Clear 31 1016 27 10000 0.45 180 21:36 09.08.2021
6276 Clear 33 1016 24 10000 2.68 270 19:37 09.08.2021
6277 Clear 33 1016 24 10000 2.24 0 17:54 09.08.2021
6278 Clear 31 1017 29 10000 1.79 270 15:35 09.08.2021
6279 Clear 30 1018 33 10000 3.13 203 14:25 09.08.2021
6280 Clear 28 1019 44 10000 2.24 270 13:28 09.08.2021
6281 Clouds 25 1018 62 10000 1.34 113 11:47 09.08.2021
6282 Clouds 21 1018 77 10000 2.24 113 08:31 09.08.2021
6283 Clear 21 1016 78 10000 1.79 158 03:37 09.08.2021
6284 Clear 28 1002 21 10000 2.24 270 21:28 08.08.2021
6285 Clear 30 1014 18 10000 1.79 281 19:51 08.08.2021
6286 Clear 30 1015 20 10000 1.79 225 16:55 08.08.2021
6287 Clear 29 1016 22 10000 1.34 158 15:43 08.08.2021
6288 Clear 27 1016 27 10000 1.79 135 13:53 08.08.2021
6289 Clear 23 1006 42 10000 1.34 23 11:41 08.08.2021
6290 Clear 17 1016 51 10000 3.58 23 08:21 08.08.2021
6291 Clear 17 1015 45 10000 2.24 68 06:40 08.08.2021
6292 Clear 23 1014 30 10000 0.45 315 00:43 08.08.2021
6293 Clear 23 1014 30 10000 1.79 293 00:24 08.08.2021
6294 Clear 26 999 26 10000 1.79 315 21:42 07.08.2021
6295 Clear 27 1012 25 10000 1.34 315 20:55 07.08.2021
6296 Clear 29 1011 26 10000 5.81 293 17:57 07.08.2021
6297 Clear 29 1011 26 10000 4.92 293 16:50 07.08.2021
6298 Clear 28 1011 27 10000 5.81 270 15:28 07.08.2021
6299 Clear 26 1011 30 10000 2.68 270 13:33 07.08.2021
6300 Clear 22 1000 42 10000 2.24 293 10:27 07.08.2021
6301 Clear 19 1009 44 10000 3.58 248 06:31 07.08.2021
6302 Clear 24 1010 27 10000 1.79 270 01:51 07.08.2021
6303 Clear 28 997 21 10000 4.92 248 22:19 06.08.2021
6304 Clear 31 1009 17 10000 5.36 225 20:34 06.08.2021
6305 Clear 32 1009 15 10000 3.58 248 19:57 06.08.2021
6306 Clear 32 1009 13 10000 5.81 248 18:45 06.08.2021
6307 Clear 32 1010 14 10000 3.58 225 17:23 06.08.2021
6308 Clear 25 1013 45 10000 1.34 225 10:53 06.08.2021
6309 Clear 23 1014 48 10000 1.34 248 09:56 06.08.2021
6310 Clear 21 1013 49 10000 1.34 248 07:47 06.08.2021
6311 Clear 28 1003 28 10000 4.02 293 23:33 05.08.2021
6312 Clear 30 1002 26 10000 3.13 315 22:28 05.08.2021
6313 Clear 33 1003 21 10000 3.13 293 20:44 05.08.2021
6314 Clear 34 1014 19 10000 5.36 293 19:25 05.08.2021
6315 Clear 34 1015 19 10000 2.24 270 16:53 05.08.2021
6316 Clear 31 1017 22 10000 3.58 203 14:49 05.08.2021
6317 Clear 27 1018 32 10000 2.68 225 11:34 05.08.2021
6318 Clear 21 1007 44 10000 0.45 293 08:38 05.08.2021
6319 Clear 22 1018 37 9000 0.89 293 04:51 05.08.2021
6320 Clear 26 1006 32 10000 1.34 315 23:36 04.08.2021
6321 Clear 28 1004 28 10000 2.68 293 21:44 04.08.2021
6322 Clear 29 1004 26 10000 2.24 315 21:21 04.08.2021
6323 Clear 31 1017 24 10000 4.92 315 18:22 04.08.2021
6324 Clouds 30 1017 29 10000 4.02 248 16:42 04.08.2021
6325 Clouds 28 1017 38 10000 4.92 293 14:43 04.08.2021
6326 Clear 25 1018 47 10000 1.34 90 11:34 04.08.2021
6327 Clear 23 1016 46 10000 4.02 293 04:55 04.08.2021
6328 Clear 30 1004 26 10000 1.79 248 20:35 03.08.2021
6329 Clear 31 1004 27 10000 1.79 225 19:59 03.08.2021
6330 Clear 31 1015 24 10000 2.68 203 17:50 03.08.2021
6331 Clear 30 1016 25 10000 2.68 225 16:23 03.08.2021
6332 Clear 24 1019 54 10000 1.34 315 12:20 03.08.2021
6333 Clear 22 1019 62 10000 0.45 158 10:39 03.08.2021
6334 Clear 18 1018 66 10000 1.79 45 06:46 03.08.2021
6335 Clouds 28 1015 24 10000 4.92 248 17:48 02.08.2021
6336 Clouds 28 1016 26 10000 1.79 180 16:38 02.08.2021
6337 Clouds 28 1016 29 10000 3.58 203 15:25 02.08.2021
6338 Clear 23 1017 50 10000 2.24 90 11:59 02.08.2021
6339 Clear 22 1018 54 10000 0.45 113 11:34 02.08.2021
6340 Clear 19 1005 54 10000 2.68 45 09:49 02.08.2021
6341 Clear 23 1016 30 10000 1.34 45 22:45 01.08.2021
6342 Clear 27 1015 25 10000 1.34 0 18:19 01.08.2021
6343 Clouds 24 1017 34 10000 1.79 248 15:29 01.08.2021
6344 Clear 18 1019 52 10000 1.34 45 11:38 01.08.2021
6345 Clear 15 1019 64 10000 1.79 68 09:25 01.08.2021
6346 Clear 15 1017 74 10000 2.24 113 03:48 01.08.2021
6347 Clear 19 1016 54 10000 3.58 45 22:52 31.07.2021
6348 Clear 22 1015 39 10000 4.02 293 20:52 31.07.2021
6349 Clear 24 1003 42 10000 6.71 315 17:49 31.07.2021
6350 Clouds 25 1013 40 10000 1.79 113 16:36 31.07.2021
6351 Clear 24 1013 46 10000 3.58 315 12:38 31.07.2021
6352 Clear 19 1013 57 10000 2.24 248 08:34 31.07.2021
6353 Clear 19 1013 57 10000 2.24 248 08:34 31.07.2021
6354 Clear 25 1013 29 10000 3.58 270 01:39 31.07.2021
6355 Clear 32 1001 23 10000 2.68 248 20:31 30.07.2021
6356 Clear 33 1001 22 10000 6.26 270 19:23 30.07.2021
6357 Clear 23 1002 45 10000 0.89 248 08:31 30.07.2021
6358 Clear 34 1014 23 10000 2.68 248 17:33 29.07.2021
6359 Clear 22 1001 70 9000 2.24 113 06:32 29.07.2021
6360 Clear 24 1015 62 10000 1.34 135 04:29 29.07.2021
6361 Clear 33 1013 24 10000 2.24 248 21:22 28.07.2021
6362 Clear 34 1014 23 10000 4.02 225 17:22 28.07.2021
6363 Clear 33 1015 25 10000 4.92 248 15:25 28.07.2021
6364 Clear 21 1002 55 10000 2.68 68 08:24 28.07.2021
6365 Clear 28 1013 35 10000 0.89 270 23:31 27.07.2021
6366 Clear 31 1013 28 10000 2.68 248 21:28 27.07.2021
6367 Clear 30 1015 33 10000 5.81 203 14:53 27.07.2021
6368 Clear 24 1017 58 10000 1.34 180 11:19 27.07.2021
6369 Clear 21 1004 67 10000 1.34 68 08:57 27.07.2021
6370 Clear 29 1004 34 10000 0.89 0 17:54 26.07.2021
6371 Clouds 28 1016 36 10000 2.68 68 15:31 26.07.2021
6372 Clear 18 1014 85 10000 2.06 360 04:52 26.07.2021
6373 Clear 29 1011 21 10000 4.02 270 20:56 25.07.2021
6374 Clear 31 1011 19 10000 4.92 248 18:25 25.07.2021
6375 Clear 29 1001 23 10000 0.89 225 15:46 25.07.2021
6376 Clear 23 1014 37 10000 0.89 68 10:56 25.07.2021
6377 Clear 19 1014 45 10000 1.34 23 08:19 25.07.2021
6378 Clear 28 1013 20 10000 4.47 315 21:37 24.07.2021
6379 Clear 30 1012 20 10000 2.24 293 20:19 24.07.2021
6380 Clear 28 1013 22 10000 4.02 225 14:37 24.07.2021
6381 Clear 20 1014 43 10000 4.02 270 04:20 24.07.2021
6382 Clear 31 1015 18 10000 4.02 248 14:38 23.07.2021
6383 Clear 30 1015 19 10000 2.68 225 12:41 23.07.2021
6384 Clear 25 999 30 10000 0.89 135 04:48 23.07.2021
6385 Clear 36 1016 14 10000 3.58 225 19:26 22.07.2021
6386 Clear 28 1020 37 10000 0.45 90 11:21 22.07.2021
6387 Clear 24 1020 43 10000 1.34 90 08:38 22.07.2021
6388 Clear 26 1018 35 10000 3.13 135 03:22 22.07.2021
6389 Clear 34 1018 17 10000 0.89 135 21:45 21.07.2021
6390 Clear 34 1017 16 10000 1.34 180 21:27 21.07.2021
6391 Clear 32 1020 26 10000 2.24 158 13:23 21.07.2021
6392 Clear 24 1020 46 10000 1.34 90 09:24 21.07.2021
6393 Clear 22 1007 47 10000 1.79 68 07:25 21.07.2021
6394 Clear 29 1017 23 10000 2.24 293 23:28 20.07.2021
6395 Clear 34 1016 20 10000 2.68 225 16:37 20.07.2021
6396 Clear 34 1016 19 10000 3.58 203 16:00 20.07.2021
6397 Clear 34 1016 19 10000 5.36 248 15:24 20.07.2021
6398 Clear 26 1016 39 10000 1.34 23 10:21 20.07.2021
6399 Clear 24 1015 29 9000 1.34 45 04:48 20.07.2021
6400 Clear 31 1013 19 10000 1.79 338 22:25 19.07.2021
6401 Clear 29 1015 36 10000 1.79 45 12:53 19.07.2021
6402 Clear 25 1005 45 10000 2.68 0 10:29 19.07.2021
6403 Clear 35 1003 14 10000 4.02 270 19:38 18.07.2021
6404 Clear 33 1016 19 10000 1.79 293 13:49 18.07.2021
6405 Clear 26 1018 40 10000 0.89 135 10:18 18.07.2021
6406 Clear 33 1016 18 10000 3.13 23 22:25 17.07.2021
6407 Clear 34 1016 18 10000 1.79 338 21:45 17.07.2021
6408 Clear 35 1016 17 10000 1.34 315 21:23 17.07.2021
6409 Clear 31 1020 28 10000 0.89 158 12:27 17.07.2021
6410 Clear 23 1020 39 10000 1.79 45 08:55 17.07.2021
6411 Clear 26 1019 28 10000 2.68 45 02:46 17.07.2021
6412 Clear 29 1021 35 10000 1.34 113 13:22 16.07.2021
6413 Clear 19 1010 53 10000 2.24 68 07:32 16.07.2021
6414 Clear 26 1019 29 10000 0.45 135 00:41 16.07.2021
6415 Clear 26 1020 36 10000 1.34 90 13:53 15.07.2021
6416 Clear 23 1021 43 10000 2.24 90 11:50 15.07.2021
6417 Clear 16 1006 59 10000 2.68 45 07:27 15.07.2021
6418 Clear 28 1019 23 10000 0.45 225 19:39 14.07.2021
6419 Clear 26 1021 27 10000 1.79 113 15:55 14.07.2021
6420 Clear 17 1012 55 10000 4.02 23 09:52 14.07.2021
6421 Clear 22 1021 33 10000 2.68 68 23:19 13.07.2021
6422 Clear 27 1008 24 10000 0.89 293 19:57 13.07.2021
6423 Clear 27 1008 24 10000 0.45 203 19:28 13.07.2021
6424 Clear 26 1008 25 10000 2.24 158 18:49 13.07.2021
6425 Clear 26 1020 24 10000 3.13 203 18:31 13.07.2021
6426 Clear 26 1020 25 10000 2.24 135 17:56 13.07.2021
6427 Clear 21 1022 35 10000 1.34 164 13:21 13.07.2021
6428 Clear 21 1022 34 10000 1.34 158 13:21 13.07.2021
6429 Clear 16 1011 50 10000 3.58 68 08:50 13.07.2021
6430 Clear 25 1004 25 10000 3.13 315 20:24 12.07.2021
6431 Clear 26 1016 22 10000 4.02 270 16:46 12.07.2021
6432 Clear 24 1016 32 10000 4.47 279 12:21 12.07.2021
6433 Clear 24 1016 32 10000 4.47 279 12:21 12.07.2021
6434 Clear 24 1016 32 10000 4.47 279 12:21 12.07.2021
6435 Clear 24 1016 32 10000 4.47 279 12:21 12.07.2021
6436 Clear 32 1014 26 10000 5.36 248 23:20 11.07.2021
6437 Clear 37 998 25 9000 4.02 248 19:56 11.07.2021
6438 Clear 29 1017 31 10000 0.89 203 11:32 11.07.2021
6439 Clear 31 1004 25 10000 1.34 270 22:58 10.07.2021
6440 Clear 29 1020 40 10000 0.89 158 12:37 10.07.2021
6441 Clear 21 1019 56 10000 1.34 113 07:49 10.07.2021
6442 Clear 26 1007 36 10000 2.24 158 01:23 10.07.2021
6443 Clear 33 1008 24 10000 3.13 113 18:20 09.07.2021
6444 Clear 30 1011 40 10000 1.79 203 14:49 09.07.2021
6445 Clear 19 1023 53 10000 1.79 68 08:41 09.07.2021
6446 Clear 24 1010 31 10000 0.45 86 23:51 08.07.2021
6447 Clear 25 1010 28 10000 0.89 113 22:35 08.07.2021
6448 Clear 29 1022 23 10000 0.89 180 18:56 08.07.2021
6449 Clear 28 1012 24 10000 1.34 113 17:42 08.07.2021
6450 Clear 24 1013 34 10000 1.79 0 13:31 08.07.2021
6451 Clear 23 1014 39 10000 4.47 23 12:43 08.07.2021
6452 Clear 20 1025 45 10000 2.68 0 11:32 08.07.2021
6453 Clear 18 1012 55 10000 2.24 90 09:52 08.07.2021
6454 Clear 16 1022 58 10000 2.68 45 04:42 08.07.2021
6455 Clear 20 1022 38 10000 0.89 45 00:47 08.07.2021
6456 Clear 21 1021 34 10000 2.24 315 22:56 07.07.2021
6457 Clear 22 1020 32 10000 2.24 338 22:18 07.07.2021
6458 Clear 23 1007 30 10000 2.24 315 21:41 07.07.2021
6459 Clear 24 1007 30 10000 4.92 293 21:22 07.07.2021
6460 Clear 25 1019 28 10000 4.02 293 19:56 07.07.2021
6461 Clear 25 1019 27 10000 5.36 293 19:28 07.07.2021
6462 Clear 26 1007 27 10000 4.02 270 17:36 07.07.2021
6463 Clouds 24 1018 31 10000 1.79 225 15:28 07.07.2021
6464 Clear 21 1019 43 10000 0.89 225 12:24 07.07.2021
6465 Clear 21 1019 43 10000 0.89 225 12:24 07.07.2021
6466 Clear 21 1019 41 10000 0.45 180 12:24 07.07.2021
6467 Clear 14 1005 74 10000 0.89 90 07:56 07.07.2021
6468 Clear 14 1017 72 10000 0.45 139 06:18 07.07.2021
6469 Clear 14 1002 73 10000 0.45 23 05:41 07.07.2021
6470 Rain 20 1001 64 10000 3.58 248 20:58 06.07.2021
6471 Rain 20 1016 60 10000 3.58 248 19:29 06.07.2021
6472 Rain 20 1016 63 10000 3.58 270 18:46 06.07.2021
6473 Rain 21 1016 63 10000 2.24 270 18:24 06.07.2021
6474 Clouds 20 1016 69 10000 1.79 248 13:45 06.07.2021
6475 Clear 20 997 65 10000 0.89 225 10:57 06.07.2021
6476 Clear 20 1000 63 10000 4.92 248 09:41 06.07.2021
6477 Clear 19 1014 62 10000 4.92 248 08:32 06.07.2021
6478 Clear 20 999 58 10000 3.58 248 06:30 06.07.2021
6479 Clear 20 999 58 10000 3.58 248 06:30 06.07.2021
6480 Clear 25 1002 38 10000 3.13 270 00:59 06.07.2021
6481 Clear 28 1001 31 10000 4.02 248 22:39 05.07.2021
6482 Clear 33 1002 24 10000 7.6 248 18:35 05.07.2021
6483 Clear 30 1015 33 10000 2.24 225 14:29 05.07.2021
6484 Clear 30 1015 32 10000 2.24 225 14:29 05.07.2021
6485 Clear 20 1003 62 10000 0.89 248 07:21 05.07.2021
6486 Clear 21 1003 57 10000 0.89 173 05:45 05.07.2021
6487 Clear 22 1006 55 10000 0.45 180 04:40 05.07.2021
6488 Clear 27 1006 37 10000 2.24 293 23:18 04.07.2021
6489 Clear 31 1006 25 10000 6.26 203 18:52 04.07.2021
6490 Clear 31 1006 25 10000 4.02 270 16:31 04.07.2021
6491 Clear 25 1006 38 10000 0.45 225 11:50 04.07.2021
6492 Clear 21 1005 56 10000 1.34 270 09:24 04.07.2021
6493 Clear 26 1005 42 10000 4.02 270 23:33 03.07.2021
6494 Clear 27 1004 41 10000 3.58 270 22:40 03.07.2021
6495 Clear 27 1004 41 10000 3.58 270 22:40 03.07.2021
6496 Clear 30 1007 28 10000 2.24 225 14:39 03.07.2021
6497 Clear 27 1008 32 10000 1.34 158 12:38 03.07.2021
6498 Clear 23 1019 42 10000 0.89 195 09:29 03.07.2021
6499 Clear 22 1018 42 10000 1.34 190 08:46 03.07.2021
6500 Clear 21 1006 41 10000 2.68 248 05:43 03.07.2021
6501 Clear 33 1017 15 10000 4.92 225 17:21 02.07.2021
6502 Clear 20 1006 38 10000 1.34 89 07:41 02.07.2021
6503 Clear 21 1006 33 10000 1.34 197 05:44 02.07.2021
6504 Clear 28 1005 19 10000 1.34 293 22:55 01.07.2021
6505 Clear 30 1017 17 10000 3.58 248 21:55 01.07.2021
6506 Clear 32 1004 15 10000 3.58 248 21:20 01.07.2021
6507 Clear 32 1006 14 10000 4.47 225 19:36 01.07.2021
6508 Clear 33 1006 15 10000 3.13 225 19:18 01.07.2021
6509 Clear 32 1006 15 10000 5.36 248 18:33 01.07.2021
6510 Clear 32 1006 16 10000 7.15 248 17:18 01.07.2021
6511 Clear 31 1007 20 10000 4.02 203 15:31 01.07.2021
6512 Clear 30 1008 22 10000 0.89 203 14:24 01.07.2021
6513 Clear 25 1019 47 10000 1.03 100 10:56 01.07.2021
6514 Clear 19 1008 51 10000 0.89 193 07:36 01.07.2021
6515 Clear 26 1017 22 10000 2.24 270 23:23 30.06.2021
6516 Clear 28 1004 22 10000 2.24 248 22:20 30.06.2021
6517 Clear 31 1004 18 10000 3.58 248 21:23 30.06.2021
6518 Clear 31 1005 17 10000 3.58 248 20:28 30.06.2021
6519 Clear 32 1005 16 10000 5.36 248 19:19 30.06.2021
6520 Clear 29 1006 26 10000 1.34 225 14:31 30.06.2021
6521 Clear 27 1018 34 10000 1.79 135 13:24 30.06.2021
6522 Clear 18 1018 59 10000 0.89 68 08:24 30.06.2021
6523 Clear 28 1016 23 10000 1.34 228 21:50 29.06.2021
6524 Clear 29 1016 21 10000 0.89 248 18:45 29.06.2021
6525 Clear 29 1006 22 10000 1.34 113 17:43 29.06.2021
6526 Clear 29 1006 22 10000 1.34 113 17:43 29.06.2021
6527 Clear 28 1006 23 10000 1.79 203 16:59 29.06.2021
6528 Clear 27 1017 25 10000 0.45 338 15:50 29.06.2021
6529 Clear 26 1018 28 10000 1.34 225 14:54 29.06.2021
6530 Clear 25 1019 33 10000 1.34 204 13:19 29.06.2021
6531 Clear 20 1007 39 10000 0.89 35 00:41 29.06.2021
6532 Clear 24 1005 29 10000 3.13 315 21:48 28.06.2021
6533 Clear 26 1006 25 10000 3.58 293 19:53 28.06.2021
6534 Clear 27 1006 21 10000 6.26 270 17:32 28.06.2021
6535 Clear 25 1017 24 10000 2.24 158 15:23 28.06.2021
6536 Clear 24 1007 26 10000 0.45 337 14:24 28.06.2021
6537 Clear 20 1017 38 10000 0.45 135 10:50 28.06.2021
6538 Clear 22 1003 36 9000 4.02 293 23:47 27.06.2021
6539 Clear 25 1014 33 10000 4.02 293 21:54 27.06.2021
6540 Clear 28 1003 24 10000 8.05 248 19:43 27.06.2021
6541 Clear 29 1003 21 10000 8.05 248 16:55 27.06.2021
6542 Clear 27 1004 20 10000 4.92 225 14:30 27.06.2021
6543 Clear 21 1004 36 10000 0.89 248 09:33 27.06.2021
6544 Clear 25 1003 34 10000 0.89 270 23:57 26.06.2021
6545 Clear 29 1014 26 10000 4.92 293 21:24 26.06.2021
6546 Clear 30 1002 26 10000 4.92 270 20:44 26.06.2021
6547 Clouds 31 1003 26 10000 1.79 225 19:25 26.06.2021
6548 Clouds 31 1005 27 10000 5.36 225 15:39 26.06.2021
6549 Clear 30 1006 33 10000 2.68 248 13:52 26.06.2021
6550 Clear 23 1018 51 10000 2.24 90 09:58 26.06.2021
6551 Clear 20 1006 56 10000 0.89 23 06:23 26.06.2021
6552 Clear 30 1017 27 10000 3.13 248 21:23 25.06.2021
6553 Clouds 30 1006 26 10000 4.02 248 20:20 25.06.2021
6554 Clouds 31 1007 28 10000 2.68 225 17:58 25.06.2021
6555 Clouds 30 1008 29 10000 3.13 203 16:57 25.06.2021
6556 Clouds 29 1019 31 10000 1.34 180 15:51 25.06.2021
6557 Clear 26 1021 42 10000 2.24 158 13:27 25.06.2021
6558 Clear 20 1009 58 10000 1.34 23 09:36 25.06.2021
6559 Clear 17 1007 64 10000 1.79 23 07:22 25.06.2021
6560 Clear 18 1022 51 10000 1.79 23 03:56 25.06.2021
6561 Clear 24 1021 35 10000 1.34 338 22:52 24.06.2021
6562 Clear 27 1020 29 10000 0.45 96 21:48 24.06.2021
6563 Clear 27 1020 27 10000 0.45 248 20:41 24.06.2021
6564 Clear 28 1020 27 10000 1.34 248 19:35 24.06.2021
6565 Clouds 27 1021 30 10000 1.79 135 16:53 24.06.2021
6566 Clouds 25 1022 33 10000 2.68 270 15:22 24.06.2021
6567 Clouds 25 1022 36 10000 1.79 90 14:50 24.06.2021
6568 Clear 21 1022 51 10000 0.89 113 12:25 24.06.2021
6569 Clouds 16 1022 59 10000 1.34 68 09:36 24.06.2021
6570 Clouds 14 1022 65 10000 5.36 68 08:25 24.06.2021
6571 Clear 14 1007 68 10000 4.02 45 05:50 24.06.2021
6572 Clear 19 1008 42 10000 4.47 23 23:31 23.06.2021
6573 Clear 21 1019 38 10000 2.68 45 21:47 23.06.2021
6574 Clear 22 1019 36 10000 3.58 45 20:55 23.06.2021
6575 Clouds 23 1018 35 10000 2.24 23 19:22 23.06.2021
6576 Clouds 23 1018 35 10000 2.68 0 18:27 23.06.2021
6577 Clouds 22 1019 38 10000 1.79 45 16:51 23.06.2021
6578 Clouds 21 1009 45 10000 1.34 45 14:30 23.06.2021
6579 Clouds 21 1009 45 10000 1.34 45 14:30 23.06.2021
6580 Clouds 19 1019 53 10000 0.89 113 12:29 23.06.2021
6581 Clear 18 1019 61 10000 2.24 113 10:40 23.06.2021
6582 Clouds 15 1019 73 10000 2.24 45 08:54 23.06.2021
6583 Clouds 15 1019 74 10000 3.58 45 08:27 23.06.2021
6584 Clouds 14 1019 75 10000 2.68 68 07:48 23.06.2021
6585 Clear 15 1004 80 10000 1.34 45 04:34 23.06.2021
6586 Clear 15 1019 79 10000 2.24 45 00:47 23.06.2021
6587 Clear 15 1019 77 10000 1.34 169 23:58 22.06.2021
6588 Clear 16 1018 78 10000 0.45 293 22:47 22.06.2021
6589 Clouds 16 1018 78 10000 0.89 293 22:29 22.06.2021
6590 Clouds 16 1004 77 10000 1.34 0 21:39 22.06.2021
6591 Rain 17 1003 74 10000 6.71 270 19:57 22.06.2021
6592 Clouds 19 1016 59 10000 4.02 279 18:57 22.06.2021
6593 Clouds 20 1016 51 10000 4.47 315 18:26 22.06.2021
6594 Clouds 21 1017 46 10000 2.24 248 17:22 22.06.2021
6595 Clouds 20 1017 47 10000 1.79 248 16:38 22.06.2021
6596 Clouds 20 1016 44 10000 0.45 308 14:44 22.06.2021
6597 Clouds 20 1016 45 10000 1.34 315 14:21 22.06.2021
6598 Clouds 20 1017 48 10000 1.34 113 12:59 22.06.2021
6599 Clear 20 1017 52 10000 0.45 203 11:51 22.06.2021
6600 Clear 18 1016 58 10000 1.34 158 10:31 22.06.2021
6601 Clouds 16 1003 65 10000 1.34 270 07:56 22.06.2021
6602 Clear 17 1015 61 10000 2.68 270 00:50 22.06.2021
6603 Clear 18 1001 57 10000 2.68 248 23:29 21.06.2021
6604 Clear 19 1001 53 10000 3.58 270 22:27 21.06.2021
6605 Clear 20 1014 43 10000 3.58 293 21:23 21.06.2021
6606 Clouds 21 1013 41 10000 5.36 293 20:46 21.06.2021
6607 Clouds 21 1013 43 10000 4.02 248 19:55 21.06.2021
6608 Clouds 21 1013 44 10000 4.47 248 18:57 21.06.2021
6609 Clouds 21 1013 41 10000 4.92 270 17:26 21.06.2021
6610 Clouds 21 1013 42 10000 6.71 203 16:44 21.06.2021
6611 Clouds 21 1013 42 10000 3.13 225 16:23 21.06.2021
6612 Clouds 21 1013 44 10000 4.92 270 15:45 21.06.2021
6613 Clouds 20 1002 47 10000 4.92 225 14:18 21.06.2021
6614 Clouds 19 1002 51 10000 3.58 225 13:34 21.06.2021
6615 Clouds 18 1002 55 10000 4.47 248 12:36 21.06.2021
6616 Clouds 17 1001 61 10000 2.68 203 11:49 21.06.2021
6617 Clouds 15 1014 63 10000 4.47 270 10:30 21.06.2021
6618 Clear 14 1013 70 10000 2.68 270 09:29 21.06.2021
6619 Clear 12 1013 74 10000 1.79 180 08:22 21.06.2021
6620 Clear 12 1012 76 10000 2.68 225 07:20 21.06.2021
6621 Clouds 16 1012 82 10000 2.68 225 00:42 21.06.2021
6622 Clouds 16 1013 80 10000 2.24 225 23:35 20.06.2021
6623 Clouds 17 1013 76 10000 3.58 203 22:58 20.06.2021
6624 Clouds 17 1012 73 10000 2.24 248 22:18 20.06.2021
6625 Clouds 18 1012 65 10000 3.58 225 21:28 20.06.2021
6626 Clouds 19 1000 65 10000 6.26 225 19:42 20.06.2021
6627 Clouds 19 1000 65 10000 6.71 203 19:23 20.06.2021
6628 Clouds 19 1013 63 10000 5.36 248 18:21 20.06.2021
6629 Clouds 18 1013 65 10000 4.92 203 16:51 20.06.2021
6630 Clouds 19 1013 60 10000 6.71 225 15:52 20.06.2021
6631 Clouds 19 1001 62 10000 4.47 203 15:32 20.06.2021
6632 Clouds 19 1001 62 10000 6.71 225 14:46 20.06.2021
6633 Clouds 18 1013 64 10000 5.36 203 13:41 20.06.2021
6634 Clouds 17 1013 71 10000 4.12 210 12:57 20.06.2021
6635 Clouds 15 1013 83 10000 5.14 220 11:46 20.06.2021
6636 Rain 16 1013 77 10000 3.58 248 10:40 20.06.2021
6637 Clouds 16 1001 73 10000 4.47 225 09:46 20.06.2021
6638 Clear 15 1013 76 10000 4.02 203 07:42 20.06.2021
6639 Clear 19 1015 54 10000 3.13 293 23:57 19.06.2021
6640 Clear 20 1000 50 10000 2.68 270 22:59 19.06.2021
6641 Clear 22 1015 40 10000 3.58 270 21:54 19.06.2021
6642 Clear 23 1000 40 10000 2.24 270 21:27 19.06.2021
6643 Clear 24 1002 35 10000 1.34 248 18:55 19.06.2021
6644 Clouds 24 1015 34 10000 0.45 180 18:25 19.06.2021
6645 Clouds 24 1002 36 10000 5.81 248 17:27 19.06.2021
6646 Clouds 23 1015 36 10000 0.45 270 16:49 19.06.2021
6647 Clouds 23 1004 39 10000 1.34 180 15:42 19.06.2021
6648 Clouds 21 1017 49 10000 0.45 180 13:36 19.06.2021
6649 Clouds 19 1005 57 10000 0.89 180 12:25 19.06.2021
6650 Clouds 18 1017 63 10000 2.68 248 10:49 19.06.2021
6651 Clouds 18 1017 64 10000 1.34 270 10:49 19.06.2021
6652 Clouds 18 1017 64 10000 1.34 270 10:49 19.06.2021
6653 Clouds 18 1017 63 10000 2.68 248 10:49 19.06.2021
6654 Clouds 18 1017 63 10000 1.79 162 10:27 19.06.2021
6655 Clouds 17 1017 68 10000 0.45 270 09:59 19.06.2021